<?xml version="1.0" encoding="UTF-8" standalone="no" ?>
<gpx xmlns="http://www.topografix.com/GPX/1/1" xmlns:xsi="http://www.w3.org/2001/XMLSchema-instance" xsi:schemaLocation="http://www.topografix.com/GPX/1/1 http://www.topografix.com/GPX/1/1/gpx.xsd" version="1.1" creator="VisuGPX - https://www.visugpx.com">
  <metadata>
    <name>BOUCLE VALORCINE</name>
    <desc><![CDATA[BOUCL VALORCINE EMOSSON LE MOLARD ]]></desc>
  </metadata>
  <trk>
    <name><![CDATA[Tracedetrail_780 on GPSies.com]]></name>
    <trkseg>
      <trkpt lat="46.03246" lon="6.93242">
        <ele>1265</ele>
        <time>2010-01-01T00:00:00Z</time>
      </trkpt>
      <trkpt lat="46.03257" lon="6.9325">
        <ele>1259.7</ele>
        <time>2010-01-01T00:00:04Z</time>
      </trkpt>
      <trkpt lat="46.03271" lon="6.93252">
        <ele>1267</ele>
        <time>2010-01-01T00:00:10Z</time>
      </trkpt>
      <trkpt lat="46.0328" lon="6.9324">
        <ele>1258.9</ele>
        <time>2010-01-01T00:00:15Z</time>
      </trkpt>
      <trkpt lat="46.03305" lon="6.93216">
        <ele>1269</ele>
        <time>2010-01-01T00:00:27Z</time>
      </trkpt>
      <trkpt lat="46.03316" lon="6.93202">
        <ele>1259.1</ele>
        <time>2010-01-01T00:00:33Z</time>
      </trkpt>
      <trkpt lat="46.03333" lon="6.93184">
        <ele>1271</ele>
        <time>2010-01-01T00:00:41Z</time>
      </trkpt>
      <trkpt lat="46.0335" lon="6.93172">
        <ele>1271.5</ele>
        <time>2010-01-01T00:00:49Z</time>
      </trkpt>
      <trkpt lat="46.03358" lon="6.93175">
        <ele>1265.4</ele>
        <time>2010-01-01T00:00:52Z</time>
      </trkpt>
      <trkpt lat="46.03371" lon="6.93186">
        <ele>1270.2</ele>
        <time>2010-01-01T00:00:58Z</time>
      </trkpt>
      <trkpt lat="46.03393" lon="6.9321">
        <ele>1269</ele>
        <time>2010-01-01T00:01:09Z</time>
      </trkpt>
      <trkpt lat="46.03408" lon="6.93232">
        <ele>1268</ele>
        <time>2010-01-01T00:01:18Z</time>
      </trkpt>
      <trkpt lat="46.03423" lon="6.93249">
        <ele>1262.4</ele>
        <time>2010-01-01T00:01:26Z</time>
      </trkpt>
      <trkpt lat="46.03434" lon="6.93265">
        <ele>1262</ele>
        <time>2010-01-01T00:01:32Z</time>
      </trkpt>
      <trkpt lat="46.03451" lon="6.93281">
        <ele>1262</ele>
        <time>2010-01-01T00:01:40Z</time>
      </trkpt>
      <trkpt lat="46.03468" lon="6.93298">
        <ele>1261</ele>
        <time>2010-01-01T00:01:48Z</time>
      </trkpt>
      <trkpt lat="46.03476" lon="6.93309">
        <ele>1257.8</ele>
        <time>2010-01-01T00:01:53Z</time>
      </trkpt>
      <trkpt lat="46.03484" lon="6.93328">
        <ele>1261</ele>
        <time>2010-01-01T00:01:59Z</time>
      </trkpt>
      <trkpt lat="46.03493" lon="6.93332">
        <ele>1256.6</ele>
        <time>2010-01-01T00:02:03Z</time>
      </trkpt>
      <trkpt lat="46.03505" lon="6.93331">
        <ele>1259</ele>
        <time>2010-01-01T00:02:07Z</time>
      </trkpt>
      <trkpt lat="46.03517" lon="6.93332">
        <ele>1257.1</ele>
        <time>2010-01-01T00:02:12Z</time>
      </trkpt>
      <trkpt lat="46.03532" lon="6.93332">
        <ele>1257</ele>
        <time>2010-01-01T00:02:18Z</time>
      </trkpt>
      <trkpt lat="46.03543" lon="6.93335">
        <ele>1257.5</ele>
        <time>2010-01-01T00:02:23Z</time>
      </trkpt>
      <trkpt lat="46.03553" lon="6.9334">
        <ele>1257</ele>
        <time>2010-01-01T00:02:27Z</time>
      </trkpt>
      <trkpt lat="46.03561" lon="6.93344">
        <ele>1257.6</ele>
        <time>2010-01-01T00:02:30Z</time>
      </trkpt>
      <trkpt lat="46.03562" lon="6.93344">
        <ele>1257.6</ele>
        <time>2010-01-01T00:02:31Z</time>
      </trkpt>
      <trkpt lat="46.03566" lon="6.93345">
        <ele>1257.6</ele>
        <time>2010-01-01T00:02:32Z</time>
      </trkpt>
      <trkpt lat="46.03571" lon="6.93349">
        <ele>1257</ele>
        <time>2010-01-01T00:02:35Z</time>
      </trkpt>
      <trkpt lat="46.03576" lon="6.93352">
        <ele>1257.3</ele>
        <time>2010-01-01T00:02:37Z</time>
      </trkpt>
      <trkpt lat="46.0358" lon="6.93358">
        <ele>1257.1</ele>
        <time>2010-01-01T00:02:39Z</time>
      </trkpt>
      <trkpt lat="46.03586" lon="6.93363">
        <ele>1257.1</ele>
        <time>2010-01-01T00:02:42Z</time>
      </trkpt>
      <trkpt lat="46.03593" lon="6.93368">
        <ele>1257</ele>
        <time>2010-01-01T00:02:45Z</time>
      </trkpt>
      <trkpt lat="46.03599" lon="6.93374">
        <ele>1257.6</ele>
        <time>2010-01-01T00:02:48Z</time>
      </trkpt>
      <trkpt lat="46.03606" lon="6.93381">
        <ele>1257.8</ele>
        <time>2010-01-01T00:02:51Z</time>
      </trkpt>
      <trkpt lat="46.03606" lon="6.93382">
        <ele>1257.8</ele>
        <time>2010-01-01T00:02:52Z</time>
      </trkpt>
      <trkpt lat="46.03611" lon="6.93387">
        <ele>1258</ele>
        <time>2010-01-01T00:02:54Z</time>
      </trkpt>
      <trkpt lat="46.03616" lon="6.93391">
        <ele>1258.1</ele>
        <time>2010-01-01T00:02:56Z</time>
      </trkpt>
      <trkpt lat="46.0362" lon="6.93397">
        <ele>1258</ele>
        <time>2010-01-01T00:02:59Z</time>
      </trkpt>
      <trkpt lat="46.03624" lon="6.93402">
        <ele>1258</ele>
        <time>2010-01-01T00:03:01Z</time>
      </trkpt>
      <trkpt lat="46.03628" lon="6.93407">
        <ele>1258</ele>
        <time>2010-01-01T00:03:03Z</time>
      </trkpt>
      <trkpt lat="46.0363" lon="6.93412">
        <ele>1257.8</ele>
        <time>2010-01-01T00:03:04Z</time>
      </trkpt>
      <trkpt lat="46.03635" lon="6.93417">
        <ele>1257.8</ele>
        <time>2010-01-01T00:03:07Z</time>
      </trkpt>
      <trkpt lat="46.03638" lon="6.93422">
        <ele>1257.8</ele>
        <time>2010-01-01T00:03:09Z</time>
      </trkpt>
      <trkpt lat="46.0364" lon="6.93426">
        <ele>1257.7</ele>
        <time>2010-01-01T00:03:10Z</time>
      </trkpt>
      <trkpt lat="46.03644" lon="6.93431">
        <ele>1258</ele>
        <time>2010-01-01T00:03:12Z</time>
      </trkpt>
      <trkpt lat="46.03647" lon="6.93437">
        <ele>1257.6</ele>
        <time>2010-01-01T00:03:14Z</time>
      </trkpt>
      <trkpt lat="46.03651" lon="6.93442">
        <ele>1257.5</ele>
        <time>2010-01-01T00:03:16Z</time>
      </trkpt>
      <trkpt lat="46.03653" lon="6.93447">
        <ele>1257.4</ele>
        <time>2010-01-01T00:03:18Z</time>
      </trkpt>
      <trkpt lat="46.03656" lon="6.93452">
        <ele>1257</ele>
        <time>2010-01-01T00:03:20Z</time>
      </trkpt>
      <trkpt lat="46.0366" lon="6.93457">
        <ele>1257.3</ele>
        <time>2010-01-01T00:03:22Z</time>
      </trkpt>
      <trkpt lat="46.03664" lon="6.93462">
        <ele>1257.3</ele>
        <time>2010-01-01T00:03:24Z</time>
      </trkpt>
      <trkpt lat="46.03667" lon="6.93466">
        <ele>1257.2</ele>
        <time>2010-01-01T00:03:26Z</time>
      </trkpt>
      <trkpt lat="46.03672" lon="6.93471">
        <ele>1256</ele>
        <time>2010-01-01T00:03:28Z</time>
      </trkpt>
      <trkpt lat="46.03675" lon="6.93476">
        <ele>1257.1</ele>
        <time>2010-01-01T00:03:30Z</time>
      </trkpt>
      <trkpt lat="46.03679" lon="6.9348">
        <ele>1257</ele>
        <time>2010-01-01T00:03:32Z</time>
      </trkpt>
      <trkpt lat="46.03683" lon="6.93485">
        <ele>1256.9</ele>
        <time>2010-01-01T00:03:34Z</time>
      </trkpt>
      <trkpt lat="46.03688" lon="6.93489">
        <ele>1256</ele>
        <time>2010-01-01T00:03:36Z</time>
      </trkpt>
      <trkpt lat="46.03694" lon="6.93492">
        <ele>1257.3</ele>
        <time>2010-01-01T00:03:39Z</time>
      </trkpt>
      <trkpt lat="46.03699" lon="6.93496">
        <ele>1257.3</ele>
        <time>2010-01-01T00:03:41Z</time>
      </trkpt>
      <trkpt lat="46.03703" lon="6.935">
        <ele>1257.3</ele>
        <time>2010-01-01T00:03:43Z</time>
      </trkpt>
      <trkpt lat="46.03708" lon="6.93504">
        <ele>1255</ele>
        <time>2010-01-01T00:03:45Z</time>
      </trkpt>
      <trkpt lat="46.03713" lon="6.93509">
        <ele>1257.2</ele>
        <time>2010-01-01T00:03:48Z</time>
      </trkpt>
      <trkpt lat="46.03717" lon="6.93513">
        <ele>1257.3</ele>
        <time>2010-01-01T00:03:50Z</time>
      </trkpt>
      <trkpt lat="46.03723" lon="6.93516">
        <ele>1257.5</ele>
        <time>2010-01-01T00:03:52Z</time>
      </trkpt>
      <trkpt lat="46.03726" lon="6.93519">
        <ele>1255</ele>
        <time>2010-01-01T00:03:54Z</time>
      </trkpt>
      <trkpt lat="46.03731" lon="6.93523">
        <ele>1257.5</ele>
        <time>2010-01-01T00:03:56Z</time>
      </trkpt>
      <trkpt lat="46.03736" lon="6.93526">
        <ele>1257.6</ele>
        <time>2010-01-01T00:03:58Z</time>
      </trkpt>
      <trkpt lat="46.03739" lon="6.93531">
        <ele>1257.4</ele>
        <time>2010-01-01T00:04:00Z</time>
      </trkpt>
      <trkpt lat="46.03743" lon="6.93534">
        <ele>1254</ele>
        <time>2010-01-01T00:04:02Z</time>
      </trkpt>
      <trkpt lat="46.03748" lon="6.93539">
        <ele>1257.1</ele>
        <time>2010-01-01T00:04:04Z</time>
      </trkpt>
      <trkpt lat="46.03753" lon="6.93544">
        <ele>1256.9</ele>
        <time>2010-01-01T00:04:07Z</time>
      </trkpt>
      <trkpt lat="46.03757" lon="6.93548">
        <ele>1256.8</ele>
        <time>2010-01-01T00:04:09Z</time>
      </trkpt>
      <trkpt lat="46.03762" lon="6.93551">
        <ele>1254</ele>
        <time>2010-01-01T00:04:11Z</time>
      </trkpt>
      <trkpt lat="46.03767" lon="6.93556">
        <ele>1256.6</ele>
        <time>2010-01-01T00:04:13Z</time>
      </trkpt>
      <trkpt lat="46.03772" lon="6.9356">
        <ele>1256.6</ele>
        <time>2010-01-01T00:04:16Z</time>
      </trkpt>
      <trkpt lat="46.03777" lon="6.93565">
        <ele>1256.6</ele>
        <time>2010-01-01T00:04:18Z</time>
      </trkpt>
      <trkpt lat="46.03781" lon="6.93569">
        <ele>1252</ele>
        <time>2010-01-01T00:04:20Z</time>
      </trkpt>
      <trkpt lat="46.03785" lon="6.93572">
        <ele>1256.8</ele>
        <time>2010-01-01T00:04:22Z</time>
      </trkpt>
      <trkpt lat="46.0379" lon="6.93577">
        <ele>1256.8</ele>
        <time>2010-01-01T00:04:24Z</time>
      </trkpt>
      <trkpt lat="46.03795" lon="6.93581">
        <ele>1256.8</ele>
        <time>2010-01-01T00:04:27Z</time>
      </trkpt>
      <trkpt lat="46.03798" lon="6.93586">
        <ele>1252</ele>
        <time>2010-01-01T00:04:28Z</time>
      </trkpt>
      <trkpt lat="46.03802" lon="6.9359">
        <ele>1256.4</ele>
        <time>2010-01-01T00:04:30Z</time>
      </trkpt>
      <trkpt lat="46.03807" lon="6.93592">
        <ele>1256.4</ele>
        <time>2010-01-01T00:04:32Z</time>
      </trkpt>
      <trkpt lat="46.03811" lon="6.93596">
        <ele>1256.3</ele>
        <time>2010-01-01T00:04:34Z</time>
      </trkpt>
      <trkpt lat="46.03815" lon="6.936">
        <ele>1250</ele>
        <time>2010-01-01T00:04:36Z</time>
      </trkpt>
      <trkpt lat="46.0382" lon="6.93605">
        <ele>1256</ele>
        <time>2010-01-01T00:04:39Z</time>
      </trkpt>
      <trkpt lat="46.03825" lon="6.93609">
        <ele>1255.9</ele>
        <time>2010-01-01T00:04:41Z</time>
      </trkpt>
      <trkpt lat="46.03829" lon="6.93613">
        <ele>1255.6</ele>
        <time>2010-01-01T00:04:43Z</time>
      </trkpt>
      <trkpt lat="46.03832" lon="6.93614">
        <ele>1248</ele>
        <time>2010-01-01T00:04:44Z</time>
      </trkpt>
      <trkpt lat="46.03837" lon="6.93618">
        <ele>1255.4</ele>
        <time>2010-01-01T00:04:47Z</time>
      </trkpt>
      <trkpt lat="46.03842" lon="6.93622">
        <ele>1255.3</ele>
        <time>2010-01-01T00:04:49Z</time>
      </trkpt>
      <trkpt lat="46.03847" lon="6.93627">
        <ele>1255.1</ele>
        <time>2010-01-01T00:04:51Z</time>
      </trkpt>
      <trkpt lat="46.03851" lon="6.93632">
        <ele>1248</ele>
        <time>2010-01-01T00:04:53Z</time>
      </trkpt>
      <trkpt lat="46.03854" lon="6.93636">
        <ele>1254.7</ele>
        <time>2010-01-01T00:04:55Z</time>
      </trkpt>
      <trkpt lat="46.0386" lon="6.93641">
        <ele>1254.6</ele>
        <time>2010-01-01T00:04:58Z</time>
      </trkpt>
      <trkpt lat="46.03864" lon="6.93645">
        <ele>1254.2</ele>
        <time>2010-01-01T00:05:00Z</time>
      </trkpt>
      <trkpt lat="46.03868" lon="6.93648">
        <ele>1246</ele>
        <time>2010-01-01T00:05:02Z</time>
      </trkpt>
      <trkpt lat="46.03872" lon="6.93653">
        <ele>1253.6</ele>
        <time>2010-01-01T00:05:04Z</time>
      </trkpt>
      <trkpt lat="46.03878" lon="6.93657">
        <ele>1253.4</ele>
        <time>2010-01-01T00:05:06Z</time>
      </trkpt>
      <trkpt lat="46.03883" lon="6.93661">
        <ele>1253.2</ele>
        <time>2010-01-01T00:05:09Z</time>
      </trkpt>
      <trkpt lat="46.03888" lon="6.93665">
        <ele>1246</ele>
        <time>2010-01-01T00:05:11Z</time>
      </trkpt>
      <trkpt lat="46.03892" lon="6.93667">
        <ele>1253.2</ele>
        <time>2010-01-01T00:05:13Z</time>
      </trkpt>
      <trkpt lat="46.03896" lon="6.93671">
        <ele>1252.7</ele>
        <time>2010-01-01T00:05:15Z</time>
      </trkpt>
      <trkpt lat="46.03901" lon="6.93673">
        <ele>1252.7</ele>
        <time>2010-01-01T00:05:17Z</time>
      </trkpt>
      <trkpt lat="46.03906" lon="6.93678">
        <ele>1246</ele>
        <time>2010-01-01T00:05:19Z</time>
      </trkpt>
      <trkpt lat="46.0391" lon="6.9368">
        <ele>1252.4</ele>
        <time>2010-01-01T00:05:21Z</time>
      </trkpt>
      <trkpt lat="46.03915" lon="6.93685">
        <ele>1252.2</ele>
        <time>2010-01-01T00:05:23Z</time>
      </trkpt>
      <trkpt lat="46.03919" lon="6.93689">
        <ele>1252</ele>
        <time>2010-01-01T00:05:25Z</time>
      </trkpt>
      <trkpt lat="46.03924" lon="6.93692">
        <ele>1246</ele>
        <time>2010-01-01T00:05:27Z</time>
      </trkpt>
      <trkpt lat="46.03928" lon="6.93694">
        <ele>1251.9</ele>
        <time>2010-01-01T00:05:29Z</time>
      </trkpt>
      <trkpt lat="46.03933" lon="6.93698">
        <ele>1251.5</ele>
        <time>2010-01-01T00:05:31Z</time>
      </trkpt>
      <trkpt lat="46.03938" lon="6.93701">
        <ele>1251.4</ele>
        <time>2010-01-01T00:05:33Z</time>
      </trkpt>
      <trkpt lat="46.03942" lon="6.93704">
        <ele>1245</ele>
        <time>2010-01-01T00:05:35Z</time>
      </trkpt>
      <trkpt lat="46.03947" lon="6.93706">
        <ele>1251.5</ele>
        <time>2010-01-01T00:05:37Z</time>
      </trkpt>
      <trkpt lat="46.03952" lon="6.93709">
        <ele>1251.3</ele>
        <time>2010-01-01T00:05:39Z</time>
      </trkpt>
      <trkpt lat="46.03957" lon="6.93713">
        <ele>1251.1</ele>
        <time>2010-01-01T00:05:42Z</time>
      </trkpt>
      <trkpt lat="46.03962" lon="6.93715">
        <ele>1244</ele>
        <time>2010-01-01T00:05:44Z</time>
      </trkpt>
      <trkpt lat="46.03967" lon="6.93718">
        <ele>1251.1</ele>
        <time>2010-01-01T00:05:46Z</time>
      </trkpt>
      <trkpt lat="46.03972" lon="6.9372">
        <ele>1251.2</ele>
        <time>2010-01-01T00:05:48Z</time>
      </trkpt>
      <trkpt lat="46.03977" lon="6.93721">
        <ele>1251.1</ele>
        <time>2010-01-01T00:05:50Z</time>
      </trkpt>
      <trkpt lat="46.03982" lon="6.93724">
        <ele>1242</ele>
        <time>2010-01-01T00:05:52Z</time>
      </trkpt>
      <trkpt lat="46.03987" lon="6.93728">
        <ele>1250.5</ele>
        <time>2010-01-01T00:05:55Z</time>
      </trkpt>
      <trkpt lat="46.03992" lon="6.9373">
        <ele>1250.4</ele>
        <time>2010-01-01T00:05:57Z</time>
      </trkpt>
      <trkpt lat="46.03997" lon="6.93732">
        <ele>1250.3</ele>
        <time>2010-01-01T00:05:59Z</time>
      </trkpt>
      <trkpt lat="46.04003" lon="6.93735">
        <ele>1242</ele>
        <time>2010-01-01T00:06:01Z</time>
      </trkpt>
      <trkpt lat="46.04008" lon="6.93737">
        <ele>1250.1</ele>
        <time>2010-01-01T00:06:03Z</time>
      </trkpt>
      <trkpt lat="46.04014" lon="6.9374">
        <ele>1249.9</ele>
        <time>2010-01-01T00:06:06Z</time>
      </trkpt>
      <trkpt lat="46.0402" lon="6.93743">
        <ele>1249.7</ele>
        <time>2010-01-01T00:06:08Z</time>
      </trkpt>
      <trkpt lat="46.04025" lon="6.93745">
        <ele>1242</ele>
        <time>2010-01-01T00:06:11Z</time>
      </trkpt>
      <trkpt lat="46.04029" lon="6.93747">
        <ele>1249.4</ele>
        <time>2010-01-01T00:06:12Z</time>
      </trkpt>
      <trkpt lat="46.04035" lon="6.93749">
        <ele>1249.4</ele>
        <time>2010-01-01T00:06:15Z</time>
      </trkpt>
      <trkpt lat="46.0404" lon="6.93752">
        <ele>1249.2</ele>
        <time>2010-01-01T00:06:17Z</time>
      </trkpt>
      <trkpt lat="46.04045" lon="6.93755">
        <ele>1242</ele>
        <time>2010-01-01T00:06:19Z</time>
      </trkpt>
      <trkpt lat="46.0405" lon="6.93758">
        <ele>1248.9</ele>
        <time>2010-01-01T00:06:21Z</time>
      </trkpt>
      <trkpt lat="46.04055" lon="6.93761">
        <ele>1248.8</ele>
        <time>2010-01-01T00:06:23Z</time>
      </trkpt>
      <trkpt lat="46.0406" lon="6.93764">
        <ele>1248.6</ele>
        <time>2010-01-01T00:06:26Z</time>
      </trkpt>
      <trkpt lat="46.04065" lon="6.93767">
        <ele>1242</ele>
        <time>2010-01-01T00:06:28Z</time>
      </trkpt>
      <trkpt lat="46.0407" lon="6.9377">
        <ele>1248.4</ele>
        <time>2010-01-01T00:06:30Z</time>
      </trkpt>
      <trkpt lat="46.04074" lon="6.93774">
        <ele>1248.1</ele>
        <time>2010-01-01T00:06:32Z</time>
      </trkpt>
      <trkpt lat="46.04079" lon="6.93777">
        <ele>1247.9</ele>
        <time>2010-01-01T00:06:34Z</time>
      </trkpt>
      <trkpt lat="46.04084" lon="6.9378">
        <ele>1242</ele>
        <time>2010-01-01T00:06:36Z</time>
      </trkpt>
      <trkpt lat="46.0409" lon="6.93783">
        <ele>1247.7</ele>
        <time>2010-01-01T00:06:39Z</time>
      </trkpt>
      <trkpt lat="46.04094" lon="6.93787">
        <ele>1247.3</ele>
        <time>2010-01-01T00:06:41Z</time>
      </trkpt>
      <trkpt lat="46.04098" lon="6.93793">
        <ele>1246.6</ele>
        <time>2010-01-01T00:06:43Z</time>
      </trkpt>
      <trkpt lat="46.04102" lon="6.93798">
        <ele>1242</ele>
        <time>2010-01-01T00:06:45Z</time>
      </trkpt>
      <trkpt lat="46.04105" lon="6.93805">
        <ele>1244.9</ele>
        <time>2010-01-01T00:06:47Z</time>
      </trkpt>
      <trkpt lat="46.04109" lon="6.93807">
        <ele>1244.7</ele>
        <time>2010-01-01T00:06:49Z</time>
      </trkpt>
      <trkpt lat="46.04115" lon="6.93807">
        <ele>1245.3</ele>
        <time>2010-01-01T00:06:51Z</time>
      </trkpt>
      <trkpt lat="46.04121" lon="6.93808">
        <ele>1242</ele>
        <time>2010-01-01T00:06:54Z</time>
      </trkpt>
      <trkpt lat="46.04125" lon="6.93808">
        <ele>1246.6</ele>
        <time>2010-01-01T00:06:55Z</time>
      </trkpt>
      <trkpt lat="46.0413" lon="6.93809">
        <ele>1247.1</ele>
        <time>2010-01-01T00:06:57Z</time>
      </trkpt>
      <trkpt lat="46.04134" lon="6.93809">
        <ele>1247.7</ele>
        <time>2010-01-01T00:06:59Z</time>
      </trkpt>
      <trkpt lat="46.04139" lon="6.93813">
        <ele>1247.7</ele>
        <time>2010-01-01T00:07:01Z</time>
      </trkpt>
      <trkpt lat="46.04142" lon="6.93817">
        <ele>1242</ele>
        <time>2010-01-01T00:07:03Z</time>
      </trkpt>
      <trkpt lat="46.04146" lon="6.9382">
        <ele>1247.7</ele>
        <time>2010-01-01T00:07:05Z</time>
      </trkpt>
      <trkpt lat="46.04152" lon="6.93819">
        <ele>1248.9</ele>
        <time>2010-01-01T00:07:07Z</time>
      </trkpt>
      <trkpt lat="46.04157" lon="6.93823">
        <ele>1249.1</ele>
        <time>2010-01-01T00:07:10Z</time>
      </trkpt>
      <trkpt lat="46.04161" lon="6.93827">
        <ele>1241.5</ele>
        <time>2010-01-01T00:07:11Z</time>
      </trkpt>
      <trkpt lat="46.04165" lon="6.9383">
        <ele>1249.3</ele>
        <time>2010-01-01T00:07:13Z</time>
      </trkpt>
      <trkpt lat="46.0417" lon="6.93833">
        <ele>1249.4</ele>
        <time>2010-01-01T00:07:15Z</time>
      </trkpt>
      <trkpt lat="46.04173" lon="6.93836">
        <ele>1249.1</ele>
        <time>2010-01-01T00:07:17Z</time>
      </trkpt>
      <trkpt lat="46.04177" lon="6.9384">
        <ele>1248.8</ele>
        <time>2010-01-01T00:07:19Z</time>
      </trkpt>
      <trkpt lat="46.04184" lon="6.93842">
        <ele>1241</ele>
        <time>2010-01-01T00:07:22Z</time>
      </trkpt>
      <trkpt lat="46.04188" lon="6.93845">
        <ele>1249.1</ele>
        <time>2010-01-01T00:07:24Z</time>
      </trkpt>
      <trkpt lat="46.04192" lon="6.93846">
        <ele>1249.4</ele>
        <time>2010-01-01T00:07:25Z</time>
      </trkpt>
      <trkpt lat="46.04197" lon="6.93847">
        <ele>1249.8</ele>
        <time>2010-01-01T00:07:27Z</time>
      </trkpt>
      <trkpt lat="46.04201" lon="6.93848">
        <ele>1249.9</ele>
        <time>2010-01-01T00:07:29Z</time>
      </trkpt>
      <trkpt lat="46.04206" lon="6.93849">
        <ele>1241</ele>
        <time>2010-01-01T00:07:31Z</time>
      </trkpt>
      <trkpt lat="46.0421" lon="6.9385">
        <ele>1250.3</ele>
        <time>2010-01-01T00:07:32Z</time>
      </trkpt>
      <trkpt lat="46.04215" lon="6.93852">
        <ele>1250.4</ele>
        <time>2010-01-01T00:07:34Z</time>
      </trkpt>
      <trkpt lat="46.0422" lon="6.93854">
        <ele>1250.4</ele>
        <time>2010-01-01T00:07:37Z</time>
      </trkpt>
      <trkpt lat="46.04224" lon="6.93855">
        <ele>1238</ele>
        <time>2010-01-01T00:07:38Z</time>
      </trkpt>
      <trkpt lat="46.0423" lon="6.93856">
        <ele>1250.5</ele>
        <time>2010-01-01T00:07:41Z</time>
      </trkpt>
      <trkpt lat="46.04235" lon="6.93858">
        <ele>1250.3</ele>
        <time>2010-01-01T00:07:43Z</time>
      </trkpt>
      <trkpt lat="46.04238" lon="6.93861">
        <ele>1249.6</ele>
        <time>2010-01-01T00:07:44Z</time>
      </trkpt>
      <trkpt lat="46.04243" lon="6.93864">
        <ele>1238</ele>
        <time>2010-01-01T00:07:46Z</time>
      </trkpt>
      <trkpt lat="46.04246" lon="6.93864">
        <ele>1248.8</ele>
        <time>2010-01-01T00:07:48Z</time>
      </trkpt>
      <trkpt lat="46.04252" lon="6.93862">
        <ele>1249.6</ele>
        <time>2010-01-01T00:07:50Z</time>
      </trkpt>
      <trkpt lat="46.04256" lon="6.93859">
        <ele>1250.5</ele>
        <time>2010-01-01T00:07:52Z</time>
      </trkpt>
      <trkpt lat="46.04261" lon="6.93857">
        <ele>1240</ele>
        <time>2010-01-01T00:07:54Z</time>
      </trkpt>
      <trkpt lat="46.04265" lon="6.93855">
        <ele>1251.7</ele>
        <time>2010-01-01T00:07:56Z</time>
      </trkpt>
      <trkpt lat="46.0427" lon="6.93854">
        <ele>1252</ele>
        <time>2010-01-01T00:07:58Z</time>
      </trkpt>
      <trkpt lat="46.04276" lon="6.93854">
        <ele>1251.8</ele>
        <time>2010-01-01T00:08:00Z</time>
      </trkpt>
      <trkpt lat="46.04281" lon="6.93852">
        <ele>1240</ele>
        <time>2010-01-01T00:08:02Z</time>
      </trkpt>
      <trkpt lat="46.04286" lon="6.93852">
        <ele>1252.2</ele>
        <time>2010-01-01T00:08:04Z</time>
      </trkpt>
      <trkpt lat="46.0429" lon="6.93852">
        <ele>1252</ele>
        <time>2010-01-01T00:08:06Z</time>
      </trkpt>
      <trkpt lat="46.04295" lon="6.93852">
        <ele>1251.8</ele>
        <time>2010-01-01T00:08:08Z</time>
      </trkpt>
      <trkpt lat="46.04302" lon="6.93852">
        <ele>1242</ele>
        <time>2010-01-01T00:08:10Z</time>
      </trkpt>
      <trkpt lat="46.04306" lon="6.93851">
        <ele>1251.7</ele>
        <time>2010-01-01T00:08:12Z</time>
      </trkpt>
      <trkpt lat="46.04311" lon="6.93853">
        <ele>1251</ele>
        <time>2010-01-01T00:08:14Z</time>
      </trkpt>
      <trkpt lat="46.04317" lon="6.93855">
        <ele>1250.3</ele>
        <time>2010-01-01T00:08:17Z</time>
      </trkpt>
      <trkpt lat="46.04322" lon="6.93855">
        <ele>1244</ele>
        <time>2010-01-01T00:08:19Z</time>
      </trkpt>
      <trkpt lat="46.04327" lon="6.93855">
        <ele>1250.6</ele>
        <time>2010-01-01T00:08:21Z</time>
      </trkpt>
      <trkpt lat="46.04331" lon="6.93853">
        <ele>1251.7</ele>
        <time>2010-01-01T00:08:22Z</time>
      </trkpt>
      <trkpt lat="46.04334" lon="6.93849">
        <ele>1253.7</ele>
        <time>2010-01-01T00:08:24Z</time>
      </trkpt>
      <trkpt lat="46.04339" lon="6.93846">
        <ele>1246</ele>
        <time>2010-01-01T00:08:26Z</time>
      </trkpt>
      <trkpt lat="46.04343" lon="6.93844">
        <ele>1256.6</ele>
        <time>2010-01-01T00:08:28Z</time>
      </trkpt>
      <trkpt lat="46.04349" lon="6.9384">
        <ele>1258.7</ele>
        <time>2010-01-01T00:08:30Z</time>
      </trkpt>
      <trkpt lat="46.04354" lon="6.93839">
        <ele>1259.4</ele>
        <time>2010-01-01T00:08:33Z</time>
      </trkpt>
      <trkpt lat="46.04359" lon="6.93837">
        <ele>1253</ele>
        <time>2010-01-01T00:08:35Z</time>
      </trkpt>
      <trkpt lat="46.04363" lon="6.93834">
        <ele>1261.8</ele>
        <time>2010-01-01T00:08:36Z</time>
      </trkpt>
      <trkpt lat="46.04368" lon="6.93832">
        <ele>1262.8</ele>
        <time>2010-01-01T00:08:38Z</time>
      </trkpt>
      <trkpt lat="46.04373" lon="6.93831">
        <ele>1263.4</ele>
        <time>2010-01-01T00:08:40Z</time>
      </trkpt>
      <trkpt lat="46.04377" lon="6.93832">
        <ele>1256</ele>
        <time>2010-01-01T00:08:42Z</time>
      </trkpt>
      <trkpt lat="46.04381" lon="6.93833">
        <ele>1262.9</ele>
        <time>2010-01-01T00:08:44Z</time>
      </trkpt>
      <trkpt lat="46.04386" lon="6.93835">
        <ele>1262.2</ele>
        <time>2010-01-01T00:08:46Z</time>
      </trkpt>
      <trkpt lat="46.04391" lon="6.93842">
        <ele>1259.6</ele>
        <time>2010-01-01T00:08:49Z</time>
      </trkpt>
      <trkpt lat="46.04394" lon="6.93845">
        <ele>1258</ele>
        <time>2010-01-01T00:08:50Z</time>
      </trkpt>
      <trkpt lat="46.04396" lon="6.9385">
        <ele>1256.7</ele>
        <time>2010-01-01T00:08:52Z</time>
      </trkpt>
      <trkpt lat="46.044" lon="6.93854">
        <ele>1255.2</ele>
        <time>2010-01-01T00:08:54Z</time>
      </trkpt>
      <trkpt lat="46.04407" lon="6.93858">
        <ele>1253.9</ele>
        <time>2010-01-01T00:08:57Z</time>
      </trkpt>
      <trkpt lat="46.0441" lon="6.9386">
        <ele>1258</ele>
        <time>2010-01-01T00:08:58Z</time>
      </trkpt>
      <trkpt lat="46.04417" lon="6.93862">
        <ele>1252.7</ele>
        <time>2010-01-01T00:09:01Z</time>
      </trkpt>
      <trkpt lat="46.04422" lon="6.93865">
        <ele>1252</ele>
        <time>2010-01-01T00:09:03Z</time>
      </trkpt>
      <trkpt lat="46.04427" lon="6.93868">
        <ele>1251.4</ele>
        <time>2010-01-01T00:09:05Z</time>
      </trkpt>
      <trkpt lat="46.04431" lon="6.93872">
        <ele>1255.5</ele>
        <time>2010-01-01T00:09:07Z</time>
      </trkpt>
      <trkpt lat="46.04437" lon="6.93876">
        <ele>1249.3</ele>
        <time>2010-01-01T00:09:10Z</time>
      </trkpt>
      <trkpt lat="46.04441" lon="6.93877">
        <ele>1249.3</ele>
        <time>2010-01-01T00:09:11Z</time>
      </trkpt>
      <trkpt lat="46.04447" lon="6.93878">
        <ele>1249.5</ele>
        <time>2010-01-01T00:09:14Z</time>
      </trkpt>
      <trkpt lat="46.04452" lon="6.93877">
        <ele>1253</ele>
        <time>2010-01-01T00:09:16Z</time>
      </trkpt>
      <trkpt lat="46.04459" lon="6.93874">
        <ele>1251.7</ele>
        <time>2010-01-01T00:09:19Z</time>
      </trkpt>
      <trkpt lat="46.04463" lon="6.9387">
        <ele>1253.4</ele>
        <time>2010-01-01T00:09:21Z</time>
      </trkpt>
      <trkpt lat="46.04468" lon="6.93866">
        <ele>1255.1</ele>
        <time>2010-01-01T00:09:23Z</time>
      </trkpt>
      <trkpt lat="46.04473" lon="6.93864">
        <ele>1253.5</ele>
        <time>2010-01-01T00:09:25Z</time>
      </trkpt>
      <trkpt lat="46.04479" lon="6.93864">
        <ele>1256</ele>
        <time>2010-01-01T00:09:27Z</time>
      </trkpt>
      <trkpt lat="46.04485" lon="6.93864">
        <ele>1256</ele>
        <time>2010-01-01T00:09:30Z</time>
      </trkpt>
      <trkpt lat="46.0449" lon="6.93861">
        <ele>1257</ele>
        <time>2010-01-01T00:09:32Z</time>
      </trkpt>
      <trkpt lat="46.04495" lon="6.93856">
        <ele>1254</ele>
        <time>2010-01-01T00:09:34Z</time>
      </trkpt>
      <trkpt lat="46.04499" lon="6.9385">
        <ele>1260.2</ele>
        <time>2010-01-01T00:09:37Z</time>
      </trkpt>
      <trkpt lat="46.04504" lon="6.93844">
        <ele>1262.1</ele>
        <time>2010-01-01T00:09:39Z</time>
      </trkpt>
      <trkpt lat="46.04508" lon="6.93839">
        <ele>1263.7</ele>
        <time>2010-01-01T00:09:41Z</time>
      </trkpt>
      <trkpt lat="46.04512" lon="6.93838">
        <ele>1255</ele>
        <time>2010-01-01T00:09:43Z</time>
      </trkpt>
      <trkpt lat="46.04517" lon="6.93839">
        <ele>1264</ele>
        <time>2010-01-01T00:09:45Z</time>
      </trkpt>
      <trkpt lat="46.04523" lon="6.9384">
        <ele>1263.9</ele>
        <time>2010-01-01T00:09:48Z</time>
      </trkpt>
      <trkpt lat="46.04527" lon="6.93842">
        <ele>1263.5</ele>
        <time>2010-01-01T00:09:49Z</time>
      </trkpt>
      <trkpt lat="46.04531" lon="6.93841">
        <ele>1265</ele>
        <time>2010-01-01T00:09:51Z</time>
      </trkpt>
      <trkpt lat="46.04536" lon="6.93843">
        <ele>1264.1</ele>
        <time>2010-01-01T00:09:53Z</time>
      </trkpt>
      <trkpt lat="46.0454" lon="6.93843">
        <ele>1264.5</ele>
        <time>2010-01-01T00:09:55Z</time>
      </trkpt>
      <trkpt lat="46.04545" lon="6.93843">
        <ele>1265.1</ele>
        <time>2010-01-01T00:09:57Z</time>
      </trkpt>
      <trkpt lat="46.0455" lon="6.93844">
        <ele>1266</ele>
        <time>2010-01-01T00:09:59Z</time>
      </trkpt>
      <trkpt lat="46.04555" lon="6.93844">
        <ele>1265.9</ele>
        <time>2010-01-01T00:10:01Z</time>
      </trkpt>
      <trkpt lat="46.04559" lon="6.93846">
        <ele>1266.1</ele>
        <time>2010-01-01T00:10:02Z</time>
      </trkpt>
      <trkpt lat="46.04564" lon="6.93846">
        <ele>1267.2</ele>
        <time>2010-01-01T00:10:04Z</time>
      </trkpt>
      <trkpt lat="46.04569" lon="6.93846">
        <ele>1268</ele>
        <time>2010-01-01T00:10:06Z</time>
      </trkpt>
      <trkpt lat="46.04574" lon="6.93846">
        <ele>1269.4</ele>
        <time>2010-01-01T00:10:08Z</time>
      </trkpt>
      <trkpt lat="46.04578" lon="6.93847">
        <ele>1269.9</ele>
        <time>2010-01-01T00:10:10Z</time>
      </trkpt>
      <trkpt lat="46.04584" lon="6.93847">
        <ele>1271.2</ele>
        <time>2010-01-01T00:10:12Z</time>
      </trkpt>
      <trkpt lat="46.04589" lon="6.93846">
        <ele>1268</ele>
        <time>2010-01-01T00:10:14Z</time>
      </trkpt>
      <trkpt lat="46.04592" lon="6.9385">
        <ele>1271.4</ele>
        <time>2010-01-01T00:10:16Z</time>
      </trkpt>
      <trkpt lat="46.04597" lon="6.93853">
        <ele>1271</ele>
        <time>2010-01-01T00:10:18Z</time>
      </trkpt>
      <trkpt lat="46.04603" lon="6.93852">
        <ele>1272.3</ele>
        <time>2010-01-01T00:10:21Z</time>
      </trkpt>
      <trkpt lat="46.04609" lon="6.9385">
        <ele>1266</ele>
        <time>2010-01-01T00:10:23Z</time>
      </trkpt>
      <trkpt lat="46.04614" lon="6.93849">
        <ele>1275.1</ele>
        <time>2010-01-01T00:10:25Z</time>
      </trkpt>
      <trkpt lat="46.04619" lon="6.93849">
        <ele>1275.2</ele>
        <time>2010-01-01T00:10:27Z</time>
      </trkpt>
      <trkpt lat="46.04624" lon="6.93851">
        <ele>1274.3</ele>
        <time>2010-01-01T00:10:29Z</time>
      </trkpt>
      <trkpt lat="46.04628" lon="6.93851">
        <ele>1266</ele>
        <time>2010-01-01T00:10:31Z</time>
      </trkpt>
      <trkpt lat="46.04633" lon="6.93853">
        <ele>1273.3</ele>
        <time>2010-01-01T00:10:33Z</time>
      </trkpt>
      <trkpt lat="46.04637" lon="6.93855">
        <ele>1272.3</ele>
        <time>2010-01-01T00:10:34Z</time>
      </trkpt>
      <trkpt lat="46.04641" lon="6.93856">
        <ele>1271.7</ele>
        <time>2010-01-01T00:10:36Z</time>
      </trkpt>
      <trkpt lat="46.04646" lon="6.93853">
        <ele>1266</ele>
        <time>2010-01-01T00:10:38Z</time>
      </trkpt>
      <trkpt lat="46.04652" lon="6.93851">
        <ele>1273.8</ele>
        <time>2010-01-01T00:10:41Z</time>
      </trkpt>
      <trkpt lat="46.04658" lon="6.93848">
        <ele>1275.1</ele>
        <time>2010-01-01T00:10:43Z</time>
      </trkpt>
      <trkpt lat="46.04663" lon="6.93846">
        <ele>1275.8</ele>
        <time>2010-01-01T00:10:45Z</time>
      </trkpt>
      <trkpt lat="46.04668" lon="6.93845">
        <ele>1266</ele>
        <time>2010-01-01T00:10:47Z</time>
      </trkpt>
      <trkpt lat="46.04673" lon="6.93841">
        <ele>1278</ele>
        <time>2010-01-01T00:10:50Z</time>
      </trkpt>
      <trkpt lat="46.04677" lon="6.93839">
        <ele>1278.8</ele>
        <time>2010-01-01T00:10:51Z</time>
      </trkpt>
      <trkpt lat="46.04682" lon="6.93838">
        <ele>1279.2</ele>
        <time>2010-01-01T00:10:53Z</time>
      </trkpt>
      <trkpt lat="46.04688" lon="6.93837">
        <ele>1279</ele>
        <time>2010-01-01T00:10:56Z</time>
      </trkpt>
      <trkpt lat="46.04691" lon="6.93836">
        <ele>1279.9</ele>
        <time>2010-01-01T00:10:57Z</time>
      </trkpt>
      <trkpt lat="46.04698" lon="6.93835">
        <ele>1280.2</ele>
        <time>2010-01-01T00:11:00Z</time>
      </trkpt>
      <trkpt lat="46.04702" lon="6.93834">
        <ele>1280.7</ele>
        <time>2010-01-01T00:11:01Z</time>
      </trkpt>
      <trkpt lat="46.04707" lon="6.93834">
        <ele>1280</ele>
        <time>2010-01-01T00:11:03Z</time>
      </trkpt>
      <trkpt lat="46.04711" lon="6.93835">
        <ele>1280.3</ele>
        <time>2010-01-01T00:11:05Z</time>
      </trkpt>
      <trkpt lat="46.04716" lon="6.93834">
        <ele>1280.7</ele>
        <time>2010-01-01T00:11:07Z</time>
      </trkpt>
      <trkpt lat="46.04721" lon="6.93831">
        <ele>1281.9</ele>
        <time>2010-01-01T00:11:09Z</time>
      </trkpt>
      <trkpt lat="46.04725" lon="6.93827">
        <ele>1280</ele>
        <time>2010-01-01T00:11:11Z</time>
      </trkpt>
      <trkpt lat="46.0473" lon="6.93826">
        <ele>1284.6</ele>
        <time>2010-01-01T00:11:13Z</time>
      </trkpt>
      <trkpt lat="46.04735" lon="6.93826">
        <ele>1285</ele>
        <time>2010-01-01T00:11:15Z</time>
      </trkpt>
      <trkpt lat="46.0474" lon="6.93826">
        <ele>1285.5</ele>
        <time>2010-01-01T00:11:17Z</time>
      </trkpt>
      <trkpt lat="46.04747" lon="6.93826">
        <ele>1281</ele>
        <time>2010-01-01T00:11:20Z</time>
      </trkpt>
      <trkpt lat="46.04753" lon="6.93824">
        <ele>1287.2</ele>
        <time>2010-01-01T00:11:23Z</time>
      </trkpt>
      <trkpt lat="46.04757" lon="6.93825">
        <ele>1287.2</ele>
        <time>2010-01-01T00:11:24Z</time>
      </trkpt>
      <trkpt lat="46.04761" lon="6.93825">
        <ele>1287.5</ele>
        <time>2010-01-01T00:11:26Z</time>
      </trkpt>
      <trkpt lat="46.04767" lon="6.93826">
        <ele>1282</ele>
        <time>2010-01-01T00:11:28Z</time>
      </trkpt>
      <trkpt lat="46.04771" lon="6.93827">
        <ele>1287.6</ele>
        <time>2010-01-01T00:11:30Z</time>
      </trkpt>
      <trkpt lat="46.04777" lon="6.93827">
        <ele>1288</ele>
        <time>2010-01-01T00:11:32Z</time>
      </trkpt>
      <trkpt lat="46.04781" lon="6.93824">
        <ele>1289.3</ele>
        <time>2010-01-01T00:11:34Z</time>
      </trkpt>
      <trkpt lat="46.04786" lon="6.93826">
        <ele>1284</ele>
        <time>2010-01-01T00:11:36Z</time>
      </trkpt>
      <trkpt lat="46.04789" lon="6.93825">
        <ele>1289.7</ele>
        <time>2010-01-01T00:11:37Z</time>
      </trkpt>
      <trkpt lat="46.04795" lon="6.93825">
        <ele>1290.2</ele>
        <time>2010-01-01T00:11:40Z</time>
      </trkpt>
      <trkpt lat="46.04798" lon="6.93827">
        <ele>1289.9</ele>
        <time>2010-01-01T00:11:41Z</time>
      </trkpt>
      <trkpt lat="46.04802" lon="6.9383">
        <ele>1289.5</ele>
        <time>2010-01-01T00:11:43Z</time>
      </trkpt>
      <trkpt lat="46.04805" lon="6.93832">
        <ele>1284</ele>
        <time>2010-01-01T00:11:44Z</time>
      </trkpt>
      <trkpt lat="46.04811" lon="6.93835">
        <ele>1289.5</ele>
        <time>2010-01-01T00:11:47Z</time>
      </trkpt>
      <trkpt lat="46.04816" lon="6.93837">
        <ele>1289.8</ele>
        <time>2010-01-01T00:11:49Z</time>
      </trkpt>
      <trkpt lat="46.0482" lon="6.93837">
        <ele>1290.4</ele>
        <time>2010-01-01T00:11:50Z</time>
      </trkpt>
      <trkpt lat="46.04825" lon="6.93839">
        <ele>1288</ele>
        <time>2010-01-01T00:11:52Z</time>
      </trkpt>
      <trkpt lat="46.04828" lon="6.93845">
        <ele>1290.1</ele>
        <time>2010-01-01T00:11:55Z</time>
      </trkpt>
      <trkpt lat="46.04831" lon="6.9385">
        <ele>1289.7</ele>
        <time>2010-01-01T00:11:56Z</time>
      </trkpt>
      <trkpt lat="46.04835" lon="6.93856">
        <ele>1289.3</ele>
        <time>2010-01-01T00:11:59Z</time>
      </trkpt>
      <trkpt lat="46.04839" lon="6.9386">
        <ele>1284</ele>
        <time>2010-01-01T00:12:01Z</time>
      </trkpt>
      <trkpt lat="46.04843" lon="6.9386">
        <ele>1290.3</ele>
        <time>2010-01-01T00:12:02Z</time>
      </trkpt>
      <trkpt lat="46.04847" lon="6.93856">
        <ele>1292.1</ele>
        <time>2010-01-01T00:12:04Z</time>
      </trkpt>
      <trkpt lat="46.04851" lon="6.93858">
        <ele>1292.5</ele>
        <time>2010-01-01T00:12:06Z</time>
      </trkpt>
      <trkpt lat="46.04854" lon="6.93863">
        <ele>1292.2</ele>
        <time>2010-01-01T00:12:08Z</time>
      </trkpt>
      <trkpt lat="46.04856" lon="6.93871">
        <ele>1283</ele>
        <time>2010-01-01T00:12:10Z</time>
      </trkpt>
      <trkpt lat="46.04858" lon="6.93877">
        <ele>1291.1</ele>
        <time>2010-01-01T00:12:12Z</time>
      </trkpt>
      <trkpt lat="46.04863" lon="6.93881">
        <ele>1291.5</ele>
        <time>2010-01-01T00:12:14Z</time>
      </trkpt>
      <trkpt lat="46.04866" lon="6.93886">
        <ele>1291.4</ele>
        <time>2010-01-01T00:12:16Z</time>
      </trkpt>
      <trkpt lat="46.04869" lon="6.93892">
        <ele>1282</ele>
        <time>2010-01-01T00:12:18Z</time>
      </trkpt>
      <trkpt lat="46.0487" lon="6.93898">
        <ele>1290.3</ele>
        <time>2010-01-01T00:12:20Z</time>
      </trkpt>
      <trkpt lat="46.0487" lon="6.93905">
        <ele>1289.3</ele>
        <time>2010-01-01T00:12:22Z</time>
      </trkpt>
      <trkpt lat="46.04869" lon="6.93912">
        <ele>1288.2</ele>
        <time>2010-01-01T00:12:24Z</time>
      </trkpt>
      <trkpt lat="46.0487" lon="6.93919">
        <ele>1270</ele>
        <time>2010-01-01T00:12:26Z</time>
      </trkpt>
      <trkpt lat="46.04865" lon="6.93922">
        <ele>1285.9</ele>
        <time>2010-01-01T00:12:28Z</time>
      </trkpt>
      <trkpt lat="46.04868" lon="6.93928">
        <ele>1284.4</ele>
        <time>2010-01-01T00:12:30Z</time>
      </trkpt>
      <trkpt lat="46.04876" lon="6.93924">
        <ele>1285.9</ele>
        <time>2010-01-01T00:12:33Z</time>
      </trkpt>
      <trkpt lat="46.04881" lon="6.93919">
        <ele>1258</ele>
        <time>2010-01-01T00:12:36Z</time>
      </trkpt>
      <trkpt lat="46.04886" lon="6.93916">
        <ele>1288.9</ele>
        <time>2010-01-01T00:12:38Z</time>
      </trkpt>
      <trkpt lat="46.04891" lon="6.93914">
        <ele>1289.5</ele>
        <time>2010-01-01T00:12:40Z</time>
      </trkpt>
      <trkpt lat="46.04894" lon="6.9391">
        <ele>1290.2</ele>
        <time>2010-01-01T00:12:42Z</time>
      </trkpt>
      <trkpt lat="46.04899" lon="6.93909">
        <ele>1256</ele>
        <time>2010-01-01T00:12:44Z</time>
      </trkpt>
      <trkpt lat="46.04904" lon="6.93907">
        <ele>1290.8</ele>
        <time>2010-01-01T00:12:46Z</time>
      </trkpt>
      <trkpt lat="46.04909" lon="6.93904">
        <ele>1291.6</ele>
        <time>2010-01-01T00:12:48Z</time>
      </trkpt>
      <trkpt lat="46.04914" lon="6.93902">
        <ele>1292.3</ele>
        <time>2010-01-01T00:12:50Z</time>
      </trkpt>
      <trkpt lat="46.04919" lon="6.93902">
        <ele>1256</ele>
        <time>2010-01-01T00:12:52Z</time>
      </trkpt>
      <trkpt lat="46.04925" lon="6.93901">
        <ele>1291.3</ele>
        <time>2010-01-01T00:12:54Z</time>
      </trkpt>
      <trkpt lat="46.04931" lon="6.939">
        <ele>1290.8</ele>
        <time>2010-01-01T00:12:57Z</time>
      </trkpt>
      <trkpt lat="46.04936" lon="6.93897">
        <ele>1291.4</ele>
        <time>2010-01-01T00:12:59Z</time>
      </trkpt>
      <trkpt lat="46.04942" lon="6.93894">
        <ele>1259</ele>
        <time>2010-01-01T00:13:02Z</time>
      </trkpt>
      <trkpt lat="46.04947" lon="6.9389">
        <ele>1292.6</ele>
        <time>2010-01-01T00:13:04Z</time>
      </trkpt>
      <trkpt lat="46.04953" lon="6.93887">
        <ele>1292.1</ele>
        <time>2010-01-01T00:13:06Z</time>
      </trkpt>
      <trkpt lat="46.04957" lon="6.93884">
        <ele>1292.1</ele>
        <time>2010-01-01T00:13:08Z</time>
      </trkpt>
      <trkpt lat="46.04963" lon="6.9388">
        <ele>1258.5</ele>
        <time>2010-01-01T00:13:11Z</time>
      </trkpt>
      <trkpt lat="46.04968" lon="6.93877">
        <ele>1291.9</ele>
        <time>2010-01-01T00:13:13Z</time>
      </trkpt>
      <trkpt lat="46.04971" lon="6.93873">
        <ele>1292.8</ele>
        <time>2010-01-01T00:13:15Z</time>
      </trkpt>
      <trkpt lat="46.04974" lon="6.93868">
        <ele>1294</ele>
        <time>2010-01-01T00:13:16Z</time>
      </trkpt>
      <trkpt lat="46.04976" lon="6.93861">
        <ele>1265.7</ele>
        <time>2010-01-01T00:13:19Z</time>
      </trkpt>
      <trkpt lat="46.0498" lon="6.93854">
        <ele>1298</ele>
        <time>2010-01-01T00:13:21Z</time>
      </trkpt>
      <trkpt lat="46.04983" lon="6.93847">
        <ele>1299.9</ele>
        <time>2010-01-01T00:13:23Z</time>
      </trkpt>
      <trkpt lat="46.04985" lon="6.93841">
        <ele>1301.9</ele>
        <time>2010-01-01T00:13:25Z</time>
      </trkpt>
      <trkpt lat="46.04987" lon="6.93836">
        <ele>1273</ele>
        <time>2010-01-01T00:13:27Z</time>
      </trkpt>
      <trkpt lat="46.04989" lon="6.9383">
        <ele>1305</ele>
        <time>2010-01-01T00:13:29Z</time>
      </trkpt>
      <trkpt lat="46.04991" lon="6.93824">
        <ele>1306.5</ele>
        <time>2010-01-01T00:13:31Z</time>
      </trkpt>
      <trkpt lat="46.04994" lon="6.93819">
        <ele>1307.2</ele>
        <time>2010-01-01T00:13:32Z</time>
      </trkpt>
      <trkpt lat="46.04996" lon="6.93813">
        <ele>1308.7</ele>
        <time>2010-01-01T00:13:34Z</time>
      </trkpt>
      <trkpt lat="46.04998" lon="6.93809">
        <ele>1284</ele>
        <time>2010-01-01T00:13:36Z</time>
      </trkpt>
      <trkpt lat="46.05" lon="6.93804">
        <ele>1310.4</ele>
        <time>2010-01-01T00:13:37Z</time>
      </trkpt>
      <trkpt lat="46.05006" lon="6.938">
        <ele>1309.4</ele>
        <time>2010-01-01T00:13:40Z</time>
      </trkpt>
      <trkpt lat="46.0501" lon="6.93797">
        <ele>1308.9</ele>
        <time>2010-01-01T00:13:42Z</time>
      </trkpt>
      <trkpt lat="46.05016" lon="6.93795">
        <ele>1287.5</ele>
        <time>2010-01-01T00:13:44Z</time>
      </trkpt>
      <trkpt lat="46.05019" lon="6.93795">
        <ele>1306.2</ele>
        <time>2010-01-01T00:13:45Z</time>
      </trkpt>
      <trkpt lat="46.05024" lon="6.93795">
        <ele>1304.4</ele>
        <time>2010-01-01T00:13:47Z</time>
      </trkpt>
      <trkpt lat="46.0503" lon="6.93794">
        <ele>1302.5</ele>
        <time>2010-01-01T00:13:50Z</time>
      </trkpt>
      <trkpt lat="46.05035" lon="6.93793">
        <ele>1291</ele>
        <time>2010-01-01T00:13:52Z</time>
      </trkpt>
      <trkpt lat="46.0504" lon="6.93791">
        <ele>1299.8</ele>
        <time>2010-01-01T00:13:54Z</time>
      </trkpt>
      <trkpt lat="46.05043" lon="6.93788">
        <ele>1299.7</ele>
        <time>2010-01-01T00:13:55Z</time>
      </trkpt>
      <trkpt lat="46.05046" lon="6.93783">
        <ele>1300.3</ele>
        <time>2010-01-01T00:13:57Z</time>
      </trkpt>
      <trkpt lat="46.05051" lon="6.9378">
        <ele>1299.7</ele>
        <time>2010-01-01T00:13:59Z</time>
      </trkpt>
      <trkpt lat="46.05055" lon="6.93775">
        <ele>1291</ele>
        <time>2010-01-01T00:14:01Z</time>
      </trkpt>
      <trkpt lat="46.0506" lon="6.93773">
        <ele>1299</ele>
        <time>2010-01-01T00:14:03Z</time>
      </trkpt>
      <trkpt lat="46.05065" lon="6.93772">
        <ele>1297.7</ele>
        <time>2010-01-01T00:14:06Z</time>
      </trkpt>
      <trkpt lat="46.05069" lon="6.93771">
        <ele>1296.7</ele>
        <time>2010-01-01T00:14:07Z</time>
      </trkpt>
      <trkpt lat="46.05075" lon="6.93767">
        <ele>1294</ele>
        <time>2010-01-01T00:14:10Z</time>
      </trkpt>
      <trkpt lat="46.05079" lon="6.93762">
        <ele>1297.1</ele>
        <time>2010-01-01T00:14:12Z</time>
      </trkpt>
      <trkpt lat="46.05084" lon="6.9376">
        <ele>1296.5</ele>
        <time>2010-01-01T00:14:14Z</time>
      </trkpt>
      <trkpt lat="46.05091" lon="6.93759">
        <ele>1295.3</ele>
        <time>2010-01-01T00:14:17Z</time>
      </trkpt>
      <trkpt lat="46.05098" lon="6.93758">
        <ele>1297</ele>
        <time>2010-01-01T00:14:20Z</time>
      </trkpt>
      <trkpt lat="46.05103" lon="6.93753">
        <ele>1295.3</ele>
        <time>2010-01-01T00:14:22Z</time>
      </trkpt>
      <trkpt lat="46.0511" lon="6.93752">
        <ele>1294.2</ele>
        <time>2010-01-01T00:14:25Z</time>
      </trkpt>
      <trkpt lat="46.05115" lon="6.93749">
        <ele>1306</ele>
        <time>2010-01-01T00:14:27Z</time>
      </trkpt>
      <trkpt lat="46.0512" lon="6.93747">
        <ele>1295.6</ele>
        <time>2010-01-01T00:14:29Z</time>
      </trkpt>
      <trkpt lat="46.05124" lon="6.93749">
        <ele>1293.8</ele>
        <time>2010-01-01T00:14:31Z</time>
      </trkpt>
      <trkpt lat="46.05128" lon="6.93758">
        <ele>1288.4</ele>
        <time>2010-01-01T00:14:34Z</time>
      </trkpt>
      <trkpt lat="46.05136" lon="6.93753">
        <ele>1306</ele>
        <time>2010-01-01T00:14:37Z</time>
      </trkpt>
      <trkpt lat="46.05141" lon="6.93755">
        <ele>1288</ele>
        <time>2010-01-01T00:14:39Z</time>
      </trkpt>
      <trkpt lat="46.05146" lon="6.93754">
        <ele>1287.9</ele>
        <time>2010-01-01T00:14:41Z</time>
      </trkpt>
      <trkpt lat="46.05148" lon="6.93749">
        <ele>1290.3</ele>
        <time>2010-01-01T00:14:43Z</time>
      </trkpt>
      <trkpt lat="46.05152" lon="6.93745">
        <ele>1300</ele>
        <time>2010-01-01T00:14:45Z</time>
      </trkpt>
      <trkpt lat="46.05159" lon="6.93741">
        <ele>1293.1</ele>
        <time>2010-01-01T00:14:48Z</time>
      </trkpt>
      <trkpt lat="46.05163" lon="6.9374">
        <ele>1293</ele>
        <time>2010-01-01T00:14:50Z</time>
      </trkpt>
      <trkpt lat="46.05167" lon="6.9374">
        <ele>1292.4</ele>
        <time>2010-01-01T00:14:51Z</time>
      </trkpt>
      <trkpt lat="46.05172" lon="6.9374">
        <ele>1300</ele>
        <time>2010-01-01T00:14:53Z</time>
      </trkpt>
      <trkpt lat="46.05176" lon="6.9374">
        <ele>1291.4</ele>
        <time>2010-01-01T00:14:55Z</time>
      </trkpt>
      <trkpt lat="46.0518" lon="6.93737">
        <ele>1292.6</ele>
        <time>2010-01-01T00:14:57Z</time>
      </trkpt>
      <trkpt lat="46.05184" lon="6.93731">
        <ele>1295.4</ele>
        <time>2010-01-01T00:14:59Z</time>
      </trkpt>
      <trkpt lat="46.05188" lon="6.93727">
        <ele>1304</ele>
        <time>2010-01-01T00:15:01Z</time>
      </trkpt>
      <trkpt lat="46.05194" lon="6.93723">
        <ele>1298.6</ele>
        <time>2010-01-01T00:15:03Z</time>
      </trkpt>
      <trkpt lat="46.05198" lon="6.93721">
        <ele>1299.3</ele>
        <time>2010-01-01T00:15:05Z</time>
      </trkpt>
      <trkpt lat="46.05203" lon="6.93717">
        <ele>1300.9</ele>
        <time>2010-01-01T00:15:07Z</time>
      </trkpt>
      <trkpt lat="46.05205" lon="6.93712">
        <ele>1308</ele>
        <time>2010-01-01T00:15:09Z</time>
      </trkpt>
      <trkpt lat="46.05211" lon="6.9371">
        <ele>1303.8</ele>
        <time>2010-01-01T00:15:12Z</time>
      </trkpt>
      <trkpt lat="46.05215" lon="6.93707">
        <ele>1305</ele>
        <time>2010-01-01T00:15:13Z</time>
      </trkpt>
      <trkpt lat="46.05221" lon="6.93706">
        <ele>1304.9</ele>
        <time>2010-01-01T00:15:16Z</time>
      </trkpt>
      <trkpt lat="46.05226" lon="6.93702">
        <ele>1308</ele>
        <time>2010-01-01T00:15:18Z</time>
      </trkpt>
      <trkpt lat="46.0523" lon="6.93702">
        <ele>1305.4</ele>
        <time>2010-01-01T00:15:20Z</time>
      </trkpt>
      <trkpt lat="46.05239" lon="6.93698">
        <ele>1305.6</ele>
        <time>2010-01-01T00:15:23Z</time>
      </trkpt>
      <trkpt lat="46.05242" lon="6.93692">
        <ele>1308.2</ele>
        <time>2010-01-01T00:15:25Z</time>
      </trkpt>
      <trkpt lat="46.05248" lon="6.93688">
        <ele>1310.5</ele>
        <time>2010-01-01T00:15:28Z</time>
      </trkpt>
      <trkpt lat="46.05253" lon="6.93688">
        <ele>1308.2</ele>
        <time>2010-01-01T00:15:30Z</time>
      </trkpt>
      <trkpt lat="46.05317" lon="6.93663">
        <ele>1309.2</ele>
        <time>2010-01-01T00:15:57Z</time>
      </trkpt>
      <trkpt lat="46.05321" lon="6.93663">
        <ele>1303.9</ele>
        <time>2010-01-01T00:15:58Z</time>
      </trkpt>
      <trkpt lat="46.05326" lon="6.93662">
        <ele>1303</ele>
        <time>2010-01-01T00:16:00Z</time>
      </trkpt>
      <trkpt lat="46.0533" lon="6.93661">
        <ele>1302.4</ele>
        <time>2010-01-01T00:16:02Z</time>
      </trkpt>
      <trkpt lat="46.0534" lon="6.93655">
        <ele>1308</ele>
        <time>2010-01-01T00:16:06Z</time>
      </trkpt>
      <trkpt lat="46.05344" lon="6.93652">
        <ele>1302.1</ele>
        <time>2010-01-01T00:16:08Z</time>
      </trkpt>
      <trkpt lat="46.05381" lon="6.93649">
        <ele>1303.5</ele>
        <time>2010-01-01T00:16:23Z</time>
      </trkpt>
      <trkpt lat="46.05385" lon="6.93645">
        <ele>1299.4</ele>
        <time>2010-01-01T00:16:25Z</time>
      </trkpt>
      <trkpt lat="46.05389" lon="6.93641">
        <ele>1301.1</ele>
        <time>2010-01-01T00:16:27Z</time>
      </trkpt>
      <trkpt lat="46.05418" lon="6.93614">
        <ele>1305.7</ele>
        <time>2010-01-01T00:16:41Z</time>
      </trkpt>
      <trkpt lat="46.05432" lon="6.93612">
        <ele>1316</ele>
        <time>2010-01-01T00:16:46Z</time>
      </trkpt>
      <trkpt lat="46.05437" lon="6.93609">
        <ele>1308</ele>
        <time>2010-01-01T00:16:48Z</time>
      </trkpt>
      <trkpt lat="46.05442" lon="6.93608">
        <ele>1317.2</ele>
        <time>2010-01-01T00:16:50Z</time>
      </trkpt>
      <trkpt lat="46.05444" lon="6.93602">
        <ele>1319.3</ele>
        <time>2010-01-01T00:16:52Z</time>
      </trkpt>
      <trkpt lat="46.05445" lon="6.93611">
        <ele>1315.8</ele>
        <time>2010-01-01T00:16:55Z</time>
      </trkpt>
      <trkpt lat="46.05441" lon="6.93609">
        <ele>1311</ele>
        <time>2010-01-01T00:16:56Z</time>
      </trkpt>
      <trkpt lat="46.05434" lon="6.93612">
        <ele>1316</ele>
        <time>2010-01-01T00:16:59Z</time>
      </trkpt>
      <trkpt lat="46.0543" lon="6.93614">
        <ele>1315.2</ele>
        <time>2010-01-01T00:17:01Z</time>
      </trkpt>
      <trkpt lat="46.05424" lon="6.9362">
        <ele>1312.7</ele>
        <time>2010-01-01T00:17:04Z</time>
      </trkpt>
      <trkpt lat="46.05428" lon="6.9362">
        <ele>1311</ele>
        <time>2010-01-01T00:17:06Z</time>
      </trkpt>
      <trkpt lat="46.05435" lon="6.93617">
        <ele>1313.7</ele>
        <time>2010-01-01T00:17:09Z</time>
      </trkpt>
      <trkpt lat="46.05441" lon="6.9361">
        <ele>1316.5</ele>
        <time>2010-01-01T00:17:12Z</time>
      </trkpt>
      <trkpt lat="46.05443" lon="6.93599">
        <ele>1311</ele>
        <time>2010-01-01T00:17:15Z</time>
      </trkpt>
      <trkpt lat="46.05447" lon="6.93591">
        <ele>1322.1</ele>
        <time>2010-01-01T00:17:18Z</time>
      </trkpt>
      <trkpt lat="46.05448" lon="6.93584">
        <ele>1324.1</ele>
        <time>2010-01-01T00:17:20Z</time>
      </trkpt>
      <trkpt lat="46.05453" lon="6.93582">
        <ele>1322.4</ele>
        <time>2010-01-01T00:17:22Z</time>
      </trkpt>
      <trkpt lat="46.05454" lon="6.93576">
        <ele>1311</ele>
        <time>2010-01-01T00:17:23Z</time>
      </trkpt>
      <trkpt lat="46.05457" lon="6.93572">
        <ele>1323.5</ele>
        <time>2010-01-01T00:17:25Z</time>
      </trkpt>
      <trkpt lat="46.05456" lon="6.93566">
        <ele>1325.7</ele>
        <time>2010-01-01T00:17:27Z</time>
      </trkpt>
      <trkpt lat="46.0546" lon="6.93561">
        <ele>1325.7</ele>
        <time>2010-01-01T00:17:29Z</time>
      </trkpt>
      <trkpt lat="46.05464" lon="6.93558">
        <ele>1325.2</ele>
        <time>2010-01-01T00:17:31Z</time>
      </trkpt>
      <trkpt lat="46.05466" lon="6.93552">
        <ele>1319</ele>
        <time>2010-01-01T00:17:32Z</time>
      </trkpt>
      <trkpt lat="46.05467" lon="6.93543">
        <ele>1330.4</ele>
        <time>2010-01-01T00:17:35Z</time>
      </trkpt>
      <trkpt lat="46.05476" lon="6.93532">
        <ele>1333.2</ele>
        <time>2010-01-01T00:17:40Z</time>
      </trkpt>
      <trkpt lat="46.0548" lon="6.93534">
        <ele>1328</ele>
        <time>2010-01-01T00:17:41Z</time>
      </trkpt>
      <trkpt lat="46.05485" lon="6.93531">
        <ele>1331.8</ele>
        <time>2010-01-01T00:17:44Z</time>
      </trkpt>
      <trkpt lat="46.05489" lon="6.93531">
        <ele>1331</ele>
        <time>2010-01-01T00:17:45Z</time>
      </trkpt>
      <trkpt lat="46.05495" lon="6.9353">
        <ele>1330.2</ele>
        <time>2010-01-01T00:17:48Z</time>
      </trkpt>
      <trkpt lat="46.05507" lon="6.93531">
        <ele>1336</ele>
        <time>2010-01-01T00:17:52Z</time>
      </trkpt>
      <trkpt lat="46.05511" lon="6.93534">
        <ele>1329.8</ele>
        <time>2010-01-01T00:17:54Z</time>
      </trkpt>
      <trkpt lat="46.05516" lon="6.93533">
        <ele>1331.1</ele>
        <time>2010-01-01T00:17:56Z</time>
      </trkpt>
      <trkpt lat="46.0552" lon="6.93532">
        <ele>1332.3</ele>
        <time>2010-01-01T00:17:58Z</time>
      </trkpt>
      <trkpt lat="46.05523" lon="6.93527">
        <ele>1334.5</ele>
        <time>2010-01-01T00:18:00Z</time>
      </trkpt>
      <trkpt lat="46.05527" lon="6.93529">
        <ele>1337</ele>
        <time>2010-01-01T00:18:01Z</time>
      </trkpt>
      <trkpt lat="46.05539" lon="6.93532">
        <ele>1337.5</ele>
        <time>2010-01-01T00:18:06Z</time>
      </trkpt>
      <trkpt lat="46.05542" lon="6.93526">
        <ele>1340.4</ele>
        <time>2010-01-01T00:18:08Z</time>
      </trkpt>
      <trkpt lat="46.05546" lon="6.93524">
        <ele>1340</ele>
        <time>2010-01-01T00:18:10Z</time>
      </trkpt>
      <trkpt lat="46.05545" lon="6.93517">
        <ele>1345.1</ele>
        <time>2010-01-01T00:18:12Z</time>
      </trkpt>
      <trkpt lat="46.05548" lon="6.93511">
        <ele>1348.5</ele>
        <time>2010-01-01T00:18:14Z</time>
      </trkpt>
      <trkpt lat="46.05553" lon="6.93508">
        <ele>1351.1</ele>
        <time>2010-01-01T00:18:16Z</time>
      </trkpt>
      <trkpt lat="46.05558" lon="6.93512">
        <ele>1347</ele>
        <time>2010-01-01T00:18:19Z</time>
      </trkpt>
      <trkpt lat="46.05563" lon="6.93513">
        <ele>1351.8</ele>
        <time>2010-01-01T00:18:21Z</time>
      </trkpt>
      <trkpt lat="46.05568" lon="6.93515">
        <ele>1352.5</ele>
        <time>2010-01-01T00:18:23Z</time>
      </trkpt>
      <trkpt lat="46.05572" lon="6.93517">
        <ele>1352.9</ele>
        <time>2010-01-01T00:18:24Z</time>
      </trkpt>
      <trkpt lat="46.05576" lon="6.93512">
        <ele>1357</ele>
        <time>2010-01-01T00:18:26Z</time>
      </trkpt>
      <trkpt lat="46.0558" lon="6.93502">
        <ele>1359.7</ele>
        <time>2010-01-01T00:18:30Z</time>
      </trkpt>
      <trkpt lat="46.05587" lon="6.93497">
        <ele>1363.3</ele>
        <time>2010-01-01T00:18:33Z</time>
      </trkpt>
      <trkpt lat="46.05591" lon="6.93495">
        <ele>1365</ele>
        <time>2010-01-01T00:18:34Z</time>
      </trkpt>
      <trkpt lat="46.0559" lon="6.93488">
        <ele>1368.1</ele>
        <time>2010-01-01T00:18:36Z</time>
      </trkpt>
      <trkpt lat="46.05586" lon="6.93483">
        <ele>1369.5</ele>
        <time>2010-01-01T00:18:39Z</time>
      </trkpt>
      <trkpt lat="46.05583" lon="6.93478">
        <ele>1371.2</ele>
        <time>2010-01-01T00:18:40Z</time>
      </trkpt>
      <trkpt lat="46.05589" lon="6.93475">
        <ele>1365</ele>
        <time>2010-01-01T00:18:43Z</time>
      </trkpt>
      <trkpt lat="46.05586" lon="6.93466">
        <ele>1377.2</ele>
        <time>2010-01-01T00:18:46Z</time>
      </trkpt>
      <trkpt lat="46.0559" lon="6.93464">
        <ele>1378.8</ele>
        <time>2010-01-01T00:18:47Z</time>
      </trkpt>
      <trkpt lat="46.05595" lon="6.93462">
        <ele>1380.5</ele>
        <time>2010-01-01T00:18:49Z</time>
      </trkpt>
      <trkpt lat="46.05599" lon="6.93464">
        <ele>1374</ele>
        <time>2010-01-01T00:18:51Z</time>
      </trkpt>
      <trkpt lat="46.05605" lon="6.93463">
        <ele>1381.9</ele>
        <time>2010-01-01T00:18:54Z</time>
      </trkpt>
      <trkpt lat="46.0561" lon="6.93461">
        <ele>1383.6</ele>
        <time>2010-01-01T00:18:56Z</time>
      </trkpt>
      <trkpt lat="46.05617" lon="6.93459">
        <ele>1385.3</ele>
        <time>2010-01-01T00:18:59Z</time>
      </trkpt>
      <trkpt lat="46.05621" lon="6.93458">
        <ele>1382</ele>
        <time>2010-01-01T00:19:00Z</time>
      </trkpt>
      <trkpt lat="46.05625" lon="6.93459">
        <ele>1386.2</ele>
        <time>2010-01-01T00:19:02Z</time>
      </trkpt>
      <trkpt lat="46.05631" lon="6.93454">
        <ele>1389</ele>
        <time>2010-01-01T00:19:05Z</time>
      </trkpt>
      <trkpt lat="46.05638" lon="6.93454">
        <ele>1389.8</ele>
        <time>2010-01-01T00:19:07Z</time>
      </trkpt>
      <trkpt lat="46.05644" lon="6.9345">
        <ele>1382</ele>
        <time>2010-01-01T00:19:10Z</time>
      </trkpt>
      <trkpt lat="46.05649" lon="6.93449">
        <ele>1393.9</ele>
        <time>2010-01-01T00:19:12Z</time>
      </trkpt>
      <trkpt lat="46.05653" lon="6.93449">
        <ele>1394.7</ele>
        <time>2010-01-01T00:19:14Z</time>
      </trkpt>
      <trkpt lat="46.05657" lon="6.93452">
        <ele>1394.2</ele>
        <time>2010-01-01T00:19:15Z</time>
      </trkpt>
      <trkpt lat="46.05662" lon="6.93453">
        <ele>1394.7</ele>
        <time>2010-01-01T00:19:17Z</time>
      </trkpt>
      <trkpt lat="46.05666" lon="6.93452">
        <ele>1400</ele>
        <time>2010-01-01T00:19:19Z</time>
      </trkpt>
      <trkpt lat="46.05672" lon="6.93455">
        <ele>1396.2</ele>
        <time>2010-01-01T00:19:22Z</time>
      </trkpt>
      <trkpt lat="46.05677" lon="6.93456">
        <ele>1397.1</ele>
        <time>2010-01-01T00:19:24Z</time>
      </trkpt>
      <trkpt lat="46.05681" lon="6.93455">
        <ele>1398.5</ele>
        <time>2010-01-01T00:19:25Z</time>
      </trkpt>
      <trkpt lat="46.05685" lon="6.93455">
        <ele>1408</ele>
        <time>2010-01-01T00:19:27Z</time>
      </trkpt>
      <trkpt lat="46.05689" lon="6.93451">
        <ele>1401.8</ele>
        <time>2010-01-01T00:19:29Z</time>
      </trkpt>
      <trkpt lat="46.05692" lon="6.93447">
        <ele>1403.7</ele>
        <time>2010-01-01T00:19:30Z</time>
      </trkpt>
      <trkpt lat="46.05696" lon="6.93454">
        <ele>1402.5</ele>
        <time>2010-01-01T00:19:33Z</time>
      </trkpt>
      <trkpt lat="46.05699" lon="6.93459">
        <ele>1408.5</ele>
        <time>2010-01-01T00:19:35Z</time>
      </trkpt>
      <trkpt lat="46.05703" lon="6.93462">
        <ele>1401.7</ele>
        <time>2010-01-01T00:19:37Z</time>
      </trkpt>
      <trkpt lat="46.05706" lon="6.93457">
        <ele>1403.7</ele>
        <time>2010-01-01T00:19:38Z</time>
      </trkpt>
      <trkpt lat="46.0571" lon="6.93454">
        <ele>1405.2</ele>
        <time>2010-01-01T00:19:40Z</time>
      </trkpt>
      <trkpt lat="46.05718" lon="6.93454">
        <ele>1409</ele>
        <time>2010-01-01T00:19:43Z</time>
      </trkpt>
      <trkpt lat="46.05723" lon="6.93451">
        <ele>1408.5</ele>
        <time>2010-01-01T00:19:46Z</time>
      </trkpt>
      <trkpt lat="46.05728" lon="6.93451">
        <ele>1409.2</ele>
        <time>2010-01-01T00:19:48Z</time>
      </trkpt>
      <trkpt lat="46.05732" lon="6.93449">
        <ele>1410.3</ele>
        <time>2010-01-01T00:19:49Z</time>
      </trkpt>
      <trkpt lat="46.05737" lon="6.93447">
        <ele>1421</ele>
        <time>2010-01-01T00:19:51Z</time>
      </trkpt>
      <trkpt lat="46.05741" lon="6.93446">
        <ele>1412.3</ele>
        <time>2010-01-01T00:19:53Z</time>
      </trkpt>
      <trkpt lat="46.05746" lon="6.93446">
        <ele>1413</ele>
        <time>2010-01-01T00:19:55Z</time>
      </trkpt>
      <trkpt lat="46.05754" lon="6.93448">
        <ele>1413.8</ele>
        <time>2010-01-01T00:19:58Z</time>
      </trkpt>
      <trkpt lat="46.05758" lon="6.93449">
        <ele>1426</ele>
        <time>2010-01-01T00:20:00Z</time>
      </trkpt>
      <trkpt lat="46.0578" lon="6.93464">
        <ele>1426</ele>
        <time>2010-01-01T00:20:10Z</time>
      </trkpt>
      <trkpt lat="46.05786" lon="6.93464">
        <ele>1416.1</ele>
        <time>2010-01-01T00:20:12Z</time>
      </trkpt>
      <trkpt lat="46.05791" lon="6.93465">
        <ele>1416.6</ele>
        <time>2010-01-01T00:20:14Z</time>
      </trkpt>
      <trkpt lat="46.05797" lon="6.93466">
        <ele>1417.2</ele>
        <time>2010-01-01T00:20:16Z</time>
      </trkpt>
      <trkpt lat="46.05803" lon="6.93467">
        <ele>1428</ele>
        <time>2010-01-01T00:20:19Z</time>
      </trkpt>
      <trkpt lat="46.05809" lon="6.93468">
        <ele>1419.1</ele>
        <time>2010-01-01T00:20:21Z</time>
      </trkpt>
      <trkpt lat="46.05813" lon="6.9347">
        <ele>1420</ele>
        <time>2010-01-01T00:20:23Z</time>
      </trkpt>
      <trkpt lat="46.05817" lon="6.9347">
        <ele>1421.7</ele>
        <time>2010-01-01T00:20:25Z</time>
      </trkpt>
      <trkpt lat="46.05821" lon="6.9347">
        <ele>1430</ele>
        <time>2010-01-01T00:20:26Z</time>
      </trkpt>
      <trkpt lat="46.05827" lon="6.93473">
        <ele>1425</ele>
        <time>2010-01-01T00:20:29Z</time>
      </trkpt>
      <trkpt lat="46.05832" lon="6.93473">
        <ele>1427.1</ele>
        <time>2010-01-01T00:20:31Z</time>
      </trkpt>
      <trkpt lat="46.05838" lon="6.93475">
        <ele>1428.2</ele>
        <time>2010-01-01T00:20:33Z</time>
      </trkpt>
      <trkpt lat="46.05842" lon="6.93477">
        <ele>1436</ele>
        <time>2010-01-01T00:20:35Z</time>
      </trkpt>
      <trkpt lat="46.05848" lon="6.93477">
        <ele>1430.2</ele>
        <time>2010-01-01T00:20:37Z</time>
      </trkpt>
      <trkpt lat="46.05852" lon="6.93474">
        <ele>1432.2</ele>
        <time>2010-01-01T00:20:39Z</time>
      </trkpt>
      <trkpt lat="46.05856" lon="6.93471">
        <ele>1433.9</ele>
        <time>2010-01-01T00:20:41Z</time>
      </trkpt>
      <trkpt lat="46.05861" lon="6.93471">
        <ele>1436</ele>
        <time>2010-01-01T00:20:43Z</time>
      </trkpt>
      <trkpt lat="46.05865" lon="6.93468">
        <ele>1437</ele>
        <time>2010-01-01T00:20:45Z</time>
      </trkpt>
      <trkpt lat="46.05869" lon="6.93465">
        <ele>1439</ele>
        <time>2010-01-01T00:20:47Z</time>
      </trkpt>
      <trkpt lat="46.05872" lon="6.93459">
        <ele>1441</ele>
        <time>2010-01-01T00:20:49Z</time>
      </trkpt>
      <trkpt lat="46.05876" lon="6.93455">
        <ele>1444</ele>
        <time>2010-01-01T00:20:51Z</time>
      </trkpt>
      <trkpt lat="46.0588" lon="6.93453">
        <ele>1445</ele>
        <time>2010-01-01T00:20:52Z</time>
      </trkpt>
      <trkpt lat="46.05883" lon="6.93447">
        <ele>1447.2</ele>
        <time>2010-01-01T00:20:54Z</time>
      </trkpt>
      <trkpt lat="46.05884" lon="6.93441">
        <ele>1448.9</ele>
        <time>2010-01-01T00:20:56Z</time>
      </trkpt>
      <trkpt lat="46.05884" lon="6.93434">
        <ele>1450.7</ele>
        <time>2010-01-01T00:20:58Z</time>
      </trkpt>
      <trkpt lat="46.05881" lon="6.93428">
        <ele>1460</ele>
        <time>2010-01-01T00:21:00Z</time>
      </trkpt>
      <trkpt lat="46.05879" lon="6.93422">
        <ele>1451.7</ele>
        <time>2010-01-01T00:21:02Z</time>
      </trkpt>
      <trkpt lat="46.05875" lon="6.93415">
        <ele>1452.1</ele>
        <time>2010-01-01T00:21:04Z</time>
      </trkpt>
      <trkpt lat="46.05874" lon="6.93407">
        <ele>1454.6</ele>
        <time>2010-01-01T00:21:07Z</time>
      </trkpt>
      <trkpt lat="46.0587" lon="6.93402">
        <ele>1460</ele>
        <time>2010-01-01T00:21:09Z</time>
      </trkpt>
      <trkpt lat="46.05867" lon="6.93399">
        <ele>1454.3</ele>
        <time>2010-01-01T00:21:10Z</time>
      </trkpt>
      <trkpt lat="46.05864" lon="6.93393">
        <ele>1455</ele>
        <time>2010-01-01T00:21:12Z</time>
      </trkpt>
      <trkpt lat="46.05867" lon="6.93391">
        <ele>1457</ele>
        <time>2010-01-01T00:21:14Z</time>
      </trkpt>
      <trkpt lat="46.05872" lon="6.93388">
        <ele>1460.4</ele>
        <time>2010-01-01T00:21:16Z</time>
      </trkpt>
      <trkpt lat="46.05876" lon="6.93388">
        <ele>1460</ele>
        <time>2010-01-01T00:21:17Z</time>
      </trkpt>
      <trkpt lat="46.0588" lon="6.93389">
        <ele>1463.8</ele>
        <time>2010-01-01T00:21:19Z</time>
      </trkpt>
      <trkpt lat="46.05882" lon="6.93383">
        <ele>1466.8</ele>
        <time>2010-01-01T00:21:21Z</time>
      </trkpt>
      <trkpt lat="46.05882" lon="6.93375">
        <ele>1469.7</ele>
        <time>2010-01-01T00:21:23Z</time>
      </trkpt>
      <trkpt lat="46.05884" lon="6.93369">
        <ele>1471</ele>
        <time>2010-01-01T00:21:25Z</time>
      </trkpt>
      <trkpt lat="46.05889" lon="6.93375">
        <ele>1473.1</ele>
        <time>2010-01-01T00:21:28Z</time>
      </trkpt>
      <trkpt lat="46.05894" lon="6.93373">
        <ele>1477.5</ele>
        <time>2010-01-01T00:21:30Z</time>
      </trkpt>
      <trkpt lat="46.05897" lon="6.9337">
        <ele>1480.8</ele>
        <time>2010-01-01T00:21:31Z</time>
      </trkpt>
      <trkpt lat="46.059" lon="6.93367">
        <ele>1479</ele>
        <time>2010-01-01T00:21:33Z</time>
      </trkpt>
      <trkpt lat="46.05901" lon="6.93361">
        <ele>1487.2</ele>
        <time>2010-01-01T00:21:34Z</time>
      </trkpt>
      <trkpt lat="46.05899" lon="6.93355">
        <ele>1488.3</ele>
        <time>2010-01-01T00:21:36Z</time>
      </trkpt>
      <trkpt lat="46.05898" lon="6.93349">
        <ele>1490.1</ele>
        <time>2010-01-01T00:21:38Z</time>
      </trkpt>
      <trkpt lat="46.05902" lon="6.93349">
        <ele>1493</ele>
        <time>2010-01-01T00:21:39Z</time>
      </trkpt>
      <trkpt lat="46.05907" lon="6.93351">
        <ele>1479</ele>
        <time>2010-01-01T00:21:41Z</time>
      </trkpt>
      <trkpt lat="46.05909" lon="6.93345">
        <ele>1499.5</ele>
        <time>2010-01-01T00:21:43Z</time>
      </trkpt>
      <trkpt lat="46.05912" lon="6.93341">
        <ele>1503.1</ele>
        <time>2010-01-01T00:21:45Z</time>
      </trkpt>
      <trkpt lat="46.05912" lon="6.93335">
        <ele>1505.3</ele>
        <time>2010-01-01T00:21:47Z</time>
      </trkpt>
      <trkpt lat="46.0591" lon="6.9333">
        <ele>1506.5</ele>
        <time>2010-01-01T00:21:48Z</time>
      </trkpt>
      <trkpt lat="46.05907" lon="6.93325">
        <ele>1495</ele>
        <time>2010-01-01T00:21:50Z</time>
      </trkpt>
      <trkpt lat="46.05909" lon="6.93318">
        <ele>1512.4</ele>
        <time>2010-01-01T00:21:52Z</time>
      </trkpt>
      <trkpt lat="46.05913" lon="6.93319">
        <ele>1514.7</ele>
        <time>2010-01-01T00:21:54Z</time>
      </trkpt>
      <trkpt lat="46.05918" lon="6.93324">
        <ele>1515.2</ele>
        <time>2010-01-01T00:21:56Z</time>
      </trkpt>
      <trkpt lat="46.05922" lon="6.93327">
        <ele>1506</ele>
        <time>2010-01-01T00:21:58Z</time>
      </trkpt>
      <trkpt lat="46.05926" lon="6.93332">
        <ele>1515.8</ele>
        <time>2010-01-01T00:22:00Z</time>
      </trkpt>
      <trkpt lat="46.0593" lon="6.93336">
        <ele>1516.6</ele>
        <time>2010-01-01T00:22:02Z</time>
      </trkpt>
      <trkpt lat="46.05934" lon="6.9334">
        <ele>1517.7</ele>
        <time>2010-01-01T00:22:04Z</time>
      </trkpt>
      <trkpt lat="46.05938" lon="6.93343">
        <ele>1506</ele>
        <time>2010-01-01T00:22:06Z</time>
      </trkpt>
      <trkpt lat="46.05938" lon="6.93349">
        <ele>1516.8</ele>
        <time>2010-01-01T00:22:08Z</time>
      </trkpt>
      <trkpt lat="46.05941" lon="6.93355">
        <ele>1516.3</ele>
        <time>2010-01-01T00:22:10Z</time>
      </trkpt>
      <trkpt lat="46.05944" lon="6.9336">
        <ele>1516.2</ele>
        <time>2010-01-01T00:22:11Z</time>
      </trkpt>
      <trkpt lat="46.05945" lon="6.93365">
        <ele>1514.8</ele>
        <time>2010-01-01T00:22:13Z</time>
      </trkpt>
      <trkpt lat="46.05949" lon="6.93369">
        <ele>1509</ele>
        <time>2010-01-01T00:22:15Z</time>
      </trkpt>
      <trkpt lat="46.05954" lon="6.93369">
        <ele>1517.3</ele>
        <time>2010-01-01T00:22:17Z</time>
      </trkpt>
      <trkpt lat="46.05958" lon="6.93368">
        <ele>1519.4</ele>
        <time>2010-01-01T00:22:18Z</time>
      </trkpt>
      <trkpt lat="46.05962" lon="6.93364">
        <ele>1522.5</ele>
        <time>2010-01-01T00:22:20Z</time>
      </trkpt>
      <trkpt lat="46.05967" lon="6.93365">
        <ele>1512</ele>
        <time>2010-01-01T00:22:22Z</time>
      </trkpt>
      <trkpt lat="46.05968" lon="6.93371">
        <ele>1522.6</ele>
        <time>2010-01-01T00:22:24Z</time>
      </trkpt>
      <trkpt lat="46.05973" lon="6.93374">
        <ele>1523.8</ele>
        <time>2010-01-01T00:22:26Z</time>
      </trkpt>
      <trkpt lat="46.05977" lon="6.93371">
        <ele>1527.1</ele>
        <time>2010-01-01T00:22:28Z</time>
      </trkpt>
      <trkpt lat="46.05981" lon="6.93369">
        <ele>1527</ele>
        <time>2010-01-01T00:22:30Z</time>
      </trkpt>
      <trkpt lat="46.05984" lon="6.93372">
        <ele>1530.7</ele>
        <time>2010-01-01T00:22:31Z</time>
      </trkpt>
      <trkpt lat="46.05988" lon="6.93378">
        <ele>1531.3</ele>
        <time>2010-01-01T00:22:34Z</time>
      </trkpt>
      <trkpt lat="46.05993" lon="6.9338">
        <ele>1533.7</ele>
        <time>2010-01-01T00:22:36Z</time>
      </trkpt>
      <trkpt lat="46.05997" lon="6.93381">
        <ele>1535.9</ele>
        <time>2010-01-01T00:22:37Z</time>
      </trkpt>
      <trkpt lat="46.06002" lon="6.93379">
        <ele>1527</ele>
        <time>2010-01-01T00:22:39Z</time>
      </trkpt>
      <trkpt lat="46.06006" lon="6.9338">
        <ele>1545</ele>
        <time>2010-01-01T00:22:41Z</time>
      </trkpt>
      <trkpt lat="46.06011" lon="6.93385">
        <ele>1549.9</ele>
        <time>2010-01-01T00:22:43Z</time>
      </trkpt>
      <trkpt lat="46.06013" lon="6.93389">
        <ele>1551.4</ele>
        <time>2010-01-01T00:22:45Z</time>
      </trkpt>
      <trkpt lat="46.06017" lon="6.93394">
        <ele>1555.7</ele>
        <time>2010-01-01T00:22:47Z</time>
      </trkpt>
      <trkpt lat="46.06019" lon="6.93401">
        <ele>1539</ele>
        <time>2010-01-01T00:22:49Z</time>
      </trkpt>
      <trkpt lat="46.06021" lon="6.93408">
        <ele>1558.3</ele>
        <time>2010-01-01T00:22:51Z</time>
      </trkpt>
      <trkpt lat="46.06022" lon="6.93415">
        <ele>1558.3</ele>
        <time>2010-01-01T00:22:53Z</time>
      </trkpt>
      <trkpt lat="46.06024" lon="6.93423">
        <ele>1559.5</ele>
        <time>2010-01-01T00:22:55Z</time>
      </trkpt>
      <trkpt lat="46.06022" lon="6.9343">
        <ele>1545.5</ele>
        <time>2010-01-01T00:22:58Z</time>
      </trkpt>
      <trkpt lat="46.06021" lon="6.93436">
        <ele>1557.1</ele>
        <time>2010-01-01T00:22:59Z</time>
      </trkpt>
      <trkpt lat="46.06022" lon="6.93442">
        <ele>1557.7</ele>
        <time>2010-01-01T00:23:01Z</time>
      </trkpt>
      <trkpt lat="46.06023" lon="6.93448">
        <ele>1558.4</ele>
        <time>2010-01-01T00:23:03Z</time>
      </trkpt>
      <trkpt lat="46.06027" lon="6.93452">
        <ele>1560.6</ele>
        <time>2010-01-01T00:23:05Z</time>
      </trkpt>
      <trkpt lat="46.06029" lon="6.93457">
        <ele>1552</ele>
        <time>2010-01-01T00:23:06Z</time>
      </trkpt>
      <trkpt lat="46.06031" lon="6.93463">
        <ele>1562.5</ele>
        <time>2010-01-01T00:23:08Z</time>
      </trkpt>
      <trkpt lat="46.06035" lon="6.93468">
        <ele>1564.1</ele>
        <time>2010-01-01T00:23:10Z</time>
      </trkpt>
      <trkpt lat="46.06038" lon="6.93474">
        <ele>1564.9</ele>
        <time>2010-01-01T00:23:12Z</time>
      </trkpt>
      <trkpt lat="46.06041" lon="6.93479">
        <ele>1553</ele>
        <time>2010-01-01T00:23:14Z</time>
      </trkpt>
      <trkpt lat="46.06043" lon="6.93486">
        <ele>1566</ele>
        <time>2010-01-01T00:23:16Z</time>
      </trkpt>
      <trkpt lat="46.06047" lon="6.93486">
        <ele>1567.4</ele>
        <time>2010-01-01T00:23:18Z</time>
      </trkpt>
      <trkpt lat="46.06051" lon="6.93486">
        <ele>1568.9</ele>
        <time>2010-01-01T00:23:19Z</time>
      </trkpt>
      <trkpt lat="46.06058" lon="6.93489">
        <ele>1553</ele>
        <time>2010-01-01T00:23:22Z</time>
      </trkpt>
      <trkpt lat="46.06063" lon="6.93491">
        <ele>1572.4</ele>
        <time>2010-01-01T00:23:24Z</time>
      </trkpt>
      <trkpt lat="46.06068" lon="6.93495">
        <ele>1573.4</ele>
        <time>2010-01-01T00:23:27Z</time>
      </trkpt>
      <trkpt lat="46.06073" lon="6.93495">
        <ele>1574.9</ele>
        <time>2010-01-01T00:23:29Z</time>
      </trkpt>
      <trkpt lat="46.06077" lon="6.93497">
        <ele>1568</ele>
        <time>2010-01-01T00:23:30Z</time>
      </trkpt>
      <trkpt lat="46.06081" lon="6.93499">
        <ele>1576.5</ele>
        <time>2010-01-01T00:23:32Z</time>
      </trkpt>
      <trkpt lat="46.06087" lon="6.93498">
        <ele>1578.5</ele>
        <time>2010-01-01T00:23:34Z</time>
      </trkpt>
      <trkpt lat="46.06091" lon="6.93499">
        <ele>1579.4</ele>
        <time>2010-01-01T00:23:36Z</time>
      </trkpt>
      <trkpt lat="46.06095" lon="6.93502">
        <ele>1579</ele>
        <time>2010-01-01T00:23:38Z</time>
      </trkpt>
      <trkpt lat="46.061" lon="6.93503">
        <ele>1581.3</ele>
        <time>2010-01-01T00:23:40Z</time>
      </trkpt>
      <trkpt lat="46.06104" lon="6.93504">
        <ele>1582.2</ele>
        <time>2010-01-01T00:23:42Z</time>
      </trkpt>
      <trkpt lat="46.06109" lon="6.93506">
        <ele>1583.3</ele>
        <time>2010-01-01T00:23:44Z</time>
      </trkpt>
      <trkpt lat="46.06112" lon="6.93503">
        <ele>1584.7</ele>
        <time>2010-01-01T00:23:45Z</time>
      </trkpt>
      <trkpt lat="46.06114" lon="6.93496">
        <ele>1579</ele>
        <time>2010-01-01T00:23:47Z</time>
      </trkpt>
      <trkpt lat="46.06118" lon="6.93491">
        <ele>1588.8</ele>
        <time>2010-01-01T00:23:49Z</time>
      </trkpt>
      <trkpt lat="46.06122" lon="6.93492">
        <ele>1589.8</ele>
        <time>2010-01-01T00:23:51Z</time>
      </trkpt>
      <trkpt lat="46.06128" lon="6.93496">
        <ele>1590.6</ele>
        <time>2010-01-01T00:23:54Z</time>
      </trkpt>
      <trkpt lat="46.06131" lon="6.93501">
        <ele>1586</ele>
        <time>2010-01-01T00:23:55Z</time>
      </trkpt>
      <trkpt lat="46.06135" lon="6.93504">
        <ele>1591.2</ele>
        <time>2010-01-01T00:23:57Z</time>
      </trkpt>
      <trkpt lat="46.06139" lon="6.93508">
        <ele>1591.6</ele>
        <time>2010-01-01T00:23:59Z</time>
      </trkpt>
      <trkpt lat="46.06144" lon="6.9351">
        <ele>1592.4</ele>
        <time>2010-01-01T00:24:01Z</time>
      </trkpt>
      <trkpt lat="46.06149" lon="6.93511">
        <ele>1591</ele>
        <time>2010-01-01T00:24:03Z</time>
      </trkpt>
      <trkpt lat="46.06154" lon="6.93513">
        <ele>1594.2</ele>
        <time>2010-01-01T00:24:05Z</time>
      </trkpt>
      <trkpt lat="46.06157" lon="6.9352">
        <ele>1593.8</ele>
        <time>2010-01-01T00:24:08Z</time>
      </trkpt>
      <trkpt lat="46.06159" lon="6.93524">
        <ele>1593.6</ele>
        <time>2010-01-01T00:24:09Z</time>
      </trkpt>
      <trkpt lat="46.06159" lon="6.9353">
        <ele>1592.6</ele>
        <time>2010-01-01T00:24:11Z</time>
      </trkpt>
      <trkpt lat="46.0616" lon="6.93537">
        <ele>1591</ele>
        <time>2010-01-01T00:24:13Z</time>
      </trkpt>
      <trkpt lat="46.06164" lon="6.93533">
        <ele>1593.2</ele>
        <time>2010-01-01T00:24:15Z</time>
      </trkpt>
      <trkpt lat="46.06168" lon="6.93541">
        <ele>1592.3</ele>
        <time>2010-01-01T00:24:17Z</time>
      </trkpt>
      <trkpt lat="46.0617" lon="6.93545">
        <ele>1591.8</ele>
        <time>2010-01-01T00:24:19Z</time>
      </trkpt>
      <trkpt lat="46.06173" lon="6.93551">
        <ele>1589</ele>
        <time>2010-01-01T00:24:21Z</time>
      </trkpt>
      <trkpt lat="46.06177" lon="6.93555">
        <ele>1590.6</ele>
        <time>2010-01-01T00:24:23Z</time>
      </trkpt>
      <trkpt lat="46.0618" lon="6.93549">
        <ele>1592.3</ele>
        <time>2010-01-01T00:24:25Z</time>
      </trkpt>
      <trkpt lat="46.06177" lon="6.93545">
        <ele>1592.8</ele>
        <time>2010-01-01T00:24:26Z</time>
      </trkpt>
      <trkpt lat="46.06178" lon="6.93539">
        <ele>1594.2</ele>
        <time>2010-01-01T00:24:28Z</time>
      </trkpt>
      <trkpt lat="46.06181" lon="6.93536">
        <ele>1591</ele>
        <time>2010-01-01T00:24:30Z</time>
      </trkpt>
      <trkpt lat="46.06185" lon="6.93532">
        <ele>1596.7</ele>
        <time>2010-01-01T00:24:32Z</time>
      </trkpt>
      <trkpt lat="46.06188" lon="6.93527">
        <ele>1598.2</ele>
        <time>2010-01-01T00:24:33Z</time>
      </trkpt>
      <trkpt lat="46.06191" lon="6.93522">
        <ele>1599.3</ele>
        <time>2010-01-01T00:24:35Z</time>
      </trkpt>
      <trkpt lat="46.06193" lon="6.93515">
        <ele>1593</ele>
        <time>2010-01-01T00:24:37Z</time>
      </trkpt>
      <trkpt lat="46.06194" lon="6.93507">
        <ele>1601.9</ele>
        <time>2010-01-01T00:24:40Z</time>
      </trkpt>
      <trkpt lat="46.06191" lon="6.93502">
        <ele>1602.2</ele>
        <time>2010-01-01T00:24:41Z</time>
      </trkpt>
      <trkpt lat="46.0619" lon="6.93497">
        <ele>1602.8</ele>
        <time>2010-01-01T00:24:43Z</time>
      </trkpt>
      <trkpt lat="46.0619" lon="6.9349">
        <ele>1603.8</ele>
        <time>2010-01-01T00:24:45Z</time>
      </trkpt>
      <trkpt lat="46.06191" lon="6.93484">
        <ele>1593</ele>
        <time>2010-01-01T00:24:47Z</time>
      </trkpt>
      <trkpt lat="46.06194" lon="6.93479">
        <ele>1606</ele>
        <time>2010-01-01T00:24:48Z</time>
      </trkpt>
      <trkpt lat="46.06196" lon="6.93473">
        <ele>1607</ele>
        <time>2010-01-01T00:24:50Z</time>
      </trkpt>
      <trkpt lat="46.06201" lon="6.93472">
        <ele>1607.5</ele>
        <time>2010-01-01T00:24:52Z</time>
      </trkpt>
      <trkpt lat="46.06207" lon="6.93471">
        <ele>1605</ele>
        <time>2010-01-01T00:24:55Z</time>
      </trkpt>
      <trkpt lat="46.0621" lon="6.93465">
        <ele>1609.3</ele>
        <time>2010-01-01T00:24:57Z</time>
      </trkpt>
      <trkpt lat="46.06209" lon="6.93458">
        <ele>1610.3</ele>
        <time>2010-01-01T00:24:59Z</time>
      </trkpt>
      <trkpt lat="46.0621" lon="6.93453">
        <ele>1611.2</ele>
        <time>2010-01-01T00:25:00Z</time>
      </trkpt>
      <trkpt lat="46.06208" lon="6.93447">
        <ele>1605</ele>
        <time>2010-01-01T00:25:02Z</time>
      </trkpt>
      <trkpt lat="46.06208" lon="6.93442">
        <ele>1612.9</ele>
        <time>2010-01-01T00:25:03Z</time>
      </trkpt>
      <trkpt lat="46.06211" lon="6.93438">
        <ele>1613.8</ele>
        <time>2010-01-01T00:25:05Z</time>
      </trkpt>
      <trkpt lat="46.06215" lon="6.9343">
        <ele>1615.3</ele>
        <time>2010-01-01T00:25:08Z</time>
      </trkpt>
      <trkpt lat="46.06214" lon="6.93425">
        <ele>1616.2</ele>
        <time>2010-01-01T00:25:09Z</time>
      </trkpt>
      <trkpt lat="46.06215" lon="6.93419">
        <ele>1612</ele>
        <time>2010-01-01T00:25:11Z</time>
      </trkpt>
      <trkpt lat="46.06213" lon="6.93413">
        <ele>1618.7</ele>
        <time>2010-01-01T00:25:13Z</time>
      </trkpt>
      <trkpt lat="46.0621" lon="6.93408">
        <ele>1620.1</ele>
        <time>2010-01-01T00:25:15Z</time>
      </trkpt>
      <trkpt lat="46.06209" lon="6.93402">
        <ele>1621.7</ele>
        <time>2010-01-01T00:25:16Z</time>
      </trkpt>
      <trkpt lat="46.0621" lon="6.93395">
        <ele>1623.8</ele>
        <time>2010-01-01T00:25:18Z</time>
      </trkpt>
      <trkpt lat="46.06212" lon="6.93388">
        <ele>1624</ele>
        <time>2010-01-01T00:25:20Z</time>
      </trkpt>
      <trkpt lat="46.06214" lon="6.93382">
        <ele>1627.8</ele>
        <time>2010-01-01T00:25:22Z</time>
      </trkpt>
      <trkpt lat="46.06215" lon="6.93376">
        <ele>1629.6</ele>
        <time>2010-01-01T00:25:24Z</time>
      </trkpt>
      <trkpt lat="46.06217" lon="6.93371">
        <ele>1631.1</ele>
        <time>2010-01-01T00:25:26Z</time>
      </trkpt>
      <trkpt lat="46.06219" lon="6.93365">
        <ele>1632.9</ele>
        <time>2010-01-01T00:25:27Z</time>
      </trkpt>
      <trkpt lat="46.06221" lon="6.9336">
        <ele>1634</ele>
        <time>2010-01-01T00:25:29Z</time>
      </trkpt>
      <trkpt lat="46.06224" lon="6.93354">
        <ele>1636.8</ele>
        <time>2010-01-01T00:25:31Z</time>
      </trkpt>
      <trkpt lat="46.06221" lon="6.93348">
        <ele>1638.7</ele>
        <time>2010-01-01T00:25:33Z</time>
      </trkpt>
      <trkpt lat="46.06222" lon="6.93343">
        <ele>1640.5</ele>
        <time>2010-01-01T00:25:35Z</time>
      </trkpt>
      <trkpt lat="46.06223" lon="6.93335">
        <ele>1644</ele>
        <time>2010-01-01T00:25:37Z</time>
      </trkpt>
      <trkpt lat="46.06224" lon="6.9333">
        <ele>1645.9</ele>
        <time>2010-01-01T00:25:38Z</time>
      </trkpt>
      <trkpt lat="46.0622" lon="6.93328">
        <ele>1646.6</ele>
        <time>2010-01-01T00:25:40Z</time>
      </trkpt>
      <trkpt lat="46.06218" lon="6.93322">
        <ele>1649.5</ele>
        <time>2010-01-01T00:25:42Z</time>
      </trkpt>
      <trkpt lat="46.06219" lon="6.93316">
        <ele>1652.2</ele>
        <time>2010-01-01T00:25:44Z</time>
      </trkpt>
      <trkpt lat="46.06219" lon="6.93309">
        <ele>1653</ele>
        <time>2010-01-01T00:25:45Z</time>
      </trkpt>
      <trkpt lat="46.06221" lon="6.93305">
        <ele>1657.3</ele>
        <time>2010-01-01T00:25:47Z</time>
      </trkpt>
      <trkpt lat="46.06224" lon="6.93302">
        <ele>1658.8</ele>
        <time>2010-01-01T00:25:48Z</time>
      </trkpt>
      <trkpt lat="46.06219" lon="6.93302">
        <ele>1658.7</ele>
        <time>2010-01-01T00:25:50Z</time>
      </trkpt>
      <trkpt lat="46.06216" lon="6.93299">
        <ele>1660.1</ele>
        <time>2010-01-01T00:25:52Z</time>
      </trkpt>
      <trkpt lat="46.06213" lon="6.93294">
        <ele>1661</ele>
        <time>2010-01-01T00:25:54Z</time>
      </trkpt>
      <trkpt lat="46.06212" lon="6.93286">
        <ele>1666.1</ele>
        <time>2010-01-01T00:25:56Z</time>
      </trkpt>
      <trkpt lat="46.06211" lon="6.93278">
        <ele>1669.7</ele>
        <time>2010-01-01T00:25:58Z</time>
      </trkpt>
      <trkpt lat="46.06208" lon="6.93272">
        <ele>1672.7</ele>
        <time>2010-01-01T00:26:00Z</time>
      </trkpt>
      <trkpt lat="46.06205" lon="6.93267">
        <ele>1661</ele>
        <time>2010-01-01T00:26:02Z</time>
      </trkpt>
      <trkpt lat="46.06207" lon="6.93258">
        <ele>1679.4</ele>
        <time>2010-01-01T00:26:05Z</time>
      </trkpt>
      <trkpt lat="46.06211" lon="6.93254">
        <ele>1680.8</ele>
        <time>2010-01-01T00:26:07Z</time>
      </trkpt>
      <trkpt lat="46.06215" lon="6.93246">
        <ele>1684</ele>
        <time>2010-01-01T00:26:09Z</time>
      </trkpt>
      <trkpt lat="46.06219" lon="6.93243">
        <ele>1669</ele>
        <time>2010-01-01T00:26:11Z</time>
      </trkpt>
      <trkpt lat="46.06224" lon="6.93239">
        <ele>1686.5</ele>
        <time>2010-01-01T00:26:13Z</time>
      </trkpt>
      <trkpt lat="46.06225" lon="6.93233">
        <ele>1689.4</ele>
        <time>2010-01-01T00:26:15Z</time>
      </trkpt>
      <trkpt lat="46.06228" lon="6.93227">
        <ele>1692</ele>
        <time>2010-01-01T00:26:17Z</time>
      </trkpt>
      <trkpt lat="46.06232" lon="6.93222">
        <ele>1675</ele>
        <time>2010-01-01T00:26:19Z</time>
      </trkpt>
      <trkpt lat="46.06234" lon="6.93215">
        <ele>1696.1</ele>
        <time>2010-01-01T00:26:21Z</time>
      </trkpt>
      <trkpt lat="46.06233" lon="6.93209">
        <ele>1698.7</ele>
        <time>2010-01-01T00:26:23Z</time>
      </trkpt>
      <trkpt lat="46.06226" lon="6.9321">
        <ele>1699.9</ele>
        <time>2010-01-01T00:26:26Z</time>
      </trkpt>
      <trkpt lat="46.06221" lon="6.9321">
        <ele>1680</ele>
        <time>2010-01-01T00:26:28Z</time>
      </trkpt>
      <trkpt lat="46.06218" lon="6.93205">
        <ele>1703.6</ele>
        <time>2010-01-01T00:26:30Z</time>
      </trkpt>
      <trkpt lat="46.06214" lon="6.93209">
        <ele>1702.2</ele>
        <time>2010-01-01T00:26:32Z</time>
      </trkpt>
      <trkpt lat="46.0621" lon="6.93214">
        <ele>1700.3</ele>
        <time>2010-01-01T00:26:34Z</time>
      </trkpt>
      <trkpt lat="46.06208" lon="6.93209">
        <ele>1703</ele>
        <time>2010-01-01T00:26:35Z</time>
      </trkpt>
      <trkpt lat="46.06203" lon="6.93206">
        <ele>1680</ele>
        <time>2010-01-01T00:26:38Z</time>
      </trkpt>
      <trkpt lat="46.062" lon="6.93206">
        <ele>1705.5</ele>
        <time>2010-01-01T00:26:39Z</time>
      </trkpt>
      <trkpt lat="46.06196" lon="6.9321">
        <ele>1704</ele>
        <time>2010-01-01T00:26:41Z</time>
      </trkpt>
      <trkpt lat="46.06193" lon="6.93211">
        <ele>1703.7</ele>
        <time>2010-01-01T00:26:42Z</time>
      </trkpt>
      <trkpt lat="46.0619" lon="6.93203">
        <ele>1707.6</ele>
        <time>2010-01-01T00:26:45Z</time>
      </trkpt>
      <trkpt lat="46.06186" lon="6.932">
        <ele>1688</ele>
        <time>2010-01-01T00:26:46Z</time>
      </trkpt>
      <trkpt lat="46.06184" lon="6.93196">
        <ele>1710.9</ele>
        <time>2010-01-01T00:26:48Z</time>
      </trkpt>
      <trkpt lat="46.06181" lon="6.93192">
        <ele>1712.6</ele>
        <time>2010-01-01T00:26:49Z</time>
      </trkpt>
      <trkpt lat="46.06178" lon="6.93188">
        <ele>1714.2</ele>
        <time>2010-01-01T00:26:51Z</time>
      </trkpt>
      <trkpt lat="46.06174" lon="6.93184">
        <ele>1715.7</ele>
        <time>2010-01-01T00:26:53Z</time>
      </trkpt>
      <trkpt lat="46.06171" lon="6.93179">
        <ele>1688</ele>
        <time>2010-01-01T00:26:55Z</time>
      </trkpt>
      <trkpt lat="46.06171" lon="6.93173">
        <ele>1720</ele>
        <time>2010-01-01T00:26:56Z</time>
      </trkpt>
      <trkpt lat="46.06169" lon="6.93167">
        <ele>1722.2</ele>
        <time>2010-01-01T00:26:58Z</time>
      </trkpt>
      <trkpt lat="46.06167" lon="6.93161">
        <ele>1724.3</ele>
        <time>2010-01-01T00:27:00Z</time>
      </trkpt>
      <trkpt lat="46.06165" lon="6.93156">
        <ele>1725.6</ele>
        <time>2010-01-01T00:27:02Z</time>
      </trkpt>
      <trkpt lat="46.06166" lon="6.9315">
        <ele>1689.5</ele>
        <time>2010-01-01T00:27:03Z</time>
      </trkpt>
      <trkpt lat="46.0617" lon="6.93146">
        <ele>1730.9</ele>
        <time>2010-01-01T00:27:05Z</time>
      </trkpt>
      <trkpt lat="46.06174" lon="6.93144">
        <ele>1732.7</ele>
        <time>2010-01-01T00:27:07Z</time>
      </trkpt>
      <trkpt lat="46.06178" lon="6.93143">
        <ele>1734</ele>
        <time>2010-01-01T00:27:09Z</time>
      </trkpt>
      <trkpt lat="46.06182" lon="6.93143">
        <ele>1735</ele>
        <time>2010-01-01T00:27:10Z</time>
      </trkpt>
      <trkpt lat="46.06187" lon="6.93141">
        <ele>1689.7</ele>
        <time>2010-01-01T00:27:12Z</time>
      </trkpt>
      <trkpt lat="46.06192" lon="6.93137">
        <ele>1740.4</ele>
        <time>2010-01-01T00:27:15Z</time>
      </trkpt>
      <trkpt lat="46.06196" lon="6.93133">
        <ele>1743.2</ele>
        <time>2010-01-01T00:27:17Z</time>
      </trkpt>
      <trkpt lat="46.06198" lon="6.93128">
        <ele>1745.9</ele>
        <time>2010-01-01T00:27:18Z</time>
      </trkpt>
      <trkpt lat="46.06201" lon="6.93125">
        <ele>1747.5</ele>
        <time>2010-01-01T00:27:20Z</time>
      </trkpt>
      <trkpt lat="46.06205" lon="6.93124">
        <ele>1690</ele>
        <time>2010-01-01T00:27:21Z</time>
      </trkpt>
      <trkpt lat="46.06208" lon="6.93119">
        <ele>1750.7</ele>
        <time>2010-01-01T00:27:23Z</time>
      </trkpt>
      <trkpt lat="46.06211" lon="6.93114">
        <ele>1753.4</ele>
        <time>2010-01-01T00:27:25Z</time>
      </trkpt>
      <trkpt lat="46.06214" lon="6.93109">
        <ele>1756.3</ele>
        <time>2010-01-01T00:27:27Z</time>
      </trkpt>
      <trkpt lat="46.06218" lon="6.9311">
        <ele>1755.7</ele>
        <time>2010-01-01T00:27:28Z</time>
      </trkpt>
      <trkpt lat="46.06223" lon="6.93108">
        <ele>1692</ele>
        <time>2010-01-01T00:27:31Z</time>
      </trkpt>
      <trkpt lat="46.06227" lon="6.93103">
        <ele>1759.2</ele>
        <time>2010-01-01T00:27:33Z</time>
      </trkpt>
      <trkpt lat="46.06234" lon="6.931">
        <ele>1760.4</ele>
        <time>2010-01-01T00:27:36Z</time>
      </trkpt>
      <trkpt lat="46.06236" lon="6.93095">
        <ele>1763.4</ele>
        <time>2010-01-01T00:27:37Z</time>
      </trkpt>
      <trkpt lat="46.06239" lon="6.93091">
        <ele>1694</ele>
        <time>2010-01-01T00:27:39Z</time>
      </trkpt>
      <trkpt lat="46.0624" lon="6.93086">
        <ele>1769.2</ele>
        <time>2010-01-01T00:27:40Z</time>
      </trkpt>
      <trkpt lat="46.06244" lon="6.93083">
        <ele>1771.2</ele>
        <time>2010-01-01T00:27:42Z</time>
      </trkpt>
      <trkpt lat="46.06246" lon="6.93078">
        <ele>1774.4</ele>
        <time>2010-01-01T00:27:44Z</time>
      </trkpt>
      <trkpt lat="46.06248" lon="6.93071">
        <ele>1778.7</ele>
        <time>2010-01-01T00:27:46Z</time>
      </trkpt>
      <trkpt lat="46.0625" lon="6.93066">
        <ele>1704</ele>
        <time>2010-01-01T00:27:47Z</time>
      </trkpt>
      <trkpt lat="46.06251" lon="6.9306">
        <ele>1785.3</ele>
        <time>2010-01-01T00:27:49Z</time>
      </trkpt>
      <trkpt lat="46.06251" lon="6.93053">
        <ele>1789.4</ele>
        <time>2010-01-01T00:27:51Z</time>
      </trkpt>
      <trkpt lat="46.06254" lon="6.93048">
        <ele>1792.1</ele>
        <time>2010-01-01T00:27:53Z</time>
      </trkpt>
      <trkpt lat="46.06258" lon="6.93047">
        <ele>1792.6</ele>
        <time>2010-01-01T00:27:54Z</time>
      </trkpt>
      <trkpt lat="46.06263" lon="6.93045">
        <ele>1715</ele>
        <time>2010-01-01T00:27:57Z</time>
      </trkpt>
      <trkpt lat="46.06268" lon="6.93047">
        <ele>1792.7</ele>
        <time>2010-01-01T00:27:59Z</time>
      </trkpt>
      <trkpt lat="46.06272" lon="6.93046">
        <ele>1793.1</ele>
        <time>2010-01-01T00:28:00Z</time>
      </trkpt>
      <trkpt lat="46.06273" lon="6.93038">
        <ele>1796.7</ele>
        <time>2010-01-01T00:28:03Z</time>
      </trkpt>
      <trkpt lat="46.06271" lon="6.93032">
        <ele>1799.6</ele>
        <time>2010-01-01T00:28:04Z</time>
      </trkpt>
      <trkpt lat="46.06266" lon="6.93031">
        <ele>1715</ele>
        <time>2010-01-01T00:28:06Z</time>
      </trkpt>
      <trkpt lat="46.06269" lon="6.93027">
        <ele>1802</ele>
        <time>2010-01-01T00:28:08Z</time>
      </trkpt>
      <trkpt lat="46.06268" lon="6.93022">
        <ele>1804.1</ele>
        <time>2010-01-01T00:28:09Z</time>
      </trkpt>
      <trkpt lat="46.06266" lon="6.93017">
        <ele>1806.4</ele>
        <time>2010-01-01T00:28:11Z</time>
      </trkpt>
      <trkpt lat="46.06268" lon="6.93009">
        <ele>1809.6</ele>
        <time>2010-01-01T00:28:13Z</time>
      </trkpt>
      <trkpt lat="46.06272" lon="6.93008">
        <ele>1732</ele>
        <time>2010-01-01T00:28:15Z</time>
      </trkpt>
      <trkpt lat="46.06278" lon="6.93008">
        <ele>1808.8</ele>
        <time>2010-01-01T00:28:17Z</time>
      </trkpt>
      <trkpt lat="46.0628" lon="6.93004">
        <ele>1810.1</ele>
        <time>2010-01-01T00:28:19Z</time>
      </trkpt>
      <trkpt lat="46.06281" lon="6.92998">
        <ele>1812.3</ele>
        <time>2010-01-01T00:28:21Z</time>
      </trkpt>
      <trkpt lat="46.06279" lon="6.92993">
        <ele>1814.3</ele>
        <time>2010-01-01T00:28:22Z</time>
      </trkpt>
      <trkpt lat="46.06278" lon="6.92987">
        <ele>1747</ele>
        <time>2010-01-01T00:28:24Z</time>
      </trkpt>
      <trkpt lat="46.06281" lon="6.92981">
        <ele>1818.4</ele>
        <time>2010-01-01T00:28:26Z</time>
      </trkpt>
      <trkpt lat="46.06278" lon="6.92978">
        <ele>1819.9</ele>
        <time>2010-01-01T00:28:27Z</time>
      </trkpt>
      <trkpt lat="46.06274" lon="6.92973">
        <ele>1822.3</ele>
        <time>2010-01-01T00:28:29Z</time>
      </trkpt>
      <trkpt lat="46.0627" lon="6.92972">
        <ele>1823.2</ele>
        <time>2010-01-01T00:28:31Z</time>
      </trkpt>
      <trkpt lat="46.06264" lon="6.9297">
        <ele>1747</ele>
        <time>2010-01-01T00:28:34Z</time>
      </trkpt>
      <trkpt lat="46.0626" lon="6.92971">
        <ele>1825.2</ele>
        <time>2010-01-01T00:28:35Z</time>
      </trkpt>
      <trkpt lat="46.06256" lon="6.92972">
        <ele>1825.2</ele>
        <time>2010-01-01T00:28:37Z</time>
      </trkpt>
      <trkpt lat="46.06252" lon="6.92969">
        <ele>1827.3</ele>
        <time>2010-01-01T00:28:39Z</time>
      </trkpt>
      <trkpt lat="46.06256" lon="6.92963">
        <ele>1829.7</ele>
        <time>2010-01-01T00:28:41Z</time>
      </trkpt>
      <trkpt lat="46.06258" lon="6.92956">
        <ele>1762</ele>
        <time>2010-01-01T00:28:43Z</time>
      </trkpt>
      <trkpt lat="46.06264" lon="6.92955">
        <ele>1832.4</ele>
        <time>2010-01-01T00:28:45Z</time>
      </trkpt>
      <trkpt lat="46.06266" lon="6.92951">
        <ele>1834</ele>
        <time>2010-01-01T00:28:47Z</time>
      </trkpt>
      <trkpt lat="46.0627" lon="6.92948">
        <ele>1834.7</ele>
        <time>2010-01-01T00:28:49Z</time>
      </trkpt>
      <trkpt lat="46.06274" lon="6.92943">
        <ele>1836.5</ele>
        <time>2010-01-01T00:28:51Z</time>
      </trkpt>
      <trkpt lat="46.06277" lon="6.9294">
        <ele>1770</ele>
        <time>2010-01-01T00:28:52Z</time>
      </trkpt>
      <trkpt lat="46.0628" lon="6.92934">
        <ele>1840.4</ele>
        <time>2010-01-01T00:28:54Z</time>
      </trkpt>
      <trkpt lat="46.0628" lon="6.92928">
        <ele>1843.8</ele>
        <time>2010-01-01T00:28:56Z</time>
      </trkpt>
      <trkpt lat="46.06284" lon="6.92923">
        <ele>1845.3</ele>
        <time>2010-01-01T00:28:58Z</time>
      </trkpt>
      <trkpt lat="46.06287" lon="6.92919">
        <ele>1846.4</ele>
        <time>2010-01-01T00:29:00Z</time>
      </trkpt>
      <trkpt lat="46.06291" lon="6.92919">
        <ele>1778</ele>
        <time>2010-01-01T00:29:01Z</time>
      </trkpt>
      <trkpt lat="46.06296" lon="6.92915">
        <ele>1845.5</ele>
        <time>2010-01-01T00:29:04Z</time>
      </trkpt>
      <trkpt lat="46.06301" lon="6.92912">
        <ele>1845.5</ele>
        <time>2010-01-01T00:29:06Z</time>
      </trkpt>
      <trkpt lat="46.06306" lon="6.92911">
        <ele>1844.4</ele>
        <time>2010-01-01T00:29:08Z</time>
      </trkpt>
      <trkpt lat="46.06309" lon="6.92906">
        <ele>1789.5</ele>
        <time>2010-01-01T00:29:10Z</time>
      </trkpt>
      <trkpt lat="46.06312" lon="6.92899">
        <ele>1850</ele>
        <time>2010-01-01T00:29:12Z</time>
      </trkpt>
      <trkpt lat="46.06315" lon="6.92894">
        <ele>1852</ele>
        <time>2010-01-01T00:29:14Z</time>
      </trkpt>
      <trkpt lat="46.0632" lon="6.92891">
        <ele>1852.1</ele>
        <time>2010-01-01T00:29:16Z</time>
      </trkpt>
      <trkpt lat="46.06323" lon="6.92887">
        <ele>1801</ele>
        <time>2010-01-01T00:29:18Z</time>
      </trkpt>
      <trkpt lat="46.06327" lon="6.92882">
        <ele>1854.9</ele>
        <time>2010-01-01T00:29:20Z</time>
      </trkpt>
      <trkpt lat="46.0633" lon="6.92878">
        <ele>1856.1</ele>
        <time>2010-01-01T00:29:21Z</time>
      </trkpt>
      <trkpt lat="46.06333" lon="6.92874">
        <ele>1857.2</ele>
        <time>2010-01-01T00:29:23Z</time>
      </trkpt>
      <trkpt lat="46.06337" lon="6.92872">
        <ele>1859.4</ele>
        <time>2010-01-01T00:29:25Z</time>
      </trkpt>
      <trkpt lat="46.06345" lon="6.9287">
        <ele>1827</ele>
        <time>2010-01-01T00:29:28Z</time>
      </trkpt>
      <trkpt lat="46.06349" lon="6.92864">
        <ele>1866.7</ele>
        <time>2010-01-01T00:29:30Z</time>
      </trkpt>
      <trkpt lat="46.06351" lon="6.92858">
        <ele>1870.1</ele>
        <time>2010-01-01T00:29:32Z</time>
      </trkpt>
      <trkpt lat="46.06356" lon="6.92852">
        <ele>1873.9</ele>
        <time>2010-01-01T00:29:35Z</time>
      </trkpt>
      <trkpt lat="46.0636" lon="6.92855">
        <ele>1860</ele>
        <time>2010-01-01T00:29:36Z</time>
      </trkpt>
      <trkpt lat="46.06359" lon="6.92849">
        <ele>1875.6</ele>
        <time>2010-01-01T00:29:38Z</time>
      </trkpt>
      <trkpt lat="46.06359" lon="6.92844">
        <ele>1877.7</ele>
        <time>2010-01-01T00:29:40Z</time>
      </trkpt>
      <trkpt lat="46.06356" lon="6.9284">
        <ele>1879.3</ele>
        <time>2010-01-01T00:29:41Z</time>
      </trkpt>
      <trkpt lat="46.06363" lon="6.92835">
        <ele>1872</ele>
        <time>2010-01-01T00:29:44Z</time>
      </trkpt>
      <trkpt lat="46.06366" lon="6.92829">
        <ele>1890</ele>
        <time>2010-01-01T00:29:46Z</time>
      </trkpt>
      <trkpt lat="46.06366" lon="6.92824">
        <ele>1893.8</ele>
        <time>2010-01-01T00:29:48Z</time>
      </trkpt>
      <trkpt lat="46.06369" lon="6.92821">
        <ele>1898.1</ele>
        <time>2010-01-01T00:29:49Z</time>
      </trkpt>
      <trkpt lat="46.06368" lon="6.92815">
        <ele>1901.6</ele>
        <time>2010-01-01T00:29:51Z</time>
      </trkpt>
      <trkpt lat="46.06367" lon="6.92806">
        <ele>1892</ele>
        <time>2010-01-01T00:29:53Z</time>
      </trkpt>
      <trkpt lat="46.0637" lon="6.92802">
        <ele>1910.4</ele>
        <time>2010-01-01T00:29:55Z</time>
      </trkpt>
      <trkpt lat="46.06378" lon="6.92802">
        <ele>1912.7</ele>
        <time>2010-01-01T00:29:58Z</time>
      </trkpt>
      <trkpt lat="46.06379" lon="6.92796">
        <ele>1915</ele>
        <time>2010-01-01T00:30:00Z</time>
      </trkpt>
      <trkpt lat="46.06378" lon="6.9279">
        <ele>1902</ele>
        <time>2010-01-01T00:30:02Z</time>
      </trkpt>
      <trkpt lat="46.06382" lon="6.92785">
        <ele>1918.9</ele>
        <time>2010-01-01T00:30:04Z</time>
      </trkpt>
      <trkpt lat="46.06387" lon="6.92784">
        <ele>1919.5</ele>
        <time>2010-01-01T00:30:06Z</time>
      </trkpt>
      <trkpt lat="46.06391" lon="6.92786">
        <ele>1920.2</ele>
        <time>2010-01-01T00:30:08Z</time>
      </trkpt>
      <trkpt lat="46.06391" lon="6.92792">
        <ele>1906</ele>
        <time>2010-01-01T00:30:09Z</time>
      </trkpt>
      <trkpt lat="46.06395" lon="6.92787">
        <ele>1921.9</ele>
        <time>2010-01-01T00:30:11Z</time>
      </trkpt>
      <trkpt lat="46.06397" lon="6.92779">
        <ele>1924.8</ele>
        <time>2010-01-01T00:30:14Z</time>
      </trkpt>
      <trkpt lat="46.064" lon="6.92775">
        <ele>1927.7</ele>
        <time>2010-01-01T00:30:15Z</time>
      </trkpt>
      <trkpt lat="46.06404" lon="6.92773">
        <ele>1910</ele>
        <time>2010-01-01T00:30:17Z</time>
      </trkpt>
      <trkpt lat="46.06407" lon="6.92769">
        <ele>1932.8</ele>
        <time>2010-01-01T00:30:19Z</time>
      </trkpt>
      <trkpt lat="46.06412" lon="6.92768">
        <ele>1935</ele>
        <time>2010-01-01T00:30:21Z</time>
      </trkpt>
      <trkpt lat="46.06414" lon="6.92762">
        <ele>1937</ele>
        <time>2010-01-01T00:30:23Z</time>
      </trkpt>
      <trkpt lat="46.06417" lon="6.92757">
        <ele>1938.8</ele>
        <time>2010-01-01T00:30:24Z</time>
      </trkpt>
      <trkpt lat="46.06417" lon="6.92751">
        <ele>1917</ele>
        <time>2010-01-01T00:30:26Z</time>
      </trkpt>
      <trkpt lat="46.06416" lon="6.92744">
        <ele>1941</ele>
        <time>2010-01-01T00:30:28Z</time>
      </trkpt>
      <trkpt lat="46.06417" lon="6.92737">
        <ele>1942.4</ele>
        <time>2010-01-01T00:30:30Z</time>
      </trkpt>
      <trkpt lat="46.06418" lon="6.92732">
        <ele>1943.4</ele>
        <time>2010-01-01T00:30:31Z</time>
      </trkpt>
      <trkpt lat="46.0642" lon="6.92727">
        <ele>1944.6</ele>
        <time>2010-01-01T00:30:33Z</time>
      </trkpt>
      <trkpt lat="46.06424" lon="6.92723">
        <ele>1922</ele>
        <time>2010-01-01T00:30:35Z</time>
      </trkpt>
      <trkpt lat="46.06427" lon="6.92718">
        <ele>1947.9</ele>
        <time>2010-01-01T00:30:37Z</time>
      </trkpt>
      <trkpt lat="46.06429" lon="6.92713">
        <ele>1949.7</ele>
        <time>2010-01-01T00:30:38Z</time>
      </trkpt>
      <trkpt lat="46.06433" lon="6.92711">
        <ele>1950.6</ele>
        <time>2010-01-01T00:30:40Z</time>
      </trkpt>
      <trkpt lat="46.06436" lon="6.92707">
        <ele>1951.9</ele>
        <time>2010-01-01T00:30:42Z</time>
      </trkpt>
      <trkpt lat="46.06437" lon="6.92701">
        <ele>1932</ele>
        <time>2010-01-01T00:30:44Z</time>
      </trkpt>
      <trkpt lat="46.06441" lon="6.927">
        <ele>1953.8</ele>
        <time>2010-01-01T00:30:45Z</time>
      </trkpt>
      <trkpt lat="46.06444" lon="6.92696">
        <ele>1954.7</ele>
        <time>2010-01-01T00:30:47Z</time>
      </trkpt>
      <trkpt lat="46.06446" lon="6.92692">
        <ele>1955.6</ele>
        <time>2010-01-01T00:30:48Z</time>
      </trkpt>
      <trkpt lat="46.06449" lon="6.92686">
        <ele>1957</ele>
        <time>2010-01-01T00:30:50Z</time>
      </trkpt>
      <trkpt lat="46.06454" lon="6.92687">
        <ele>1939</ele>
        <time>2010-01-01T00:30:52Z</time>
      </trkpt>
      <trkpt lat="46.06458" lon="6.92687">
        <ele>1955.4</ele>
        <time>2010-01-01T00:30:54Z</time>
      </trkpt>
      <trkpt lat="46.06462" lon="6.92686">
        <ele>1954.9</ele>
        <time>2010-01-01T00:30:55Z</time>
      </trkpt>
      <trkpt lat="46.06462" lon="6.9268">
        <ele>1955.8</ele>
        <time>2010-01-01T00:30:57Z</time>
      </trkpt>
      <trkpt lat="46.06464" lon="6.92674">
        <ele>1956.1</ele>
        <time>2010-01-01T00:30:59Z</time>
      </trkpt>
      <trkpt lat="46.06465" lon="6.92667">
        <ele>1939</ele>
        <time>2010-01-01T00:31:01Z</time>
      </trkpt>
      <trkpt lat="46.06463" lon="6.92669">
        <ele>1957</ele>
        <time>2010-01-01T00:31:02Z</time>
      </trkpt>
      <trkpt lat="46.06459" lon="6.92671">
        <ele>1958</ele>
        <time>2010-01-01T00:31:04Z</time>
      </trkpt>
      <trkpt lat="46.06455" lon="6.9267">
        <ele>1959.5</ele>
        <time>2010-01-01T00:31:05Z</time>
      </trkpt>
      <trkpt lat="46.06448" lon="6.9267">
        <ele>1961.8</ele>
        <time>2010-01-01T00:31:08Z</time>
      </trkpt>
      <trkpt lat="46.06444" lon="6.92671">
        <ele>1941</ele>
        <time>2010-01-01T00:31:10Z</time>
      </trkpt>
      <trkpt lat="46.06442" lon="6.92677">
        <ele>1961.1</ele>
        <time>2010-01-01T00:31:12Z</time>
      </trkpt>
      <trkpt lat="46.06438" lon="6.9268">
        <ele>1960.6</ele>
        <time>2010-01-01T00:31:13Z</time>
      </trkpt>
      <trkpt lat="46.06433" lon="6.9268">
        <ele>1961.4</ele>
        <time>2010-01-01T00:31:15Z</time>
      </trkpt>
      <trkpt lat="46.06428" lon="6.92678">
        <ele>1951</ele>
        <time>2010-01-01T00:31:17Z</time>
      </trkpt>
      <trkpt lat="46.06423" lon="6.92678">
        <ele>1963.8</ele>
        <time>2010-01-01T00:31:19Z</time>
      </trkpt>
      <trkpt lat="46.06419" lon="6.92679">
        <ele>1964</ele>
        <time>2010-01-01T00:31:21Z</time>
      </trkpt>
      <trkpt lat="46.06414" lon="6.92682">
        <ele>1963</ele>
        <time>2010-01-01T00:31:23Z</time>
      </trkpt>
      <trkpt lat="46.06409" lon="6.92687">
        <ele>1948.5</ele>
        <time>2010-01-01T00:31:26Z</time>
      </trkpt>
      <trkpt lat="46.06405" lon="6.92688">
        <ele>1960.6</ele>
        <time>2010-01-01T00:31:27Z</time>
      </trkpt>
      <trkpt lat="46.06399" lon="6.9269">
        <ele>1960</ele>
        <time>2010-01-01T00:31:30Z</time>
      </trkpt>
      <trkpt lat="46.06394" lon="6.92687">
        <ele>1962.3</ele>
        <time>2010-01-01T00:31:32Z</time>
      </trkpt>
      <trkpt lat="46.0639" lon="6.92688">
        <ele>1949.2</ele>
        <time>2010-01-01T00:31:34Z</time>
      </trkpt>
      <trkpt lat="46.06386" lon="6.92687">
        <ele>1963.2</ele>
        <time>2010-01-01T00:31:35Z</time>
      </trkpt>
      <trkpt lat="46.06382" lon="6.92685">
        <ele>1964.9</ele>
        <time>2010-01-01T00:31:37Z</time>
      </trkpt>
      <trkpt lat="46.06378" lon="6.92682">
        <ele>1967.1</ele>
        <time>2010-01-01T00:31:39Z</time>
      </trkpt>
      <trkpt lat="46.06373" lon="6.92678">
        <ele>1969.9</ele>
        <time>2010-01-01T00:31:41Z</time>
      </trkpt>
      <trkpt lat="46.0637" lon="6.92675">
        <ele>1950</ele>
        <time>2010-01-01T00:31:42Z</time>
      </trkpt>
      <trkpt lat="46.06365" lon="6.92673">
        <ele>1973.3</ele>
        <time>2010-01-01T00:31:44Z</time>
      </trkpt>
      <trkpt lat="46.06361" lon="6.92671">
        <ele>1974.6</ele>
        <time>2010-01-01T00:31:46Z</time>
      </trkpt>
      <trkpt lat="46.06357" lon="6.9267">
        <ele>1973.7</ele>
        <time>2010-01-01T00:31:48Z</time>
      </trkpt>
      <trkpt lat="46.06352" lon="6.92666">
        <ele>1965</ele>
        <time>2010-01-01T00:31:50Z</time>
      </trkpt>
      <trkpt lat="46.06347" lon="6.92664">
        <ele>1972.3</ele>
        <time>2010-01-01T00:31:52Z</time>
      </trkpt>
      <trkpt lat="46.06342" lon="6.9266">
        <ele>1971.6</ele>
        <time>2010-01-01T00:31:54Z</time>
      </trkpt>
      <trkpt lat="46.06338" lon="6.92657">
        <ele>1970.8</ele>
        <time>2010-01-01T00:31:56Z</time>
      </trkpt>
      <trkpt lat="46.06333" lon="6.92654">
        <ele>1965</ele>
        <time>2010-01-01T00:31:58Z</time>
      </trkpt>
      <trkpt lat="46.06328" lon="6.92653">
        <ele>1969.6</ele>
        <time>2010-01-01T00:32:00Z</time>
      </trkpt>
      <trkpt lat="46.06325" lon="6.92649">
        <ele>1970.8</ele>
        <time>2010-01-01T00:32:02Z</time>
      </trkpt>
      <trkpt lat="46.06321" lon="6.92645">
        <ele>1972.2</ele>
        <time>2010-01-01T00:32:04Z</time>
      </trkpt>
      <trkpt lat="46.06315" lon="6.92646">
        <ele>1975</ele>
        <time>2010-01-01T00:32:06Z</time>
      </trkpt>
      <trkpt lat="46.0631" lon="6.92645">
        <ele>1972.2</ele>
        <time>2010-01-01T00:32:08Z</time>
      </trkpt>
      <trkpt lat="46.06305" lon="6.92643">
        <ele>1973.3</ele>
        <time>2010-01-01T00:32:11Z</time>
      </trkpt>
      <trkpt lat="46.06298" lon="6.92643">
        <ele>1976.1</ele>
        <time>2010-01-01T00:32:13Z</time>
      </trkpt>
      <trkpt lat="46.06293" lon="6.92643">
        <ele>2004</ele>
        <time>2010-01-01T00:32:15Z</time>
      </trkpt>
      <trkpt lat="46.06288" lon="6.92645">
        <ele>1979</ele>
        <time>2010-01-01T00:32:17Z</time>
      </trkpt>
      <trkpt lat="46.06285" lon="6.92649">
        <ele>1977.8</ele>
        <time>2010-01-01T00:32:19Z</time>
      </trkpt>
      <trkpt lat="46.0628" lon="6.92651">
        <ele>1978.4</ele>
        <time>2010-01-01T00:32:21Z</time>
      </trkpt>
      <trkpt lat="46.06276" lon="6.92655">
        <ele>2004</ele>
        <time>2010-01-01T00:32:23Z</time>
      </trkpt>
      <trkpt lat="46.06271" lon="6.9266">
        <ele>1975.3</ele>
        <time>2010-01-01T00:32:26Z</time>
      </trkpt>
      <trkpt lat="46.06268" lon="6.92662">
        <ele>1974.7</ele>
        <time>2010-01-01T00:32:27Z</time>
      </trkpt>
      <trkpt lat="46.06263" lon="6.92664">
        <ele>1974.7</ele>
        <time>2010-01-01T00:32:29Z</time>
      </trkpt>
      <trkpt lat="46.06258" lon="6.92664">
        <ele>2001</ele>
        <time>2010-01-01T00:32:31Z</time>
      </trkpt>
      <trkpt lat="46.06254" lon="6.92661">
        <ele>1979.4</ele>
        <time>2010-01-01T00:32:33Z</time>
      </trkpt>
      <trkpt lat="46.06258" lon="6.92659">
        <ele>1979.7</ele>
        <time>2010-01-01T00:32:34Z</time>
      </trkpt>
      <trkpt lat="46.06263" lon="6.92655">
        <ele>1981.2</ele>
        <time>2010-01-01T00:32:37Z</time>
      </trkpt>
      <trkpt lat="46.06266" lon="6.92653">
        <ele>1981.7</ele>
        <time>2010-01-01T00:32:38Z</time>
      </trkpt>
      <trkpt lat="46.0627" lon="6.92649">
        <ele>2006</ele>
        <time>2010-01-01T00:32:40Z</time>
      </trkpt>
      <trkpt lat="46.06273" lon="6.92644">
        <ele>1985.5</ele>
        <time>2010-01-01T00:32:42Z</time>
      </trkpt>
      <trkpt lat="46.06277" lon="6.92639">
        <ele>1987.2</ele>
        <time>2010-01-01T00:32:44Z</time>
      </trkpt>
      <trkpt lat="46.06276" lon="6.92631">
        <ele>1992.5</ele>
        <time>2010-01-01T00:32:46Z</time>
      </trkpt>
      <trkpt lat="46.06273" lon="6.92626">
        <ele>2011</ele>
        <time>2010-01-01T00:32:48Z</time>
      </trkpt>
      <trkpt lat="46.0627" lon="6.9262">
        <ele>2001.3</ele>
        <time>2010-01-01T00:32:50Z</time>
      </trkpt>
      <trkpt lat="46.06265" lon="6.92618">
        <ele>2004.2</ele>
        <time>2010-01-01T00:32:52Z</time>
      </trkpt>
      <trkpt lat="46.06261" lon="6.92619">
        <ele>2005</ele>
        <time>2010-01-01T00:32:54Z</time>
      </trkpt>
      <trkpt lat="46.06256" lon="6.92621">
        <ele>2011</ele>
        <time>2010-01-01T00:32:56Z</time>
      </trkpt>
      <trkpt lat="46.06252" lon="6.92621">
        <ele>2007</ele>
        <time>2010-01-01T00:32:57Z</time>
      </trkpt>
      <trkpt lat="46.06248" lon="6.9262">
        <ele>2009</ele>
        <time>2010-01-01T00:32:59Z</time>
      </trkpt>
      <trkpt lat="46.06244" lon="6.92622">
        <ele>2009.5</ele>
        <time>2010-01-01T00:33:01Z</time>
      </trkpt>
      <trkpt lat="46.06241" lon="6.92629">
        <ele>2006.9</ele>
        <time>2010-01-01T00:33:03Z</time>
      </trkpt>
      <trkpt lat="46.0624" lon="6.92635">
        <ele>2013</ele>
        <time>2010-01-01T00:33:05Z</time>
      </trkpt>
      <trkpt lat="46.06237" lon="6.92641">
        <ele>2001.7</ele>
        <time>2010-01-01T00:33:07Z</time>
      </trkpt>
      <trkpt lat="46.06235" lon="6.92646">
        <ele>1999</ele>
        <time>2010-01-01T00:33:08Z</time>
      </trkpt>
      <trkpt lat="46.06231" lon="6.92651">
        <ele>1997.4</ele>
        <time>2010-01-01T00:33:11Z</time>
      </trkpt>
      <trkpt lat="46.06229" lon="6.92655">
        <ele>1995.7</ele>
        <time>2010-01-01T00:33:12Z</time>
      </trkpt>
      <trkpt lat="46.06225" lon="6.92658">
        <ele>2006.5</ele>
        <time>2010-01-01T00:33:14Z</time>
      </trkpt>
      <trkpt lat="46.06223" lon="6.92663">
        <ele>1993.8</ele>
        <time>2010-01-01T00:33:15Z</time>
      </trkpt>
      <trkpt lat="46.06219" lon="6.92665">
        <ele>1993.7</ele>
        <time>2010-01-01T00:33:17Z</time>
      </trkpt>
      <trkpt lat="46.06215" lon="6.92665">
        <ele>1994.6</ele>
        <time>2010-01-01T00:33:19Z</time>
      </trkpt>
      <trkpt lat="46.0621" lon="6.92668">
        <ele>1993.5</ele>
        <time>2010-01-01T00:33:21Z</time>
      </trkpt>
      <trkpt lat="46.06212" lon="6.92675">
        <ele>2000</ele>
        <time>2010-01-01T00:33:23Z</time>
      </trkpt>
      <trkpt lat="46.06207" lon="6.92674">
        <ele>1989.1</ele>
        <time>2010-01-01T00:33:25Z</time>
      </trkpt>
      <trkpt lat="46.06202" lon="6.92678">
        <ele>1987.1</ele>
        <time>2010-01-01T00:33:27Z</time>
      </trkpt>
      <trkpt lat="46.06198" lon="6.92684">
        <ele>1983.3</ele>
        <time>2010-01-01T00:33:30Z</time>
      </trkpt>
      <trkpt lat="46.06195" lon="6.92685">
        <ele>2000</ele>
        <time>2010-01-01T00:33:31Z</time>
      </trkpt>
      <trkpt lat="46.06189" lon="6.92686">
        <ele>1984.1</ele>
        <time>2010-01-01T00:33:33Z</time>
      </trkpt>
      <trkpt lat="46.06185" lon="6.92683">
        <ele>1987.5</ele>
        <time>2010-01-01T00:33:35Z</time>
      </trkpt>
      <trkpt lat="46.06181" lon="6.92685">
        <ele>1987</ele>
        <time>2010-01-01T00:33:37Z</time>
      </trkpt>
      <trkpt lat="46.06177" lon="6.9269">
        <ele>1993.5</ele>
        <time>2010-01-01T00:33:39Z</time>
      </trkpt>
      <trkpt lat="46.06172" lon="6.92691">
        <ele>1985</ele>
        <time>2010-01-01T00:33:41Z</time>
      </trkpt>
      <trkpt lat="46.06168" lon="6.92689">
        <ele>1987.6</ele>
        <time>2010-01-01T00:33:43Z</time>
      </trkpt>
      <trkpt lat="46.06165" lon="6.92685">
        <ele>1990.9</ele>
        <time>2010-01-01T00:33:44Z</time>
      </trkpt>
      <trkpt lat="46.06161" lon="6.92682">
        <ele>1993.3</ele>
        <time>2010-01-01T00:33:46Z</time>
      </trkpt>
      <trkpt lat="46.06157" lon="6.92678">
        <ele>2002.2</ele>
        <time>2010-01-01T00:33:48Z</time>
      </trkpt>
      <trkpt lat="46.06153" lon="6.92675">
        <ele>1998.4</ele>
        <time>2010-01-01T00:33:50Z</time>
      </trkpt>
      <trkpt lat="46.06149" lon="6.92671">
        <ele>2001.2</ele>
        <time>2010-01-01T00:33:52Z</time>
      </trkpt>
      <trkpt lat="46.06144" lon="6.92668">
        <ele>2003.2</ele>
        <time>2010-01-01T00:33:54Z</time>
      </trkpt>
      <trkpt lat="46.0614" lon="6.92666">
        <ele>2004.5</ele>
        <time>2010-01-01T00:33:56Z</time>
      </trkpt>
      <trkpt lat="46.06136" lon="6.92665">
        <ele>2011</ele>
        <time>2010-01-01T00:33:57Z</time>
      </trkpt>
      <trkpt lat="46.06132" lon="6.92662">
        <ele>2008.7</ele>
        <time>2010-01-01T00:33:59Z</time>
      </trkpt>
      <trkpt lat="46.0613" lon="6.92658">
        <ele>2011.9</ele>
        <time>2010-01-01T00:34:00Z</time>
      </trkpt>
      <trkpt lat="46.06126" lon="6.92655">
        <ele>2015</ele>
        <time>2010-01-01T00:34:02Z</time>
      </trkpt>
      <trkpt lat="46.06122" lon="6.92654">
        <ele>2016.6</ele>
        <time>2010-01-01T00:34:04Z</time>
      </trkpt>
      <trkpt lat="46.06118" lon="6.92653">
        <ele>2022</ele>
        <time>2010-01-01T00:34:05Z</time>
      </trkpt>
      <trkpt lat="46.06113" lon="6.92651">
        <ele>2020.8</ele>
        <time>2010-01-01T00:34:07Z</time>
      </trkpt>
      <trkpt lat="46.06108" lon="6.92652">
        <ele>2022.1</ele>
        <time>2010-01-01T00:34:09Z</time>
      </trkpt>
      <trkpt lat="46.06108" lon="6.92659">
        <ele>2017.2</ele>
        <time>2010-01-01T00:34:11Z</time>
      </trkpt>
      <trkpt lat="46.06103" lon="6.92659">
        <ele>2030</ele>
        <time>2010-01-01T00:34:13Z</time>
      </trkpt>
      <trkpt lat="46.061" lon="6.92661">
        <ele>2020.2</ele>
        <time>2010-01-01T00:34:15Z</time>
      </trkpt>
      <trkpt lat="46.06098" lon="6.92667">
        <ele>2017.4</ele>
        <time>2010-01-01T00:34:17Z</time>
      </trkpt>
      <trkpt lat="46.06098" lon="6.92674">
        <ele>2013.2</ele>
        <time>2010-01-01T00:34:19Z</time>
      </trkpt>
      <trkpt lat="46.06097" lon="6.9268">
        <ele>2010.2</ele>
        <time>2010-01-01T00:34:20Z</time>
      </trkpt>
      <trkpt lat="46.06097" lon="6.92687">
        <ele>2030</ele>
        <time>2010-01-01T00:34:22Z</time>
      </trkpt>
      <trkpt lat="46.06094" lon="6.92691">
        <ele>2005.5</ele>
        <time>2010-01-01T00:34:24Z</time>
      </trkpt>
      <trkpt lat="46.0609" lon="6.92694">
        <ele>2006.2</ele>
        <time>2010-01-01T00:34:26Z</time>
      </trkpt>
      <trkpt lat="46.06087" lon="6.927">
        <ele>2003.8</ele>
        <time>2010-01-01T00:34:28Z</time>
      </trkpt>
      <trkpt lat="46.06083" lon="6.92704">
        <ele>2003.2</ele>
        <time>2010-01-01T00:34:30Z</time>
      </trkpt>
      <trkpt lat="46.06078" lon="6.92703">
        <ele>2013</ele>
        <time>2010-01-01T00:34:32Z</time>
      </trkpt>
      <trkpt lat="46.06074" lon="6.92699">
        <ele>2009.9</ele>
        <time>2010-01-01T00:34:34Z</time>
      </trkpt>
      <trkpt lat="46.0607" lon="6.92695">
        <ele>2013.9</ele>
        <time>2010-01-01T00:34:36Z</time>
      </trkpt>
      <trkpt lat="46.06066" lon="6.92693">
        <ele>2016.5</ele>
        <time>2010-01-01T00:34:37Z</time>
      </trkpt>
      <trkpt lat="46.06062" lon="6.92692">
        <ele>2018.5</ele>
        <time>2010-01-01T00:34:39Z</time>
      </trkpt>
      <trkpt lat="46.06059" lon="6.92688">
        <ele>2013</ele>
        <time>2010-01-01T00:34:41Z</time>
      </trkpt>
      <trkpt lat="46.06056" lon="6.92685">
        <ele>2025.3</ele>
        <time>2010-01-01T00:34:42Z</time>
      </trkpt>
      <trkpt lat="46.06052" lon="6.92684">
        <ele>2027.3</ele>
        <time>2010-01-01T00:34:44Z</time>
      </trkpt>
      <trkpt lat="46.06048" lon="6.92682">
        <ele>2029.9</ele>
        <time>2010-01-01T00:34:45Z</time>
      </trkpt>
      <trkpt lat="46.06044" lon="6.92679">
        <ele>2033</ele>
        <time>2010-01-01T00:34:47Z</time>
      </trkpt>
      <trkpt lat="46.0604" lon="6.9268">
        <ele>2018</ele>
        <time>2010-01-01T00:34:49Z</time>
      </trkpt>
      <trkpt lat="46.06036" lon="6.92684">
        <ele>2032.4</ele>
        <time>2010-01-01T00:34:51Z</time>
      </trkpt>
      <trkpt lat="46.06032" lon="6.92686">
        <ele>2032.5</ele>
        <time>2010-01-01T00:34:52Z</time>
      </trkpt>
      <trkpt lat="46.06027" lon="6.92686">
        <ele>2034.1</ele>
        <time>2010-01-01T00:34:54Z</time>
      </trkpt>
      <trkpt lat="46.06023" lon="6.92682">
        <ele>2037.7</ele>
        <time>2010-01-01T00:34:56Z</time>
      </trkpt>
      <trkpt lat="46.0602" lon="6.92679">
        <ele>2042</ele>
        <time>2010-01-01T00:34:58Z</time>
      </trkpt>
      <trkpt lat="46.06015" lon="6.92678">
        <ele>2042.7</ele>
        <time>2010-01-01T00:35:00Z</time>
      </trkpt>
      <trkpt lat="46.06013" lon="6.92673">
        <ele>2046.4</ele>
        <time>2010-01-01T00:35:01Z</time>
      </trkpt>
      <trkpt lat="46.06009" lon="6.92672">
        <ele>2048.4</ele>
        <time>2010-01-01T00:35:03Z</time>
      </trkpt>
      <trkpt lat="46.06003" lon="6.92669">
        <ele>2042</ele>
        <time>2010-01-01T00:35:06Z</time>
      </trkpt>
      <trkpt lat="46.05998" lon="6.92671">
        <ele>2052.4</ele>
        <time>2010-01-01T00:35:08Z</time>
      </trkpt>
      <trkpt lat="46.05995" lon="6.92665">
        <ele>2056.3</ele>
        <time>2010-01-01T00:35:10Z</time>
      </trkpt>
      <trkpt lat="46.05991" lon="6.92664">
        <ele>2057.1</ele>
        <time>2010-01-01T00:35:11Z</time>
      </trkpt>
      <trkpt lat="46.05987" lon="6.92664">
        <ele>2057.3</ele>
        <time>2010-01-01T00:35:13Z</time>
      </trkpt>
      <trkpt lat="46.05983" lon="6.92667">
        <ele>2042</ele>
        <time>2010-01-01T00:35:15Z</time>
      </trkpt>
      <trkpt lat="46.05978" lon="6.92671">
        <ele>2054.4</ele>
        <time>2010-01-01T00:35:17Z</time>
      </trkpt>
      <trkpt lat="46.05974" lon="6.92668">
        <ele>2056.2</ele>
        <time>2010-01-01T00:35:19Z</time>
      </trkpt>
      <trkpt lat="46.0597" lon="6.92667">
        <ele>2057.1</ele>
        <time>2010-01-01T00:35:20Z</time>
      </trkpt>
      <trkpt lat="46.05965" lon="6.92667">
        <ele>2042</ele>
        <time>2010-01-01T00:35:22Z</time>
      </trkpt>
      <trkpt lat="46.0596" lon="6.92666">
        <ele>2058.6</ele>
        <time>2010-01-01T00:35:24Z</time>
      </trkpt>
      <trkpt lat="46.05955" lon="6.92667">
        <ele>2058.7</ele>
        <time>2010-01-01T00:35:26Z</time>
      </trkpt>
      <trkpt lat="46.0595" lon="6.92672">
        <ele>2057.2</ele>
        <time>2010-01-01T00:35:29Z</time>
      </trkpt>
      <trkpt lat="46.05948" lon="6.92677">
        <ele>2042</ele>
        <time>2010-01-01T00:35:31Z</time>
      </trkpt>
      <trkpt lat="46.05946" lon="6.92683">
        <ele>2053.3</ele>
        <time>2010-01-01T00:35:32Z</time>
      </trkpt>
      <trkpt lat="46.05941" lon="6.92685">
        <ele>2052.9</ele>
        <time>2010-01-01T00:35:34Z</time>
      </trkpt>
      <trkpt lat="46.05936" lon="6.92686">
        <ele>2052.9</ele>
        <time>2010-01-01T00:35:36Z</time>
      </trkpt>
      <trkpt lat="46.05931" lon="6.92686">
        <ele>2041</ele>
        <time>2010-01-01T00:35:38Z</time>
      </trkpt>
      <trkpt lat="46.05927" lon="6.92685">
        <ele>2053.8</ele>
        <time>2010-01-01T00:35:40Z</time>
      </trkpt>
      <trkpt lat="46.05922" lon="6.92686">
        <ele>2053.7</ele>
        <time>2010-01-01T00:35:42Z</time>
      </trkpt>
      <trkpt lat="46.05918" lon="6.92687">
        <ele>2053.6</ele>
        <time>2010-01-01T00:35:44Z</time>
      </trkpt>
      <trkpt lat="46.05914" lon="6.92688">
        <ele>2053.1</ele>
        <time>2010-01-01T00:35:45Z</time>
      </trkpt>
      <trkpt lat="46.05909" lon="6.9269">
        <ele>2030.5</ele>
        <time>2010-01-01T00:35:47Z</time>
      </trkpt>
      <trkpt lat="46.05905" lon="6.92688">
        <ele>2052.4</ele>
        <time>2010-01-01T00:35:49Z</time>
      </trkpt>
      <trkpt lat="46.05901" lon="6.92683">
        <ele>2053.8</ele>
        <time>2010-01-01T00:35:51Z</time>
      </trkpt>
      <trkpt lat="46.05897" lon="6.9268">
        <ele>2054.4</ele>
        <time>2010-01-01T00:35:53Z</time>
      </trkpt>
      <trkpt lat="46.05893" lon="6.92678">
        <ele>2054.7</ele>
        <time>2010-01-01T00:35:55Z</time>
      </trkpt>
      <trkpt lat="46.0589" lon="6.92675">
        <ele>2037.2</ele>
        <time>2010-01-01T00:35:56Z</time>
      </trkpt>
      <trkpt lat="46.05886" lon="6.92674">
        <ele>2055.2</ele>
        <time>2010-01-01T00:35:58Z</time>
      </trkpt>
      <trkpt lat="46.05882" lon="6.92674">
        <ele>2054.6</ele>
        <time>2010-01-01T00:35:59Z</time>
      </trkpt>
      <trkpt lat="46.05878" lon="6.92672">
        <ele>2054.6</ele>
        <time>2010-01-01T00:36:01Z</time>
      </trkpt>
      <trkpt lat="46.05874" lon="6.92672">
        <ele>2054</ele>
        <time>2010-01-01T00:36:03Z</time>
      </trkpt>
      <trkpt lat="46.0587" lon="6.9267">
        <ele>2044</ele>
        <time>2010-01-01T00:36:04Z</time>
      </trkpt>
      <trkpt lat="46.05866" lon="6.92669">
        <ele>2053.9</ele>
        <time>2010-01-01T00:36:06Z</time>
      </trkpt>
      <trkpt lat="46.05862" lon="6.92664">
        <ele>2055.1</ele>
        <time>2010-01-01T00:36:08Z</time>
      </trkpt>
      <trkpt lat="46.05857" lon="6.9266">
        <ele>2055.3</ele>
        <time>2010-01-01T00:36:10Z</time>
      </trkpt>
      <trkpt lat="46.05853" lon="6.92657">
        <ele>2044</ele>
        <time>2010-01-01T00:36:12Z</time>
      </trkpt>
      <trkpt lat="46.05848" lon="6.92658">
        <ele>2053.5</ele>
        <time>2010-01-01T00:36:14Z</time>
      </trkpt>
      <trkpt lat="46.05842" lon="6.92656">
        <ele>2052.6</ele>
        <time>2010-01-01T00:36:17Z</time>
      </trkpt>
      <trkpt lat="46.05838" lon="6.92652">
        <ele>2053.1</ele>
        <time>2010-01-01T00:36:19Z</time>
      </trkpt>
      <trkpt lat="46.05835" lon="6.92648">
        <ele>2044</ele>
        <time>2010-01-01T00:36:20Z</time>
      </trkpt>
      <trkpt lat="46.05832" lon="6.92645">
        <ele>2054.3</ele>
        <time>2010-01-01T00:36:22Z</time>
      </trkpt>
      <trkpt lat="46.05829" lon="6.92641">
        <ele>2055.1</ele>
        <time>2010-01-01T00:36:23Z</time>
      </trkpt>
      <trkpt lat="46.05826" lon="6.92636">
        <ele>2056.2</ele>
        <time>2010-01-01T00:36:25Z</time>
      </trkpt>
      <trkpt lat="46.05822" lon="6.92632">
        <ele>2056.5</ele>
        <time>2010-01-01T00:36:27Z</time>
      </trkpt>
      <trkpt lat="46.05818" lon="6.92631">
        <ele>2048.5</ele>
        <time>2010-01-01T00:36:29Z</time>
      </trkpt>
      <trkpt lat="46.05815" lon="6.92627">
        <ele>2056.4</ele>
        <time>2010-01-01T00:36:30Z</time>
      </trkpt>
      <trkpt lat="46.05811" lon="6.92623">
        <ele>2056.6</ele>
        <time>2010-01-01T00:36:32Z</time>
      </trkpt>
      <trkpt lat="46.05808" lon="6.92619">
        <ele>2057.1</ele>
        <time>2010-01-01T00:36:34Z</time>
      </trkpt>
      <trkpt lat="46.05803" lon="6.92619">
        <ele>2055.9</ele>
        <time>2010-01-01T00:36:36Z</time>
      </trkpt>
      <trkpt lat="46.05798" lon="6.92617">
        <ele>2053</ele>
        <time>2010-01-01T00:36:38Z</time>
      </trkpt>
      <trkpt lat="46.05793" lon="6.92612">
        <ele>2056</ele>
        <time>2010-01-01T00:36:41Z</time>
      </trkpt>
      <trkpt lat="46.05789" lon="6.9261">
        <ele>2055.9</ele>
        <time>2010-01-01T00:36:42Z</time>
      </trkpt>
      <trkpt lat="46.05785" lon="6.92604">
        <ele>2057.4</ele>
        <time>2010-01-01T00:36:45Z</time>
      </trkpt>
      <trkpt lat="46.05782" lon="6.92598">
        <ele>2058.5</ele>
        <time>2010-01-01T00:36:47Z</time>
      </trkpt>
      <trkpt lat="46.05777" lon="6.92595">
        <ele>2059.2</ele>
        <time>2010-01-01T00:36:49Z</time>
      </trkpt>
      <trkpt lat="46.05773" lon="6.92593">
        <ele>2059.2</ele>
        <time>2010-01-01T00:36:51Z</time>
      </trkpt>
      <trkpt lat="46.05768" lon="6.92592">
        <ele>2058.6</ele>
        <time>2010-01-01T00:36:53Z</time>
      </trkpt>
      <trkpt lat="46.05764" lon="6.92591">
        <ele>2058.1</ele>
        <time>2010-01-01T00:36:54Z</time>
      </trkpt>
      <trkpt lat="46.0576" lon="6.92589">
        <ele>2064</ele>
        <time>2010-01-01T00:36:56Z</time>
      </trkpt>
      <trkpt lat="46.05755" lon="6.92589">
        <ele>2057</ele>
        <time>2010-01-01T00:36:58Z</time>
      </trkpt>
      <trkpt lat="46.0575" lon="6.92588">
        <ele>2056.3</ele>
        <time>2010-01-01T00:37:00Z</time>
      </trkpt>
      <trkpt lat="46.05746" lon="6.92587">
        <ele>2056.1</ele>
        <time>2010-01-01T00:37:02Z</time>
      </trkpt>
      <trkpt lat="46.05742" lon="6.92585">
        <ele>2056.2</ele>
        <time>2010-01-01T00:37:03Z</time>
      </trkpt>
      <trkpt lat="46.05738" lon="6.92583">
        <ele>2074</ele>
        <time>2010-01-01T00:37:05Z</time>
      </trkpt>
      <trkpt lat="46.05733" lon="6.92581">
        <ele>2056.5</ele>
        <time>2010-01-01T00:37:07Z</time>
      </trkpt>
      <trkpt lat="46.05729" lon="6.92583">
        <ele>2055.1</ele>
        <time>2010-01-01T00:37:09Z</time>
      </trkpt>
      <trkpt lat="46.05725" lon="6.92585">
        <ele>2053.7</ele>
        <time>2010-01-01T00:37:10Z</time>
      </trkpt>
      <trkpt lat="46.05719" lon="6.92584">
        <ele>2074</ele>
        <time>2010-01-01T00:37:13Z</time>
      </trkpt>
      <trkpt lat="46.05713" lon="6.92581">
        <ele>2055.3</ele>
        <time>2010-01-01T00:37:15Z</time>
      </trkpt>
      <trkpt lat="46.05709" lon="6.92579">
        <ele>2056.3</ele>
        <time>2010-01-01T00:37:17Z</time>
      </trkpt>
      <trkpt lat="46.05705" lon="6.92578">
        <ele>2057</ele>
        <time>2010-01-01T00:37:19Z</time>
      </trkpt>
      <trkpt lat="46.057" lon="6.92584">
        <ele>2073.5</ele>
        <time>2010-01-01T00:37:21Z</time>
      </trkpt>
      <trkpt lat="46.05696" lon="6.92585">
        <ele>2054.2</ele>
        <time>2010-01-01T00:37:23Z</time>
      </trkpt>
      <trkpt lat="46.05691" lon="6.92583">
        <ele>2055.5</ele>
        <time>2010-01-01T00:37:25Z</time>
      </trkpt>
      <trkpt lat="46.05686" lon="6.92582">
        <ele>2056.6</ele>
        <time>2010-01-01T00:37:27Z</time>
      </trkpt>
      <trkpt lat="46.0568" lon="6.92582">
        <ele>2073.7</ele>
        <time>2010-01-01T00:37:29Z</time>
      </trkpt>
      <trkpt lat="46.05676" lon="6.92582">
        <ele>2057.8</ele>
        <time>2010-01-01T00:37:31Z</time>
      </trkpt>
      <trkpt lat="46.05671" lon="6.92581">
        <ele>2059.1</ele>
        <time>2010-01-01T00:37:33Z</time>
      </trkpt>
      <trkpt lat="46.05666" lon="6.92581">
        <ele>2059.9</ele>
        <time>2010-01-01T00:37:35Z</time>
      </trkpt>
      <trkpt lat="46.05661" lon="6.92581">
        <ele>2074</ele>
        <time>2010-01-01T00:37:37Z</time>
      </trkpt>
      <trkpt lat="46.05656" lon="6.92584">
        <ele>2061.1</ele>
        <time>2010-01-01T00:37:39Z</time>
      </trkpt>
      <trkpt lat="46.05652" lon="6.92589">
        <ele>2059.7</ele>
        <time>2010-01-01T00:37:41Z</time>
      </trkpt>
      <trkpt lat="46.05648" lon="6.92589">
        <ele>2061</ele>
        <time>2010-01-01T00:37:43Z</time>
      </trkpt>
      <trkpt lat="46.05643" lon="6.92588">
        <ele>2074</ele>
        <time>2010-01-01T00:37:45Z</time>
      </trkpt>
      <trkpt lat="46.05639" lon="6.9259">
        <ele>2063.4</ele>
        <time>2010-01-01T00:37:47Z</time>
      </trkpt>
      <trkpt lat="46.05636" lon="6.92595">
        <ele>2061.6</ele>
        <time>2010-01-01T00:37:48Z</time>
      </trkpt>
      <trkpt lat="46.05635" lon="6.926">
        <ele>2059.3</ele>
        <time>2010-01-01T00:37:50Z</time>
      </trkpt>
      <trkpt lat="46.05636" lon="6.92607">
        <ele>2055.2</ele>
        <time>2010-01-01T00:37:52Z</time>
      </trkpt>
      <trkpt lat="46.05633" lon="6.92614">
        <ele>2067.5</ele>
        <time>2010-01-01T00:37:54Z</time>
      </trkpt>
      <trkpt lat="46.05631" lon="6.92619">
        <ele>2050.7</ele>
        <time>2010-01-01T00:37:56Z</time>
      </trkpt>
      <trkpt lat="46.05625" lon="6.92619">
        <ele>2052.4</ele>
        <time>2010-01-01T00:37:58Z</time>
      </trkpt>
      <trkpt lat="46.05621" lon="6.92617">
        <ele>2054.6</ele>
        <time>2010-01-01T00:38:00Z</time>
      </trkpt>
      <trkpt lat="46.05617" lon="6.92616">
        <ele>2056.3</ele>
        <time>2010-01-01T00:38:01Z</time>
      </trkpt>
      <trkpt lat="46.05616" lon="6.9261">
        <ele>2065.7</ele>
        <time>2010-01-01T00:38:03Z</time>
      </trkpt>
      <trkpt lat="46.05614" lon="6.92607">
        <ele>2062.3</ele>
        <time>2010-01-01T00:38:04Z</time>
      </trkpt>
      <trkpt lat="46.05609" lon="6.92608">
        <ele>2062.7</ele>
        <time>2010-01-01T00:38:06Z</time>
      </trkpt>
      <trkpt lat="46.05604" lon="6.92611">
        <ele>2061.3</ele>
        <time>2010-01-01T00:38:09Z</time>
      </trkpt>
      <trkpt lat="46.05599" lon="6.92614">
        <ele>2059.6</ele>
        <time>2010-01-01T00:38:11Z</time>
      </trkpt>
      <trkpt lat="46.05594" lon="6.92614">
        <ele>2065.3</ele>
        <time>2010-01-01T00:38:13Z</time>
      </trkpt>
      <trkpt lat="46.05589" lon="6.92612">
        <ele>2061.2</ele>
        <time>2010-01-01T00:38:15Z</time>
      </trkpt>
      <trkpt lat="46.05585" lon="6.9261">
        <ele>2062.5</ele>
        <time>2010-01-01T00:38:16Z</time>
      </trkpt>
      <trkpt lat="46.0558" lon="6.92606">
        <ele>2063.3</ele>
        <time>2010-01-01T00:38:19Z</time>
      </trkpt>
      <trkpt lat="46.05576" lon="6.92602">
        <ele>2065</ele>
        <time>2010-01-01T00:38:21Z</time>
      </trkpt>
      <trkpt lat="46.05572" lon="6.926">
        <ele>2063.1</ele>
        <time>2010-01-01T00:38:22Z</time>
      </trkpt>
      <trkpt lat="46.05571" lon="6.92593">
        <ele>2066.2</ele>
        <time>2010-01-01T00:38:24Z</time>
      </trkpt>
      <trkpt lat="46.05568" lon="6.92587">
        <ele>2068.1</ele>
        <time>2010-01-01T00:38:26Z</time>
      </trkpt>
      <trkpt lat="46.05566" lon="6.92581">
        <ele>2065</ele>
        <time>2010-01-01T00:38:28Z</time>
      </trkpt>
      <trkpt lat="46.05562" lon="6.92576">
        <ele>2071.6</ele>
        <time>2010-01-01T00:38:30Z</time>
      </trkpt>
      <trkpt lat="46.05559" lon="6.9257">
        <ele>2073.7</ele>
        <time>2010-01-01T00:38:32Z</time>
      </trkpt>
      <trkpt lat="46.05554" lon="6.92566">
        <ele>2073.7</ele>
        <time>2010-01-01T00:38:35Z</time>
      </trkpt>
      <trkpt lat="46.05552" lon="6.9256">
        <ele>2076</ele>
        <time>2010-01-01T00:38:37Z</time>
      </trkpt>
      <trkpt lat="46.0555" lon="6.92556">
        <ele>2077.2</ele>
        <time>2010-01-01T00:38:38Z</time>
      </trkpt>
      <trkpt lat="46.05547" lon="6.92551">
        <ele>2078.5</ele>
        <time>2010-01-01T00:38:40Z</time>
      </trkpt>
      <trkpt lat="46.05542" lon="6.92549">
        <ele>2077.2</ele>
        <time>2010-01-01T00:38:42Z</time>
      </trkpt>
      <trkpt lat="46.05542" lon="6.92542">
        <ele>2081</ele>
        <time>2010-01-01T00:38:44Z</time>
      </trkpt>
      <trkpt lat="46.05541" lon="6.92535">
        <ele>2091</ele>
        <time>2010-01-01T00:38:46Z</time>
      </trkpt>
      <trkpt lat="46.05538" lon="6.92528">
        <ele>2086.7</ele>
        <time>2010-01-01T00:38:48Z</time>
      </trkpt>
      <trkpt lat="46.05535" lon="6.92521">
        <ele>2089.7</ele>
        <time>2010-01-01T00:38:50Z</time>
      </trkpt>
      <trkpt lat="46.05531" lon="6.9252">
        <ele>2088.5</ele>
        <time>2010-01-01T00:38:52Z</time>
      </trkpt>
      <trkpt lat="46.05528" lon="6.92515">
        <ele>2105</ele>
        <time>2010-01-01T00:38:54Z</time>
      </trkpt>
      <trkpt lat="46.05532" lon="6.92516">
        <ele>2091.5</ele>
        <time>2010-01-01T00:38:55Z</time>
      </trkpt>
      <trkpt lat="46.05532" lon="6.9251">
        <ele>2095.4</ele>
        <time>2010-01-01T00:38:57Z</time>
      </trkpt>
      <trkpt lat="46.0553" lon="6.92503">
        <ele>2099</ele>
        <time>2010-01-01T00:38:59Z</time>
      </trkpt>
      <trkpt lat="46.05527" lon="6.92499">
        <ele>2100.9</ele>
        <time>2010-01-01T00:39:01Z</time>
      </trkpt>
      <trkpt lat="46.05523" lon="6.92501">
        <ele>2105</ele>
        <time>2010-01-01T00:39:03Z</time>
      </trkpt>
      <trkpt lat="46.05521" lon="6.92507">
        <ele>2098</ele>
        <time>2010-01-01T00:39:04Z</time>
      </trkpt>
      <trkpt lat="46.05522" lon="6.92513">
        <ele>2093.9</ele>
        <time>2010-01-01T00:39:06Z</time>
      </trkpt>
      <trkpt lat="46.0552" lon="6.9252">
        <ele>2090.6</ele>
        <time>2010-01-01T00:39:08Z</time>
      </trkpt>
      <trkpt lat="46.05516" lon="6.92525">
        <ele>2105</ele>
        <time>2010-01-01T00:39:10Z</time>
      </trkpt>
      <trkpt lat="46.05511" lon="6.92525">
        <ele>2092</ele>
        <time>2010-01-01T00:39:12Z</time>
      </trkpt>
      <trkpt lat="46.05504" lon="6.92525">
        <ele>2095.4</ele>
        <time>2010-01-01T00:39:15Z</time>
      </trkpt>
      <trkpt lat="46.05502" lon="6.92532">
        <ele>2093.1</ele>
        <time>2010-01-01T00:39:17Z</time>
      </trkpt>
      <trkpt lat="46.055" lon="6.92537">
        <ele>2105</ele>
        <time>2010-01-01T00:39:19Z</time>
      </trkpt>
      <trkpt lat="46.05497" lon="6.92541">
        <ele>2090.7</ele>
        <time>2010-01-01T00:39:21Z</time>
      </trkpt>
      <trkpt lat="46.05492" lon="6.92542">
        <ele>2090.9</ele>
        <time>2010-01-01T00:39:23Z</time>
      </trkpt>
      <trkpt lat="46.05487" lon="6.92544">
        <ele>2090.5</ele>
        <time>2010-01-01T00:39:25Z</time>
      </trkpt>
      <trkpt lat="46.05482" lon="6.92544">
        <ele>2091.1</ele>
        <time>2010-01-01T00:39:27Z</time>
      </trkpt>
      <trkpt lat="46.05478" lon="6.92544">
        <ele>2102</ele>
        <time>2010-01-01T00:39:28Z</time>
      </trkpt>
      <trkpt lat="46.05472" lon="6.92542">
        <ele>2093.3</ele>
        <time>2010-01-01T00:39:31Z</time>
      </trkpt>
      <trkpt lat="46.05467" lon="6.92542">
        <ele>2092.4</ele>
        <time>2010-01-01T00:39:33Z</time>
      </trkpt>
      <trkpt lat="46.05462" lon="6.92541">
        <ele>2092</ele>
        <time>2010-01-01T00:39:35Z</time>
      </trkpt>
      <trkpt lat="46.05457" lon="6.9254">
        <ele>2095</ele>
        <time>2010-01-01T00:39:37Z</time>
      </trkpt>
      <trkpt lat="46.05454" lon="6.9254">
        <ele>2091.1</ele>
        <time>2010-01-01T00:39:38Z</time>
      </trkpt>
      <trkpt lat="46.05449" lon="6.92541">
        <ele>2089.7</ele>
        <time>2010-01-01T00:39:40Z</time>
      </trkpt>
      <trkpt lat="46.05444" lon="6.92542">
        <ele>2088.2</ele>
        <time>2010-01-01T00:39:42Z</time>
      </trkpt>
      <trkpt lat="46.05438" lon="6.92541">
        <ele>2088</ele>
        <time>2010-01-01T00:39:44Z</time>
      </trkpt>
      <trkpt lat="46.05433" lon="6.92539">
        <ele>2087.2</ele>
        <time>2010-01-01T00:39:46Z</time>
      </trkpt>
      <trkpt lat="46.05429" lon="6.92536">
        <ele>2087.8</ele>
        <time>2010-01-01T00:39:48Z</time>
      </trkpt>
      <trkpt lat="46.05424" lon="6.92533">
        <ele>2088.2</ele>
        <time>2010-01-01T00:39:50Z</time>
      </trkpt>
      <trkpt lat="46.05419" lon="6.92531">
        <ele>2088</ele>
        <time>2010-01-01T00:39:53Z</time>
      </trkpt>
      <trkpt lat="46.05414" lon="6.92531">
        <ele>2087.8</ele>
        <time>2010-01-01T00:39:55Z</time>
      </trkpt>
      <trkpt lat="46.05409" lon="6.92534">
        <ele>2087.2</ele>
        <time>2010-01-01T00:39:57Z</time>
      </trkpt>
      <trkpt lat="46.05404" lon="6.92536">
        <ele>2087.1</ele>
        <time>2010-01-01T00:39:59Z</time>
      </trkpt>
      <trkpt lat="46.05399" lon="6.9254">
        <ele>2080</ele>
        <time>2010-01-01T00:40:01Z</time>
      </trkpt>
      <trkpt lat="46.05394" lon="6.92544">
        <ele>2085.5</ele>
        <time>2010-01-01T00:40:03Z</time>
      </trkpt>
      <trkpt lat="46.05388" lon="6.92547">
        <ele>2085.1</ele>
        <time>2010-01-01T00:40:06Z</time>
      </trkpt>
      <trkpt lat="46.05383" lon="6.92548">
        <ele>2083.2</ele>
        <time>2010-01-01T00:40:08Z</time>
      </trkpt>
      <trkpt lat="46.05378" lon="6.92546">
        <ele>2072</ele>
        <time>2010-01-01T00:40:10Z</time>
      </trkpt>
      <trkpt lat="46.05374" lon="6.92542">
        <ele>2082.6</ele>
        <time>2010-01-01T00:40:12Z</time>
      </trkpt>
      <trkpt lat="46.0537" lon="6.92538">
        <ele>2082.7</ele>
        <time>2010-01-01T00:40:14Z</time>
      </trkpt>
      <trkpt lat="46.05365" lon="6.92532">
        <ele>2083</ele>
        <time>2010-01-01T00:40:16Z</time>
      </trkpt>
      <trkpt lat="46.05363" lon="6.92527">
        <ele>2066</ele>
        <time>2010-01-01T00:40:18Z</time>
      </trkpt>
      <trkpt lat="46.05361" lon="6.92523">
        <ele>2084.3</ele>
        <time>2010-01-01T00:40:19Z</time>
      </trkpt>
      <trkpt lat="46.05357" lon="6.92518">
        <ele>2082.8</ele>
        <time>2010-01-01T00:40:22Z</time>
      </trkpt>
      <trkpt lat="46.05354" lon="6.92513">
        <ele>2082</ele>
        <time>2010-01-01T00:40:23Z</time>
      </trkpt>
      <trkpt lat="46.05352" lon="6.92508">
        <ele>2081.8</ele>
        <time>2010-01-01T00:40:25Z</time>
      </trkpt>
      <trkpt lat="46.0535" lon="6.92502">
        <ele>2066</ele>
        <time>2010-01-01T00:40:27Z</time>
      </trkpt>
      <trkpt lat="46.05348" lon="6.92495">
        <ele>2081.3</ele>
        <time>2010-01-01T00:40:29Z</time>
      </trkpt>
      <trkpt lat="46.05345" lon="6.92487">
        <ele>2080.1</ele>
        <time>2010-01-01T00:40:31Z</time>
      </trkpt>
      <trkpt lat="46.05341" lon="6.92483">
        <ele>2077.5</ele>
        <time>2010-01-01T00:40:33Z</time>
      </trkpt>
      <trkpt lat="46.05339" lon="6.92477">
        <ele>2066</ele>
        <time>2010-01-01T00:40:35Z</time>
      </trkpt>
      <trkpt lat="46.05339" lon="6.92472">
        <ele>2077.5</ele>
        <time>2010-01-01T00:40:37Z</time>
      </trkpt>
      <trkpt lat="46.05339" lon="6.92464">
        <ele>2079.6</ele>
        <time>2010-01-01T00:40:39Z</time>
      </trkpt>
      <trkpt lat="46.0534" lon="6.92458">
        <ele>2081.9</ele>
        <time>2010-01-01T00:40:41Z</time>
      </trkpt>
      <trkpt lat="46.05336" lon="6.92454">
        <ele>2080.1</ele>
        <time>2010-01-01T00:40:43Z</time>
      </trkpt>
      <trkpt lat="46.05332" lon="6.92455">
        <ele>2071.5</ele>
        <time>2010-01-01T00:40:44Z</time>
      </trkpt>
      <trkpt lat="46.05327" lon="6.92451">
        <ele>2077.8</ele>
        <time>2010-01-01T00:40:46Z</time>
      </trkpt>
      <trkpt lat="46.05322" lon="6.9245">
        <ele>2077.1</ele>
        <time>2010-01-01T00:40:49Z</time>
      </trkpt>
      <trkpt lat="46.05318" lon="6.92453">
        <ele>2075</ele>
        <time>2010-01-01T00:40:50Z</time>
      </trkpt>
      <trkpt lat="46.05314" lon="6.92454">
        <ele>2069.2</ele>
        <time>2010-01-01T00:40:52Z</time>
      </trkpt>
      <trkpt lat="46.0531" lon="6.92456">
        <ele>2071.5</ele>
        <time>2010-01-01T00:40:54Z</time>
      </trkpt>
      <trkpt lat="46.05305" lon="6.92456">
        <ele>2070.1</ele>
        <time>2010-01-01T00:40:56Z</time>
      </trkpt>
      <trkpt lat="46.053" lon="6.92456">
        <ele>2068.3</ele>
        <time>2010-01-01T00:40:58Z</time>
      </trkpt>
      <trkpt lat="46.05296" lon="6.92452">
        <ele>2067</ele>
        <time>2010-01-01T00:41:00Z</time>
      </trkpt>
      <trkpt lat="46.05292" lon="6.92449">
        <ele>2069.5</ele>
        <time>2010-01-01T00:41:01Z</time>
      </trkpt>
      <trkpt lat="46.05287" lon="6.92445">
        <ele>2070</ele>
        <time>2010-01-01T00:41:04Z</time>
      </trkpt>
      <trkpt lat="46.05283" lon="6.92441">
        <ele>2070.6</ele>
        <time>2010-01-01T00:41:06Z</time>
      </trkpt>
      <trkpt lat="46.05279" lon="6.92439">
        <ele>2067</ele>
        <time>2010-01-01T00:41:07Z</time>
      </trkpt>
      <trkpt lat="46.05275" lon="6.92436">
        <ele>2070.2</ele>
        <time>2010-01-01T00:41:09Z</time>
      </trkpt>
      <trkpt lat="46.0527" lon="6.92434">
        <ele>2069.4</ele>
        <time>2010-01-01T00:41:11Z</time>
      </trkpt>
      <trkpt lat="46.05266" lon="6.92431">
        <ele>2069.3</ele>
        <time>2010-01-01T00:41:13Z</time>
      </trkpt>
      <trkpt lat="46.05261" lon="6.92429">
        <ele>2066</ele>
        <time>2010-01-01T00:41:15Z</time>
      </trkpt>
      <trkpt lat="46.05256" lon="6.92426">
        <ele>2067.9</ele>
        <time>2010-01-01T00:41:17Z</time>
      </trkpt>
      <trkpt lat="46.05252" lon="6.92424">
        <ele>2067.3</ele>
        <time>2010-01-01T00:41:19Z</time>
      </trkpt>
      <trkpt lat="46.05247" lon="6.92421">
        <ele>2067.3</ele>
        <time>2010-01-01T00:41:21Z</time>
      </trkpt>
      <trkpt lat="46.05243" lon="6.92421">
        <ele>2065</ele>
        <time>2010-01-01T00:41:23Z</time>
      </trkpt>
      <trkpt lat="46.05238" lon="6.92421">
        <ele>2065.2</ele>
        <time>2010-01-01T00:41:25Z</time>
      </trkpt>
      <trkpt lat="46.05233" lon="6.92418">
        <ele>2065.2</ele>
        <time>2010-01-01T00:41:27Z</time>
      </trkpt>
      <trkpt lat="46.0523" lon="6.92414">
        <ele>2065.9</ele>
        <time>2010-01-01T00:41:29Z</time>
      </trkpt>
      <trkpt lat="46.05226" lon="6.92411">
        <ele>2065</ele>
        <time>2010-01-01T00:41:30Z</time>
      </trkpt>
      <trkpt lat="46.05221" lon="6.92409">
        <ele>2065.3</ele>
        <time>2010-01-01T00:41:32Z</time>
      </trkpt>
      <trkpt lat="46.05217" lon="6.92407">
        <ele>2064.4</ele>
        <time>2010-01-01T00:41:34Z</time>
      </trkpt>
      <trkpt lat="46.05213" lon="6.92404">
        <ele>2063.9</ele>
        <time>2010-01-01T00:41:36Z</time>
      </trkpt>
      <trkpt lat="46.05209" lon="6.92399">
        <ele>2064.1</ele>
        <time>2010-01-01T00:41:38Z</time>
      </trkpt>
      <trkpt lat="46.05205" lon="6.92395">
        <ele>2067</ele>
        <time>2010-01-01T00:41:40Z</time>
      </trkpt>
      <trkpt lat="46.05201" lon="6.92396">
        <ele>2062</ele>
        <time>2010-01-01T00:41:42Z</time>
      </trkpt>
      <trkpt lat="46.05196" lon="6.92394">
        <ele>2060.8</ele>
        <time>2010-01-01T00:41:44Z</time>
      </trkpt>
      <trkpt lat="46.0519" lon="6.92392">
        <ele>2059.8</ele>
        <time>2010-01-01T00:41:46Z</time>
      </trkpt>
      <trkpt lat="46.05186" lon="6.92392">
        <ele>2069</ele>
        <time>2010-01-01T00:41:48Z</time>
      </trkpt>
      <trkpt lat="46.05181" lon="6.9239">
        <ele>2058.6</ele>
        <time>2010-01-01T00:41:50Z</time>
      </trkpt>
      <trkpt lat="46.05178" lon="6.92388">
        <ele>2058.7</ele>
        <time>2010-01-01T00:41:51Z</time>
      </trkpt>
      <trkpt lat="46.05173" lon="6.9239">
        <ele>2056.8</ele>
        <time>2010-01-01T00:41:53Z</time>
      </trkpt>
      <trkpt lat="46.05168" lon="6.92391">
        <ele>2055.2</ele>
        <time>2010-01-01T00:41:55Z</time>
      </trkpt>
      <trkpt lat="46.05164" lon="6.9239">
        <ele>2069</ele>
        <time>2010-01-01T00:41:57Z</time>
      </trkpt>
      <trkpt lat="46.0516" lon="6.92389">
        <ele>2055</ele>
        <time>2010-01-01T00:41:58Z</time>
      </trkpt>
      <trkpt lat="46.05155" lon="6.92388">
        <ele>2054.6</ele>
        <time>2010-01-01T00:42:01Z</time>
      </trkpt>
      <trkpt lat="46.05151" lon="6.92386">
        <ele>2054.7</ele>
        <time>2010-01-01T00:42:02Z</time>
      </trkpt>
      <trkpt lat="46.05144" lon="6.92386">
        <ele>2065</ele>
        <time>2010-01-01T00:42:05Z</time>
      </trkpt>
      <trkpt lat="46.0514" lon="6.92385">
        <ele>2053.5</ele>
        <time>2010-01-01T00:42:07Z</time>
      </trkpt>
      <trkpt lat="46.05136" lon="6.92385">
        <ele>2053.4</ele>
        <time>2010-01-01T00:42:08Z</time>
      </trkpt>
      <trkpt lat="46.05131" lon="6.92385">
        <ele>2053.4</ele>
        <time>2010-01-01T00:42:10Z</time>
      </trkpt>
      <trkpt lat="46.05126" lon="6.92383">
        <ele>2054.1</ele>
        <time>2010-01-01T00:42:12Z</time>
      </trkpt>
      <trkpt lat="46.05122" lon="6.92383">
        <ele>2059</ele>
        <time>2010-01-01T00:42:14Z</time>
      </trkpt>
      <trkpt lat="46.05117" lon="6.92384">
        <ele>2053.8</ele>
        <time>2010-01-01T00:42:16Z</time>
      </trkpt>
      <trkpt lat="46.05113" lon="6.92387">
        <ele>2052.7</ele>
        <time>2010-01-01T00:42:18Z</time>
      </trkpt>
      <trkpt lat="46.05108" lon="6.9239">
        <ele>2051.8</ele>
        <time>2010-01-01T00:42:20Z</time>
      </trkpt>
      <trkpt lat="46.05104" lon="6.92394">
        <ele>2054</ele>
        <time>2010-01-01T00:42:22Z</time>
      </trkpt>
      <trkpt lat="46.05099" lon="6.92397">
        <ele>2049.9</ele>
        <time>2010-01-01T00:42:24Z</time>
      </trkpt>
      <trkpt lat="46.05095" lon="6.92401">
        <ele>2048.9</ele>
        <time>2010-01-01T00:42:26Z</time>
      </trkpt>
      <trkpt lat="46.05093" lon="6.92406">
        <ele>2047.5</ele>
        <time>2010-01-01T00:42:28Z</time>
      </trkpt>
      <trkpt lat="46.05089" lon="6.92411">
        <ele>2054</ele>
        <time>2010-01-01T00:42:30Z</time>
      </trkpt>
      <trkpt lat="46.05084" lon="6.9241">
        <ele>2047.8</ele>
        <time>2010-01-01T00:42:32Z</time>
      </trkpt>
      <trkpt lat="46.05078" lon="6.92408">
        <ele>2047.9</ele>
        <time>2010-01-01T00:42:34Z</time>
      </trkpt>
      <trkpt lat="46.05072" lon="6.92404">
        <ele>2048.2</ele>
        <time>2010-01-01T00:42:37Z</time>
      </trkpt>
      <trkpt lat="46.05068" lon="6.92401">
        <ele>2049</ele>
        <time>2010-01-01T00:42:39Z</time>
      </trkpt>
      <trkpt lat="46.05063" lon="6.924">
        <ele>2048.2</ele>
        <time>2010-01-01T00:42:41Z</time>
      </trkpt>
      <trkpt lat="46.05058" lon="6.92396">
        <ele>2048.5</ele>
        <time>2010-01-01T00:42:43Z</time>
      </trkpt>
      <trkpt lat="46.05054" lon="6.92393">
        <ele>2048.4</ele>
        <time>2010-01-01T00:42:45Z</time>
      </trkpt>
      <trkpt lat="46.05049" lon="6.92391">
        <ele>2044</ele>
        <time>2010-01-01T00:42:47Z</time>
      </trkpt>
      <trkpt lat="46.05045" lon="6.92387">
        <ele>2046.6</ele>
        <time>2010-01-01T00:42:49Z</time>
      </trkpt>
      <trkpt lat="46.05041" lon="6.92382">
        <ele>2046.2</ele>
        <time>2010-01-01T00:42:51Z</time>
      </trkpt>
      <trkpt lat="46.05036" lon="6.92379">
        <ele>2045.1</ele>
        <time>2010-01-01T00:42:53Z</time>
      </trkpt>
      <trkpt lat="46.05032" lon="6.92377">
        <ele>2044</ele>
        <time>2010-01-01T00:42:55Z</time>
      </trkpt>
      <trkpt lat="46.05027" lon="6.92374">
        <ele>2042.9</ele>
        <time>2010-01-01T00:42:57Z</time>
      </trkpt>
      <trkpt lat="46.05023" lon="6.92371">
        <ele>2041.6</ele>
        <time>2010-01-01T00:42:59Z</time>
      </trkpt>
      <trkpt lat="46.05019" lon="6.92368">
        <ele>2040.4</ele>
        <time>2010-01-01T00:43:01Z</time>
      </trkpt>
      <trkpt lat="46.05015" lon="6.92364">
        <ele>2043</ele>
        <time>2010-01-01T00:43:02Z</time>
      </trkpt>
      <trkpt lat="46.05011" lon="6.92361">
        <ele>2038.2</ele>
        <time>2010-01-01T00:43:04Z</time>
      </trkpt>
      <trkpt lat="46.05006" lon="6.92359">
        <ele>2036.2</ele>
        <time>2010-01-01T00:43:06Z</time>
      </trkpt>
      <trkpt lat="46.05002" lon="6.92355">
        <ele>2035.1</ele>
        <time>2010-01-01T00:43:08Z</time>
      </trkpt>
      <trkpt lat="46.04998" lon="6.92351">
        <ele>2042</ele>
        <time>2010-01-01T00:43:10Z</time>
      </trkpt>
      <trkpt lat="46.04994" lon="6.92346">
        <ele>2032</ele>
        <time>2010-01-01T00:43:12Z</time>
      </trkpt>
      <trkpt lat="46.04992" lon="6.92339">
        <ele>2032.1</ele>
        <time>2010-01-01T00:43:14Z</time>
      </trkpt>
      <trkpt lat="46.04991" lon="6.92332">
        <ele>2032.7</ele>
        <time>2010-01-01T00:43:16Z</time>
      </trkpt>
      <trkpt lat="46.04989" lon="6.92325">
        <ele>2039</ele>
        <time>2010-01-01T00:43:19Z</time>
      </trkpt>
      <trkpt lat="46.04988" lon="6.92319">
        <ele>2033.5</ele>
        <time>2010-01-01T00:43:20Z</time>
      </trkpt>
      <trkpt lat="46.04985" lon="6.92315">
        <ele>2032.5</ele>
        <time>2010-01-01T00:43:22Z</time>
      </trkpt>
      <trkpt lat="46.04981" lon="6.92313">
        <ele>2030.5</ele>
        <time>2010-01-01T00:43:24Z</time>
      </trkpt>
      <trkpt lat="46.04978" lon="6.92309">
        <ele>2029.6</ele>
        <time>2010-01-01T00:43:25Z</time>
      </trkpt>
      <trkpt lat="46.04974" lon="6.92306">
        <ele>2036</ele>
        <time>2010-01-01T00:43:27Z</time>
      </trkpt>
      <trkpt lat="46.04971" lon="6.923">
        <ele>2027.5</ele>
        <time>2010-01-01T00:43:29Z</time>
      </trkpt>
      <trkpt lat="46.04969" lon="6.92295">
        <ele>2027.6</ele>
        <time>2010-01-01T00:43:31Z</time>
      </trkpt>
      <trkpt lat="46.04966" lon="6.9229">
        <ele>2027.2</ele>
        <time>2010-01-01T00:43:33Z</time>
      </trkpt>
      <trkpt lat="46.04963" lon="6.92285">
        <ele>2027</ele>
        <time>2010-01-01T00:43:34Z</time>
      </trkpt>
      <trkpt lat="46.04958" lon="6.9228">
        <ele>2031</ele>
        <time>2010-01-01T00:43:37Z</time>
      </trkpt>
      <trkpt lat="46.04953" lon="6.92275">
        <ele>2024.8</ele>
        <time>2010-01-01T00:43:39Z</time>
      </trkpt>
      <trkpt lat="46.04949" lon="6.9227">
        <ele>2023.9</ele>
        <time>2010-01-01T00:43:41Z</time>
      </trkpt>
      <trkpt lat="46.04946" lon="6.92268">
        <ele>2023</ele>
        <time>2010-01-01T00:43:43Z</time>
      </trkpt>
      <trkpt lat="46.04943" lon="6.92272">
        <ele>2028</ele>
        <time>2010-01-01T00:43:44Z</time>
      </trkpt>
      <trkpt lat="46.04942" lon="6.92278">
        <ele>2020.9</ele>
        <time>2010-01-01T00:43:46Z</time>
      </trkpt>
      <trkpt lat="46.04943" lon="6.92284">
        <ele>2019.7</ele>
        <time>2010-01-01T00:43:48Z</time>
      </trkpt>
      <trkpt lat="46.04942" lon="6.92291">
        <ele>2018.3</ele>
        <time>2010-01-01T00:43:50Z</time>
      </trkpt>
      <trkpt lat="46.04941" lon="6.92298">
        <ele>2017</ele>
        <time>2010-01-01T00:43:52Z</time>
      </trkpt>
      <trkpt lat="46.0494" lon="6.92305">
        <ele>2028</ele>
        <time>2010-01-01T00:43:54Z</time>
      </trkpt>
      <trkpt lat="46.04938" lon="6.92311">
        <ele>2014.2</ele>
        <time>2010-01-01T00:43:56Z</time>
      </trkpt>
      <trkpt lat="46.04934" lon="6.92316">
        <ele>2012.9</ele>
        <time>2010-01-01T00:43:58Z</time>
      </trkpt>
      <trkpt lat="46.0493" lon="6.92319">
        <ele>2012.2</ele>
        <time>2010-01-01T00:44:00Z</time>
      </trkpt>
      <trkpt lat="46.04926" lon="6.92321">
        <ele>2011.7</ele>
        <time>2010-01-01T00:44:01Z</time>
      </trkpt>
      <trkpt lat="46.04921" lon="6.92321">
        <ele>2023</ele>
        <time>2010-01-01T00:44:03Z</time>
      </trkpt>
      <trkpt lat="46.04915" lon="6.92321">
        <ele>2011.8</ele>
        <time>2010-01-01T00:44:06Z</time>
      </trkpt>
      <trkpt lat="46.04909" lon="6.92319">
        <ele>2010.6</ele>
        <time>2010-01-01T00:44:08Z</time>
      </trkpt>
      <trkpt lat="46.04904" lon="6.92315">
        <ele>2010.7</ele>
        <time>2010-01-01T00:44:10Z</time>
      </trkpt>
      <trkpt lat="46.049" lon="6.92311">
        <ele>2019.5</ele>
        <time>2010-01-01T00:44:12Z</time>
      </trkpt>
      <trkpt lat="46.04895" lon="6.92307">
        <ele>2011.3</ele>
        <time>2010-01-01T00:44:15Z</time>
      </trkpt>
      <trkpt lat="46.0489" lon="6.92304">
        <ele>2010.9</ele>
        <time>2010-01-01T00:44:17Z</time>
      </trkpt>
      <trkpt lat="46.04886" lon="6.923">
        <ele>2011</ele>
        <time>2010-01-01T00:44:19Z</time>
      </trkpt>
      <trkpt lat="46.04882" lon="6.92296">
        <ele>2016</ele>
        <time>2010-01-01T00:44:21Z</time>
      </trkpt>
      <trkpt lat="46.04878" lon="6.92293">
        <ele>2011.3</ele>
        <time>2010-01-01T00:44:22Z</time>
      </trkpt>
      <trkpt lat="46.04874" lon="6.92289">
        <ele>2011.9</ele>
        <time>2010-01-01T00:44:24Z</time>
      </trkpt>
      <trkpt lat="46.0487" lon="6.92285">
        <ele>2012.6</ele>
        <time>2010-01-01T00:44:26Z</time>
      </trkpt>
      <trkpt lat="46.04865" lon="6.92284">
        <ele>2016</ele>
        <time>2010-01-01T00:44:28Z</time>
      </trkpt>
      <trkpt lat="46.0486" lon="6.92281">
        <ele>2012.1</ele>
        <time>2010-01-01T00:44:31Z</time>
      </trkpt>
      <trkpt lat="46.04856" lon="6.92278">
        <ele>2012.6</ele>
        <time>2010-01-01T00:44:32Z</time>
      </trkpt>
      <trkpt lat="46.04851" lon="6.92277">
        <ele>2011.8</ele>
        <time>2010-01-01T00:44:34Z</time>
      </trkpt>
      <trkpt lat="46.04846" lon="6.92278">
        <ele>2016</ele>
        <time>2010-01-01T00:44:36Z</time>
      </trkpt>
      <trkpt lat="46.04841" lon="6.92277">
        <ele>2009.3</ele>
        <time>2010-01-01T00:44:38Z</time>
      </trkpt>
      <trkpt lat="46.04836" lon="6.92275">
        <ele>2009</ele>
        <time>2010-01-01T00:44:41Z</time>
      </trkpt>
      <trkpt lat="46.04832" lon="6.92275">
        <ele>2008.2</ele>
        <time>2010-01-01T00:44:42Z</time>
      </trkpt>
      <trkpt lat="46.04829" lon="6.92275">
        <ele>2007.6</ele>
        <time>2010-01-01T00:44:43Z</time>
      </trkpt>
      <trkpt lat="46.04824" lon="6.92276">
        <ele>2016</ele>
        <time>2010-01-01T00:44:45Z</time>
      </trkpt>
      <trkpt lat="46.0482" lon="6.92277">
        <ele>2005</ele>
        <time>2010-01-01T00:44:47Z</time>
      </trkpt>
      <trkpt lat="46.04815" lon="6.92277">
        <ele>2004.1</ele>
        <time>2010-01-01T00:44:49Z</time>
      </trkpt>
      <trkpt lat="46.0481" lon="6.92276">
        <ele>2003.7</ele>
        <time>2010-01-01T00:44:51Z</time>
      </trkpt>
      <trkpt lat="46.04805" lon="6.92276">
        <ele>2016</ele>
        <time>2010-01-01T00:44:53Z</time>
      </trkpt>
      <trkpt lat="46.04799" lon="6.92274">
        <ele>2003.9</ele>
        <time>2010-01-01T00:44:55Z</time>
      </trkpt>
      <trkpt lat="46.04795" lon="6.92273">
        <ele>2004.5</ele>
        <time>2010-01-01T00:44:57Z</time>
      </trkpt>
      <trkpt lat="46.04791" lon="6.92272">
        <ele>2005</ele>
        <time>2010-01-01T00:44:59Z</time>
      </trkpt>
      <trkpt lat="46.04787" lon="6.92271">
        <ele>2005.6</ele>
        <time>2010-01-01T00:45:00Z</time>
      </trkpt>
      <trkpt lat="46.04781" lon="6.9227">
        <ele>2011</ele>
        <time>2010-01-01T00:45:03Z</time>
      </trkpt>
      <trkpt lat="46.04775" lon="6.92269">
        <ele>2006.5</ele>
        <time>2010-01-01T00:45:05Z</time>
      </trkpt>
      <trkpt lat="46.0477" lon="6.92268">
        <ele>2006.7</ele>
        <time>2010-01-01T00:45:07Z</time>
      </trkpt>
      <trkpt lat="46.04766" lon="6.92264">
        <ele>2008.4</ele>
        <time>2010-01-01T00:45:09Z</time>
      </trkpt>
      <trkpt lat="46.04762" lon="6.92262">
        <ele>2011.5</ele>
        <time>2010-01-01T00:45:11Z</time>
      </trkpt>
      <trkpt lat="46.04758" lon="6.92261">
        <ele>2009.1</ele>
        <time>2010-01-01T00:45:12Z</time>
      </trkpt>
      <trkpt lat="46.04753" lon="6.92258">
        <ele>2009.9</ele>
        <time>2010-01-01T00:45:15Z</time>
      </trkpt>
      <trkpt lat="46.04749" lon="6.92256">
        <ele>2010.2</ele>
        <time>2010-01-01T00:45:16Z</time>
      </trkpt>
      <trkpt lat="46.04745" lon="6.9225">
        <ele>2012</ele>
        <time>2010-01-01T00:45:19Z</time>
      </trkpt>
      <trkpt lat="46.0474" lon="6.92247">
        <ele>2011.3</ele>
        <time>2010-01-01T00:45:21Z</time>
      </trkpt>
      <trkpt lat="46.04735" lon="6.92245">
        <ele>2010.7</ele>
        <time>2010-01-01T00:45:23Z</time>
      </trkpt>
      <trkpt lat="46.0473" lon="6.92241">
        <ele>2010.4</ele>
        <time>2010-01-01T00:45:25Z</time>
      </trkpt>
      <trkpt lat="46.04726" lon="6.92236">
        <ele>2012</ele>
        <time>2010-01-01T00:45:27Z</time>
      </trkpt>
      <trkpt lat="46.04722" lon="6.92232">
        <ele>2010.9</ele>
        <time>2010-01-01T00:45:29Z</time>
      </trkpt>
      <trkpt lat="46.04719" lon="6.92228">
        <ele>2011.4</ele>
        <time>2010-01-01T00:45:31Z</time>
      </trkpt>
      <trkpt lat="46.04717" lon="6.92221">
        <ele>2012.6</ele>
        <time>2010-01-01T00:45:33Z</time>
      </trkpt>
      <trkpt lat="46.04716" lon="6.92213">
        <ele>2016.5</ele>
        <time>2010-01-01T00:45:35Z</time>
      </trkpt>
      <trkpt lat="46.04715" lon="6.92206">
        <ele>2014.6</ele>
        <time>2010-01-01T00:45:37Z</time>
      </trkpt>
      <trkpt lat="46.04713" lon="6.92201">
        <ele>2015.1</ele>
        <time>2010-01-01T00:45:39Z</time>
      </trkpt>
      <trkpt lat="46.04709" lon="6.92198">
        <ele>2015.1</ele>
        <time>2010-01-01T00:45:41Z</time>
      </trkpt>
      <trkpt lat="46.04704" lon="6.92197">
        <ele>2014.7</ele>
        <time>2010-01-01T00:45:43Z</time>
      </trkpt>
      <trkpt lat="46.04699" lon="6.922">
        <ele>2021</ele>
        <time>2010-01-01T00:45:45Z</time>
      </trkpt>
      <trkpt lat="46.04695" lon="6.92198">
        <ele>2013.5</ele>
        <time>2010-01-01T00:45:46Z</time>
      </trkpt>
      <trkpt lat="46.04691" lon="6.92193">
        <ele>2014.8</ele>
        <time>2010-01-01T00:45:49Z</time>
      </trkpt>
      <trkpt lat="46.04686" lon="6.92191">
        <ele>2016</ele>
        <time>2010-01-01T00:45:51Z</time>
      </trkpt>
      <trkpt lat="46.04682" lon="6.92193">
        <ele>2031</ele>
        <time>2010-01-01T00:45:52Z</time>
      </trkpt>
      <trkpt lat="46.04676" lon="6.92195">
        <ele>2015.2</ele>
        <time>2010-01-01T00:45:55Z</time>
      </trkpt>
      <trkpt lat="46.0467" lon="6.92192">
        <ele>2016.9</ele>
        <time>2010-01-01T00:45:57Z</time>
      </trkpt>
      <trkpt lat="46.04666" lon="6.9219">
        <ele>2018.2</ele>
        <time>2010-01-01T00:45:59Z</time>
      </trkpt>
      <trkpt lat="46.04663" lon="6.92191">
        <ele>2031</ele>
        <time>2010-01-01T00:46:00Z</time>
      </trkpt>
      <trkpt lat="46.04658" lon="6.92196">
        <ele>2017.6</ele>
        <time>2010-01-01T00:46:03Z</time>
      </trkpt>
      <trkpt lat="46.04655" lon="6.922">
        <ele>2016.8</ele>
        <time>2010-01-01T00:46:04Z</time>
      </trkpt>
      <trkpt lat="46.04653" lon="6.92205">
        <ele>2015.3</ele>
        <time>2010-01-01T00:46:06Z</time>
      </trkpt>
      <trkpt lat="46.04648" lon="6.9221">
        <ele>2030</ele>
        <time>2010-01-01T00:46:08Z</time>
      </trkpt>
      <trkpt lat="46.04644" lon="6.92214">
        <ele>2013.1</ele>
        <time>2010-01-01T00:46:10Z</time>
      </trkpt>
      <trkpt lat="46.04639" lon="6.92214">
        <ele>2013.8</ele>
        <time>2010-01-01T00:46:12Z</time>
      </trkpt>
      <trkpt lat="46.04634" lon="6.92214">
        <ele>2014</ele>
        <time>2010-01-01T00:46:14Z</time>
      </trkpt>
      <trkpt lat="46.0463" lon="6.92214">
        <ele>2015</ele>
        <time>2010-01-01T00:46:16Z</time>
      </trkpt>
      <trkpt lat="46.04625" lon="6.9221">
        <ele>2016</ele>
        <time>2010-01-01T00:46:18Z</time>
      </trkpt>
      <trkpt lat="46.04621" lon="6.92208">
        <ele>2017</ele>
        <time>2010-01-01T00:46:20Z</time>
      </trkpt>
      <trkpt lat="46.04618" lon="6.92206">
        <ele>2017.9</ele>
        <time>2010-01-01T00:46:21Z</time>
      </trkpt>
      <trkpt lat="46.04613" lon="6.92203">
        <ele>2015</ele>
        <time>2010-01-01T00:46:23Z</time>
      </trkpt>
      <trkpt lat="46.04609" lon="6.92201">
        <ele>2019.9</ele>
        <time>2010-01-01T00:46:25Z</time>
      </trkpt>
      <trkpt lat="46.04604" lon="6.92199">
        <ele>2020</ele>
        <time>2010-01-01T00:46:27Z</time>
      </trkpt>
      <trkpt lat="46.04599" lon="6.92197">
        <ele>2020.2</ele>
        <time>2010-01-01T00:46:29Z</time>
      </trkpt>
      <trkpt lat="46.04595" lon="6.92195">
        <ele>2020.5</ele>
        <time>2010-01-01T00:46:31Z</time>
      </trkpt>
      <trkpt lat="46.04592" lon="6.92192">
        <ele>2021</ele>
        <time>2010-01-01T00:46:32Z</time>
      </trkpt>
      <trkpt lat="46.04589" lon="6.92188">
        <ele>2022.2</ele>
        <time>2010-01-01T00:46:34Z</time>
      </trkpt>
      <trkpt lat="46.04585" lon="6.92185">
        <ele>2022.7</ele>
        <time>2010-01-01T00:46:36Z</time>
      </trkpt>
      <trkpt lat="46.0458" lon="6.92181">
        <ele>2022.8</ele>
        <time>2010-01-01T00:46:38Z</time>
      </trkpt>
      <trkpt lat="46.04576" lon="6.92178">
        <ele>2027</ele>
        <time>2010-01-01T00:46:40Z</time>
      </trkpt>
      <trkpt lat="46.04572" lon="6.92177">
        <ele>2021.6</ele>
        <time>2010-01-01T00:46:42Z</time>
      </trkpt>
      <trkpt lat="46.04568" lon="6.92174">
        <ele>2021.4</ele>
        <time>2010-01-01T00:46:43Z</time>
      </trkpt>
      <trkpt lat="46.04566" lon="6.92168">
        <ele>2022.9</ele>
        <time>2010-01-01T00:46:45Z</time>
      </trkpt>
      <trkpt lat="46.0456" lon="6.92166">
        <ele>2032</ele>
        <time>2010-01-01T00:46:48Z</time>
      </trkpt>
      <trkpt lat="46.04556" lon="6.92161">
        <ele>2022</ele>
        <time>2010-01-01T00:46:50Z</time>
      </trkpt>
      <trkpt lat="46.04554" lon="6.92155">
        <ele>2023.2</ele>
        <time>2010-01-01T00:46:52Z</time>
      </trkpt>
      <trkpt lat="46.04552" lon="6.92148">
        <ele>2024.6</ele>
        <time>2010-01-01T00:46:54Z</time>
      </trkpt>
      <trkpt lat="46.04548" lon="6.92142">
        <ele>2037</ele>
        <time>2010-01-01T00:46:56Z</time>
      </trkpt>
      <trkpt lat="46.04545" lon="6.92139">
        <ele>2024.8</ele>
        <time>2010-01-01T00:46:58Z</time>
      </trkpt>
      <trkpt lat="46.04541" lon="6.92135">
        <ele>2024.8</ele>
        <time>2010-01-01T00:47:00Z</time>
      </trkpt>
      <trkpt lat="46.04537" lon="6.92131">
        <ele>2024.8</ele>
        <time>2010-01-01T00:47:01Z</time>
      </trkpt>
      <trkpt lat="46.04535" lon="6.92126">
        <ele>2026</ele>
        <time>2010-01-01T00:47:03Z</time>
      </trkpt>
      <trkpt lat="46.04532" lon="6.92121">
        <ele>2049</ele>
        <time>2010-01-01T00:47:05Z</time>
      </trkpt>
      <trkpt lat="46.04528" lon="6.92116">
        <ele>2027.2</ele>
        <time>2010-01-01T00:47:07Z</time>
      </trkpt>
      <trkpt lat="46.04525" lon="6.92111">
        <ele>2027.7</ele>
        <time>2010-01-01T00:47:09Z</time>
      </trkpt>
      <trkpt lat="46.04522" lon="6.92107">
        <ele>2028</ele>
        <time>2010-01-01T00:47:11Z</time>
      </trkpt>
      <trkpt lat="46.04519" lon="6.92101">
        <ele>2050</ele>
        <time>2010-01-01T00:47:13Z</time>
      </trkpt>
      <trkpt lat="46.04515" lon="6.92095">
        <ele>2029.7</ele>
        <time>2010-01-01T00:47:15Z</time>
      </trkpt>
      <trkpt lat="46.0451" lon="6.92091">
        <ele>2029.1</ele>
        <time>2010-01-01T00:47:17Z</time>
      </trkpt>
      <trkpt lat="46.04506" lon="6.92087">
        <ele>2029</ele>
        <time>2010-01-01T00:47:19Z</time>
      </trkpt>
      <trkpt lat="46.04502" lon="6.92082">
        <ele>2050</ele>
        <time>2010-01-01T00:47:21Z</time>
      </trkpt>
      <trkpt lat="46.04499" lon="6.92077">
        <ele>2029.9</ele>
        <time>2010-01-01T00:47:23Z</time>
      </trkpt>
      <trkpt lat="46.04495" lon="6.92073">
        <ele>2029.8</ele>
        <time>2010-01-01T00:47:25Z</time>
      </trkpt>
      <trkpt lat="46.04492" lon="6.92068">
        <ele>2030.7</ele>
        <time>2010-01-01T00:47:27Z</time>
      </trkpt>
      <trkpt lat="46.04489" lon="6.92063">
        <ele>2031.7</ele>
        <time>2010-01-01T00:47:29Z</time>
      </trkpt>
      <trkpt lat="46.04484" lon="6.9206">
        <ele>2046</ele>
        <time>2010-01-01T00:47:31Z</time>
      </trkpt>
      <trkpt lat="46.04479" lon="6.92056">
        <ele>2031.7</ele>
        <time>2010-01-01T00:47:33Z</time>
      </trkpt>
      <trkpt lat="46.04474" lon="6.92052">
        <ele>2032.3</ele>
        <time>2010-01-01T00:47:35Z</time>
      </trkpt>
      <trkpt lat="46.0447" lon="6.92049">
        <ele>2033.4</ele>
        <time>2010-01-01T00:47:37Z</time>
      </trkpt>
      <trkpt lat="46.04466" lon="6.92048">
        <ele>2045</ele>
        <time>2010-01-01T00:47:39Z</time>
      </trkpt>
      <trkpt lat="46.04462" lon="6.92047">
        <ele>2034.9</ele>
        <time>2010-01-01T00:47:41Z</time>
      </trkpt>
      <trkpt lat="46.04457" lon="6.92045">
        <ele>2036.2</ele>
        <time>2010-01-01T00:47:43Z</time>
      </trkpt>
      <trkpt lat="46.04452" lon="6.92044">
        <ele>2037</ele>
        <time>2010-01-01T00:47:45Z</time>
      </trkpt>
      <trkpt lat="46.04448" lon="6.92043">
        <ele>2037.7</ele>
        <time>2010-01-01T00:47:46Z</time>
      </trkpt>
      <trkpt lat="46.04444" lon="6.92043">
        <ele>2045</ele>
        <time>2010-01-01T00:47:48Z</time>
      </trkpt>
      <trkpt lat="46.04439" lon="6.92046">
        <ele>2036.3</ele>
        <time>2010-01-01T00:47:50Z</time>
      </trkpt>
      <trkpt lat="46.04435" lon="6.92048">
        <ele>2035.4</ele>
        <time>2010-01-01T00:47:52Z</time>
      </trkpt>
      <trkpt lat="46.04431" lon="6.92051">
        <ele>2034</ele>
        <time>2010-01-01T00:47:54Z</time>
      </trkpt>
      <trkpt lat="46.04428" lon="6.92056">
        <ele>2031.8</ele>
        <time>2010-01-01T00:47:55Z</time>
      </trkpt>
      <trkpt lat="46.04423" lon="6.92054">
        <ele>2038</ele>
        <time>2010-01-01T00:47:57Z</time>
      </trkpt>
      <trkpt lat="46.04418" lon="6.92049">
        <ele>2034.6</ele>
        <time>2010-01-01T00:48:00Z</time>
      </trkpt>
      <trkpt lat="46.04415" lon="6.92044">
        <ele>2036</ele>
        <time>2010-01-01T00:48:02Z</time>
      </trkpt>
      <trkpt lat="46.04413" lon="6.92038">
        <ele>2037.8</ele>
        <time>2010-01-01T00:48:04Z</time>
      </trkpt>
      <trkpt lat="46.0441" lon="6.92034">
        <ele>2038.5</ele>
        <time>2010-01-01T00:48:05Z</time>
      </trkpt>
      <trkpt lat="46.04407" lon="6.9203">
        <ele>2039.6</ele>
        <time>2010-01-01T00:48:07Z</time>
      </trkpt>
      <trkpt lat="46.04402" lon="6.9203">
        <ele>2038.3</ele>
        <time>2010-01-01T00:48:09Z</time>
      </trkpt>
      <trkpt lat="46.04397" lon="6.92027">
        <ele>2038.4</ele>
        <time>2010-01-01T00:48:11Z</time>
      </trkpt>
      <trkpt lat="46.04393" lon="6.92025">
        <ele>2038.4</ele>
        <time>2010-01-01T00:48:13Z</time>
      </trkpt>
      <trkpt lat="46.04388" lon="6.92025">
        <ele>2034.2</ele>
        <time>2010-01-01T00:48:15Z</time>
      </trkpt>
      <trkpt lat="46.04384" lon="6.92025">
        <ele>2036.9</ele>
        <time>2010-01-01T00:48:16Z</time>
      </trkpt>
      <trkpt lat="46.04378" lon="6.92026">
        <ele>2035.7</ele>
        <time>2010-01-01T00:48:19Z</time>
      </trkpt>
      <trkpt lat="46.04373" lon="6.92024">
        <ele>2036.1</ele>
        <time>2010-01-01T00:48:21Z</time>
      </trkpt>
      <trkpt lat="46.04367" lon="6.92023">
        <ele>2030</ele>
        <time>2010-01-01T00:48:23Z</time>
      </trkpt>
      <trkpt lat="46.04363" lon="6.92021">
        <ele>2036.4</ele>
        <time>2010-01-01T00:48:25Z</time>
      </trkpt>
      <trkpt lat="46.0436" lon="6.92018">
        <ele>2037.4</ele>
        <time>2010-01-01T00:48:26Z</time>
      </trkpt>
      <trkpt lat="46.04356" lon="6.92016">
        <ele>2037.6</ele>
        <time>2010-01-01T00:48:28Z</time>
      </trkpt>
      <trkpt lat="46.04351" lon="6.92013">
        <ele>2038</ele>
        <time>2010-01-01T00:48:30Z</time>
      </trkpt>
      <trkpt lat="46.04346" lon="6.92011">
        <ele>2025.5</ele>
        <time>2010-01-01T00:48:32Z</time>
      </trkpt>
      <trkpt lat="46.04342" lon="6.92008">
        <ele>2038.2</ele>
        <time>2010-01-01T00:48:34Z</time>
      </trkpt>
      <trkpt lat="46.04338" lon="6.92008">
        <ele>2037.4</ele>
        <time>2010-01-01T00:48:36Z</time>
      </trkpt>
      <trkpt lat="46.04334" lon="6.92005">
        <ele>2037.5</ele>
        <time>2010-01-01T00:48:37Z</time>
      </trkpt>
      <trkpt lat="46.0433" lon="6.92">
        <ele>2037.2</ele>
        <time>2010-01-01T00:48:40Z</time>
      </trkpt>
      <trkpt lat="46.04329" lon="6.91993">
        <ele>2021</ele>
        <time>2010-01-01T00:48:42Z</time>
      </trkpt>
      <trkpt lat="46.04326" lon="6.91988">
        <ele>2037.9</ele>
        <time>2010-01-01T00:48:43Z</time>
      </trkpt>
      <trkpt lat="46.04322" lon="6.91982">
        <ele>2037.2</ele>
        <time>2010-01-01T00:48:46Z</time>
      </trkpt>
      <trkpt lat="46.0432" lon="6.91976">
        <ele>2037.4</ele>
        <time>2010-01-01T00:48:48Z</time>
      </trkpt>
      <trkpt lat="46.04317" lon="6.91969">
        <ele>2021</ele>
        <time>2010-01-01T00:48:50Z</time>
      </trkpt>
      <trkpt lat="46.04314" lon="6.91962">
        <ele>2037.4</ele>
        <time>2010-01-01T00:48:52Z</time>
      </trkpt>
      <trkpt lat="46.04313" lon="6.91956">
        <ele>2038.4</ele>
        <time>2010-01-01T00:48:54Z</time>
      </trkpt>
      <trkpt lat="46.04311" lon="6.9195">
        <ele>2038.7</ele>
        <time>2010-01-01T00:48:56Z</time>
      </trkpt>
      <trkpt lat="46.04307" lon="6.91943">
        <ele>2023</ele>
        <time>2010-01-01T00:48:58Z</time>
      </trkpt>
      <trkpt lat="46.04303" lon="6.91937">
        <ele>2037.9</ele>
        <time>2010-01-01T00:49:01Z</time>
      </trkpt>
      <trkpt lat="46.043" lon="6.9193">
        <ele>2038.5</ele>
        <time>2010-01-01T00:49:03Z</time>
      </trkpt>
      <trkpt lat="46.04298" lon="6.91923">
        <ele>2039.6</ele>
        <time>2010-01-01T00:49:05Z</time>
      </trkpt>
      <trkpt lat="46.04295" lon="6.91916">
        <ele>2034</ele>
        <time>2010-01-01T00:49:07Z</time>
      </trkpt>
      <trkpt lat="46.04293" lon="6.9191">
        <ele>2040.8</ele>
        <time>2010-01-01T00:49:09Z</time>
      </trkpt>
      <trkpt lat="46.0429" lon="6.91905">
        <ele>2040.6</ele>
        <time>2010-01-01T00:49:11Z</time>
      </trkpt>
      <trkpt lat="46.04286" lon="6.919">
        <ele>2040</ele>
        <time>2010-01-01T00:49:13Z</time>
      </trkpt>
      <trkpt lat="46.04281" lon="6.91895">
        <ele>2037.5</ele>
        <time>2010-01-01T00:49:15Z</time>
      </trkpt>
      <trkpt lat="46.04276" lon="6.91888">
        <ele>2038.9</ele>
        <time>2010-01-01T00:49:18Z</time>
      </trkpt>
      <trkpt lat="46.04271" lon="6.91881">
        <ele>2040.4</ele>
        <time>2010-01-01T00:49:21Z</time>
      </trkpt>
      <trkpt lat="46.04267" lon="6.91877">
        <ele>2041</ele>
        <time>2010-01-01T00:49:23Z</time>
      </trkpt>
      <trkpt lat="46.04263" lon="6.91873">
        <ele>2041.8</ele>
        <time>2010-01-01T00:49:25Z</time>
      </trkpt>
      <trkpt lat="46.04259" lon="6.9187">
        <ele>2042.2</ele>
        <time>2010-01-01T00:49:27Z</time>
      </trkpt>
      <trkpt lat="46.04255" lon="6.91867">
        <ele>2042.6</ele>
        <time>2010-01-01T00:49:29Z</time>
      </trkpt>
      <trkpt lat="46.0425" lon="6.91866">
        <ele>2042.1</ele>
        <time>2010-01-01T00:49:31Z</time>
      </trkpt>
      <trkpt lat="46.04246" lon="6.91866">
        <ele>2041</ele>
        <time>2010-01-01T00:49:32Z</time>
      </trkpt>
      <trkpt lat="46.04241" lon="6.91866">
        <ele>2044</ele>
        <time>2010-01-01T00:49:34Z</time>
      </trkpt>
      <trkpt lat="46.04236" lon="6.91871">
        <ele>2043.1</ele>
        <time>2010-01-01T00:49:37Z</time>
      </trkpt>
      <trkpt lat="46.04232" lon="6.91875">
        <ele>2042.4</ele>
        <time>2010-01-01T00:49:39Z</time>
      </trkpt>
      <trkpt lat="46.04227" lon="6.91879">
        <ele>2039</ele>
        <time>2010-01-01T00:49:41Z</time>
      </trkpt>
      <trkpt lat="46.04222" lon="6.91879">
        <ele>2042.9</ele>
        <time>2010-01-01T00:49:43Z</time>
      </trkpt>
      <trkpt lat="46.04217" lon="6.91879">
        <ele>2043.7</ele>
        <time>2010-01-01T00:49:45Z</time>
      </trkpt>
      <trkpt lat="46.04212" lon="6.9188">
        <ele>2044</ele>
        <time>2010-01-01T00:49:47Z</time>
      </trkpt>
      <trkpt lat="46.04207" lon="6.91878">
        <ele>2029</ele>
        <time>2010-01-01T00:49:49Z</time>
      </trkpt>
      <trkpt lat="46.04203" lon="6.91873">
        <ele>2047.6</ele>
        <time>2010-01-01T00:49:51Z</time>
      </trkpt>
      <trkpt lat="46.04199" lon="6.91874">
        <ele>2047.7</ele>
        <time>2010-01-01T00:49:53Z</time>
      </trkpt>
      <trkpt lat="46.04194" lon="6.91876">
        <ele>2047.8</ele>
        <time>2010-01-01T00:49:55Z</time>
      </trkpt>
      <trkpt lat="46.0419" lon="6.91878">
        <ele>2027</ele>
        <time>2010-01-01T00:49:56Z</time>
      </trkpt>
      <trkpt lat="46.04183" lon="6.9188">
        <ele>2047.9</ele>
        <time>2010-01-01T00:49:59Z</time>
      </trkpt>
      <trkpt lat="46.04178" lon="6.91885">
        <ele>2047.3</ele>
        <time>2010-01-01T00:50:02Z</time>
      </trkpt>
      <trkpt lat="46.04174" lon="6.91889">
        <ele>2046.9</ele>
        <time>2010-01-01T00:50:04Z</time>
      </trkpt>
      <trkpt lat="46.0417" lon="6.91891">
        <ele>2027</ele>
        <time>2010-01-01T00:50:05Z</time>
      </trkpt>
      <trkpt lat="46.04165" lon="6.91891">
        <ele>2047.3</ele>
        <time>2010-01-01T00:50:07Z</time>
      </trkpt>
      <trkpt lat="46.04159" lon="6.9189">
        <ele>2047.4</ele>
        <time>2010-01-01T00:50:10Z</time>
      </trkpt>
      <trkpt lat="46.04153" lon="6.91889">
        <ele>2047.5</ele>
        <time>2010-01-01T00:50:12Z</time>
      </trkpt>
      <trkpt lat="46.04148" lon="6.91889">
        <ele>2026</ele>
        <time>2010-01-01T00:50:14Z</time>
      </trkpt>
      <trkpt lat="46.04143" lon="6.91888">
        <ele>2047.3</ele>
        <time>2010-01-01T00:50:16Z</time>
      </trkpt>
      <trkpt lat="46.04139" lon="6.91885">
        <ele>2047.7</ele>
        <time>2010-01-01T00:50:18Z</time>
      </trkpt>
      <trkpt lat="46.04136" lon="6.91885">
        <ele>2047.3</ele>
        <time>2010-01-01T00:50:19Z</time>
      </trkpt>
      <trkpt lat="46.04132" lon="6.91882">
        <ele>2047.3</ele>
        <time>2010-01-01T00:50:21Z</time>
      </trkpt>
      <trkpt lat="46.04126" lon="6.91878">
        <ele>2026</ele>
        <time>2010-01-01T00:50:24Z</time>
      </trkpt>
      <trkpt lat="46.04121" lon="6.91878">
        <ele>2046.3</ele>
        <time>2010-01-01T00:50:26Z</time>
      </trkpt>
      <trkpt lat="46.04115" lon="6.91876">
        <ele>2045.5</ele>
        <time>2010-01-01T00:50:28Z</time>
      </trkpt>
      <trkpt lat="46.0411" lon="6.91874">
        <ele>2044.9</ele>
        <time>2010-01-01T00:50:30Z</time>
      </trkpt>
      <trkpt lat="46.04105" lon="6.9187">
        <ele>2026</ele>
        <time>2010-01-01T00:50:33Z</time>
      </trkpt>
      <trkpt lat="46.04101" lon="6.91864">
        <ele>2044.3</ele>
        <time>2010-01-01T00:50:35Z</time>
      </trkpt>
      <trkpt lat="46.04096" lon="6.91859">
        <ele>2044.1</ele>
        <time>2010-01-01T00:50:37Z</time>
      </trkpt>
      <trkpt lat="46.04091" lon="6.91857">
        <ele>2043.6</ele>
        <time>2010-01-01T00:50:39Z</time>
      </trkpt>
      <trkpt lat="46.04087" lon="6.91853">
        <ele>2030</ele>
        <time>2010-01-01T00:50:41Z</time>
      </trkpt>
      <trkpt lat="46.04082" lon="6.91851">
        <ele>2042.8</ele>
        <time>2010-01-01T00:50:43Z</time>
      </trkpt>
      <trkpt lat="46.04077" lon="6.91849">
        <ele>2041.9</ele>
        <time>2010-01-01T00:50:46Z</time>
      </trkpt>
      <trkpt lat="46.04071" lon="6.91847">
        <ele>2040.9</ele>
        <time>2010-01-01T00:50:48Z</time>
      </trkpt>
      <trkpt lat="46.04066" lon="6.91844">
        <ele>2031</ele>
        <time>2010-01-01T00:50:50Z</time>
      </trkpt>
      <trkpt lat="46.04061" lon="6.9184">
        <ele>2039.5</ele>
        <time>2010-01-01T00:50:52Z</time>
      </trkpt>
      <trkpt lat="46.04057" lon="6.91837">
        <ele>2038.9</ele>
        <time>2010-01-01T00:50:54Z</time>
      </trkpt>
      <trkpt lat="46.04052" lon="6.91832">
        <ele>2037.7</ele>
        <time>2010-01-01T00:50:57Z</time>
      </trkpt>
      <trkpt lat="46.04049" lon="6.91826">
        <ele>2032</ele>
        <time>2010-01-01T00:50:59Z</time>
      </trkpt>
      <trkpt lat="46.04046" lon="6.9182">
        <ele>2036.8</ele>
        <time>2010-01-01T00:51:01Z</time>
      </trkpt>
      <trkpt lat="46.04044" lon="6.91813">
        <ele>2036.9</ele>
        <time>2010-01-01T00:51:03Z</time>
      </trkpt>
      <trkpt lat="46.0404" lon="6.91807">
        <ele>2036.2</ele>
        <time>2010-01-01T00:51:05Z</time>
      </trkpt>
      <trkpt lat="46.04038" lon="6.918">
        <ele>2032</ele>
        <time>2010-01-01T00:51:07Z</time>
      </trkpt>
      <trkpt lat="46.04036" lon="6.91793">
        <ele>2036</ele>
        <time>2010-01-01T00:51:09Z</time>
      </trkpt>
      <trkpt lat="46.04032" lon="6.91786">
        <ele>2035</ele>
        <time>2010-01-01T00:51:12Z</time>
      </trkpt>
      <trkpt lat="46.04029" lon="6.9178">
        <ele>2034.3</ele>
        <time>2010-01-01T00:51:14Z</time>
      </trkpt>
      <trkpt lat="46.04025" lon="6.91772">
        <ele>2028</ele>
        <time>2010-01-01T00:51:17Z</time>
      </trkpt>
      <trkpt lat="46.04023" lon="6.91763">
        <ele>2033.2</ele>
        <time>2010-01-01T00:51:19Z</time>
      </trkpt>
      <trkpt lat="46.0402" lon="6.91755">
        <ele>2032.6</ele>
        <time>2010-01-01T00:51:22Z</time>
      </trkpt>
      <trkpt lat="46.04017" lon="6.91747">
        <ele>2028</ele>
        <time>2010-01-01T00:51:24Z</time>
      </trkpt>
      <trkpt lat="46.04015" lon="6.91738">
        <ele>2031.8</ele>
        <time>2010-01-01T00:51:27Z</time>
      </trkpt>
      <trkpt lat="46.04013" lon="6.9173">
        <ele>2031.6</ele>
        <time>2010-01-01T00:51:29Z</time>
      </trkpt>
      <trkpt lat="46.04012" lon="6.91721">
        <ele>2031.9</ele>
        <time>2010-01-01T00:51:32Z</time>
      </trkpt>
      <trkpt lat="46.0401" lon="6.91713">
        <ele>2028</ele>
        <time>2010-01-01T00:51:34Z</time>
      </trkpt>
      <trkpt lat="46.04009" lon="6.91705">
        <ele>2031.5</ele>
        <time>2010-01-01T00:51:37Z</time>
      </trkpt>
      <trkpt lat="46.04008" lon="6.91697">
        <ele>2031.5</ele>
        <time>2010-01-01T00:51:39Z</time>
      </trkpt>
      <trkpt lat="46.04006" lon="6.91689">
        <ele>2031.3</ele>
        <time>2010-01-01T00:51:41Z</time>
      </trkpt>
      <trkpt lat="46.04003" lon="6.91682">
        <ele>2025.5</ele>
        <time>2010-01-01T00:51:43Z</time>
      </trkpt>
      <trkpt lat="46.04001" lon="6.91674">
        <ele>2030.8</ele>
        <time>2010-01-01T00:51:46Z</time>
      </trkpt>
      <trkpt lat="46.03999" lon="6.91667">
        <ele>2030.7</ele>
        <time>2010-01-01T00:51:48Z</time>
      </trkpt>
      <trkpt lat="46.03998" lon="6.91659">
        <ele>2030.6</ele>
        <time>2010-01-01T00:51:50Z</time>
      </trkpt>
      <trkpt lat="46.03996" lon="6.91651">
        <ele>2028.7</ele>
        <time>2010-01-01T00:51:53Z</time>
      </trkpt>
      <trkpt lat="46.03996" lon="6.91644">
        <ele>2030.6</ele>
        <time>2010-01-01T00:51:54Z</time>
      </trkpt>
      <trkpt lat="46.03994" lon="6.91636">
        <ele>2030.4</ele>
        <time>2010-01-01T00:51:57Z</time>
      </trkpt>
      <trkpt lat="46.03992" lon="6.91629">
        <ele>2030.3</ele>
        <time>2010-01-01T00:51:59Z</time>
      </trkpt>
      <trkpt lat="46.03989" lon="6.91622">
        <ele>2032</ele>
        <time>2010-01-01T00:52:01Z</time>
      </trkpt>
      <trkpt lat="46.03987" lon="6.91614">
        <ele>2030</ele>
        <time>2010-01-01T00:52:04Z</time>
      </trkpt>
      <trkpt lat="46.03985" lon="6.91607">
        <ele>2030</ele>
        <time>2010-01-01T00:52:06Z</time>
      </trkpt>
      <trkpt lat="46.03983" lon="6.91599">
        <ele>2029.9</ele>
        <time>2010-01-01T00:52:08Z</time>
      </trkpt>
      <trkpt lat="46.03982" lon="6.91591">
        <ele>2030.5</ele>
        <time>2010-01-01T00:52:10Z</time>
      </trkpt>
      <trkpt lat="46.0398" lon="6.91583">
        <ele>2030</ele>
        <time>2010-01-01T00:52:13Z</time>
      </trkpt>
      <trkpt lat="46.03978" lon="6.91576">
        <ele>2030</ele>
        <time>2010-01-01T00:52:15Z</time>
      </trkpt>
      <trkpt lat="46.03976" lon="6.91568">
        <ele>2030.1</ele>
        <time>2010-01-01T00:52:17Z</time>
      </trkpt>
      <trkpt lat="46.03973" lon="6.9156">
        <ele>2030.7</ele>
        <time>2010-01-01T00:52:20Z</time>
      </trkpt>
      <trkpt lat="46.0397" lon="6.91553">
        <ele>2029.5</ele>
        <time>2010-01-01T00:52:22Z</time>
      </trkpt>
      <trkpt lat="46.03967" lon="6.91546">
        <ele>2029</ele>
        <time>2010-01-01T00:52:24Z</time>
      </trkpt>
      <trkpt lat="46.03966" lon="6.91538">
        <ele>2029.1</ele>
        <time>2010-01-01T00:52:27Z</time>
      </trkpt>
      <trkpt lat="46.03965" lon="6.9153">
        <ele>2031</ele>
        <time>2010-01-01T00:52:29Z</time>
      </trkpt>
      <trkpt lat="46.03963" lon="6.91525">
        <ele>2028.7</ele>
        <time>2010-01-01T00:52:30Z</time>
      </trkpt>
      <trkpt lat="46.0396" lon="6.91518">
        <ele>2027.9</ele>
        <time>2010-01-01T00:52:33Z</time>
      </trkpt>
      <trkpt lat="46.03957" lon="6.91512">
        <ele>2027.2</ele>
        <time>2010-01-01T00:52:35Z</time>
      </trkpt>
      <trkpt lat="46.03954" lon="6.91506">
        <ele>2028.5</ele>
        <time>2010-01-01T00:52:37Z</time>
      </trkpt>
      <trkpt lat="46.03952" lon="6.91499">
        <ele>2025.9</ele>
        <time>2010-01-01T00:52:39Z</time>
      </trkpt>
      <trkpt lat="46.03949" lon="6.91492">
        <ele>2025.1</ele>
        <time>2010-01-01T00:52:41Z</time>
      </trkpt>
      <trkpt lat="46.03947" lon="6.91484">
        <ele>2024.6</ele>
        <time>2010-01-01T00:52:44Z</time>
      </trkpt>
      <trkpt lat="46.03946" lon="6.91477">
        <ele>2027.7</ele>
        <time>2010-01-01T00:52:46Z</time>
      </trkpt>
      <trkpt lat="46.03944" lon="6.91469">
        <ele>2023.8</ele>
        <time>2010-01-01T00:52:48Z</time>
      </trkpt>
      <trkpt lat="46.03942" lon="6.91462">
        <ele>2023</ele>
        <time>2010-01-01T00:52:50Z</time>
      </trkpt>
      <trkpt lat="46.03941" lon="6.91454">
        <ele>2022.5</ele>
        <time>2010-01-01T00:52:52Z</time>
      </trkpt>
      <trkpt lat="46.03942" lon="6.91446">
        <ele>2027</ele>
        <time>2010-01-01T00:52:54Z</time>
      </trkpt>
      <trkpt lat="46.03944" lon="6.91437">
        <ele>2022.6</ele>
        <time>2010-01-01T00:52:57Z</time>
      </trkpt>
      <trkpt lat="46.03945" lon="6.91429">
        <ele>2022.6</ele>
        <time>2010-01-01T00:52:59Z</time>
      </trkpt>
      <trkpt lat="46.03945" lon="6.9142">
        <ele>2022.2</ele>
        <time>2010-01-01T00:53:02Z</time>
      </trkpt>
      <trkpt lat="46.03943" lon="6.91413">
        <ele>2027</ele>
        <time>2010-01-01T00:53:04Z</time>
      </trkpt>
      <trkpt lat="46.0394" lon="6.91409">
        <ele>2021.3</ele>
        <time>2010-01-01T00:53:06Z</time>
      </trkpt>
      <trkpt lat="46.03938" lon="6.91402">
        <ele>2021.1</ele>
        <time>2010-01-01T00:53:08Z</time>
      </trkpt>
      <trkpt lat="46.03936" lon="6.91397">
        <ele>2020.9</ele>
        <time>2010-01-01T00:53:09Z</time>
      </trkpt>
      <trkpt lat="46.03934" lon="6.91391">
        <ele>2020.7</ele>
        <time>2010-01-01T00:53:11Z</time>
      </trkpt>
      <trkpt lat="46.03933" lon="6.91391">
        <ele>2027</ele>
        <time>2010-01-01T00:53:12Z</time>
      </trkpt>
      <trkpt lat="46.03925" lon="6.91379">
        <ele>2020.2</ele>
        <time>2010-01-01T00:53:16Z</time>
      </trkpt>
      <trkpt lat="46.03917" lon="6.91362">
        <ele>2027</ele>
        <time>2010-01-01T00:53:22Z</time>
      </trkpt>
      <trkpt lat="46.03909" lon="6.91344">
        <ele>2020.9</ele>
        <time>2010-01-01T00:53:28Z</time>
      </trkpt>
      <trkpt lat="46.03899" lon="6.91333">
        <ele>2022</ele>
        <time>2010-01-01T00:53:33Z</time>
      </trkpt>
      <trkpt lat="46.03891" lon="6.91312">
        <ele>2020.8</ele>
        <time>2010-01-01T00:53:40Z</time>
      </trkpt>
      <trkpt lat="46.03884" lon="6.91297">
        <ele>2017</ele>
        <time>2010-01-01T00:53:45Z</time>
      </trkpt>
      <trkpt lat="46.03877" lon="6.9129">
        <ele>2017.5</ele>
        <time>2010-01-01T00:53:48Z</time>
      </trkpt>
      <trkpt lat="46.03866" lon="6.91289">
        <ele>2016</ele>
        <time>2010-01-01T00:53:52Z</time>
      </trkpt>
      <trkpt lat="46.03857" lon="6.91293">
        <ele>2012.4</ele>
        <time>2010-01-01T00:53:56Z</time>
      </trkpt>
      <trkpt lat="46.03853" lon="6.91302">
        <ele>2010.9</ele>
        <time>2010-01-01T00:53:59Z</time>
      </trkpt>
      <trkpt lat="46.03849" lon="6.9131">
        <ele>2011</ele>
        <time>2010-01-01T00:54:02Z</time>
      </trkpt>
      <trkpt lat="46.03844" lon="6.91317">
        <ele>2006.4</ele>
        <time>2010-01-01T00:54:05Z</time>
      </trkpt>
      <trkpt lat="46.03837" lon="6.91322">
        <ele>2003.7</ele>
        <time>2010-01-01T00:54:08Z</time>
      </trkpt>
      <trkpt lat="46.03835" lon="6.91328">
        <ele>2011</ele>
        <time>2010-01-01T00:54:10Z</time>
      </trkpt>
      <trkpt lat="46.03833" lon="6.91333">
        <ele>2001</ele>
        <time>2010-01-01T00:54:11Z</time>
      </trkpt>
      <trkpt lat="46.0383" lon="6.91333">
        <ele>2000.3</ele>
        <time>2010-01-01T00:54:12Z</time>
      </trkpt>
      <trkpt lat="46.03825" lon="6.91331">
        <ele>1999.5</ele>
        <time>2010-01-01T00:54:15Z</time>
      </trkpt>
      <trkpt lat="46.03821" lon="6.91328">
        <ele>1999</ele>
        <time>2010-01-01T00:54:16Z</time>
      </trkpt>
      <trkpt lat="46.03818" lon="6.91325">
        <ele>2003</ele>
        <time>2010-01-01T00:54:18Z</time>
      </trkpt>
      <trkpt lat="46.03813" lon="6.91323">
        <ele>1997.8</ele>
        <time>2010-01-01T00:54:20Z</time>
      </trkpt>
      <trkpt lat="46.03808" lon="6.91323">
        <ele>1996.7</ele>
        <time>2010-01-01T00:54:22Z</time>
      </trkpt>
      <trkpt lat="46.03806" lon="6.91328">
        <ele>1995.7</ele>
        <time>2010-01-01T00:54:23Z</time>
      </trkpt>
      <trkpt lat="46.03804" lon="6.91334">
        <ele>1994.7</ele>
        <time>2010-01-01T00:54:25Z</time>
      </trkpt>
      <trkpt lat="46.03803" lon="6.91342">
        <ele>1994</ele>
        <time>2010-01-01T00:54:28Z</time>
      </trkpt>
      <trkpt lat="46.03803" lon="6.91349">
        <ele>1993</ele>
        <time>2010-01-01T00:54:30Z</time>
      </trkpt>
      <trkpt lat="46.03802" lon="6.91356">
        <ele>1992.2</ele>
        <time>2010-01-01T00:54:31Z</time>
      </trkpt>
      <trkpt lat="46.038" lon="6.91363">
        <ele>1991.5</ele>
        <time>2010-01-01T00:54:34Z</time>
      </trkpt>
      <trkpt lat="46.03797" lon="6.91369">
        <ele>1994</ele>
        <time>2010-01-01T00:54:36Z</time>
      </trkpt>
      <trkpt lat="46.03793" lon="6.91374">
        <ele>1990.6</ele>
        <time>2010-01-01T00:54:38Z</time>
      </trkpt>
      <trkpt lat="46.03788" lon="6.91377">
        <ele>1990.2</ele>
        <time>2010-01-01T00:54:40Z</time>
      </trkpt>
      <trkpt lat="46.03783" lon="6.91381">
        <ele>1989.7</ele>
        <time>2010-01-01T00:54:42Z</time>
      </trkpt>
      <trkpt lat="46.03779" lon="6.91384">
        <ele>1992</ele>
        <time>2010-01-01T00:54:44Z</time>
      </trkpt>
      <trkpt lat="46.03774" lon="6.91389">
        <ele>1988.4</ele>
        <time>2010-01-01T00:54:46Z</time>
      </trkpt>
      <trkpt lat="46.03772" lon="6.91389">
        <ele>1988.2</ele>
        <time>2010-01-01T00:54:47Z</time>
      </trkpt>
      <trkpt lat="46.03768" lon="6.91385">
        <ele>1987.7</ele>
        <time>2010-01-01T00:54:49Z</time>
      </trkpt>
      <trkpt lat="46.03762" lon="6.91388">
        <ele>1982</ele>
        <time>2010-01-01T00:54:52Z</time>
      </trkpt>
      <trkpt lat="46.03748" lon="6.91385">
        <ele>1984.6</ele>
        <time>2010-01-01T00:54:57Z</time>
      </trkpt>
      <trkpt lat="46.03746" lon="6.91391">
        <ele>1974</ele>
        <time>2010-01-01T00:54:59Z</time>
      </trkpt>
      <trkpt lat="46.03746" lon="6.91399">
        <ele>1983.5</ele>
        <time>2010-01-01T00:55:02Z</time>
      </trkpt>
      <trkpt lat="46.03746" lon="6.91406">
        <ele>1983</ele>
        <time>2010-01-01T00:55:03Z</time>
      </trkpt>
      <trkpt lat="46.03748" lon="6.91411">
        <ele>1983</ele>
        <time>2010-01-01T00:55:05Z</time>
      </trkpt>
      <trkpt lat="46.0375" lon="6.91417">
        <ele>1974</ele>
        <time>2010-01-01T00:55:07Z</time>
      </trkpt>
      <trkpt lat="46.03751" lon="6.91424">
        <ele>1982.1</ele>
        <time>2010-01-01T00:55:09Z</time>
      </trkpt>
      <trkpt lat="46.0375" lon="6.91431">
        <ele>1980.9</ele>
        <time>2010-01-01T00:55:11Z</time>
      </trkpt>
      <trkpt lat="46.0375" lon="6.91437">
        <ele>1980.1</ele>
        <time>2010-01-01T00:55:13Z</time>
      </trkpt>
      <trkpt lat="46.03751" lon="6.91443">
        <ele>1979.5</ele>
        <time>2010-01-01T00:55:14Z</time>
      </trkpt>
      <trkpt lat="46.03751" lon="6.9145">
        <ele>1972</ele>
        <time>2010-01-01T00:55:16Z</time>
      </trkpt>
      <trkpt lat="46.03752" lon="6.91456">
        <ele>1977.5</ele>
        <time>2010-01-01T00:55:18Z</time>
      </trkpt>
      <trkpt lat="46.03754" lon="6.91463">
        <ele>1976.8</ele>
        <time>2010-01-01T00:55:20Z</time>
      </trkpt>
      <trkpt lat="46.03756" lon="6.91468">
        <ele>1976.5</ele>
        <time>2010-01-01T00:55:22Z</time>
      </trkpt>
      <trkpt lat="46.03754" lon="6.91474">
        <ele>1974.7</ele>
        <time>2010-01-01T00:55:23Z</time>
      </trkpt>
      <trkpt lat="46.03751" lon="6.91474">
        <ele>1969</ele>
        <time>2010-01-01T00:55:25Z</time>
      </trkpt>
      <trkpt lat="46.03745" lon="6.91472">
        <ele>1972.6</ele>
        <time>2010-01-01T00:55:27Z</time>
      </trkpt>
      <trkpt lat="46.03742" lon="6.91471">
        <ele>1971.9</ele>
        <time>2010-01-01T00:55:28Z</time>
      </trkpt>
      <trkpt lat="46.03738" lon="6.91469">
        <ele>1971.2</ele>
        <time>2010-01-01T00:55:30Z</time>
      </trkpt>
      <trkpt lat="46.03734" lon="6.91468">
        <ele>1970.3</ele>
        <time>2010-01-01T00:55:32Z</time>
      </trkpt>
      <trkpt lat="46.03732" lon="6.91473">
        <ele>1965</ele>
        <time>2010-01-01T00:55:33Z</time>
      </trkpt>
      <trkpt lat="46.03735" lon="6.9148">
        <ele>1967.7</ele>
        <time>2010-01-01T00:55:36Z</time>
      </trkpt>
      <trkpt lat="46.03737" lon="6.91486">
        <ele>1966.8</ele>
        <time>2010-01-01T00:55:37Z</time>
      </trkpt>
      <trkpt lat="46.03741" lon="6.91492">
        <ele>1966.4</ele>
        <time>2010-01-01T00:55:40Z</time>
      </trkpt>
      <trkpt lat="46.03743" lon="6.91498">
        <ele>1963</ele>
        <time>2010-01-01T00:55:42Z</time>
      </trkpt>
      <trkpt lat="46.03746" lon="6.91503">
        <ele>1965.1</ele>
        <time>2010-01-01T00:55:43Z</time>
      </trkpt>
      <trkpt lat="46.03748" lon="6.91509">
        <ele>1964.2</ele>
        <time>2010-01-01T00:55:45Z</time>
      </trkpt>
      <trkpt lat="46.0375" lon="6.91514">
        <ele>1963.5</ele>
        <time>2010-01-01T00:55:47Z</time>
      </trkpt>
      <trkpt lat="46.03752" lon="6.91519">
        <ele>1962.9</ele>
        <time>2010-01-01T00:55:48Z</time>
      </trkpt>
      <trkpt lat="46.03753" lon="6.91525">
        <ele>1961</ele>
        <time>2010-01-01T00:55:50Z</time>
      </trkpt>
      <trkpt lat="46.03755" lon="6.91531">
        <ele>1961</ele>
        <time>2010-01-01T00:55:52Z</time>
      </trkpt>
      <trkpt lat="46.03757" lon="6.91536">
        <ele>1960.5</ele>
        <time>2010-01-01T00:55:54Z</time>
      </trkpt>
      <trkpt lat="46.03753" lon="6.91537">
        <ele>1958.8</ele>
        <time>2010-01-01T00:55:55Z</time>
      </trkpt>
      <trkpt lat="46.0375" lon="6.91534">
        <ele>1958.4</ele>
        <time>2010-01-01T00:55:57Z</time>
      </trkpt>
      <trkpt lat="46.03746" lon="6.91531">
        <ele>1957</ele>
        <time>2010-01-01T00:55:59Z</time>
      </trkpt>
      <trkpt lat="46.03742" lon="6.91528">
        <ele>1957.6</ele>
        <time>2010-01-01T00:56:00Z</time>
      </trkpt>
      <trkpt lat="46.03739" lon="6.91525">
        <ele>1957.5</ele>
        <time>2010-01-01T00:56:02Z</time>
      </trkpt>
      <trkpt lat="46.03734" lon="6.91525">
        <ele>1956.1</ele>
        <time>2010-01-01T00:56:04Z</time>
      </trkpt>
      <trkpt lat="46.03728" lon="6.91524">
        <ele>1957</ele>
        <time>2010-01-01T00:56:06Z</time>
      </trkpt>
      <trkpt lat="46.03723" lon="6.91523">
        <ele>1953.4</ele>
        <time>2010-01-01T00:56:08Z</time>
      </trkpt>
      <trkpt lat="46.03717" lon="6.91522">
        <ele>1952.5</ele>
        <time>2010-01-01T00:56:11Z</time>
      </trkpt>
      <trkpt lat="46.03711" lon="6.91521">
        <ele>1951.6</ele>
        <time>2010-01-01T00:56:13Z</time>
      </trkpt>
      <trkpt lat="46.03706" lon="6.91518">
        <ele>1950</ele>
        <time>2010-01-01T00:56:15Z</time>
      </trkpt>
      <trkpt lat="46.03702" lon="6.91519">
        <ele>1950.3</ele>
        <time>2010-01-01T00:56:17Z</time>
      </trkpt>
      <trkpt lat="46.037" lon="6.91524">
        <ele>1948.8</ele>
        <time>2010-01-01T00:56:18Z</time>
      </trkpt>
      <trkpt lat="46.03697" lon="6.9153">
        <ele>1947</ele>
        <time>2010-01-01T00:56:21Z</time>
      </trkpt>
      <trkpt lat="46.03693" lon="6.91535">
        <ele>1942</ele>
        <time>2010-01-01T00:56:23Z</time>
      </trkpt>
      <trkpt lat="46.03687" lon="6.91537">
        <ele>1944.4</ele>
        <time>2010-01-01T00:56:25Z</time>
      </trkpt>
      <trkpt lat="46.03682" lon="6.91536">
        <ele>1943.9</ele>
        <time>2010-01-01T00:56:27Z</time>
      </trkpt>
      <trkpt lat="46.03678" lon="6.91536">
        <ele>1943.3</ele>
        <time>2010-01-01T00:56:29Z</time>
      </trkpt>
      <trkpt lat="46.03676" lon="6.91542">
        <ele>1942</ele>
        <time>2010-01-01T00:56:31Z</time>
      </trkpt>
      <trkpt lat="46.03678" lon="6.91549">
        <ele>1941.3</ele>
        <time>2010-01-01T00:56:33Z</time>
      </trkpt>
      <trkpt lat="46.0368" lon="6.91557">
        <ele>1940.2</ele>
        <time>2010-01-01T00:56:35Z</time>
      </trkpt>
      <trkpt lat="46.03681" lon="6.91565">
        <ele>1938.8</ele>
        <time>2010-01-01T00:56:37Z</time>
      </trkpt>
      <trkpt lat="46.03682" lon="6.91573">
        <ele>1931</ele>
        <time>2010-01-01T00:56:40Z</time>
      </trkpt>
      <trkpt lat="46.03683" lon="6.91581">
        <ele>1936.2</ele>
        <time>2010-01-01T00:56:42Z</time>
      </trkpt>
      <trkpt lat="46.03684" lon="6.9159">
        <ele>1934.9</ele>
        <time>2010-01-01T00:56:44Z</time>
      </trkpt>
      <trkpt lat="46.03686" lon="6.91599">
        <ele>1930</ele>
        <time>2010-01-01T00:56:47Z</time>
      </trkpt>
      <trkpt lat="46.03685" lon="6.91607">
        <ele>1932.6</ele>
        <time>2010-01-01T00:56:49Z</time>
      </trkpt>
      <trkpt lat="46.03679" lon="6.91612">
        <ele>1931.2</ele>
        <time>2010-01-01T00:56:52Z</time>
      </trkpt>
      <trkpt lat="46.03674" lon="6.91614">
        <ele>1930.4</ele>
        <time>2010-01-01T00:56:54Z</time>
      </trkpt>
      <trkpt lat="46.03668" lon="6.91615">
        <ele>1923</ele>
        <time>2010-01-01T00:56:57Z</time>
      </trkpt>
      <trkpt lat="46.03664" lon="6.91612">
        <ele>1929.2</ele>
        <time>2010-01-01T00:56:58Z</time>
      </trkpt>
      <trkpt lat="46.0366" lon="6.9161">
        <ele>1928.5</ele>
        <time>2010-01-01T00:57:00Z</time>
      </trkpt>
      <trkpt lat="46.03656" lon="6.91608">
        <ele>1927.8</ele>
        <time>2010-01-01T00:57:02Z</time>
      </trkpt>
      <trkpt lat="46.03651" lon="6.91607">
        <ele>1926.7</ele>
        <time>2010-01-01T00:57:04Z</time>
      </trkpt>
      <trkpt lat="46.03645" lon="6.91608">
        <ele>1915</ele>
        <time>2010-01-01T00:57:06Z</time>
      </trkpt>
      <trkpt lat="46.0364" lon="6.91606">
        <ele>1924.2</ele>
        <time>2010-01-01T00:57:08Z</time>
      </trkpt>
      <trkpt lat="46.03636" lon="6.91609">
        <ele>1922.4</ele>
        <time>2010-01-01T00:57:10Z</time>
      </trkpt>
      <trkpt lat="46.03639" lon="6.91615">
        <ele>1922.2</ele>
        <time>2010-01-01T00:57:12Z</time>
      </trkpt>
      <trkpt lat="46.0364" lon="6.91622">
        <ele>1905</ele>
        <time>2010-01-01T00:57:14Z</time>
      </trkpt>
      <trkpt lat="46.03642" lon="6.91628">
        <ele>1920.3</ele>
        <time>2010-01-01T00:57:16Z</time>
      </trkpt>
      <trkpt lat="46.03644" lon="6.91635">
        <ele>1919.4</ele>
        <time>2010-01-01T00:57:18Z</time>
      </trkpt>
      <trkpt lat="46.03646" lon="6.91642">
        <ele>1918.7</ele>
        <time>2010-01-01T00:57:20Z</time>
      </trkpt>
      <trkpt lat="46.03649" lon="6.91649">
        <ele>1905</ele>
        <time>2010-01-01T00:57:22Z</time>
      </trkpt>
      <trkpt lat="46.0365" lon="6.91656">
        <ele>1917.2</ele>
        <time>2010-01-01T00:57:24Z</time>
      </trkpt>
      <trkpt lat="46.03651" lon="6.91662">
        <ele>1916.3</ele>
        <time>2010-01-01T00:57:26Z</time>
      </trkpt>
      <trkpt lat="46.03651" lon="6.91669">
        <ele>1915</ele>
        <time>2010-01-01T00:57:28Z</time>
      </trkpt>
      <trkpt lat="46.03652" lon="6.91676">
        <ele>1902</ele>
        <time>2010-01-01T00:57:30Z</time>
      </trkpt>
      <trkpt lat="46.03652" lon="6.91682">
        <ele>1913.3</ele>
        <time>2010-01-01T00:57:32Z</time>
      </trkpt>
      <trkpt lat="46.03652" lon="6.91689">
        <ele>1912.1</ele>
        <time>2010-01-01T00:57:34Z</time>
      </trkpt>
      <trkpt lat="46.03653" lon="6.91696">
        <ele>1911.2</ele>
        <time>2010-01-01T00:57:36Z</time>
      </trkpt>
      <trkpt lat="46.03652" lon="6.91702">
        <ele>1909.4</ele>
        <time>2010-01-01T00:57:37Z</time>
      </trkpt>
      <trkpt lat="46.03654" lon="6.91709">
        <ele>1899</ele>
        <time>2010-01-01T00:57:39Z</time>
      </trkpt>
      <trkpt lat="46.03654" lon="6.91716">
        <ele>1906.3</ele>
        <time>2010-01-01T00:57:41Z</time>
      </trkpt>
      <trkpt lat="46.03654" lon="6.91722">
        <ele>1904.7</ele>
        <time>2010-01-01T00:57:43Z</time>
      </trkpt>
      <trkpt lat="46.03654" lon="6.91729">
        <ele>1902.3</ele>
        <time>2010-01-01T00:57:45Z</time>
      </trkpt>
      <trkpt lat="46.03649" lon="6.91729">
        <ele>1897</ele>
        <time>2010-01-01T00:57:47Z</time>
      </trkpt>
      <trkpt lat="46.03646" lon="6.91726">
        <ele>1902.6</ele>
        <time>2010-01-01T00:57:48Z</time>
      </trkpt>
      <trkpt lat="46.0364" lon="6.91722">
        <ele>1903.2</ele>
        <time>2010-01-01T00:57:51Z</time>
      </trkpt>
      <trkpt lat="46.03634" lon="6.91718">
        <ele>1902.2</ele>
        <time>2010-01-01T00:57:54Z</time>
      </trkpt>
      <trkpt lat="46.03629" lon="6.91714">
        <ele>1889</ele>
        <time>2010-01-01T00:57:56Z</time>
      </trkpt>
      <trkpt lat="46.03625" lon="6.9171">
        <ele>1900.5</ele>
        <time>2010-01-01T00:57:58Z</time>
      </trkpt>
      <trkpt lat="46.03619" lon="6.91707">
        <ele>1899.1</ele>
        <time>2010-01-01T00:58:01Z</time>
      </trkpt>
      <trkpt lat="46.03614" lon="6.91705">
        <ele>1897.8</ele>
        <time>2010-01-01T00:58:03Z</time>
      </trkpt>
      <trkpt lat="46.03611" lon="6.91709">
        <ele>1889</ele>
        <time>2010-01-01T00:58:04Z</time>
      </trkpt>
      <trkpt lat="46.03608" lon="6.91717">
        <ele>1894.6</ele>
        <time>2010-01-01T00:58:07Z</time>
      </trkpt>
      <trkpt lat="46.03608" lon="6.91726">
        <ele>1893.4</ele>
        <time>2010-01-01T00:58:09Z</time>
      </trkpt>
      <trkpt lat="46.03609" lon="6.91733">
        <ele>1892.5</ele>
        <time>2010-01-01T00:58:11Z</time>
      </trkpt>
      <trkpt lat="46.0361" lon="6.91742">
        <ele>1881</ele>
        <time>2010-01-01T00:58:14Z</time>
      </trkpt>
      <trkpt lat="46.03611" lon="6.91751">
        <ele>1889.6</ele>
        <time>2010-01-01T00:58:16Z</time>
      </trkpt>
      <trkpt lat="46.03613" lon="6.91758">
        <ele>1887.4</ele>
        <time>2010-01-01T00:58:18Z</time>
      </trkpt>
      <trkpt lat="46.03617" lon="6.91762">
        <ele>1886.6</ele>
        <time>2010-01-01T00:58:20Z</time>
      </trkpt>
      <trkpt lat="46.03622" lon="6.91763">
        <ele>1877</ele>
        <time>2010-01-01T00:58:22Z</time>
      </trkpt>
      <trkpt lat="46.03627" lon="6.91765">
        <ele>1886.8</ele>
        <time>2010-01-01T00:58:25Z</time>
      </trkpt>
      <trkpt lat="46.03632" lon="6.91769">
        <ele>1885.9</ele>
        <time>2010-01-01T00:58:27Z</time>
      </trkpt>
      <trkpt lat="46.03636" lon="6.91776">
        <ele>1883.4</ele>
        <time>2010-01-01T00:58:29Z</time>
      </trkpt>
      <trkpt lat="46.0364" lon="6.91782">
        <ele>1877</ele>
        <time>2010-01-01T00:58:32Z</time>
      </trkpt>
      <trkpt lat="46.03646" lon="6.91787">
        <ele>1878.9</ele>
        <time>2010-01-01T00:58:34Z</time>
      </trkpt>
      <trkpt lat="46.03651" lon="6.91792">
        <ele>1876.9</ele>
        <time>2010-01-01T00:58:37Z</time>
      </trkpt>
      <trkpt lat="46.03656" lon="6.91796">
        <ele>1875.6</ele>
        <time>2010-01-01T00:58:39Z</time>
      </trkpt>
      <trkpt lat="46.03661" lon="6.91801">
        <ele>1879</ele>
        <time>2010-01-01T00:58:42Z</time>
      </trkpt>
      <trkpt lat="46.03664" lon="6.91803">
        <ele>1873.7</ele>
        <time>2010-01-01T00:58:43Z</time>
      </trkpt>
      <trkpt lat="46.03662" lon="6.91808">
        <ele>1871.3</ele>
        <time>2010-01-01T00:58:45Z</time>
      </trkpt>
      <trkpt lat="46.03657" lon="6.91811">
        <ele>1869.3</ele>
        <time>2010-01-01T00:58:47Z</time>
      </trkpt>
      <trkpt lat="46.03652" lon="6.91812">
        <ele>1868.1</ele>
        <time>2010-01-01T00:58:49Z</time>
      </trkpt>
      <trkpt lat="46.03649" lon="6.91811">
        <ele>1879</ele>
        <time>2010-01-01T00:58:50Z</time>
      </trkpt>
      <trkpt lat="46.03645" lon="6.91811">
        <ele>1867.4</ele>
        <time>2010-01-01T00:58:52Z</time>
      </trkpt>
      <trkpt lat="46.03642" lon="6.9181">
        <ele>1867.4</ele>
        <time>2010-01-01T00:58:53Z</time>
      </trkpt>
      <trkpt lat="46.03638" lon="6.91809">
        <ele>1867.3</ele>
        <time>2010-01-01T00:58:54Z</time>
      </trkpt>
      <trkpt lat="46.03632" lon="6.91809">
        <ele>1866.6</ele>
        <time>2010-01-01T00:58:57Z</time>
      </trkpt>
      <trkpt lat="46.03627" lon="6.91808">
        <ele>1873</ele>
        <time>2010-01-01T00:58:59Z</time>
      </trkpt>
      <trkpt lat="46.03622" lon="6.91807">
        <ele>1866.5</ele>
        <time>2010-01-01T00:59:01Z</time>
      </trkpt>
      <trkpt lat="46.03617" lon="6.91808">
        <ele>1865.5</ele>
        <time>2010-01-01T00:59:03Z</time>
      </trkpt>
      <trkpt lat="46.03613" lon="6.91812">
        <ele>1863.2</ele>
        <time>2010-01-01T00:59:05Z</time>
      </trkpt>
      <trkpt lat="46.03608" lon="6.91817">
        <ele>1873</ele>
        <time>2010-01-01T00:59:07Z</time>
      </trkpt>
      <trkpt lat="46.03604" lon="6.91824">
        <ele>1856.9</ele>
        <time>2010-01-01T00:59:10Z</time>
      </trkpt>
      <trkpt lat="46.03599" lon="6.91831">
        <ele>1853.2</ele>
        <time>2010-01-01T00:59:13Z</time>
      </trkpt>
      <trkpt lat="46.03595" lon="6.91834">
        <ele>1851.6</ele>
        <time>2010-01-01T00:59:14Z</time>
      </trkpt>
      <trkpt lat="46.03589" lon="6.91832">
        <ele>1868</ele>
        <time>2010-01-01T00:59:17Z</time>
      </trkpt>
      <trkpt lat="46.03586" lon="6.91829">
        <ele>1853.2</ele>
        <time>2010-01-01T00:59:18Z</time>
      </trkpt>
      <trkpt lat="46.03583" lon="6.91825">
        <ele>1854.9</ele>
        <time>2010-01-01T00:59:20Z</time>
      </trkpt>
      <trkpt lat="46.03579" lon="6.91822">
        <ele>1855.6</ele>
        <time>2010-01-01T00:59:22Z</time>
      </trkpt>
      <trkpt lat="46.03576" lon="6.91824">
        <ele>1854.3</ele>
        <time>2010-01-01T00:59:23Z</time>
      </trkpt>
      <trkpt lat="46.03572" lon="6.91829">
        <ele>1858</ele>
        <time>2010-01-01T00:59:25Z</time>
      </trkpt>
      <trkpt lat="46.03567" lon="6.9183">
        <ele>1850.6</ele>
        <time>2010-01-01T00:59:27Z</time>
      </trkpt>
      <trkpt lat="46.03563" lon="6.91833">
        <ele>1848.9</ele>
        <time>2010-01-01T00:59:29Z</time>
      </trkpt>
      <trkpt lat="46.03557" lon="6.91834">
        <ele>1847.9</ele>
        <time>2010-01-01T00:59:31Z</time>
      </trkpt>
      <trkpt lat="46.03553" lon="6.91837">
        <ele>1858</ele>
        <time>2010-01-01T00:59:33Z</time>
      </trkpt>
      <trkpt lat="46.03549" lon="6.91839">
        <ele>1845.5</ele>
        <time>2010-01-01T00:59:35Z</time>
      </trkpt>
      <trkpt lat="46.03545" lon="6.91842">
        <ele>1844.2</ele>
        <time>2010-01-01T00:59:37Z</time>
      </trkpt>
      <trkpt lat="46.0354" lon="6.91845">
        <ele>1842.8</ele>
        <time>2010-01-01T00:59:39Z</time>
      </trkpt>
      <trkpt lat="46.03535" lon="6.91842">
        <ele>1852</ele>
        <time>2010-01-01T00:59:41Z</time>
      </trkpt>
      <trkpt lat="46.03529" lon="6.91839">
        <ele>1843.5</ele>
        <time>2010-01-01T00:59:44Z</time>
      </trkpt>
      <trkpt lat="46.03526" lon="6.91836">
        <ele>1843.6</ele>
        <time>2010-01-01T00:59:45Z</time>
      </trkpt>
      <trkpt lat="46.03522" lon="6.91828">
        <ele>1843.6</ele>
        <time>2010-01-01T00:59:48Z</time>
      </trkpt>
      <trkpt lat="46.03518" lon="6.91825">
        <ele>1840</ele>
        <time>2010-01-01T00:59:50Z</time>
      </trkpt>
      <trkpt lat="46.03518" lon="6.9183">
        <ele>1841.8</ele>
        <time>2010-01-01T00:59:51Z</time>
      </trkpt>
      <trkpt lat="46.0352" lon="6.91837">
        <ele>1841.2</ele>
        <time>2010-01-01T00:59:53Z</time>
      </trkpt>
      <trkpt lat="46.03522" lon="6.91843">
        <ele>1840.3</ele>
        <time>2010-01-01T00:59:55Z</time>
      </trkpt>
      <trkpt lat="46.03523" lon="6.9185">
        <ele>1838.7</ele>
        <time>2010-01-01T00:59:57Z</time>
      </trkpt>
      <trkpt lat="46.03525" lon="6.91857">
        <ele>1840</ele>
        <time>2010-01-01T00:59:59Z</time>
      </trkpt>
      <trkpt lat="46.03529" lon="6.91865">
        <ele>1835.4</ele>
        <time>2010-01-01T01:00:02Z</time>
      </trkpt>
      <trkpt lat="46.03533" lon="6.91871">
        <ele>1833</ele>
        <time>2010-01-01T01:00:04Z</time>
      </trkpt>
      <trkpt lat="46.03528" lon="6.91876">
        <ele>1830.6</ele>
        <time>2010-01-01T01:00:07Z</time>
      </trkpt>
      <trkpt lat="46.03522" lon="6.91875">
        <ele>1832</ele>
        <time>2010-01-01T01:00:09Z</time>
      </trkpt>
      <trkpt lat="46.03516" lon="6.91873">
        <ele>1829</ele>
        <time>2010-01-01T01:00:11Z</time>
      </trkpt>
      <trkpt lat="46.03511" lon="6.91867">
        <ele>1830</ele>
        <time>2010-01-01T01:00:14Z</time>
      </trkpt>
      <trkpt lat="46.03507" lon="6.91864">
        <ele>1830</ele>
        <time>2010-01-01T01:00:16Z</time>
      </trkpt>
      <trkpt lat="46.03504" lon="6.9186">
        <ele>1832</ele>
        <time>2010-01-01T01:00:17Z</time>
      </trkpt>
      <trkpt lat="46.03499" lon="6.91854">
        <ele>1830</ele>
        <time>2010-01-01T01:00:20Z</time>
      </trkpt>
      <trkpt lat="46.03495" lon="6.91846">
        <ele>1829.4</ele>
        <time>2010-01-01T01:00:23Z</time>
      </trkpt>
      <trkpt lat="46.03492" lon="6.9184">
        <ele>1828</ele>
        <time>2010-01-01T01:00:25Z</time>
      </trkpt>
      <trkpt lat="46.03488" lon="6.91835">
        <ele>1827.3</ele>
        <time>2010-01-01T01:00:27Z</time>
      </trkpt>
      <trkpt lat="46.03486" lon="6.91829">
        <ele>1826.1</ele>
        <time>2010-01-01T01:00:29Z</time>
      </trkpt>
      <trkpt lat="46.03484" lon="6.91836">
        <ele>1824.7</ele>
        <time>2010-01-01T01:00:31Z</time>
      </trkpt>
      <trkpt lat="46.03485" lon="6.91844">
        <ele>1824</ele>
        <time>2010-01-01T01:00:33Z</time>
      </trkpt>
      <trkpt lat="46.03487" lon="6.9185">
        <ele>1824</ele>
        <time>2010-01-01T01:00:35Z</time>
      </trkpt>
      <trkpt lat="46.03489" lon="6.91856">
        <ele>1824</ele>
        <time>2010-01-01T01:00:37Z</time>
      </trkpt>
      <trkpt lat="46.0349" lon="6.91865">
        <ele>1822.4</ele>
        <time>2010-01-01T01:00:39Z</time>
      </trkpt>
      <trkpt lat="46.0349" lon="6.91872">
        <ele>1820.5</ele>
        <time>2010-01-01T01:00:41Z</time>
      </trkpt>
      <trkpt lat="46.0349" lon="6.91878">
        <ele>1818.3</ele>
        <time>2010-01-01T01:00:43Z</time>
      </trkpt>
      <trkpt lat="46.0349" lon="6.91884">
        <ele>1816.5</ele>
        <time>2010-01-01T01:00:45Z</time>
      </trkpt>
      <trkpt lat="46.0349" lon="6.9189">
        <ele>1814.6</ele>
        <time>2010-01-01T01:00:46Z</time>
      </trkpt>
      <trkpt lat="46.0349" lon="6.91896">
        <ele>1812.5</ele>
        <time>2010-01-01T01:00:48Z</time>
      </trkpt>
      <trkpt lat="46.03493" lon="6.91902">
        <ele>1817</ele>
        <time>2010-01-01T01:00:50Z</time>
      </trkpt>
      <trkpt lat="46.03496" lon="6.91908">
        <ele>1810.8</ele>
        <time>2010-01-01T01:00:52Z</time>
      </trkpt>
      <trkpt lat="46.03497" lon="6.91914">
        <ele>1808.9</ele>
        <time>2010-01-01T01:00:54Z</time>
      </trkpt>
      <trkpt lat="46.03499" lon="6.9192">
        <ele>1807</ele>
        <time>2010-01-01T01:00:56Z</time>
      </trkpt>
      <trkpt lat="46.035" lon="6.91925">
        <ele>1804.8</ele>
        <time>2010-01-01T01:00:57Z</time>
      </trkpt>
      <trkpt lat="46.03496" lon="6.91931">
        <ele>1809</ele>
        <time>2010-01-01T01:00:59Z</time>
      </trkpt>
      <trkpt lat="46.03492" lon="6.91931">
        <ele>1799.2</ele>
        <time>2010-01-01T01:01:01Z</time>
      </trkpt>
      <trkpt lat="46.03487" lon="6.9193">
        <ele>1798</ele>
        <time>2010-01-01T01:01:03Z</time>
      </trkpt>
      <trkpt lat="46.03484" lon="6.91927">
        <ele>1798.5</ele>
        <time>2010-01-01T01:01:05Z</time>
      </trkpt>
      <trkpt lat="46.03478" lon="6.91923">
        <ele>1798.2</ele>
        <time>2010-01-01T01:01:07Z</time>
      </trkpt>
      <trkpt lat="46.03473" lon="6.91923">
        <ele>1788</ele>
        <time>2010-01-01T01:01:09Z</time>
      </trkpt>
      <trkpt lat="46.0347" lon="6.91917">
        <ele>1797.3</ele>
        <time>2010-01-01T01:01:11Z</time>
      </trkpt>
      <trkpt lat="46.03467" lon="6.91912">
        <ele>1796.4</ele>
        <time>2010-01-01T01:01:13Z</time>
      </trkpt>
      <trkpt lat="46.03465" lon="6.91906">
        <ele>1796.6</ele>
        <time>2010-01-01T01:01:15Z</time>
      </trkpt>
      <trkpt lat="46.03461" lon="6.91899">
        <ele>1789.5</ele>
        <time>2010-01-01T01:01:17Z</time>
      </trkpt>
      <trkpt lat="46.03456" lon="6.91894">
        <ele>1793.5</ele>
        <time>2010-01-01T01:01:20Z</time>
      </trkpt>
      <trkpt lat="46.03452" lon="6.91889">
        <ele>1792.1</ele>
        <time>2010-01-01T01:01:22Z</time>
      </trkpt>
      <trkpt lat="46.03448" lon="6.91882">
        <ele>1791.6</ele>
        <time>2010-01-01T01:01:25Z</time>
      </trkpt>
      <trkpt lat="46.03443" lon="6.91878">
        <ele>1779.2</ele>
        <time>2010-01-01T01:01:27Z</time>
      </trkpt>
      <trkpt lat="46.03439" lon="6.91873">
        <ele>1788.8</ele>
        <time>2010-01-01T01:01:29Z</time>
      </trkpt>
      <trkpt lat="46.03435" lon="6.91868">
        <ele>1788</ele>
        <time>2010-01-01T01:01:31Z</time>
      </trkpt>
      <trkpt lat="46.03433" lon="6.91861">
        <ele>1789</ele>
        <time>2010-01-01T01:01:33Z</time>
      </trkpt>
      <trkpt lat="46.03432" lon="6.91854">
        <ele>1777.6</ele>
        <time>2010-01-01T01:01:35Z</time>
      </trkpt>
      <trkpt lat="46.03432" lon="6.91846">
        <ele>1789</ele>
        <time>2010-01-01T01:01:37Z</time>
      </trkpt>
      <trkpt lat="46.0343" lon="6.91837">
        <ele>1788</ele>
        <time>2010-01-01T01:01:40Z</time>
      </trkpt>
      <trkpt lat="46.03429" lon="6.9183">
        <ele>1787</ele>
        <time>2010-01-01T01:01:42Z</time>
      </trkpt>
      <trkpt lat="46.03429" lon="6.91823">
        <ele>1776</ele>
        <time>2010-01-01T01:01:44Z</time>
      </trkpt>
      <trkpt lat="46.03425" lon="6.91826">
        <ele>1783.7</ele>
        <time>2010-01-01T01:01:46Z</time>
      </trkpt>
      <trkpt lat="46.03425" lon="6.91831">
        <ele>1784.4</ele>
        <time>2010-01-01T01:01:47Z</time>
      </trkpt>
      <trkpt lat="46.03423" lon="6.9184">
        <ele>1783.2</ele>
        <time>2010-01-01T01:01:50Z</time>
      </trkpt>
      <trkpt lat="46.03419" lon="6.91846">
        <ele>1762</ele>
        <time>2010-01-01T01:01:52Z</time>
      </trkpt>
      <trkpt lat="46.03417" lon="6.91853">
        <ele>1779.2</ele>
        <time>2010-01-01T01:01:54Z</time>
      </trkpt>
      <trkpt lat="46.03413" lon="6.9186">
        <ele>1776.8</ele>
        <time>2010-01-01T01:01:57Z</time>
      </trkpt>
      <trkpt lat="46.03409" lon="6.91865">
        <ele>1773.1</ele>
        <time>2010-01-01T01:01:59Z</time>
      </trkpt>
      <trkpt lat="46.03405" lon="6.9187">
        <ele>1762</ele>
        <time>2010-01-01T01:02:01Z</time>
      </trkpt>
      <trkpt lat="46.03402" lon="6.91875">
        <ele>1766.1</ele>
        <time>2010-01-01T01:02:03Z</time>
      </trkpt>
      <trkpt lat="46.03402" lon="6.91882">
        <ele>1764.1</ele>
        <time>2010-01-01T01:02:05Z</time>
      </trkpt>
      <trkpt lat="46.03404" lon="6.91886">
        <ele>1764</ele>
        <time>2010-01-01T01:02:06Z</time>
      </trkpt>
      <trkpt lat="46.03408" lon="6.91891">
        <ele>1764.6</ele>
        <time>2010-01-01T01:02:08Z</time>
      </trkpt>
      <trkpt lat="46.03411" lon="6.91894">
        <ele>1756</ele>
        <time>2010-01-01T01:02:10Z</time>
      </trkpt>
      <trkpt lat="46.03415" lon="6.91898">
        <ele>1766.1</ele>
        <time>2010-01-01T01:02:12Z</time>
      </trkpt>
      <trkpt lat="46.03418" lon="6.91903">
        <ele>1766.3</ele>
        <time>2010-01-01T01:02:13Z</time>
      </trkpt>
      <trkpt lat="46.03421" lon="6.91907">
        <ele>1766.9</ele>
        <time>2010-01-01T01:02:15Z</time>
      </trkpt>
      <trkpt lat="46.03424" lon="6.91912">
        <ele>1767.2</ele>
        <time>2010-01-01T01:02:17Z</time>
      </trkpt>
      <trkpt lat="46.03428" lon="6.91919">
        <ele>1749</ele>
        <time>2010-01-01T01:02:19Z</time>
      </trkpt>
      <trkpt lat="46.03426" lon="6.91928">
        <ele>1763.1</ele>
        <time>2010-01-01T01:02:22Z</time>
      </trkpt>
      <trkpt lat="46.03424" lon="6.91936">
        <ele>1759</ele>
        <time>2010-01-01T01:02:24Z</time>
      </trkpt>
      <trkpt lat="46.03426" lon="6.91942">
        <ele>1758.2</ele>
        <time>2010-01-01T01:02:26Z</time>
      </trkpt>
      <trkpt lat="46.03431" lon="6.91946">
        <ele>1751.5</ele>
        <time>2010-01-01T01:02:29Z</time>
      </trkpt>
      <trkpt lat="46.03434" lon="6.91951">
        <ele>1760.2</ele>
        <time>2010-01-01T01:02:30Z</time>
      </trkpt>
      <trkpt lat="46.03438" lon="6.91957">
        <ele>1760.4</ele>
        <time>2010-01-01T01:02:33Z</time>
      </trkpt>
      <trkpt lat="46.03443" lon="6.91963">
        <ele>1761.1</ele>
        <time>2010-01-01T01:02:35Z</time>
      </trkpt>
      <trkpt lat="46.03447" lon="6.91969">
        <ele>1748.7</ele>
        <time>2010-01-01T01:02:38Z</time>
      </trkpt>
      <trkpt lat="46.0345" lon="6.91976">
        <ele>1759.5</ele>
        <time>2010-01-01T01:02:40Z</time>
      </trkpt>
      <trkpt lat="46.03452" lon="6.91984">
        <ele>1757</ele>
        <time>2010-01-01T01:02:42Z</time>
      </trkpt>
      <trkpt lat="46.03455" lon="6.91992">
        <ele>1755.1</ele>
        <time>2010-01-01T01:02:45Z</time>
      </trkpt>
      <trkpt lat="46.03458" lon="6.91997">
        <ele>1746</ele>
        <time>2010-01-01T01:02:47Z</time>
      </trkpt>
      <trkpt lat="46.03461" lon="6.92004">
        <ele>1753.3</ele>
        <time>2010-01-01T01:02:49Z</time>
      </trkpt>
      <trkpt lat="46.03463" lon="6.92011">
        <ele>1751.3</ele>
        <time>2010-01-01T01:02:51Z</time>
      </trkpt>
      <trkpt lat="46.03464" lon="6.92017">
        <ele>1749.1</ele>
        <time>2010-01-01T01:02:53Z</time>
      </trkpt>
      <trkpt lat="46.03467" lon="6.92025">
        <ele>1744.5</ele>
        <time>2010-01-01T01:02:55Z</time>
      </trkpt>
      <trkpt lat="46.03469" lon="6.92034">
        <ele>1743.9</ele>
        <time>2010-01-01T01:02:58Z</time>
      </trkpt>
      <trkpt lat="46.03474" lon="6.92037">
        <ele>1744</ele>
        <time>2010-01-01T01:03:00Z</time>
      </trkpt>
      <trkpt lat="46.03478" lon="6.92041">
        <ele>1742.2</ele>
        <time>2010-01-01T01:03:02Z</time>
      </trkpt>
      <trkpt lat="46.03482" lon="6.92045">
        <ele>1743</ele>
        <time>2010-01-01T01:03:04Z</time>
      </trkpt>
      <trkpt lat="46.03486" lon="6.92045">
        <ele>1740.3</ele>
        <time>2010-01-01T01:03:06Z</time>
      </trkpt>
      <trkpt lat="46.03491" lon="6.92048">
        <ele>1738.8</ele>
        <time>2010-01-01T01:03:08Z</time>
      </trkpt>
      <trkpt lat="46.03497" lon="6.9205">
        <ele>1737.7</ele>
        <time>2010-01-01T01:03:10Z</time>
      </trkpt>
      <trkpt lat="46.03501" lon="6.92054">
        <ele>1743</ele>
        <time>2010-01-01T01:03:12Z</time>
      </trkpt>
      <trkpt lat="46.035" lon="6.92061">
        <ele>1732.3</ele>
        <time>2010-01-01T01:03:14Z</time>
      </trkpt>
      <trkpt lat="46.03495" lon="6.92062">
        <ele>1732</ele>
        <time>2010-01-01T01:03:16Z</time>
      </trkpt>
      <trkpt lat="46.03489" lon="6.92063">
        <ele>1731.8</ele>
        <time>2010-01-01T01:03:19Z</time>
      </trkpt>
      <trkpt lat="46.03484" lon="6.92064">
        <ele>1743</ele>
        <time>2010-01-01T01:03:21Z</time>
      </trkpt>
      <trkpt lat="46.0348" lon="6.92067">
        <ele>1730.2</ele>
        <time>2010-01-01T01:03:22Z</time>
      </trkpt>
      <trkpt lat="46.03476" lon="6.92068">
        <ele>1730</ele>
        <time>2010-01-01T01:03:24Z</time>
      </trkpt>
      <trkpt lat="46.03471" lon="6.92069">
        <ele>1729.3</ele>
        <time>2010-01-01T01:03:26Z</time>
      </trkpt>
      <trkpt lat="46.03466" lon="6.9207">
        <ele>1733</ele>
        <time>2010-01-01T01:03:28Z</time>
      </trkpt>
      <trkpt lat="46.0346" lon="6.92068">
        <ele>1726.2</ele>
        <time>2010-01-01T01:03:31Z</time>
      </trkpt>
      <trkpt lat="46.03457" lon="6.92067">
        <ele>1725.6</ele>
        <time>2010-01-01T01:03:32Z</time>
      </trkpt>
      <trkpt lat="46.0345" lon="6.92063">
        <ele>1724.9</ele>
        <time>2010-01-01T01:03:35Z</time>
      </trkpt>
      <trkpt lat="46.03447" lon="6.9206">
        <ele>1722</ele>
        <time>2010-01-01T01:03:36Z</time>
      </trkpt>
      <trkpt lat="46.03445" lon="6.92057">
        <ele>1725.6</ele>
        <time>2010-01-01T01:03:37Z</time>
      </trkpt>
      <trkpt lat="46.03442" lon="6.92053">
        <ele>1725.1</ele>
        <time>2010-01-01T01:03:39Z</time>
      </trkpt>
      <trkpt lat="46.03437" lon="6.92046">
        <ele>1723.6</ele>
        <time>2010-01-01T01:03:42Z</time>
      </trkpt>
      <trkpt lat="46.03436" lon="6.9204">
        <ele>1724.8</ele>
        <time>2010-01-01T01:03:44Z</time>
      </trkpt>
      <trkpt lat="46.03433" lon="6.92034">
        <ele>1725.5</ele>
        <time>2010-01-01T01:03:46Z</time>
      </trkpt>
      <trkpt lat="46.03429" lon="6.92028">
        <ele>1723.3</ele>
        <time>2010-01-01T01:03:48Z</time>
      </trkpt>
      <trkpt lat="46.03424" lon="6.92022">
        <ele>1722.1</ele>
        <time>2010-01-01T01:03:51Z</time>
      </trkpt>
      <trkpt lat="46.03417" lon="6.92019">
        <ele>1718.2</ele>
        <time>2010-01-01T01:03:53Z</time>
      </trkpt>
      <trkpt lat="46.0341" lon="6.92017">
        <ele>1715.7</ele>
        <time>2010-01-01T01:03:56Z</time>
      </trkpt>
      <trkpt lat="46.03405" lon="6.92016">
        <ele>1713.6</ele>
        <time>2010-01-01T01:03:58Z</time>
      </trkpt>
      <trkpt lat="46.034" lon="6.92015">
        <ele>1711.6</ele>
        <time>2010-01-01T01:04:00Z</time>
      </trkpt>
      <trkpt lat="46.03395" lon="6.92015">
        <ele>1711</ele>
        <time>2010-01-01T01:04:02Z</time>
      </trkpt>
      <trkpt lat="46.03391" lon="6.92013">
        <ele>1708</ele>
        <time>2010-01-01T01:04:04Z</time>
      </trkpt>
      <trkpt lat="46.03388" lon="6.92007">
        <ele>1709.2</ele>
        <time>2010-01-01T01:04:06Z</time>
      </trkpt>
      <trkpt lat="46.03385" lon="6.91998">
        <ele>1711.3</ele>
        <time>2010-01-01T01:04:09Z</time>
      </trkpt>
      <trkpt lat="46.03383" lon="6.91992">
        <ele>1705</ele>
        <time>2010-01-01T01:04:11Z</time>
      </trkpt>
      <trkpt lat="46.03381" lon="6.91987">
        <ele>1713.2</ele>
        <time>2010-01-01T01:04:12Z</time>
      </trkpt>
      <trkpt lat="46.03376" lon="6.91982">
        <ele>1712.1</ele>
        <time>2010-01-01T01:04:15Z</time>
      </trkpt>
      <trkpt lat="46.03371" lon="6.91981">
        <ele>1709.4</ele>
        <time>2010-01-01T01:04:17Z</time>
      </trkpt>
      <trkpt lat="46.03367" lon="6.9198">
        <ele>1699</ele>
        <time>2010-01-01T01:04:18Z</time>
      </trkpt>
      <trkpt lat="46.03361" lon="6.91978">
        <ele>1704.4</ele>
        <time>2010-01-01T01:04:21Z</time>
      </trkpt>
      <trkpt lat="46.03356" lon="6.91978">
        <ele>1701.4</ele>
        <time>2010-01-01T01:04:23Z</time>
      </trkpt>
      <trkpt lat="46.03351" lon="6.91974">
        <ele>1700</ele>
        <time>2010-01-01T01:04:25Z</time>
      </trkpt>
      <trkpt lat="46.03346" lon="6.9197">
        <ele>1688</ele>
        <time>2010-01-01T01:04:27Z</time>
      </trkpt>
      <trkpt lat="46.03343" lon="6.91964">
        <ele>1699.2</ele>
        <time>2010-01-01T01:04:29Z</time>
      </trkpt>
      <trkpt lat="46.03338" lon="6.91959">
        <ele>1698.1</ele>
        <time>2010-01-01T01:04:32Z</time>
      </trkpt>
      <trkpt lat="46.03334" lon="6.91954">
        <ele>1697.6</ele>
        <time>2010-01-01T01:04:34Z</time>
      </trkpt>
      <trkpt lat="46.03329" lon="6.91949">
        <ele>1683</ele>
        <time>2010-01-01T01:04:36Z</time>
      </trkpt>
      <trkpt lat="46.03325" lon="6.91945">
        <ele>1695.1</ele>
        <time>2010-01-01T01:04:38Z</time>
      </trkpt>
      <trkpt lat="46.0332" lon="6.9194">
        <ele>1693.2</ele>
        <time>2010-01-01T01:04:41Z</time>
      </trkpt>
      <trkpt lat="46.03315" lon="6.91936">
        <ele>1690.9</ele>
        <time>2010-01-01T01:04:43Z</time>
      </trkpt>
      <trkpt lat="46.0331" lon="6.91931">
        <ele>1678</ele>
        <time>2010-01-01T01:04:46Z</time>
      </trkpt>
      <trkpt lat="46.03306" lon="6.91926">
        <ele>1687.6</ele>
        <time>2010-01-01T01:04:48Z</time>
      </trkpt>
      <trkpt lat="46.03303" lon="6.91923">
        <ele>1686.6</ele>
        <time>2010-01-01T01:04:49Z</time>
      </trkpt>
      <trkpt lat="46.03298" lon="6.91918">
        <ele>1685</ele>
        <time>2010-01-01T01:04:52Z</time>
      </trkpt>
      <trkpt lat="46.03294" lon="6.91913">
        <ele>1673</ele>
        <time>2010-01-01T01:04:54Z</time>
      </trkpt>
      <trkpt lat="46.0329" lon="6.91908">
        <ele>1682.2</ele>
        <time>2010-01-01T01:04:56Z</time>
      </trkpt>
      <trkpt lat="46.03286" lon="6.91903">
        <ele>1680.6</ele>
        <time>2010-01-01T01:04:58Z</time>
      </trkpt>
      <trkpt lat="46.03282" lon="6.91898">
        <ele>1679</ele>
        <time>2010-01-01T01:05:00Z</time>
      </trkpt>
      <trkpt lat="46.03278" lon="6.91895">
        <ele>1668</ele>
        <time>2010-01-01T01:05:02Z</time>
      </trkpt>
      <trkpt lat="46.03275" lon="6.9189">
        <ele>1675.5</ele>
        <time>2010-01-01T01:05:04Z</time>
      </trkpt>
      <trkpt lat="46.03276" lon="6.91885">
        <ele>1676.2</ele>
        <time>2010-01-01T01:05:05Z</time>
      </trkpt>
      <trkpt lat="46.03278" lon="6.9188">
        <ele>1677.5</ele>
        <time>2010-01-01T01:05:07Z</time>
      </trkpt>
      <trkpt lat="46.03279" lon="6.91874">
        <ele>1677.7</ele>
        <time>2010-01-01T01:05:09Z</time>
      </trkpt>
      <trkpt lat="46.03279" lon="6.91865">
        <ele>1665.5</ele>
        <time>2010-01-01T01:05:11Z</time>
      </trkpt>
      <trkpt lat="46.0328" lon="6.91857">
        <ele>1676.7</ele>
        <time>2010-01-01T01:05:13Z</time>
      </trkpt>
      <trkpt lat="46.03282" lon="6.9185">
        <ele>1676.6</ele>
        <time>2010-01-01T01:05:15Z</time>
      </trkpt>
      <trkpt lat="46.03282" lon="6.91844">
        <ele>1675.4</ele>
        <time>2010-01-01T01:05:17Z</time>
      </trkpt>
      <trkpt lat="46.03282" lon="6.91837">
        <ele>1668.7</ele>
        <time>2010-01-01T01:05:19Z</time>
      </trkpt>
      <trkpt lat="46.03283" lon="6.9183">
        <ele>1673.1</ele>
        <time>2010-01-01T01:05:21Z</time>
      </trkpt>
      <trkpt lat="46.03285" lon="6.91824">
        <ele>1673</ele>
        <time>2010-01-01T01:05:23Z</time>
      </trkpt>
      <trkpt lat="46.03285" lon="6.91816">
        <ele>1671</ele>
        <time>2010-01-01T01:05:25Z</time>
      </trkpt>
      <trkpt lat="46.03286" lon="6.91807">
        <ele>1672</ele>
        <time>2010-01-01T01:05:28Z</time>
      </trkpt>
      <trkpt lat="46.03284" lon="6.91802">
        <ele>1666.7</ele>
        <time>2010-01-01T01:05:29Z</time>
      </trkpt>
      <trkpt lat="46.03283" lon="6.91797">
        <ele>1664.9</ele>
        <time>2010-01-01T01:05:31Z</time>
      </trkpt>
      <trkpt lat="46.03283" lon="6.91788">
        <ele>1663.2</ele>
        <time>2010-01-01T01:05:33Z</time>
      </trkpt>
      <trkpt lat="46.03285" lon="6.9178">
        <ele>1682</ele>
        <time>2010-01-01T01:05:35Z</time>
      </trkpt>
      <trkpt lat="46.03287" lon="6.91771">
        <ele>1665</ele>
        <time>2010-01-01T01:05:38Z</time>
      </trkpt>
      <trkpt lat="46.03288" lon="6.91764">
        <ele>1666</ele>
        <time>2010-01-01T01:05:40Z</time>
      </trkpt>
      <trkpt lat="46.03284" lon="6.91765">
        <ele>1663</ele>
        <time>2010-01-01T01:05:42Z</time>
      </trkpt>
      <trkpt lat="46.0328" lon="6.91766">
        <ele>1694</ele>
        <time>2010-01-01T01:05:43Z</time>
      </trkpt>
      <trkpt lat="46.03275" lon="6.91768">
        <ele>1656.5</ele>
        <time>2010-01-01T01:05:45Z</time>
      </trkpt>
      <trkpt lat="46.0327" lon="6.91768">
        <ele>1653.6</ele>
        <time>2010-01-01T01:05:47Z</time>
      </trkpt>
      <trkpt lat="46.03264" lon="6.91767">
        <ele>1650.4</ele>
        <time>2010-01-01T01:05:50Z</time>
      </trkpt>
      <trkpt lat="46.03259" lon="6.91769">
        <ele>1694</ele>
        <time>2010-01-01T01:05:52Z</time>
      </trkpt>
      <trkpt lat="46.03254" lon="6.91768">
        <ele>1644.5</ele>
        <time>2010-01-01T01:05:54Z</time>
      </trkpt>
      <trkpt lat="46.0325" lon="6.91769">
        <ele>1641.8</ele>
        <time>2010-01-01T01:05:56Z</time>
      </trkpt>
      <trkpt lat="46.03244" lon="6.9177">
        <ele>1639.8</ele>
        <time>2010-01-01T01:05:58Z</time>
      </trkpt>
      <trkpt lat="46.03241" lon="6.91769">
        <ele>1639.3</ele>
        <time>2010-01-01T01:05:59Z</time>
      </trkpt>
      <trkpt lat="46.03234" lon="6.9177">
        <ele>1677</ele>
        <time>2010-01-01T01:06:02Z</time>
      </trkpt>
      <trkpt lat="46.0323" lon="6.91769">
        <ele>1636.2</ele>
        <time>2010-01-01T01:06:04Z</time>
      </trkpt>
      <trkpt lat="46.03225" lon="6.91768">
        <ele>1635.4</ele>
        <time>2010-01-01T01:06:06Z</time>
      </trkpt>
      <trkpt lat="46.03221" lon="6.91766">
        <ele>1635.8</ele>
        <time>2010-01-01T01:06:07Z</time>
      </trkpt>
      <trkpt lat="46.03215" lon="6.91764">
        <ele>1677</ele>
        <time>2010-01-01T01:06:10Z</time>
      </trkpt>
      <trkpt lat="46.03209" lon="6.91762">
        <ele>1638.8</ele>
        <time>2010-01-01T01:06:12Z</time>
      </trkpt>
      <trkpt lat="46.03205" lon="6.91765">
        <ele>1636.8</ele>
        <time>2010-01-01T01:06:14Z</time>
      </trkpt>
      <trkpt lat="46.03201" lon="6.91768">
        <ele>1634.5</ele>
        <time>2010-01-01T01:06:16Z</time>
      </trkpt>
      <trkpt lat="46.03198" lon="6.91772">
        <ele>1677</ele>
        <time>2010-01-01T01:06:18Z</time>
      </trkpt>
      <trkpt lat="46.03195" lon="6.91776">
        <ele>1627.6</ele>
        <time>2010-01-01T01:06:19Z</time>
      </trkpt>
      <trkpt lat="46.03189" lon="6.91777">
        <ele>1627.9</ele>
        <time>2010-01-01T01:06:22Z</time>
      </trkpt>
      <trkpt lat="46.03184" lon="6.91773">
        <ele>1632.4</ele>
        <time>2010-01-01T01:06:24Z</time>
      </trkpt>
      <trkpt lat="46.03179" lon="6.9177">
        <ele>1642</ele>
        <time>2010-01-01T01:06:26Z</time>
      </trkpt>
      <trkpt lat="46.03175" lon="6.91769">
        <ele>1638</ele>
        <time>2010-01-01T01:06:28Z</time>
      </trkpt>
      <trkpt lat="46.03168" lon="6.91771">
        <ele>1637.8</ele>
        <time>2010-01-01T01:06:31Z</time>
      </trkpt>
      <trkpt lat="46.03165" lon="6.91771">
        <ele>1638.6</ele>
        <time>2010-01-01T01:06:32Z</time>
      </trkpt>
      <trkpt lat="46.03159" lon="6.91771">
        <ele>1631</ele>
        <time>2010-01-01T01:06:34Z</time>
      </trkpt>
      <trkpt lat="46.03154" lon="6.9177">
        <ele>1642.5</ele>
        <time>2010-01-01T01:06:36Z</time>
      </trkpt>
      <trkpt lat="46.0315" lon="6.91771">
        <ele>1642.8</ele>
        <time>2010-01-01T01:06:38Z</time>
      </trkpt>
      <trkpt lat="46.03144" lon="6.91773">
        <ele>1642.9</ele>
        <time>2010-01-01T01:06:40Z</time>
      </trkpt>
      <trkpt lat="46.03138" lon="6.91776">
        <ele>1631</ele>
        <time>2010-01-01T01:06:43Z</time>
      </trkpt>
      <trkpt lat="46.03134" lon="6.91781">
        <ele>1637.6</ele>
        <time>2010-01-01T01:06:45Z</time>
      </trkpt>
      <trkpt lat="46.03128" lon="6.91783">
        <ele>1635.6</ele>
        <time>2010-01-01T01:06:47Z</time>
      </trkpt>
      <trkpt lat="46.03122" lon="6.9178">
        <ele>1638</ele>
        <time>2010-01-01T01:06:50Z</time>
      </trkpt>
      <trkpt lat="46.03116" lon="6.91777">
        <ele>1624</ele>
        <time>2010-01-01T01:06:52Z</time>
      </trkpt>
      <trkpt lat="46.03113" lon="6.91774">
        <ele>1641.3</ele>
        <time>2010-01-01T01:06:54Z</time>
      </trkpt>
      <trkpt lat="46.0311" lon="6.91771">
        <ele>1642.5</ele>
        <time>2010-01-01T01:06:55Z</time>
      </trkpt>
      <trkpt lat="46.03107" lon="6.9177">
        <ele>1641.9</ele>
        <time>2010-01-01T01:06:57Z</time>
      </trkpt>
      <trkpt lat="46.03101" lon="6.91767">
        <ele>1641.1</ele>
        <time>2010-01-01T01:06:59Z</time>
      </trkpt>
      <trkpt lat="46.03096" lon="6.91763">
        <ele>1621.5</ele>
        <time>2010-01-01T01:07:01Z</time>
      </trkpt>
      <trkpt lat="46.03092" lon="6.91762">
        <ele>1640</ele>
        <time>2010-01-01T01:07:03Z</time>
      </trkpt>
      <trkpt lat="46.03089" lon="6.9176">
        <ele>1639.8</ele>
        <time>2010-01-01T01:07:04Z</time>
      </trkpt>
      <trkpt lat="46.03085" lon="6.91757">
        <ele>1639.5</ele>
        <time>2010-01-01T01:07:06Z</time>
      </trkpt>
      <trkpt lat="46.03082" lon="6.91755">
        <ele>1638.9</ele>
        <time>2010-01-01T01:07:08Z</time>
      </trkpt>
      <trkpt lat="46.03076" lon="6.9175">
        <ele>1619</ele>
        <time>2010-01-01T01:07:10Z</time>
      </trkpt>
      <trkpt lat="46.0307" lon="6.91746">
        <ele>1636.7</ele>
        <time>2010-01-01T01:07:13Z</time>
      </trkpt>
      <trkpt lat="46.03067" lon="6.91743">
        <ele>1636.6</ele>
        <time>2010-01-01T01:07:14Z</time>
      </trkpt>
      <trkpt lat="46.03062" lon="6.91738">
        <ele>1636.4</ele>
        <time>2010-01-01T01:07:17Z</time>
      </trkpt>
      <trkpt lat="46.03058" lon="6.91731">
        <ele>1619</ele>
        <time>2010-01-01T01:07:19Z</time>
      </trkpt>
      <trkpt lat="46.03053" lon="6.91725">
        <ele>1638.1</ele>
        <time>2010-01-01T01:07:22Z</time>
      </trkpt>
      <trkpt lat="46.03048" lon="6.9172">
        <ele>1637.4</ele>
        <time>2010-01-01T01:07:24Z</time>
      </trkpt>
      <trkpt lat="46.03042" lon="6.91716">
        <ele>1635.4</ele>
        <time>2010-01-01T01:07:27Z</time>
      </trkpt>
      <trkpt lat="46.03037" lon="6.91711">
        <ele>1612.5</ele>
        <time>2010-01-01T01:07:30Z</time>
      </trkpt>
      <trkpt lat="46.03032" lon="6.91705">
        <ele>1633.6</ele>
        <time>2010-01-01T01:07:32Z</time>
      </trkpt>
      <trkpt lat="46.03029" lon="6.91701">
        <ele>1633.2</ele>
        <time>2010-01-01T01:07:34Z</time>
      </trkpt>
      <trkpt lat="46.03026" lon="6.91697">
        <ele>1632.9</ele>
        <time>2010-01-01T01:07:35Z</time>
      </trkpt>
      <trkpt lat="46.03024" lon="6.91694">
        <ele>1632.9</ele>
        <time>2010-01-01T01:07:37Z</time>
      </trkpt>
      <trkpt lat="46.03021" lon="6.9169">
        <ele>1615.2</ele>
        <time>2010-01-01T01:07:38Z</time>
      </trkpt>
      <trkpt lat="46.03017" lon="6.91688">
        <ele>1631</ele>
        <time>2010-01-01T01:07:40Z</time>
      </trkpt>
      <trkpt lat="46.03012" lon="6.91682">
        <ele>1630.5</ele>
        <time>2010-01-01T01:07:42Z</time>
      </trkpt>
      <trkpt lat="46.03009" lon="6.91679">
        <ele>1630</ele>
        <time>2010-01-01T01:07:44Z</time>
      </trkpt>
      <trkpt lat="46.03003" lon="6.91672">
        <ele>1615.1</ele>
        <time>2010-01-01T01:07:47Z</time>
      </trkpt>
      <trkpt lat="46.03" lon="6.91669">
        <ele>1629</ele>
        <time>2010-01-01T01:07:48Z</time>
      </trkpt>
      <trkpt lat="46.02995" lon="6.91663">
        <ele>1628.4</ele>
        <time>2010-01-01T01:07:51Z</time>
      </trkpt>
      <trkpt lat="46.0299" lon="6.91658">
        <ele>1627.4</ele>
        <time>2010-01-01T01:07:54Z</time>
      </trkpt>
      <trkpt lat="46.02985" lon="6.91652">
        <ele>1615</ele>
        <time>2010-01-01T01:07:56Z</time>
      </trkpt>
      <trkpt lat="46.02981" lon="6.91647">
        <ele>1626.1</ele>
        <time>2010-01-01T01:07:58Z</time>
      </trkpt>
      <trkpt lat="46.02976" lon="6.91643">
        <ele>1624.7</ele>
        <time>2010-01-01T01:08:01Z</time>
      </trkpt>
      <trkpt lat="46.02971" lon="6.91638">
        <ele>1623.6</ele>
        <time>2010-01-01T01:08:03Z</time>
      </trkpt>
      <trkpt lat="46.02968" lon="6.91635">
        <ele>1614</ele>
        <time>2010-01-01T01:08:04Z</time>
      </trkpt>
      <trkpt lat="46.02965" lon="6.91632">
        <ele>1622.1</ele>
        <time>2010-01-01T01:08:06Z</time>
      </trkpt>
      <trkpt lat="46.02959" lon="6.91627">
        <ele>1620.2</ele>
        <time>2010-01-01T01:08:09Z</time>
      </trkpt>
      <trkpt lat="46.02953" lon="6.91621">
        <ele>1618.7</ele>
        <time>2010-01-01T01:08:12Z</time>
      </trkpt>
      <trkpt lat="46.02949" lon="6.91613">
        <ele>1614</ele>
        <time>2010-01-01T01:08:14Z</time>
      </trkpt>
      <trkpt lat="46.02946" lon="6.9161">
        <ele>1618.3</ele>
        <time>2010-01-01T01:08:16Z</time>
      </trkpt>
      <trkpt lat="46.02941" lon="6.91603">
        <ele>1617.8</ele>
        <time>2010-01-01T01:08:19Z</time>
      </trkpt>
      <trkpt lat="46.02936" lon="6.91596">
        <ele>1617.5</ele>
        <time>2010-01-01T01:08:21Z</time>
      </trkpt>
      <trkpt lat="46.0293" lon="6.9159">
        <ele>1612</ele>
        <time>2010-01-01T01:08:24Z</time>
      </trkpt>
      <trkpt lat="46.02928" lon="6.91586">
        <ele>1616.8</ele>
        <time>2010-01-01T01:08:26Z</time>
      </trkpt>
      <trkpt lat="46.02922" lon="6.9158">
        <ele>1615.7</ele>
        <time>2010-01-01T01:08:29Z</time>
      </trkpt>
      <trkpt lat="46.02917" lon="6.91574">
        <ele>1614.9</ele>
        <time>2010-01-01T01:08:31Z</time>
      </trkpt>
      <trkpt lat="46.02912" lon="6.91567">
        <ele>1613.5</ele>
        <time>2010-01-01T01:08:34Z</time>
      </trkpt>
      <trkpt lat="46.02907" lon="6.91561">
        <ele>1613.4</ele>
        <time>2010-01-01T01:08:37Z</time>
      </trkpt>
      <trkpt lat="46.02904" lon="6.91556">
        <ele>1613.5</ele>
        <time>2010-01-01T01:08:38Z</time>
      </trkpt>
      <trkpt lat="46.02902" lon="6.91548">
        <ele>1615.1</ele>
        <time>2010-01-01T01:08:41Z</time>
      </trkpt>
      <trkpt lat="46.02896" lon="6.91544">
        <ele>1607.7</ele>
        <time>2010-01-01T01:08:43Z</time>
      </trkpt>
      <trkpt lat="46.02892" lon="6.9154">
        <ele>1612.6</ele>
        <time>2010-01-01T01:08:45Z</time>
      </trkpt>
      <trkpt lat="46.02888" lon="6.91533">
        <ele>1612.8</ele>
        <time>2010-01-01T01:08:48Z</time>
      </trkpt>
      <trkpt lat="46.02884" lon="6.91528">
        <ele>1612.5</ele>
        <time>2010-01-01T01:08:50Z</time>
      </trkpt>
      <trkpt lat="46.0288" lon="6.91524">
        <ele>1608.8</ele>
        <time>2010-01-01T01:08:52Z</time>
      </trkpt>
      <trkpt lat="46.02875" lon="6.9152">
        <ele>1610.5</ele>
        <time>2010-01-01T01:08:54Z</time>
      </trkpt>
      <trkpt lat="46.02871" lon="6.91515">
        <ele>1610.1</ele>
        <time>2010-01-01T01:08:56Z</time>
      </trkpt>
      <trkpt lat="46.02867" lon="6.91507">
        <ele>1610.7</ele>
        <time>2010-01-01T01:08:59Z</time>
      </trkpt>
      <trkpt lat="46.02865" lon="6.91502">
        <ele>1606.9</ele>
        <time>2010-01-01T01:09:01Z</time>
      </trkpt>
      <trkpt lat="46.0286" lon="6.91494">
        <ele>1611.2</ele>
        <time>2010-01-01T01:09:04Z</time>
      </trkpt>
      <trkpt lat="46.02857" lon="6.9149">
        <ele>1610.8</ele>
        <time>2010-01-01T01:09:05Z</time>
      </trkpt>
      <trkpt lat="46.02854" lon="6.91487">
        <ele>1610.2</ele>
        <time>2010-01-01T01:09:07Z</time>
      </trkpt>
      <trkpt lat="46.02848" lon="6.91481">
        <ele>1609.4</ele>
        <time>2010-01-01T01:09:10Z</time>
      </trkpt>
      <trkpt lat="46.02842" lon="6.91477">
        <ele>1607</ele>
        <time>2010-01-01T01:09:12Z</time>
      </trkpt>
      <trkpt lat="46.02836" lon="6.91474">
        <ele>1604.8</ele>
        <time>2010-01-01T01:09:15Z</time>
      </trkpt>
      <trkpt lat="46.0283" lon="6.91471">
        <ele>1604.2</ele>
        <time>2010-01-01T01:09:17Z</time>
      </trkpt>
      <trkpt lat="46.02824" lon="6.91464">
        <ele>1601.4</ele>
        <time>2010-01-01T01:09:21Z</time>
      </trkpt>
      <trkpt lat="46.02821" lon="6.91461">
        <ele>1600.8</ele>
        <time>2010-01-01T01:09:22Z</time>
      </trkpt>
      <trkpt lat="46.02818" lon="6.91458">
        <ele>1600.1</ele>
        <time>2010-01-01T01:09:24Z</time>
      </trkpt>
      <trkpt lat="46.02815" lon="6.91454">
        <ele>1599</ele>
        <time>2010-01-01T01:09:25Z</time>
      </trkpt>
      <trkpt lat="46.02809" lon="6.91449">
        <ele>1598.3</ele>
        <time>2010-01-01T01:09:28Z</time>
      </trkpt>
      <trkpt lat="46.02806" lon="6.91446">
        <ele>1597.7</ele>
        <time>2010-01-01T01:09:29Z</time>
      </trkpt>
      <trkpt lat="46.02802" lon="6.91444">
        <ele>1596.3</ele>
        <time>2010-01-01T01:09:31Z</time>
      </trkpt>
      <trkpt lat="46.02797" lon="6.91438">
        <ele>1592</ele>
        <time>2010-01-01T01:09:34Z</time>
      </trkpt>
      <trkpt lat="46.02794" lon="6.91434">
        <ele>1595.2</ele>
        <time>2010-01-01T01:09:35Z</time>
      </trkpt>
      <trkpt lat="46.02791" lon="6.91431">
        <ele>1594.5</ele>
        <time>2010-01-01T01:09:37Z</time>
      </trkpt>
      <trkpt lat="46.02788" lon="6.91427">
        <ele>1594.2</ele>
        <time>2010-01-01T01:09:38Z</time>
      </trkpt>
      <trkpt lat="46.02784" lon="6.91421">
        <ele>1593.9</ele>
        <time>2010-01-01T01:09:41Z</time>
      </trkpt>
      <trkpt lat="46.02779" lon="6.91415">
        <ele>1592</ele>
        <time>2010-01-01T01:09:43Z</time>
      </trkpt>
      <trkpt lat="46.02776" lon="6.91412">
        <ele>1592.4</ele>
        <time>2010-01-01T01:09:45Z</time>
      </trkpt>
      <trkpt lat="46.02773" lon="6.91408">
        <ele>1591.9</ele>
        <time>2010-01-01T01:09:46Z</time>
      </trkpt>
      <trkpt lat="46.02771" lon="6.91404">
        <ele>1592</ele>
        <time>2010-01-01T01:09:48Z</time>
      </trkpt>
      <trkpt lat="46.02768" lon="6.91401">
        <ele>1591.2</ele>
        <time>2010-01-01T01:09:49Z</time>
      </trkpt>
      <trkpt lat="46.02765" lon="6.91398">
        <ele>1592</ele>
        <time>2010-01-01T01:09:51Z</time>
      </trkpt>
      <trkpt lat="46.02762" lon="6.91393">
        <ele>1590.3</ele>
        <time>2010-01-01T01:09:53Z</time>
      </trkpt>
      <trkpt lat="46.02757" lon="6.91388">
        <ele>1589</ele>
        <time>2010-01-01T01:09:55Z</time>
      </trkpt>
      <trkpt lat="46.02752" lon="6.91381">
        <ele>1588</ele>
        <time>2010-01-01T01:09:58Z</time>
      </trkpt>
      <trkpt lat="46.02747" lon="6.91375">
        <ele>1592</ele>
        <time>2010-01-01T01:10:00Z</time>
      </trkpt>
      <trkpt lat="46.02744" lon="6.91368">
        <ele>1587.5</ele>
        <time>2010-01-01T01:10:03Z</time>
      </trkpt>
      <trkpt lat="46.02742" lon="6.9136">
        <ele>1588.5</ele>
        <time>2010-01-01T01:10:05Z</time>
      </trkpt>
      <trkpt lat="46.02738" lon="6.91353">
        <ele>1587.8</ele>
        <time>2010-01-01T01:10:08Z</time>
      </trkpt>
      <trkpt lat="46.02733" lon="6.91348">
        <ele>1583</ele>
        <time>2010-01-01T01:10:10Z</time>
      </trkpt>
      <trkpt lat="46.02728" lon="6.91343">
        <ele>1585</ele>
        <time>2010-01-01T01:10:12Z</time>
      </trkpt>
      <trkpt lat="46.02723" lon="6.91339">
        <ele>1583.3</ele>
        <time>2010-01-01T01:10:15Z</time>
      </trkpt>
      <trkpt lat="46.02719" lon="6.91335">
        <ele>1582.5</ele>
        <time>2010-01-01T01:10:17Z</time>
      </trkpt>
      <trkpt lat="46.02714" lon="6.91331">
        <ele>1583</ele>
        <time>2010-01-01T01:10:19Z</time>
      </trkpt>
      <trkpt lat="46.02709" lon="6.91326">
        <ele>1580.3</ele>
        <time>2010-01-01T01:10:21Z</time>
      </trkpt>
      <trkpt lat="46.02704" lon="6.91321">
        <ele>1579.1</ele>
        <time>2010-01-01T01:10:24Z</time>
      </trkpt>
      <trkpt lat="46.027" lon="6.91315">
        <ele>1578.2</ele>
        <time>2010-01-01T01:10:26Z</time>
      </trkpt>
      <trkpt lat="46.02695" lon="6.91308">
        <ele>1583</ele>
        <time>2010-01-01T01:10:29Z</time>
      </trkpt>
      <trkpt lat="46.0269" lon="6.91302">
        <ele>1575.7</ele>
        <time>2010-01-01T01:10:32Z</time>
      </trkpt>
      <trkpt lat="46.02686" lon="6.91297">
        <ele>1575</ele>
        <time>2010-01-01T01:10:34Z</time>
      </trkpt>
      <trkpt lat="46.02681" lon="6.91291">
        <ele>1574.1</ele>
        <time>2010-01-01T01:10:36Z</time>
      </trkpt>
      <trkpt lat="46.02678" lon="6.91285">
        <ele>1578</ele>
        <time>2010-01-01T01:10:38Z</time>
      </trkpt>
      <trkpt lat="46.02675" lon="6.91281">
        <ele>1573.6</ele>
        <time>2010-01-01T01:10:40Z</time>
      </trkpt>
      <trkpt lat="46.02671" lon="6.91275">
        <ele>1573.3</ele>
        <time>2010-01-01T01:10:42Z</time>
      </trkpt>
      <trkpt lat="46.02668" lon="6.9127">
        <ele>1573.2</ele>
        <time>2010-01-01T01:10:44Z</time>
      </trkpt>
      <trkpt lat="46.0267" lon="6.91258">
        <ele>1577</ele>
        <time>2010-01-01T01:10:48Z</time>
      </trkpt>
      <trkpt lat="46.02666" lon="6.91254">
        <ele>1575.9</ele>
        <time>2010-01-01T01:10:49Z</time>
      </trkpt>
      <trkpt lat="46.02663" lon="6.9125">
        <ele>1575.5</ele>
        <time>2010-01-01T01:10:51Z</time>
      </trkpt>
      <trkpt lat="46.0266" lon="6.91246">
        <ele>1575.2</ele>
        <time>2010-01-01T01:10:53Z</time>
      </trkpt>
      <trkpt lat="46.02656" lon="6.9124">
        <ele>1574.9</ele>
        <time>2010-01-01T01:10:55Z</time>
      </trkpt>
      <trkpt lat="46.02652" lon="6.91233">
        <ele>1576</ele>
        <time>2010-01-01T01:10:58Z</time>
      </trkpt>
      <trkpt lat="46.02648" lon="6.91228">
        <ele>1574.4</ele>
        <time>2010-01-01T01:11:00Z</time>
      </trkpt>
      <trkpt lat="46.02645" lon="6.91222">
        <ele>1574.5</ele>
        <time>2010-01-01T01:11:02Z</time>
      </trkpt>
      <trkpt lat="46.02641" lon="6.91216">
        <ele>1574.2</ele>
        <time>2010-01-01T01:11:04Z</time>
      </trkpt>
      <trkpt lat="46.02637" lon="6.91211">
        <ele>1569</ele>
        <time>2010-01-01T01:11:06Z</time>
      </trkpt>
      <trkpt lat="46.02634" lon="6.91204">
        <ele>1574.4</ele>
        <time>2010-01-01T01:11:08Z</time>
      </trkpt>
      <trkpt lat="46.02631" lon="6.91198">
        <ele>1574.7</ele>
        <time>2010-01-01T01:11:11Z</time>
      </trkpt>
      <trkpt lat="46.02627" lon="6.91193">
        <ele>1574.4</ele>
        <time>2010-01-01T01:11:13Z</time>
      </trkpt>
      <trkpt lat="46.02623" lon="6.91187">
        <ele>1569</ele>
        <time>2010-01-01T01:11:15Z</time>
      </trkpt>
      <trkpt lat="46.0262" lon="6.91184">
        <ele>1573.9</ele>
        <time>2010-01-01T01:11:16Z</time>
      </trkpt>
      <trkpt lat="46.02614" lon="6.9118">
        <ele>1572.6</ele>
        <time>2010-01-01T01:11:19Z</time>
      </trkpt>
      <trkpt lat="46.0261" lon="6.91177">
        <ele>1571.8</ele>
        <time>2010-01-01T01:11:21Z</time>
      </trkpt>
      <trkpt lat="46.02607" lon="6.91174">
        <ele>1571.6</ele>
        <time>2010-01-01T01:11:22Z</time>
      </trkpt>
      <trkpt lat="46.02604" lon="6.9117">
        <ele>1570.5</ele>
        <time>2010-01-01T01:11:24Z</time>
      </trkpt>
      <trkpt lat="46.02602" lon="6.91166">
        <ele>1571.8</ele>
        <time>2010-01-01T01:11:25Z</time>
      </trkpt>
      <trkpt lat="46.02599" lon="6.91162">
        <ele>1571.9</ele>
        <time>2010-01-01T01:11:27Z</time>
      </trkpt>
      <trkpt lat="46.02594" lon="6.91156">
        <ele>1571.8</ele>
        <time>2010-01-01T01:11:30Z</time>
      </trkpt>
      <trkpt lat="46.0259" lon="6.91152">
        <ele>1570.2</ele>
        <time>2010-01-01T01:11:32Z</time>
      </trkpt>
      <trkpt lat="46.02586" lon="6.91147">
        <ele>1571.3</ele>
        <time>2010-01-01T01:11:34Z</time>
      </trkpt>
      <trkpt lat="46.02583" lon="6.91141">
        <ele>1571.5</ele>
        <time>2010-01-01T01:11:36Z</time>
      </trkpt>
      <trkpt lat="46.0258" lon="6.91135">
        <ele>1572</ele>
        <time>2010-01-01T01:11:38Z</time>
      </trkpt>
      <trkpt lat="46.02575" lon="6.9113">
        <ele>1570</ele>
        <time>2010-01-01T01:11:40Z</time>
      </trkpt>
      <trkpt lat="46.02571" lon="6.91126">
        <ele>1571.5</ele>
        <time>2010-01-01T01:11:42Z</time>
      </trkpt>
      <trkpt lat="46.02567" lon="6.9112">
        <ele>1571.7</ele>
        <time>2010-01-01T01:11:44Z</time>
      </trkpt>
      <trkpt lat="46.02564" lon="6.91114">
        <ele>1572.1</ele>
        <time>2010-01-01T01:11:47Z</time>
      </trkpt>
      <trkpt lat="46.02562" lon="6.91108">
        <ele>1570</ele>
        <time>2010-01-01T01:11:48Z</time>
      </trkpt>
      <trkpt lat="46.0256" lon="6.91101">
        <ele>1572.7</ele>
        <time>2010-01-01T01:11:50Z</time>
      </trkpt>
      <trkpt lat="46.02558" lon="6.91093">
        <ele>1572.9</ele>
        <time>2010-01-01T01:11:53Z</time>
      </trkpt>
      <trkpt lat="46.02555" lon="6.91085">
        <ele>1572.6</ele>
        <time>2010-01-01T01:11:55Z</time>
      </trkpt>
      <trkpt lat="46.02553" lon="6.91078">
        <ele>1570.5</ele>
        <time>2010-01-01T01:11:57Z</time>
      </trkpt>
      <trkpt lat="46.02551" lon="6.9107">
        <ele>1573.8</ele>
        <time>2010-01-01T01:12:00Z</time>
      </trkpt>
      <trkpt lat="46.0255" lon="6.91064">
        <ele>1574.5</ele>
        <time>2010-01-01T01:12:02Z</time>
      </trkpt>
      <trkpt lat="46.02549" lon="6.91057">
        <ele>1575.4</ele>
        <time>2010-01-01T01:12:04Z</time>
      </trkpt>
      <trkpt lat="46.02546" lon="6.91051">
        <ele>1571</ele>
        <time>2010-01-01T01:12:06Z</time>
      </trkpt>
      <trkpt lat="46.02544" lon="6.91044">
        <ele>1575.1</ele>
        <time>2010-01-01T01:12:08Z</time>
      </trkpt>
      <trkpt lat="46.02543" lon="6.91037">
        <ele>1575.5</ele>
        <time>2010-01-01T01:12:10Z</time>
      </trkpt>
      <trkpt lat="46.02542" lon="6.91029">
        <ele>1576</ele>
        <time>2010-01-01T01:12:12Z</time>
      </trkpt>
      <trkpt lat="46.02541" lon="6.91022">
        <ele>1569.5</ele>
        <time>2010-01-01T01:12:14Z</time>
      </trkpt>
      <trkpt lat="46.02538" lon="6.91014">
        <ele>1576.2</ele>
        <time>2010-01-01T01:12:16Z</time>
      </trkpt>
      <trkpt lat="46.02537" lon="6.91007">
        <ele>1576.6</ele>
        <time>2010-01-01T01:12:18Z</time>
      </trkpt>
      <trkpt lat="46.02535" lon="6.91">
        <ele>1576.6</ele>
        <time>2010-01-01T01:12:21Z</time>
      </trkpt>
      <trkpt lat="46.02532" lon="6.90995">
        <ele>1570.2</ele>
        <time>2010-01-01T01:12:22Z</time>
      </trkpt>
      <trkpt lat="46.0253" lon="6.90988">
        <ele>1576.1</ele>
        <time>2010-01-01T01:12:24Z</time>
      </trkpt>
      <trkpt lat="46.02529" lon="6.90981">
        <ele>1576.5</ele>
        <time>2010-01-01T01:12:26Z</time>
      </trkpt>
      <trkpt lat="46.02527" lon="6.90973">
        <ele>1576.6</ele>
        <time>2010-01-01T01:12:29Z</time>
      </trkpt>
      <trkpt lat="46.02525" lon="6.90964">
        <ele>1571</ele>
        <time>2010-01-01T01:12:31Z</time>
      </trkpt>
      <trkpt lat="46.02522" lon="6.90956">
        <ele>1576.7</ele>
        <time>2010-01-01T01:12:34Z</time>
      </trkpt>
      <trkpt lat="46.0252" lon="6.90951">
        <ele>1576.5</ele>
        <time>2010-01-01T01:12:36Z</time>
      </trkpt>
      <trkpt lat="46.02519" lon="6.90944">
        <ele>1576.9</ele>
        <time>2010-01-01T01:12:38Z</time>
      </trkpt>
      <trkpt lat="46.02514" lon="6.90943">
        <ele>1569</ele>
        <time>2010-01-01T01:12:40Z</time>
      </trkpt>
      <trkpt lat="46.0251" lon="6.90938">
        <ele>1574.4</ele>
        <time>2010-01-01T01:12:42Z</time>
      </trkpt>
      <trkpt lat="46.02509" lon="6.90931">
        <ele>1575</ele>
        <time>2010-01-01T01:12:44Z</time>
      </trkpt>
      <trkpt lat="46.02506" lon="6.90926">
        <ele>1574.7</ele>
        <time>2010-01-01T01:12:46Z</time>
      </trkpt>
      <trkpt lat="46.02504" lon="6.90921">
        <ele>1569.5</ele>
        <time>2010-01-01T01:12:47Z</time>
      </trkpt>
      <trkpt lat="46.02501" lon="6.90914">
        <ele>1574.6</ele>
        <time>2010-01-01T01:12:49Z</time>
      </trkpt>
      <trkpt lat="46.02497" lon="6.90907">
        <ele>1574.1</ele>
        <time>2010-01-01T01:12:52Z</time>
      </trkpt>
      <trkpt lat="46.02495" lon="6.90903">
        <ele>1573.9</ele>
        <time>2010-01-01T01:12:53Z</time>
      </trkpt>
      <trkpt lat="46.02492" lon="6.90899">
        <ele>1570</ele>
        <time>2010-01-01T01:12:55Z</time>
      </trkpt>
      <trkpt lat="46.0249" lon="6.90895">
        <ele>1573.4</ele>
        <time>2010-01-01T01:12:56Z</time>
      </trkpt>
      <trkpt lat="46.02488" lon="6.9089">
        <ele>1573.4</ele>
        <time>2010-01-01T01:12:58Z</time>
      </trkpt>
      <trkpt lat="46.02484" lon="6.90886">
        <ele>1572.8</ele>
        <time>2010-01-01T01:13:00Z</time>
      </trkpt>
      <trkpt lat="46.02481" lon="6.9088">
        <ele>1572.8</ele>
        <time>2010-01-01T01:13:02Z</time>
      </trkpt>
      <trkpt lat="46.02478" lon="6.90875">
        <ele>1568</ele>
        <time>2010-01-01T01:13:04Z</time>
      </trkpt>
      <trkpt lat="46.02476" lon="6.90871">
        <ele>1572.7</ele>
        <time>2010-01-01T01:13:05Z</time>
      </trkpt>
      <trkpt lat="46.02473" lon="6.90866">
        <ele>1572.5</ele>
        <time>2010-01-01T01:13:07Z</time>
      </trkpt>
      <trkpt lat="46.0247" lon="6.90862">
        <ele>1572.3</ele>
        <time>2010-01-01T01:13:09Z</time>
      </trkpt>
      <trkpt lat="46.02466" lon="6.90855">
        <ele>1572.1</ele>
        <time>2010-01-01T01:13:11Z</time>
      </trkpt>
      <trkpt lat="46.02462" lon="6.90851">
        <ele>1568.5</ele>
        <time>2010-01-01T01:13:13Z</time>
      </trkpt>
      <trkpt lat="46.02457" lon="6.90842">
        <ele>1571.2</ele>
        <time>2010-01-01T01:13:16Z</time>
      </trkpt>
      <trkpt lat="46.02452" lon="6.90838">
        <ele>1570.4</ele>
        <time>2010-01-01T01:13:19Z</time>
      </trkpt>
      <trkpt lat="46.02448" lon="6.90834">
        <ele>1569.8</ele>
        <time>2010-01-01T01:13:21Z</time>
      </trkpt>
      <trkpt lat="46.02443" lon="6.90829">
        <ele>1567.2</ele>
        <time>2010-01-01T01:13:23Z</time>
      </trkpt>
      <trkpt lat="46.0244" lon="6.90826">
        <ele>1568.1</ele>
        <time>2010-01-01T01:13:24Z</time>
      </trkpt>
      <trkpt lat="46.02435" lon="6.90821">
        <ele>1567.1</ele>
        <time>2010-01-01T01:13:27Z</time>
      </trkpt>
      <trkpt lat="46.02431" lon="6.90814">
        <ele>1566.3</ele>
        <time>2010-01-01T01:13:29Z</time>
      </trkpt>
      <trkpt lat="46.02429" lon="6.90809">
        <ele>1566</ele>
        <time>2010-01-01T01:13:31Z</time>
      </trkpt>
      <trkpt lat="46.02426" lon="6.90802">
        <ele>1565.5</ele>
        <time>2010-01-01T01:13:33Z</time>
      </trkpt>
      <trkpt lat="46.02423" lon="6.90795">
        <ele>1565</ele>
        <time>2010-01-01T01:13:36Z</time>
      </trkpt>
      <trkpt lat="46.02421" lon="6.90787">
        <ele>1564.8</ele>
        <time>2010-01-01T01:13:38Z</time>
      </trkpt>
      <trkpt lat="46.02417" lon="6.9078">
        <ele>1565</ele>
        <time>2010-01-01T01:13:40Z</time>
      </trkpt>
      <trkpt lat="46.02415" lon="6.90772">
        <ele>1563.7</ele>
        <time>2010-01-01T01:13:43Z</time>
      </trkpt>
      <trkpt lat="46.02414" lon="6.90765">
        <ele>1563.5</ele>
        <time>2010-01-01T01:13:45Z</time>
      </trkpt>
      <trkpt lat="46.02416" lon="6.9076">
        <ele>1563.9</ele>
        <time>2010-01-01T01:13:46Z</time>
      </trkpt>
      <trkpt lat="46.02419" lon="6.90751">
        <ele>1565</ele>
        <time>2010-01-01T01:13:49Z</time>
      </trkpt>
      <trkpt lat="46.02419" lon="6.90745">
        <ele>1565</ele>
        <time>2010-01-01T01:13:51Z</time>
      </trkpt>
      <trkpt lat="46.02421" lon="6.90738">
        <ele>1566.1</ele>
        <time>2010-01-01T01:13:53Z</time>
      </trkpt>
      <trkpt lat="46.0242" lon="6.90731">
        <ele>1566.3</ele>
        <time>2010-01-01T01:13:55Z</time>
      </trkpt>
      <trkpt lat="46.02419" lon="6.90726">
        <ele>1566.4</ele>
        <time>2010-01-01T01:13:56Z</time>
      </trkpt>
      <trkpt lat="46.02418" lon="6.90718">
        <ele>1565</ele>
        <time>2010-01-01T01:13:59Z</time>
      </trkpt>
      <trkpt lat="46.02416" lon="6.90713">
        <ele>1567.2</ele>
        <time>2010-01-01T01:14:00Z</time>
      </trkpt>
      <trkpt lat="46.02413" lon="6.90708">
        <ele>1567.4</ele>
        <time>2010-01-01T01:14:02Z</time>
      </trkpt>
      <trkpt lat="46.02408" lon="6.90706">
        <ele>1566.8</ele>
        <time>2010-01-01T01:14:04Z</time>
      </trkpt>
      <trkpt lat="46.02403" lon="6.90709">
        <ele>1563.5</ele>
        <time>2010-01-01T01:14:06Z</time>
      </trkpt>
      <trkpt lat="46.02398" lon="6.9071">
        <ele>1564.4</ele>
        <time>2010-01-01T01:14:08Z</time>
      </trkpt>
      <trkpt lat="46.02393" lon="6.90711">
        <ele>1563.4</ele>
        <time>2010-01-01T01:14:10Z</time>
      </trkpt>
      <trkpt lat="46.02388" lon="6.90712">
        <ele>1562.4</ele>
        <time>2010-01-01T01:14:12Z</time>
      </trkpt>
      <trkpt lat="46.02383" lon="6.90714">
        <ele>1562</ele>
        <time>2010-01-01T01:14:14Z</time>
      </trkpt>
      <trkpt lat="46.02378" lon="6.90715">
        <ele>1560.9</ele>
        <time>2010-01-01T01:14:16Z</time>
      </trkpt>
      <trkpt lat="46.02374" lon="6.90714">
        <ele>1560.6</ele>
        <time>2010-01-01T01:14:18Z</time>
      </trkpt>
      <trkpt lat="46.0237" lon="6.90713">
        <ele>1560.3</ele>
        <time>2010-01-01T01:14:20Z</time>
      </trkpt>
      <trkpt lat="46.02365" lon="6.90709">
        <ele>1560.3</ele>
        <time>2010-01-01T01:14:22Z</time>
      </trkpt>
      <trkpt lat="46.0236" lon="6.90705">
        <ele>1562</ele>
        <time>2010-01-01T01:14:24Z</time>
      </trkpt>
      <trkpt lat="46.02356" lon="6.90702">
        <ele>1560.1</ele>
        <time>2010-01-01T01:14:26Z</time>
      </trkpt>
      <trkpt lat="46.02352" lon="6.907">
        <ele>1559.7</ele>
        <time>2010-01-01T01:14:28Z</time>
      </trkpt>
      <trkpt lat="46.02348" lon="6.907">
        <ele>1559</ele>
        <time>2010-01-01T01:14:29Z</time>
      </trkpt>
      <trkpt lat="46.02343" lon="6.90697">
        <ele>1558.5</ele>
        <time>2010-01-01T01:14:32Z</time>
      </trkpt>
      <trkpt lat="46.02338" lon="6.90692">
        <ele>1560</ele>
        <time>2010-01-01T01:14:34Z</time>
      </trkpt>
      <trkpt lat="46.02332" lon="6.9069">
        <ele>1557.2</ele>
        <time>2010-01-01T01:14:36Z</time>
      </trkpt>
      <trkpt lat="46.02326" lon="6.90688">
        <ele>1556.3</ele>
        <time>2010-01-01T01:14:39Z</time>
      </trkpt>
      <trkpt lat="46.0232" lon="6.90684">
        <ele>1556</ele>
        <time>2010-01-01T01:14:42Z</time>
      </trkpt>
      <trkpt lat="46.02315" lon="6.90678">
        <ele>1555.1</ele>
        <time>2010-01-01T01:14:44Z</time>
      </trkpt>
      <trkpt lat="46.0231" lon="6.90675">
        <ele>1554.3</ele>
        <time>2010-01-01T01:14:46Z</time>
      </trkpt>
      <trkpt lat="46.02304" lon="6.90672">
        <ele>1553.4</ele>
        <time>2010-01-01T01:14:49Z</time>
      </trkpt>
      <trkpt lat="46.02301" lon="6.90667">
        <ele>1556</ele>
        <time>2010-01-01T01:14:51Z</time>
      </trkpt>
      <trkpt lat="46.02298" lon="6.9066">
        <ele>1553.6</ele>
        <time>2010-01-01T01:14:53Z</time>
      </trkpt>
      <trkpt lat="46.02294" lon="6.90658">
        <ele>1553.3</ele>
        <time>2010-01-01T01:14:55Z</time>
      </trkpt>
      <trkpt lat="46.02288" lon="6.90655">
        <ele>1552.7</ele>
        <time>2010-01-01T01:14:57Z</time>
      </trkpt>
      <trkpt lat="46.02281" lon="6.90654">
        <ele>1555</ele>
        <time>2010-01-01T01:15:00Z</time>
      </trkpt>
      <trkpt lat="46.02276" lon="6.90655">
        <ele>1551.1</ele>
        <time>2010-01-01T01:15:02Z</time>
      </trkpt>
      <trkpt lat="46.02271" lon="6.90653">
        <ele>1550.9</ele>
        <time>2010-01-01T01:15:04Z</time>
      </trkpt>
      <trkpt lat="46.02267" lon="6.9065">
        <ele>1550.8</ele>
        <time>2010-01-01T01:15:06Z</time>
      </trkpt>
      <trkpt lat="46.02264" lon="6.90647">
        <ele>1554</ele>
        <time>2010-01-01T01:15:07Z</time>
      </trkpt>
      <trkpt lat="46.02258" lon="6.90645">
        <ele>1550.4</ele>
        <time>2010-01-01T01:15:10Z</time>
      </trkpt>
      <trkpt lat="46.02253" lon="6.90645">
        <ele>1549.9</ele>
        <time>2010-01-01T01:15:12Z</time>
      </trkpt>
      <trkpt lat="46.02248" lon="6.90643">
        <ele>1549.8</ele>
        <time>2010-01-01T01:15:14Z</time>
      </trkpt>
      <trkpt lat="46.02243" lon="6.90644">
        <ele>1554</ele>
        <time>2010-01-01T01:15:16Z</time>
      </trkpt>
      <trkpt lat="46.02238" lon="6.90645">
        <ele>1549.9</ele>
        <time>2010-01-01T01:15:18Z</time>
      </trkpt>
      <trkpt lat="46.02234" lon="6.90648">
        <ele>1549.7</ele>
        <time>2010-01-01T01:15:20Z</time>
      </trkpt>
      <trkpt lat="46.0223" lon="6.90654">
        <ele>1549.2</ele>
        <time>2010-01-01T01:15:22Z</time>
      </trkpt>
      <trkpt lat="46.02228" lon="6.90659">
        <ele>1554</ele>
        <time>2010-01-01T01:15:24Z</time>
      </trkpt>
      <trkpt lat="46.02226" lon="6.90667">
        <ele>1548</ele>
        <time>2010-01-01T01:15:26Z</time>
      </trkpt>
      <trkpt lat="46.02224" lon="6.90673">
        <ele>1547.5</ele>
        <time>2010-01-01T01:15:28Z</time>
      </trkpt>
      <trkpt lat="46.02221" lon="6.9068">
        <ele>1547.1</ele>
        <time>2010-01-01T01:15:30Z</time>
      </trkpt>
      <trkpt lat="46.02217" lon="6.90685">
        <ele>1553</ele>
        <time>2010-01-01T01:15:32Z</time>
      </trkpt>
      <trkpt lat="46.02213" lon="6.90691">
        <ele>1546.3</ele>
        <time>2010-01-01T01:15:35Z</time>
      </trkpt>
      <trkpt lat="46.02209" lon="6.90697">
        <ele>1545.9</ele>
        <time>2010-01-01T01:15:37Z</time>
      </trkpt>
      <trkpt lat="46.02205" lon="6.90703">
        <ele>1545.7</ele>
        <time>2010-01-01T01:15:39Z</time>
      </trkpt>
      <trkpt lat="46.02203" lon="6.90709">
        <ele>1552</ele>
        <time>2010-01-01T01:15:41Z</time>
      </trkpt>
      <trkpt lat="46.02203" lon="6.90716">
        <ele>1545.2</ele>
        <time>2010-01-01T01:15:43Z</time>
      </trkpt>
      <trkpt lat="46.02202" lon="6.90726">
        <ele>1544.9</ele>
        <time>2010-01-01T01:15:46Z</time>
      </trkpt>
      <trkpt lat="46.02203" lon="6.90734">
        <ele>1544.6</ele>
        <time>2010-01-01T01:15:48Z</time>
      </trkpt>
      <trkpt lat="46.02204" lon="6.90742">
        <ele>1550</ele>
        <time>2010-01-01T01:15:50Z</time>
      </trkpt>
      <trkpt lat="46.02203" lon="6.9075">
        <ele>1544</ele>
        <time>2010-01-01T01:15:53Z</time>
      </trkpt>
      <trkpt lat="46.02201" lon="6.90757">
        <ele>1544</ele>
        <time>2010-01-01T01:15:55Z</time>
      </trkpt>
      <trkpt lat="46.02196" lon="6.90765">
        <ele>1544</ele>
        <time>2010-01-01T01:15:58Z</time>
      </trkpt>
      <trkpt lat="46.02191" lon="6.90772">
        <ele>1550</ele>
        <time>2010-01-01T01:16:01Z</time>
      </trkpt>
      <trkpt lat="46.02185" lon="6.90777">
        <ele>1544.3</ele>
        <time>2010-01-01T01:16:03Z</time>
      </trkpt>
      <trkpt lat="46.0218" lon="6.90781">
        <ele>1544.5</ele>
        <time>2010-01-01T01:16:06Z</time>
      </trkpt>
      <trkpt lat="46.02175" lon="6.9078">
        <ele>1544.7</ele>
        <time>2010-01-01T01:16:08Z</time>
      </trkpt>
      <trkpt lat="46.0217" lon="6.90778">
        <ele>1548</ele>
        <time>2010-01-01T01:16:10Z</time>
      </trkpt>
      <trkpt lat="46.02165" lon="6.90779">
        <ele>1544.9</ele>
        <time>2010-01-01T01:16:12Z</time>
      </trkpt>
      <trkpt lat="46.02161" lon="6.90781">
        <ele>1544.8</ele>
        <time>2010-01-01T01:16:13Z</time>
      </trkpt>
      <trkpt lat="46.02156" lon="6.90782">
        <ele>1544.6</ele>
        <time>2010-01-01T01:16:15Z</time>
      </trkpt>
      <trkpt lat="46.02152" lon="6.90784">
        <ele>1546</ele>
        <time>2010-01-01T01:16:17Z</time>
      </trkpt>
      <trkpt lat="46.02147" lon="6.90785">
        <ele>1544.1</ele>
        <time>2010-01-01T01:16:19Z</time>
      </trkpt>
      <trkpt lat="46.02143" lon="6.90787">
        <ele>1543.9</ele>
        <time>2010-01-01T01:16:21Z</time>
      </trkpt>
      <trkpt lat="46.02136" lon="6.90792">
        <ele>1542.9</ele>
        <time>2010-01-01T01:16:24Z</time>
      </trkpt>
      <trkpt lat="46.02131" lon="6.90795">
        <ele>1542</ele>
        <time>2010-01-01T01:16:26Z</time>
      </trkpt>
      <trkpt lat="46.02129" lon="6.90799">
        <ele>1541.4</ele>
        <time>2010-01-01T01:16:28Z</time>
      </trkpt>
      <trkpt lat="46.02126" lon="6.90805">
        <ele>1540.7</ele>
        <time>2010-01-01T01:16:30Z</time>
      </trkpt>
      <trkpt lat="46.02121" lon="6.9081">
        <ele>1539.9</ele>
        <time>2010-01-01T01:16:32Z</time>
      </trkpt>
      <trkpt lat="46.02118" lon="6.90815">
        <ele>1540</ele>
        <time>2010-01-01T01:16:34Z</time>
      </trkpt>
      <trkpt lat="46.02116" lon="6.90821">
        <ele>1539.3</ele>
        <time>2010-01-01T01:16:36Z</time>
      </trkpt>
      <trkpt lat="46.02115" lon="6.90827">
        <ele>1539.4</ele>
        <time>2010-01-01T01:16:37Z</time>
      </trkpt>
      <trkpt lat="46.02113" lon="6.90834">
        <ele>1539.3</ele>
        <time>2010-01-01T01:16:40Z</time>
      </trkpt>
      <trkpt lat="46.02111" lon="6.90841">
        <ele>1535</ele>
        <time>2010-01-01T01:16:42Z</time>
      </trkpt>
      <trkpt lat="46.02108" lon="6.90847">
        <ele>1538.8</ele>
        <time>2010-01-01T01:16:44Z</time>
      </trkpt>
      <trkpt lat="46.02108" lon="6.90853">
        <ele>1539</ele>
        <time>2010-01-01T01:16:45Z</time>
      </trkpt>
      <trkpt lat="46.02106" lon="6.90861">
        <ele>1538.9</ele>
        <time>2010-01-01T01:16:48Z</time>
      </trkpt>
      <trkpt lat="46.02103" lon="6.90866">
        <ele>1533</ele>
        <time>2010-01-01T01:16:50Z</time>
      </trkpt>
      <trkpt lat="46.02102" lon="6.90873">
        <ele>1537.5</ele>
        <time>2010-01-01T01:16:52Z</time>
      </trkpt>
      <trkpt lat="46.02099" lon="6.90879">
        <ele>1536.7</ele>
        <time>2010-01-01T01:16:54Z</time>
      </trkpt>
      <trkpt lat="46.02097" lon="6.90886">
        <ele>1536.1</ele>
        <time>2010-01-01T01:16:56Z</time>
      </trkpt>
      <trkpt lat="46.02094" lon="6.90894">
        <ele>1531</ele>
        <time>2010-01-01T01:16:58Z</time>
      </trkpt>
      <trkpt lat="46.0209" lon="6.90897">
        <ele>1534.3</ele>
        <time>2010-01-01T01:17:00Z</time>
      </trkpt>
      <trkpt lat="46.02084" lon="6.90899">
        <ele>1533.4</ele>
        <time>2010-01-01T01:17:03Z</time>
      </trkpt>
      <trkpt lat="46.02081" lon="6.90894">
        <ele>1533</ele>
        <time>2010-01-01T01:17:04Z</time>
      </trkpt>
      <trkpt lat="46.02079" lon="6.90887">
        <ele>1523</ele>
        <time>2010-01-01T01:17:06Z</time>
      </trkpt>
      <trkpt lat="46.02077" lon="6.90881">
        <ele>1532.4</ele>
        <time>2010-01-01T01:17:08Z</time>
      </trkpt>
      <trkpt lat="46.02076" lon="6.90876">
        <ele>1532.2</ele>
        <time>2010-01-01T01:17:10Z</time>
      </trkpt>
      <trkpt lat="46.02076" lon="6.90869">
        <ele>1532.2</ele>
        <time>2010-01-01T01:17:12Z</time>
      </trkpt>
      <trkpt lat="46.02075" lon="6.90862">
        <ele>1531.9</ele>
        <time>2010-01-01T01:17:14Z</time>
      </trkpt>
      <trkpt lat="46.02073" lon="6.90854">
        <ele>1523</ele>
        <time>2010-01-01T01:17:16Z</time>
      </trkpt>
      <trkpt lat="46.02073" lon="6.90844">
        <ele>1529.9</ele>
        <time>2010-01-01T01:17:19Z</time>
      </trkpt>
      <trkpt lat="46.02074" lon="6.90834">
        <ele>1529.4</ele>
        <time>2010-01-01T01:17:22Z</time>
      </trkpt>
      <trkpt lat="46.02075" lon="6.90826">
        <ele>1525</ele>
        <time>2010-01-01T01:17:24Z</time>
      </trkpt>
      <trkpt lat="46.02076" lon="6.90818">
        <ele>1528.6</ele>
        <time>2010-01-01T01:17:26Z</time>
      </trkpt>
      <trkpt lat="46.02076" lon="6.90811">
        <ele>1528.1</ele>
        <time>2010-01-01T01:17:28Z</time>
      </trkpt>
      <trkpt lat="46.02074" lon="6.90806">
        <ele>1527</ele>
        <time>2010-01-01T01:17:30Z</time>
      </trkpt>
      <trkpt lat="46.0207" lon="6.90801">
        <ele>1527</ele>
        <time>2010-01-01T01:17:32Z</time>
      </trkpt>
      <trkpt lat="46.02068" lon="6.90793">
        <ele>1525.3</ele>
        <time>2010-01-01T01:17:34Z</time>
      </trkpt>
      <trkpt lat="46.02067" lon="6.90784">
        <ele>1525.2</ele>
        <time>2010-01-01T01:17:37Z</time>
      </trkpt>
      <trkpt lat="46.02064" lon="6.90775">
        <ele>1524.6</ele>
        <time>2010-01-01T01:17:40Z</time>
      </trkpt>
      <trkpt lat="46.02062" lon="6.90768">
        <ele>1525.5</ele>
        <time>2010-01-01T01:17:42Z</time>
      </trkpt>
      <trkpt lat="46.02059" lon="6.9076">
        <ele>1524.1</ele>
        <time>2010-01-01T01:17:44Z</time>
      </trkpt>
      <trkpt lat="46.02056" lon="6.90754">
        <ele>1523.8</ele>
        <time>2010-01-01T01:17:46Z</time>
      </trkpt>
      <trkpt lat="46.02053" lon="6.90748">
        <ele>1523.4</ele>
        <time>2010-01-01T01:17:48Z</time>
      </trkpt>
      <trkpt lat="46.02052" lon="6.90741">
        <ele>1525.7</ele>
        <time>2010-01-01T01:17:50Z</time>
      </trkpt>
      <trkpt lat="46.02049" lon="6.90735">
        <ele>1523.6</ele>
        <time>2010-01-01T01:17:52Z</time>
      </trkpt>
      <trkpt lat="46.02047" lon="6.90725">
        <ele>1524.2</ele>
        <time>2010-01-01T01:17:55Z</time>
      </trkpt>
      <trkpt lat="46.02044" lon="6.90717">
        <ele>1524.3</ele>
        <time>2010-01-01T01:17:58Z</time>
      </trkpt>
      <trkpt lat="46.02042" lon="6.9071">
        <ele>1526</ele>
        <time>2010-01-01T01:18:00Z</time>
      </trkpt>
      <trkpt lat="46.0204" lon="6.90705">
        <ele>1524.7</ele>
        <time>2010-01-01T01:18:01Z</time>
      </trkpt>
      <trkpt lat="46.02034" lon="6.90704">
        <ele>1523.3</ele>
        <time>2010-01-01T01:18:04Z</time>
      </trkpt>
      <trkpt lat="46.02028" lon="6.90704">
        <ele>1521.7</ele>
        <time>2010-01-01T01:18:06Z</time>
      </trkpt>
      <trkpt lat="46.02024" lon="6.90701">
        <ele>1526</ele>
        <time>2010-01-01T01:18:08Z</time>
      </trkpt>
      <trkpt lat="46.0202" lon="6.90695">
        <ele>1520.1</ele>
        <time>2010-01-01T01:18:10Z</time>
      </trkpt>
      <trkpt lat="46.02015" lon="6.90691">
        <ele>1519.1</ele>
        <time>2010-01-01T01:18:13Z</time>
      </trkpt>
      <trkpt lat="46.02011" lon="6.90687">
        <ele>1518.6</ele>
        <time>2010-01-01T01:18:15Z</time>
      </trkpt>
      <trkpt lat="46.02007" lon="6.90686">
        <ele>1526</ele>
        <time>2010-01-01T01:18:16Z</time>
      </trkpt>
      <trkpt lat="46.02003" lon="6.90683">
        <ele>1516.9</ele>
        <time>2010-01-01T01:18:18Z</time>
      </trkpt>
      <trkpt lat="46.01999" lon="6.90678">
        <ele>1516.8</ele>
        <time>2010-01-01T01:18:20Z</time>
      </trkpt>
      <trkpt lat="46.01996" lon="6.90672">
        <ele>1517.2</ele>
        <time>2010-01-01T01:18:22Z</time>
      </trkpt>
      <trkpt lat="46.01992" lon="6.90665">
        <ele>1525</ele>
        <time>2010-01-01T01:18:25Z</time>
      </trkpt>
      <trkpt lat="46.01989" lon="6.90659">
        <ele>1518.5</ele>
        <time>2010-01-01T01:18:27Z</time>
      </trkpt>
      <trkpt lat="46.01985" lon="6.90659">
        <ele>1517.1</ele>
        <time>2010-01-01T01:18:28Z</time>
      </trkpt>
      <trkpt lat="46.01981" lon="6.90666">
        <ele>1513.4</ele>
        <time>2010-01-01T01:18:31Z</time>
      </trkpt>
      <trkpt lat="46.01975" lon="6.90671">
        <ele>1524</ele>
        <time>2010-01-01T01:18:34Z</time>
      </trkpt>
      <trkpt lat="46.01971" lon="6.9067">
        <ele>1508.3</ele>
        <time>2010-01-01T01:18:35Z</time>
      </trkpt>
      <trkpt lat="46.01967" lon="6.90664">
        <ele>1508.2</ele>
        <time>2010-01-01T01:18:38Z</time>
      </trkpt>
      <trkpt lat="46.01964" lon="6.90657">
        <ele>1509</ele>
        <time>2010-01-01T01:18:40Z</time>
      </trkpt>
      <trkpt lat="46.01961" lon="6.90651">
        <ele>1524</ele>
        <time>2010-01-01T01:18:42Z</time>
      </trkpt>
      <trkpt lat="46.01957" lon="6.90645">
        <ele>1509.3</ele>
        <time>2010-01-01T01:18:44Z</time>
      </trkpt>
      <trkpt lat="46.01953" lon="6.90641">
        <ele>1508.6</ele>
        <time>2010-01-01T01:18:46Z</time>
      </trkpt>
      <trkpt lat="46.01949" lon="6.90634">
        <ele>1508.9</ele>
        <time>2010-01-01T01:18:49Z</time>
      </trkpt>
      <trkpt lat="46.01944" lon="6.90628">
        <ele>1524</ele>
        <time>2010-01-01T01:18:51Z</time>
      </trkpt>
      <trkpt lat="46.01941" lon="6.90622">
        <ele>1508.1</ele>
        <time>2010-01-01T01:18:53Z</time>
      </trkpt>
      <trkpt lat="46.01936" lon="6.90619">
        <ele>1505.6</ele>
        <time>2010-01-01T01:18:56Z</time>
      </trkpt>
      <trkpt lat="46.01931" lon="6.90618">
        <ele>1502.4</ele>
        <time>2010-01-01T01:18:58Z</time>
      </trkpt>
      <trkpt lat="46.01927" lon="6.90612">
        <ele>1520</ele>
        <time>2010-01-01T01:19:00Z</time>
      </trkpt>
      <trkpt lat="46.01923" lon="6.90605">
        <ele>1500</ele>
        <time>2010-01-01T01:19:02Z</time>
      </trkpt>
      <trkpt lat="46.0192" lon="6.90598">
        <ele>1499.4</ele>
        <time>2010-01-01T01:19:05Z</time>
      </trkpt>
      <trkpt lat="46.01918" lon="6.90592">
        <ele>1499.2</ele>
        <time>2010-01-01T01:19:07Z</time>
      </trkpt>
      <trkpt lat="46.01915" lon="6.90585">
        <ele>1520</ele>
        <time>2010-01-01T01:19:09Z</time>
      </trkpt>
      <trkpt lat="46.01912" lon="6.90579">
        <ele>1499.1</ele>
        <time>2010-01-01T01:19:11Z</time>
      </trkpt>
      <trkpt lat="46.0191" lon="6.90571">
        <ele>1500.1</ele>
        <time>2010-01-01T01:19:13Z</time>
      </trkpt>
      <trkpt lat="46.01907" lon="6.90564">
        <ele>1500.2</ele>
        <time>2010-01-01T01:19:16Z</time>
      </trkpt>
      <trkpt lat="46.01906" lon="6.90556">
        <ele>1525</ele>
        <time>2010-01-01T01:19:18Z</time>
      </trkpt>
      <trkpt lat="46.01903" lon="6.9055">
        <ele>1501</ele>
        <time>2010-01-01T01:19:20Z</time>
      </trkpt>
      <trkpt lat="46.01902" lon="6.90544">
        <ele>1501.9</ele>
        <time>2010-01-01T01:19:22Z</time>
      </trkpt>
      <trkpt lat="46.01899" lon="6.90537">
        <ele>1501.3</ele>
        <time>2010-01-01T01:19:24Z</time>
      </trkpt>
      <trkpt lat="46.01896" lon="6.9053">
        <ele>1527</ele>
        <time>2010-01-01T01:19:26Z</time>
      </trkpt>
      <trkpt lat="46.01895" lon="6.90522">
        <ele>1501.2</ele>
        <time>2010-01-01T01:19:28Z</time>
      </trkpt>
      <trkpt lat="46.01893" lon="6.90513">
        <ele>1501.1</ele>
        <time>2010-01-01T01:19:31Z</time>
      </trkpt>
      <trkpt lat="46.01892" lon="6.90504">
        <ele>1501.7</ele>
        <time>2010-01-01T01:19:34Z</time>
      </trkpt>
      <trkpt lat="46.0189" lon="6.90495">
        <ele>1529</ele>
        <time>2010-01-01T01:19:36Z</time>
      </trkpt>
      <trkpt lat="46.01887" lon="6.90489">
        <ele>1500.2</ele>
        <time>2010-01-01T01:19:38Z</time>
      </trkpt>
      <trkpt lat="46.01885" lon="6.90481">
        <ele>1500.6</ele>
        <time>2010-01-01T01:19:41Z</time>
      </trkpt>
      <trkpt lat="46.01879" lon="6.90477">
        <ele>1499.1</ele>
        <time>2010-01-01T01:19:43Z</time>
      </trkpt>
      <trkpt lat="46.01875" lon="6.90475">
        <ele>1529.5</ele>
        <time>2010-01-01T01:19:45Z</time>
      </trkpt>
      <trkpt lat="46.01873" lon="6.90466">
        <ele>1498.1</ele>
        <time>2010-01-01T01:19:48Z</time>
      </trkpt>
      <trkpt lat="46.01871" lon="6.90459">
        <ele>1498.1</ele>
        <time>2010-01-01T01:19:50Z</time>
      </trkpt>
      <trkpt lat="46.01867" lon="6.90454">
        <ele>1496.6</ele>
        <time>2010-01-01T01:19:52Z</time>
      </trkpt>
      <trkpt lat="46.01864" lon="6.9045">
        <ele>1530</ele>
        <time>2010-01-01T01:19:53Z</time>
      </trkpt>
      <trkpt lat="46.01862" lon="6.90445">
        <ele>1494.5</ele>
        <time>2010-01-01T01:19:55Z</time>
      </trkpt>
      <trkpt lat="46.01858" lon="6.90438">
        <ele>1496.2</ele>
        <time>2010-01-01T01:19:58Z</time>
      </trkpt>
      <trkpt lat="46.01854" lon="6.90434">
        <ele>1498.5</ele>
        <time>2010-01-01T01:20:00Z</time>
      </trkpt>
      <trkpt lat="46.01851" lon="6.90426">
        <ele>1533</ele>
        <time>2010-01-01T01:20:02Z</time>
      </trkpt>
      <trkpt lat="46.0185" lon="6.90416">
        <ele>1499.6</ele>
        <time>2010-01-01T01:20:05Z</time>
      </trkpt>
      <trkpt lat="46.0185" lon="6.90408">
        <ele>1499.8</ele>
        <time>2010-01-01T01:20:07Z</time>
      </trkpt>
      <trkpt lat="46.01851" lon="6.90402">
        <ele>1499.9</ele>
        <time>2010-01-01T01:20:09Z</time>
      </trkpt>
      <trkpt lat="46.01853" lon="6.90395">
        <ele>1535</ele>
        <time>2010-01-01T01:20:11Z</time>
      </trkpt>
      <trkpt lat="46.01853" lon="6.90388">
        <ele>1500.4</ele>
        <time>2010-01-01T01:20:13Z</time>
      </trkpt>
      <trkpt lat="46.01854" lon="6.90378">
        <ele>1501.5</ele>
        <time>2010-01-01T01:20:16Z</time>
      </trkpt>
      <trkpt lat="46.01854" lon="6.9037">
        <ele>1502.5</ele>
        <time>2010-01-01T01:20:18Z</time>
      </trkpt>
      <trkpt lat="46.01853" lon="6.90363">
        <ele>1535</ele>
        <time>2010-01-01T01:20:20Z</time>
      </trkpt>
      <trkpt lat="46.01853" lon="6.90355">
        <ele>1503.9</ele>
        <time>2010-01-01T01:20:22Z</time>
      </trkpt>
      <trkpt lat="46.01852" lon="6.90348">
        <ele>1504.3</ele>
        <time>2010-01-01T01:20:24Z</time>
      </trkpt>
      <trkpt lat="46.01853" lon="6.90342">
        <ele>1504.9</ele>
        <time>2010-01-01T01:20:26Z</time>
      </trkpt>
      <trkpt lat="46.01853" lon="6.90334">
        <ele>1535</ele>
        <time>2010-01-01T01:20:28Z</time>
      </trkpt>
      <trkpt lat="46.01854" lon="6.90327">
        <ele>1506.5</ele>
        <time>2010-01-01T01:20:30Z</time>
      </trkpt>
      <trkpt lat="46.01854" lon="6.9032">
        <ele>1507.3</ele>
        <time>2010-01-01T01:20:32Z</time>
      </trkpt>
      <trkpt lat="46.01855" lon="6.90314">
        <ele>1508.2</ele>
        <time>2010-01-01T01:20:34Z</time>
      </trkpt>
      <trkpt lat="46.01856" lon="6.90309">
        <ele>1509.1</ele>
        <time>2010-01-01T01:20:35Z</time>
      </trkpt>
      <trkpt lat="46.01859" lon="6.90305">
        <ele>1536</ele>
        <time>2010-01-01T01:20:37Z</time>
      </trkpt>
      <trkpt lat="46.01854" lon="6.903">
        <ele>1509.4</ele>
        <time>2010-01-01T01:20:39Z</time>
      </trkpt>
      <trkpt lat="46.01851" lon="6.90297">
        <ele>1508.7</ele>
        <time>2010-01-01T01:20:41Z</time>
      </trkpt>
      <trkpt lat="46.01846" lon="6.90292">
        <ele>1507.6</ele>
        <time>2010-01-01T01:20:43Z</time>
      </trkpt>
      <trkpt lat="46.01847" lon="6.90301">
        <ele>1535.5</ele>
        <time>2010-01-01T01:20:46Z</time>
      </trkpt>
      <trkpt lat="46.01843" lon="6.90306">
        <ele>1505.8</ele>
        <time>2010-01-01T01:20:48Z</time>
      </trkpt>
      <trkpt lat="46.01837" lon="6.90305">
        <ele>1504.1</ele>
        <time>2010-01-01T01:20:50Z</time>
      </trkpt>
      <trkpt lat="46.01833" lon="6.90306">
        <ele>1503.2</ele>
        <time>2010-01-01T01:20:52Z</time>
      </trkpt>
      <trkpt lat="46.01829" lon="6.90305">
        <ele>1535</ele>
        <time>2010-01-01T01:20:53Z</time>
      </trkpt>
      <trkpt lat="46.01825" lon="6.90303">
        <ele>1509.7</ele>
        <time>2010-01-01T01:20:55Z</time>
      </trkpt>
      <trkpt lat="46.01826" lon="6.90297">
        <ele>1509.2</ele>
        <time>2010-01-01T01:20:57Z</time>
      </trkpt>
      <trkpt lat="46.01823" lon="6.90301">
        <ele>1511.3</ele>
        <time>2010-01-01T01:20:58Z</time>
      </trkpt>
      <trkpt lat="46.01822" lon="6.90306">
        <ele>1512</ele>
        <time>2010-01-01T01:21:00Z</time>
      </trkpt>
      <trkpt lat="46.01819" lon="6.90314">
        <ele>1535</ele>
        <time>2010-01-01T01:21:02Z</time>
      </trkpt>
      <trkpt lat="46.01821" lon="6.90322">
        <ele>1512.7</ele>
        <time>2010-01-01T01:21:05Z</time>
      </trkpt>
      <trkpt lat="46.01822" lon="6.90332">
        <ele>1511.8</ele>
        <time>2010-01-01T01:21:08Z</time>
      </trkpt>
      <trkpt lat="46.01823" lon="6.90341">
        <ele>1535</ele>
        <time>2010-01-01T01:21:10Z</time>
      </trkpt>
      <trkpt lat="46.01824" lon="6.90352">
        <ele>1511</ele>
        <time>2010-01-01T01:21:13Z</time>
      </trkpt>
      <trkpt lat="46.01824" lon="6.90358">
        <ele>1511.3</ele>
        <time>2010-01-01T01:21:15Z</time>
      </trkpt>
      <trkpt lat="46.01825" lon="6.90363">
        <ele>1510.5</ele>
        <time>2010-01-01T01:21:16Z</time>
      </trkpt>
      <trkpt lat="46.01827" lon="6.9037">
        <ele>1534</ele>
        <time>2010-01-01T01:21:18Z</time>
      </trkpt>
      <trkpt lat="46.01831" lon="6.90376">
        <ele>1504.1</ele>
        <time>2010-01-01T01:21:21Z</time>
      </trkpt>
      <trkpt lat="46.01836" lon="6.90383">
        <ele>1501.2</ele>
        <time>2010-01-01T01:21:24Z</time>
      </trkpt>
      <trkpt lat="46.01839" lon="6.90387">
        <ele>1500.9</ele>
        <time>2010-01-01T01:21:25Z</time>
      </trkpt>
      <trkpt lat="46.01839" lon="6.90395">
        <ele>1534</ele>
        <time>2010-01-01T01:21:27Z</time>
      </trkpt>
      <trkpt lat="46.01837" lon="6.90405">
        <ele>1502.6</ele>
        <time>2010-01-01T01:21:30Z</time>
      </trkpt>
      <trkpt lat="46.01835" lon="6.90412">
        <ele>1503.9</ele>
        <time>2010-01-01T01:21:32Z</time>
      </trkpt>
      <trkpt lat="46.01836" lon="6.90417">
        <ele>1504.2</ele>
        <time>2010-01-01T01:21:34Z</time>
      </trkpt>
      <trkpt lat="46.01839" lon="6.90426">
        <ele>1534</ele>
        <time>2010-01-01T01:21:37Z</time>
      </trkpt>
      <trkpt lat="46.01843" lon="6.90433">
        <ele>1504.1</ele>
        <time>2010-01-01T01:21:39Z</time>
      </trkpt>
      <trkpt lat="46.01848" lon="6.90439">
        <ele>1502.1</ele>
        <time>2010-01-01T01:21:42Z</time>
      </trkpt>
      <trkpt lat="46.01852" lon="6.90441">
        <ele>1499.8</ele>
        <time>2010-01-01T01:21:43Z</time>
      </trkpt>
      <trkpt lat="46.01855" lon="6.90444">
        <ele>1533.5</ele>
        <time>2010-01-01T01:21:45Z</time>
      </trkpt>
      <trkpt lat="46.01859" lon="6.90451">
        <ele>1495.4</ele>
        <time>2010-01-01T01:21:47Z</time>
      </trkpt>
      <trkpt lat="46.01858" lon="6.9046">
        <ele>1496.3</ele>
        <time>2010-01-01T01:21:50Z</time>
      </trkpt>
      <trkpt lat="46.01858" lon="6.90469">
        <ele>1533</ele>
        <time>2010-01-01T01:21:52Z</time>
      </trkpt>
      <trkpt lat="46.01862" lon="6.90477">
        <ele>1493.6</ele>
        <time>2010-01-01T01:21:55Z</time>
      </trkpt>
      <trkpt lat="46.01865" lon="6.90481">
        <ele>1494.8</ele>
        <time>2010-01-01T01:21:57Z</time>
      </trkpt>
      <trkpt lat="46.01867" lon="6.90489">
        <ele>1495.6</ele>
        <time>2010-01-01T01:21:59Z</time>
      </trkpt>
      <trkpt lat="46.0187" lon="6.90496">
        <ele>1530</ele>
        <time>2010-01-01T01:22:01Z</time>
      </trkpt>
      <trkpt lat="46.01875" lon="6.90503">
        <ele>1496.9</ele>
        <time>2010-01-01T01:22:04Z</time>
      </trkpt>
      <trkpt lat="46.01878" lon="6.9051">
        <ele>1497</ele>
        <time>2010-01-01T01:22:07Z</time>
      </trkpt>
      <trkpt lat="46.0188" lon="6.90516">
        <ele>1496.7</ele>
        <time>2010-01-01T01:22:08Z</time>
      </trkpt>
      <trkpt lat="46.01882" lon="6.90525">
        <ele>1529.5</ele>
        <time>2010-01-01T01:22:11Z</time>
      </trkpt>
      <trkpt lat="46.01884" lon="6.90535">
        <ele>1494.9</ele>
        <time>2010-01-01T01:22:14Z</time>
      </trkpt>
      <trkpt lat="46.01886" lon="6.90543">
        <ele>1493.6</ele>
        <time>2010-01-01T01:22:16Z</time>
      </trkpt>
      <trkpt lat="46.01886" lon="6.90552">
        <ele>1529</ele>
        <time>2010-01-01T01:22:19Z</time>
      </trkpt>
      <trkpt lat="46.01886" lon="6.90561">
        <ele>1491.8</ele>
        <time>2010-01-01T01:22:21Z</time>
      </trkpt>
      <trkpt lat="46.01888" lon="6.90569">
        <ele>1490</ele>
        <time>2010-01-01T01:22:24Z</time>
      </trkpt>
      <trkpt lat="46.01888" lon="6.90576">
        <ele>1489.3</ele>
        <time>2010-01-01T01:22:26Z</time>
      </trkpt>
      <trkpt lat="46.01891" lon="6.90585">
        <ele>1525</ele>
        <time>2010-01-01T01:22:28Z</time>
      </trkpt>
      <trkpt lat="46.01893" lon="6.90595">
        <ele>1489</ele>
        <time>2010-01-01T01:22:31Z</time>
      </trkpt>
      <trkpt lat="46.01893" lon="6.906">
        <ele>1488.7</ele>
        <time>2010-01-01T01:22:33Z</time>
      </trkpt>
      <trkpt lat="46.01894" lon="6.90605">
        <ele>1488.7</ele>
        <time>2010-01-01T01:22:34Z</time>
      </trkpt>
      <trkpt lat="46.01894" lon="6.90611">
        <ele>1488.3</ele>
        <time>2010-01-01T01:22:36Z</time>
      </trkpt>
      <trkpt lat="46.01896" lon="6.9062">
        <ele>1523</ele>
        <time>2010-01-01T01:22:38Z</time>
      </trkpt>
      <trkpt lat="46.01897" lon="6.90628">
        <ele>1488.8</ele>
        <time>2010-01-01T01:22:41Z</time>
      </trkpt>
      <trkpt lat="46.01895" lon="6.90636">
        <ele>1488.8</ele>
        <time>2010-01-01T01:22:43Z</time>
      </trkpt>
      <trkpt lat="46.01895" lon="6.90643">
        <ele>1489</ele>
        <time>2010-01-01T01:22:45Z</time>
      </trkpt>
      <trkpt lat="46.01897" lon="6.90648">
        <ele>1523.5</ele>
        <time>2010-01-01T01:22:47Z</time>
      </trkpt>
      <trkpt lat="46.01898" lon="6.90654">
        <ele>1489.1</ele>
        <time>2010-01-01T01:22:48Z</time>
      </trkpt>
      <trkpt lat="46.019" lon="6.90661">
        <ele>1488.8</ele>
        <time>2010-01-01T01:22:50Z</time>
      </trkpt>
      <trkpt lat="46.01902" lon="6.90669">
        <ele>1488.3</ele>
        <time>2010-01-01T01:22:53Z</time>
      </trkpt>
      <trkpt lat="46.01904" lon="6.90676">
        <ele>1520.7</ele>
        <time>2010-01-01T01:22:55Z</time>
      </trkpt>
      <trkpt lat="46.01903" lon="6.90685">
        <ele>1488.5</ele>
        <time>2010-01-01T01:22:57Z</time>
      </trkpt>
      <trkpt lat="46.01906" lon="6.90692">
        <ele>1486.9</ele>
        <time>2010-01-01T01:23:00Z</time>
      </trkpt>
      <trkpt lat="46.01908" lon="6.90701">
        <ele>1486.2</ele>
        <time>2010-01-01T01:23:02Z</time>
      </trkpt>
      <trkpt lat="46.01911" lon="6.90708">
        <ele>1520.3</ele>
        <time>2010-01-01T01:23:05Z</time>
      </trkpt>
      <trkpt lat="46.01912" lon="6.90713">
        <ele>1484.3</ele>
        <time>2010-01-01T01:23:06Z</time>
      </trkpt>
      <trkpt lat="46.01912" lon="6.90721">
        <ele>1484.8</ele>
        <time>2010-01-01T01:23:08Z</time>
      </trkpt>
      <trkpt lat="46.01914" lon="6.90727">
        <ele>1484</ele>
        <time>2010-01-01T01:23:10Z</time>
      </trkpt>
      <trkpt lat="46.01914" lon="6.90734">
        <ele>1485.1</ele>
        <time>2010-01-01T01:23:12Z</time>
      </trkpt>
      <trkpt lat="46.01918" lon="6.9074">
        <ele>1522.6</ele>
        <time>2010-01-01T01:23:14Z</time>
      </trkpt>
      <trkpt lat="46.01922" lon="6.90746">
        <ele>1483.1</ele>
        <time>2010-01-01T01:23:17Z</time>
      </trkpt>
      <trkpt lat="46.01925" lon="6.90752">
        <ele>1482.8</ele>
        <time>2010-01-01T01:23:19Z</time>
      </trkpt>
      <trkpt lat="46.01929" lon="6.90759">
        <ele>1481.9</ele>
        <time>2010-01-01T01:23:21Z</time>
      </trkpt>
      <trkpt lat="46.01931" lon="6.90767">
        <ele>1520.3</ele>
        <time>2010-01-01T01:23:24Z</time>
      </trkpt>
      <trkpt lat="46.01933" lon="6.90775">
        <ele>1480.6</ele>
        <time>2010-01-01T01:23:26Z</time>
      </trkpt>
      <trkpt lat="46.01938" lon="6.90781">
        <ele>1477.8</ele>
        <time>2010-01-01T01:23:29Z</time>
      </trkpt>
      <trkpt lat="46.0194" lon="6.90788">
        <ele>1476.9</ele>
        <time>2010-01-01T01:23:31Z</time>
      </trkpt>
      <trkpt lat="46.01943" lon="6.90795">
        <ele>1519.6</ele>
        <time>2010-01-01T01:23:33Z</time>
      </trkpt>
      <trkpt lat="46.01944" lon="6.90805">
        <ele>1474.3</ele>
        <time>2010-01-01T01:23:36Z</time>
      </trkpt>
      <trkpt lat="46.01945" lon="6.9081">
        <ele>1474.1</ele>
        <time>2010-01-01T01:23:37Z</time>
      </trkpt>
      <trkpt lat="46.01947" lon="6.90818">
        <ele>1474.6</ele>
        <time>2010-01-01T01:23:40Z</time>
      </trkpt>
      <trkpt lat="46.0195" lon="6.90826">
        <ele>1519</ele>
        <time>2010-01-01T01:23:42Z</time>
      </trkpt>
      <trkpt lat="46.0195" lon="6.90834">
        <ele>1475</ele>
        <time>2010-01-01T01:23:44Z</time>
      </trkpt>
      <trkpt lat="46.01954" lon="6.90842">
        <ele>1475.8</ele>
        <time>2010-01-01T01:23:47Z</time>
      </trkpt>
      <trkpt lat="46.01956" lon="6.90847">
        <ele>1476.2</ele>
        <time>2010-01-01T01:23:49Z</time>
      </trkpt>
      <trkpt lat="46.01961" lon="6.90851">
        <ele>1519</ele>
        <time>2010-01-01T01:23:51Z</time>
      </trkpt>
      <trkpt lat="46.01966" lon="6.90854">
        <ele>1477.5</ele>
        <time>2010-01-01T01:23:53Z</time>
      </trkpt>
      <trkpt lat="46.0197" lon="6.90856">
        <ele>1477.9</ele>
        <time>2010-01-01T01:23:55Z</time>
      </trkpt>
      <trkpt lat="46.01969" lon="6.90863">
        <ele>1477.5</ele>
        <time>2010-01-01T01:23:57Z</time>
      </trkpt>
      <trkpt lat="46.01968" lon="6.9087">
        <ele>1512</ele>
        <time>2010-01-01T01:23:59Z</time>
      </trkpt>
      <trkpt lat="46.0197" lon="6.90876">
        <ele>1476.8</ele>
        <time>2010-01-01T01:24:01Z</time>
      </trkpt>
      <trkpt lat="46.01971" lon="6.90884">
        <ele>1476.3</ele>
        <time>2010-01-01T01:24:03Z</time>
      </trkpt>
      <trkpt lat="46.01971" lon="6.9089">
        <ele>1475.9</ele>
        <time>2010-01-01T01:24:05Z</time>
      </trkpt>
      <trkpt lat="46.01967" lon="6.90896">
        <ele>1512</ele>
        <time>2010-01-01T01:24:07Z</time>
      </trkpt>
      <trkpt lat="46.01966" lon="6.90901">
        <ele>1474.9</ele>
        <time>2010-01-01T01:24:08Z</time>
      </trkpt>
      <trkpt lat="46.01963" lon="6.90905">
        <ele>1474.6</ele>
        <time>2010-01-01T01:24:10Z</time>
      </trkpt>
      <trkpt lat="46.01961" lon="6.9091">
        <ele>1474.3</ele>
        <time>2010-01-01T01:24:12Z</time>
      </trkpt>
      <trkpt lat="46.01958" lon="6.90915">
        <ele>1474.1</ele>
        <time>2010-01-01T01:24:13Z</time>
      </trkpt>
      <trkpt lat="46.01956" lon="6.90924">
        <ele>1511</ele>
        <time>2010-01-01T01:24:16Z</time>
      </trkpt>
      <trkpt lat="46.01954" lon="6.90933">
        <ele>1471.5</ele>
        <time>2010-01-01T01:24:19Z</time>
      </trkpt>
      <trkpt lat="46.01953" lon="6.90939">
        <ele>1470.7</ele>
        <time>2010-01-01T01:24:20Z</time>
      </trkpt>
      <trkpt lat="46.01954" lon="6.90946">
        <ele>1469.3</ele>
        <time>2010-01-01T01:24:22Z</time>
      </trkpt>
      <trkpt lat="46.01956" lon="6.90953">
        <ele>1510</ele>
        <time>2010-01-01T01:24:25Z</time>
      </trkpt>
      <trkpt lat="46.01957" lon="6.90961">
        <ele>1465.4</ele>
        <time>2010-01-01T01:24:27Z</time>
      </trkpt>
      <trkpt lat="46.01959" lon="6.9097">
        <ele>1462.7</ele>
        <time>2010-01-01T01:24:29Z</time>
      </trkpt>
      <trkpt lat="46.01962" lon="6.90977">
        <ele>1460.4</ele>
        <time>2010-01-01T01:24:32Z</time>
      </trkpt>
      <trkpt lat="46.01962" lon="6.90984">
        <ele>1505</ele>
        <time>2010-01-01T01:24:34Z</time>
      </trkpt>
      <trkpt lat="46.01963" lon="6.90993">
        <ele>1458.6</ele>
        <time>2010-01-01T01:24:36Z</time>
      </trkpt>
      <trkpt lat="46.01963" lon="6.90998">
        <ele>1458.1</ele>
        <time>2010-01-01T01:24:38Z</time>
      </trkpt>
      <trkpt lat="46.01962" lon="6.91008">
        <ele>1458.6</ele>
        <time>2010-01-01T01:24:40Z</time>
      </trkpt>
      <trkpt lat="46.01962" lon="6.91016">
        <ele>1497</ele>
        <time>2010-01-01T01:24:43Z</time>
      </trkpt>
      <trkpt lat="46.01962" lon="6.91021">
        <ele>1458.8</ele>
        <time>2010-01-01T01:24:44Z</time>
      </trkpt>
      <trkpt lat="46.01962" lon="6.91029">
        <ele>1458.9</ele>
        <time>2010-01-01T01:24:46Z</time>
      </trkpt>
      <trkpt lat="46.01963" lon="6.91037">
        <ele>1458.1</ele>
        <time>2010-01-01T01:24:48Z</time>
      </trkpt>
      <trkpt lat="46.01965" lon="6.91043">
        <ele>1485</ele>
        <time>2010-01-01T01:24:50Z</time>
      </trkpt>
      <trkpt lat="46.01966" lon="6.91049">
        <ele>1456</ele>
        <time>2010-01-01T01:24:52Z</time>
      </trkpt>
      <trkpt lat="46.01966" lon="6.91054">
        <ele>1455.9</ele>
        <time>2010-01-01T01:24:53Z</time>
      </trkpt>
      <trkpt lat="46.01967" lon="6.91062">
        <ele>1455.1</ele>
        <time>2010-01-01T01:24:56Z</time>
      </trkpt>
      <trkpt lat="46.01969" lon="6.91067">
        <ele>1453.9</ele>
        <time>2010-01-01T01:24:57Z</time>
      </trkpt>
      <trkpt lat="46.01971" lon="6.91077">
        <ele>1479</ele>
        <time>2010-01-01T01:25:00Z</time>
      </trkpt>
      <trkpt lat="46.01972" lon="6.91082">
        <ele>1452.1</ele>
        <time>2010-01-01T01:25:02Z</time>
      </trkpt>
      <trkpt lat="46.01975" lon="6.91091">
        <ele>1451.1</ele>
        <time>2010-01-01T01:25:04Z</time>
      </trkpt>
      <trkpt lat="46.01979" lon="6.91097">
        <ele>1449.8</ele>
        <time>2010-01-01T01:25:07Z</time>
      </trkpt>
      <trkpt lat="46.01981" lon="6.91105">
        <ele>1472</ele>
        <time>2010-01-01T01:25:09Z</time>
      </trkpt>
      <trkpt lat="46.01983" lon="6.91113">
        <ele>1447.4</ele>
        <time>2010-01-01T01:25:11Z</time>
      </trkpt>
      <trkpt lat="46.01986" lon="6.91121">
        <ele>1445.8</ele>
        <time>2010-01-01T01:25:14Z</time>
      </trkpt>
      <trkpt lat="46.01988" lon="6.91129">
        <ele>1444.4</ele>
        <time>2010-01-01T01:25:16Z</time>
      </trkpt>
      <trkpt lat="46.01989" lon="6.91135">
        <ele>1466</ele>
        <time>2010-01-01T01:25:18Z</time>
      </trkpt>
      <trkpt lat="46.0199" lon="6.91141">
        <ele>1442.4</ele>
        <time>2010-01-01T01:25:20Z</time>
      </trkpt>
      <trkpt lat="46.01992" lon="6.91149">
        <ele>1440.5</ele>
        <time>2010-01-01T01:25:22Z</time>
      </trkpt>
      <trkpt lat="46.01994" lon="6.91156">
        <ele>1438.6</ele>
        <time>2010-01-01T01:25:24Z</time>
      </trkpt>
      <trkpt lat="46.01997" lon="6.91162">
        <ele>1461</ele>
        <time>2010-01-01T01:25:26Z</time>
      </trkpt>
      <trkpt lat="46.02" lon="6.9117">
        <ele>1433.2</ele>
        <time>2010-01-01T01:25:29Z</time>
      </trkpt>
      <trkpt lat="46.02002" lon="6.91177">
        <ele>1431.5</ele>
        <time>2010-01-01T01:25:31Z</time>
      </trkpt>
      <trkpt lat="46.02004" lon="6.91181">
        <ele>1430.5</ele>
        <time>2010-01-01T01:25:32Z</time>
      </trkpt>
      <trkpt lat="46.02003" lon="6.91184">
        <ele>1429.7</ele>
        <time>2010-01-01T01:25:33Z</time>
      </trkpt>
      <trkpt lat="46.02001" lon="6.91194">
        <ele>1453</ele>
        <time>2010-01-01T01:25:36Z</time>
      </trkpt>
      <trkpt lat="46.02003" lon="6.9121">
        <ele>1421.9</ele>
        <time>2010-01-01T01:25:41Z</time>
      </trkpt>
      <trkpt lat="46.02008" lon="6.91225">
        <ele>1444</ele>
        <time>2010-01-01T01:25:45Z</time>
      </trkpt>
      <trkpt lat="46.02014" lon="6.91236">
        <ele>1410.2</ele>
        <time>2010-01-01T01:25:49Z</time>
      </trkpt>
      <trkpt lat="46.02013" lon="6.91249">
        <ele>1437</ele>
        <time>2010-01-01T01:25:53Z</time>
      </trkpt>
      <trkpt lat="46.02011" lon="6.91252">
        <ele>1407.4</ele>
        <time>2010-01-01T01:25:54Z</time>
      </trkpt>
      <trkpt lat="46.02007" lon="6.91257">
        <ele>1409.1</ele>
        <time>2010-01-01T01:25:56Z</time>
      </trkpt>
      <trkpt lat="46.02004" lon="6.91263">
        <ele>1410.2</ele>
        <time>2010-01-01T01:25:58Z</time>
      </trkpt>
      <trkpt lat="46.02002" lon="6.91272">
        <ele>1429</ele>
        <time>2010-01-01T01:26:01Z</time>
      </trkpt>
      <trkpt lat="46.02" lon="6.91279">
        <ele>1410.8</ele>
        <time>2010-01-01T01:26:03Z</time>
      </trkpt>
      <trkpt lat="46.01997" lon="6.91284">
        <ele>1411.2</ele>
        <time>2010-01-01T01:26:05Z</time>
      </trkpt>
      <trkpt lat="46.01999" lon="6.9129">
        <ele>1409.6</ele>
        <time>2010-01-01T01:26:07Z</time>
      </trkpt>
      <trkpt lat="46.02" lon="6.91296">
        <ele>1408.4</ele>
        <time>2010-01-01T01:26:08Z</time>
      </trkpt>
      <trkpt lat="46.01999" lon="6.91303">
        <ele>1421</ele>
        <time>2010-01-01T01:26:10Z</time>
      </trkpt>
      <trkpt lat="46.01995" lon="6.91307">
        <ele>1408.4</ele>
        <time>2010-01-01T01:26:12Z</time>
      </trkpt>
      <trkpt lat="46.01992" lon="6.91315">
        <ele>1407.9</ele>
        <time>2010-01-01T01:26:15Z</time>
      </trkpt>
      <trkpt lat="46.01992" lon="6.91322">
        <ele>1406.7</ele>
        <time>2010-01-01T01:26:17Z</time>
      </trkpt>
      <trkpt lat="46.01991" lon="6.91328">
        <ele>1414</ele>
        <time>2010-01-01T01:26:18Z</time>
      </trkpt>
      <trkpt lat="46.01987" lon="6.91332">
        <ele>1406.1</ele>
        <time>2010-01-01T01:26:20Z</time>
      </trkpt>
      <trkpt lat="46.01982" lon="6.91337">
        <ele>1405.7</ele>
        <time>2010-01-01T01:26:23Z</time>
      </trkpt>
      <trkpt lat="46.01977" lon="6.91341">
        <ele>1405.3</ele>
        <time>2010-01-01T01:26:25Z</time>
      </trkpt>
      <trkpt lat="46.0197" lon="6.91344">
        <ele>1407</ele>
        <time>2010-01-01T01:26:28Z</time>
      </trkpt>
      <trkpt lat="46.01966" lon="6.91347">
        <ele>1404.4</ele>
        <time>2010-01-01T01:26:30Z</time>
      </trkpt>
      <trkpt lat="46.01963" lon="6.91348">
        <ele>1404.2</ele>
        <time>2010-01-01T01:26:31Z</time>
      </trkpt>
      <trkpt lat="46.01959" lon="6.91347">
        <ele>1404.8</ele>
        <time>2010-01-01T01:26:33Z</time>
      </trkpt>
      <trkpt lat="46.01952" lon="6.91351">
        <ele>1407</ele>
        <time>2010-01-01T01:26:36Z</time>
      </trkpt>
      <trkpt lat="46.01948" lon="6.91354">
        <ele>1402.7</ele>
        <time>2010-01-01T01:26:37Z</time>
      </trkpt>
      <trkpt lat="46.01941" lon="6.91356">
        <ele>1402.4</ele>
        <time>2010-01-01T01:26:40Z</time>
      </trkpt>
      <trkpt lat="46.01935" lon="6.91358">
        <ele>1402.3</ele>
        <time>2010-01-01T01:26:43Z</time>
      </trkpt>
      <trkpt lat="46.0193" lon="6.91363">
        <ele>1404.5</ele>
        <time>2010-01-01T01:26:45Z</time>
      </trkpt>
      <trkpt lat="46.01927" lon="6.91369">
        <ele>1399.2</ele>
        <time>2010-01-01T01:26:47Z</time>
      </trkpt>
      <trkpt lat="46.01923" lon="6.91373">
        <ele>1398.4</ele>
        <time>2010-01-01T01:26:49Z</time>
      </trkpt>
      <trkpt lat="46.01919" lon="6.91378">
        <ele>1397.2</ele>
        <time>2010-01-01T01:26:51Z</time>
      </trkpt>
      <trkpt lat="46.01914" lon="6.91382">
        <ele>1402</ele>
        <time>2010-01-01T01:26:54Z</time>
      </trkpt>
      <trkpt lat="46.01909" lon="6.91386">
        <ele>1396</ele>
        <time>2010-01-01T01:26:56Z</time>
      </trkpt>
      <trkpt lat="46.01905" lon="6.9139">
        <ele>1395.4</ele>
        <time>2010-01-01T01:26:58Z</time>
      </trkpt>
      <trkpt lat="46.01905" lon="6.91396">
        <ele>1393.9</ele>
        <time>2010-01-01T01:27:00Z</time>
      </trkpt>
      <trkpt lat="46.0191" lon="6.91398">
        <ele>1391</ele>
        <time>2010-01-01T01:27:02Z</time>
      </trkpt>
      <trkpt lat="46.01913" lon="6.91404">
        <ele>1390.7</ele>
        <time>2010-01-01T01:27:04Z</time>
      </trkpt>
      <trkpt lat="46.01916" lon="6.91411">
        <ele>1388.5</ele>
        <time>2010-01-01T01:27:06Z</time>
      </trkpt>
      <trkpt lat="46.01918" lon="6.91417">
        <ele>1386.7</ele>
        <time>2010-01-01T01:27:08Z</time>
      </trkpt>
      <trkpt lat="46.01921" lon="6.91424">
        <ele>1391</ele>
        <time>2010-01-01T01:27:10Z</time>
      </trkpt>
      <trkpt lat="46.01926" lon="6.91432">
        <ele>1382.3</ele>
        <time>2010-01-01T01:27:13Z</time>
      </trkpt>
      <trkpt lat="46.01929" lon="6.91435">
        <ele>1381.3</ele>
        <time>2010-01-01T01:27:15Z</time>
      </trkpt>
      <trkpt lat="46.01934" lon="6.91435">
        <ele>1380.5</ele>
        <time>2010-01-01T01:27:17Z</time>
      </trkpt>
      <trkpt lat="46.01938" lon="6.91435">
        <ele>1382</ele>
        <time>2010-01-01T01:27:18Z</time>
      </trkpt>
      <trkpt lat="46.01941" lon="6.91439">
        <ele>1378.7</ele>
        <time>2010-01-01T01:27:20Z</time>
      </trkpt>
      <trkpt lat="46.01939" lon="6.91445">
        <ele>1377.7</ele>
        <time>2010-01-01T01:27:22Z</time>
      </trkpt>
      <trkpt lat="46.01937" lon="6.91453">
        <ele>1376.5</ele>
        <time>2010-01-01T01:27:24Z</time>
      </trkpt>
      <trkpt lat="46.01938" lon="6.91459">
        <ele>1375.3</ele>
        <time>2010-01-01T01:27:26Z</time>
      </trkpt>
      <trkpt lat="46.01938" lon="6.91466">
        <ele>1375</ele>
        <time>2010-01-01T01:27:28Z</time>
      </trkpt>
      <trkpt lat="46.01938" lon="6.91474">
        <ele>1372.8</ele>
        <time>2010-01-01T01:27:30Z</time>
      </trkpt>
      <trkpt lat="46.01937" lon="6.9148">
        <ele>1372.4</ele>
        <time>2010-01-01T01:27:32Z</time>
      </trkpt>
      <trkpt lat="46.01936" lon="6.91489">
        <ele>1371.8</ele>
        <time>2010-01-01T01:27:34Z</time>
      </trkpt>
      <trkpt lat="46.01935" lon="6.91495">
        <ele>1369</ele>
        <time>2010-01-01T01:27:36Z</time>
      </trkpt>
      <trkpt lat="46.01933" lon="6.91499">
        <ele>1371.3</ele>
        <time>2010-01-01T01:27:37Z</time>
      </trkpt>
      <trkpt lat="46.01933" lon="6.91507">
        <ele>1370.7</ele>
        <time>2010-01-01T01:27:39Z</time>
      </trkpt>
      <trkpt lat="46.01933" lon="6.91516">
        <ele>1370.1</ele>
        <time>2010-01-01T01:27:42Z</time>
      </trkpt>
      <trkpt lat="46.01932" lon="6.91522">
        <ele>1366</ele>
        <time>2010-01-01T01:27:44Z</time>
      </trkpt>
      <trkpt lat="46.01932" lon="6.91531">
        <ele>1369.1</ele>
        <time>2010-01-01T01:27:46Z</time>
      </trkpt>
      <trkpt lat="46.01933" lon="6.9154">
        <ele>1368.4</ele>
        <time>2010-01-01T01:27:49Z</time>
      </trkpt>
      <trkpt lat="46.01933" lon="6.91547">
        <ele>1367.9</ele>
        <time>2010-01-01T01:27:51Z</time>
      </trkpt>
      <trkpt lat="46.01933" lon="6.91555">
        <ele>1363</ele>
        <time>2010-01-01T01:27:53Z</time>
      </trkpt>
      <trkpt lat="46.01933" lon="6.91562">
        <ele>1366.4</ele>
        <time>2010-01-01T01:27:55Z</time>
      </trkpt>
      <trkpt lat="46.0193" lon="6.91569">
        <ele>1365.9</ele>
        <time>2010-01-01T01:27:57Z</time>
      </trkpt>
      <trkpt lat="46.01926" lon="6.91575">
        <ele>1365.4</ele>
        <time>2010-01-01T01:27:59Z</time>
      </trkpt>
      <trkpt lat="46.01926" lon="6.91582">
        <ele>1363</ele>
        <time>2010-01-01T01:28:01Z</time>
      </trkpt>
      <trkpt lat="46.01926" lon="6.9159">
        <ele>1363.7</ele>
        <time>2010-01-01T01:28:04Z</time>
      </trkpt>
      <trkpt lat="46.01925" lon="6.91598">
        <ele>1363</ele>
        <time>2010-01-01T01:28:06Z</time>
      </trkpt>
      <trkpt lat="46.01924" lon="6.91604">
        <ele>1362.4</ele>
        <time>2010-01-01T01:28:08Z</time>
      </trkpt>
      <trkpt lat="46.01921" lon="6.91613">
        <ele>1363</ele>
        <time>2010-01-01T01:28:10Z</time>
      </trkpt>
      <trkpt lat="46.01916" lon="6.91622">
        <ele>1361.2</ele>
        <time>2010-01-01T01:28:14Z</time>
      </trkpt>
      <trkpt lat="46.01914" lon="6.91626">
        <ele>1360.9</ele>
        <time>2010-01-01T01:28:15Z</time>
      </trkpt>
      <trkpt lat="46.0191" lon="6.91633">
        <ele>1360.4</ele>
        <time>2010-01-01T01:28:17Z</time>
      </trkpt>
      <trkpt lat="46.01905" lon="6.9164">
        <ele>1363</ele>
        <time>2010-01-01T01:28:20Z</time>
      </trkpt>
      <trkpt lat="46.019" lon="6.91647">
        <ele>1359.2</ele>
        <time>2010-01-01T01:28:23Z</time>
      </trkpt>
      <trkpt lat="46.01896" lon="6.91653">
        <ele>1358.6</ele>
        <time>2010-01-01T01:28:25Z</time>
      </trkpt>
      <trkpt lat="46.01893" lon="6.91659">
        <ele>1357.9</ele>
        <time>2010-01-01T01:28:27Z</time>
      </trkpt>
      <trkpt lat="46.0189" lon="6.91663">
        <ele>1360</ele>
        <time>2010-01-01T01:28:29Z</time>
      </trkpt>
      <trkpt lat="46.01887" lon="6.9167">
        <ele>1356.9</ele>
        <time>2010-01-01T01:28:31Z</time>
      </trkpt>
      <trkpt lat="46.01885" lon="6.91675">
        <ele>1356.8</ele>
        <time>2010-01-01T01:28:33Z</time>
      </trkpt>
      <trkpt lat="46.01883" lon="6.91682">
        <ele>1356.5</ele>
        <time>2010-01-01T01:28:35Z</time>
      </trkpt>
      <trkpt lat="46.01881" lon="6.91687">
        <ele>1358</ele>
        <time>2010-01-01T01:28:37Z</time>
      </trkpt>
      <trkpt lat="46.01879" lon="6.91696">
        <ele>1355.9</ele>
        <time>2010-01-01T01:28:39Z</time>
      </trkpt>
      <trkpt lat="46.01878" lon="6.91703">
        <ele>1355.5</ele>
        <time>2010-01-01T01:28:41Z</time>
      </trkpt>
      <trkpt lat="46.01876" lon="6.91711">
        <ele>1355.1</ele>
        <time>2010-01-01T01:28:44Z</time>
      </trkpt>
      <trkpt lat="46.01873" lon="6.91719">
        <ele>1355</ele>
        <time>2010-01-01T01:28:46Z</time>
      </trkpt>
      <trkpt lat="46.01872" lon="6.91727">
        <ele>1354.4</ele>
        <time>2010-01-01T01:28:48Z</time>
      </trkpt>
      <trkpt lat="46.01869" lon="6.91736">
        <ele>1354.1</ele>
        <time>2010-01-01T01:28:51Z</time>
      </trkpt>
      <trkpt lat="46.01866" lon="6.91743">
        <ele>1353.9</ele>
        <time>2010-01-01T01:28:53Z</time>
      </trkpt>
      <trkpt lat="46.01863" lon="6.91752">
        <ele>1352</ele>
        <time>2010-01-01T01:28:56Z</time>
      </trkpt>
      <trkpt lat="46.01864" lon="6.91761">
        <ele>1353.4</ele>
        <time>2010-01-01T01:28:59Z</time>
      </trkpt>
      <trkpt lat="46.01864" lon="6.9177">
        <ele>1353.1</ele>
        <time>2010-01-01T01:29:01Z</time>
      </trkpt>
      <trkpt lat="46.01867" lon="6.91778">
        <ele>1349</ele>
        <time>2010-01-01T01:29:04Z</time>
      </trkpt>
      <trkpt lat="46.01869" lon="6.91783">
        <ele>1351.9</ele>
        <time>2010-01-01T01:29:05Z</time>
      </trkpt>
      <trkpt lat="46.01872" lon="6.91791">
        <ele>1351</ele>
        <time>2010-01-01T01:29:08Z</time>
      </trkpt>
      <trkpt lat="46.01876" lon="6.91798">
        <ele>1350.1</ele>
        <time>2010-01-01T01:29:10Z</time>
      </trkpt>
      <trkpt lat="46.01878" lon="6.91804">
        <ele>1347</ele>
        <time>2010-01-01T01:29:12Z</time>
      </trkpt>
      <trkpt lat="46.01878" lon="6.91812">
        <ele>1348.8</ele>
        <time>2010-01-01T01:29:14Z</time>
      </trkpt>
      <trkpt lat="46.01877" lon="6.9182">
        <ele>1348.1</ele>
        <time>2010-01-01T01:29:17Z</time>
      </trkpt>
      <trkpt lat="46.01876" lon="6.91828">
        <ele>1347.4</ele>
        <time>2010-01-01T01:29:19Z</time>
      </trkpt>
      <trkpt lat="46.01876" lon="6.91837">
        <ele>1343</ele>
        <time>2010-01-01T01:29:21Z</time>
      </trkpt>
      <trkpt lat="46.01875" lon="6.91844">
        <ele>1346.2</ele>
        <time>2010-01-01T01:29:23Z</time>
      </trkpt>
      <trkpt lat="46.01875" lon="6.9185">
        <ele>1345.8</ele>
        <time>2010-01-01T01:29:25Z</time>
      </trkpt>
      <trkpt lat="46.01873" lon="6.91859">
        <ele>1345.3</ele>
        <time>2010-01-01T01:29:28Z</time>
      </trkpt>
      <trkpt lat="46.01872" lon="6.91866">
        <ele>1342</ele>
        <time>2010-01-01T01:29:30Z</time>
      </trkpt>
      <trkpt lat="46.01871" lon="6.91873">
        <ele>1344.4</ele>
        <time>2010-01-01T01:29:32Z</time>
      </trkpt>
      <trkpt lat="46.01869" lon="6.91881">
        <ele>1344</ele>
        <time>2010-01-01T01:29:34Z</time>
      </trkpt>
      <trkpt lat="46.01867" lon="6.91887">
        <ele>1343.7</ele>
        <time>2010-01-01T01:29:36Z</time>
      </trkpt>
      <trkpt lat="46.01865" lon="6.91892">
        <ele>1341</ele>
        <time>2010-01-01T01:29:38Z</time>
      </trkpt>
      <trkpt lat="46.01865" lon="6.91897">
        <ele>1343.1</ele>
        <time>2010-01-01T01:29:39Z</time>
      </trkpt>
      <trkpt lat="46.01866" lon="6.91903">
        <ele>1342.6</ele>
        <time>2010-01-01T01:29:41Z</time>
      </trkpt>
      <trkpt lat="46.01866" lon="6.91911">
        <ele>1342.1</ele>
        <time>2010-01-01T01:29:43Z</time>
      </trkpt>
      <trkpt lat="46.01865" lon="6.9192">
        <ele>1339</ele>
        <time>2010-01-01T01:29:45Z</time>
      </trkpt>
      <trkpt lat="46.01867" lon="6.91929">
        <ele>1341.1</ele>
        <time>2010-01-01T01:29:48Z</time>
      </trkpt>
      <trkpt lat="46.01868" lon="6.91934">
        <ele>1340.9</ele>
        <time>2010-01-01T01:29:49Z</time>
      </trkpt>
      <trkpt lat="46.01869" lon="6.91943">
        <ele>1340.5</ele>
        <time>2010-01-01T01:29:52Z</time>
      </trkpt>
      <trkpt lat="46.0187" lon="6.91951">
        <ele>1339</ele>
        <time>2010-01-01T01:29:54Z</time>
      </trkpt>
      <trkpt lat="46.01869" lon="6.91959">
        <ele>1340.1</ele>
        <time>2010-01-01T01:29:57Z</time>
      </trkpt>
      <trkpt lat="46.01869" lon="6.91966">
        <ele>1339.9</ele>
        <time>2010-01-01T01:29:58Z</time>
      </trkpt>
      <trkpt lat="46.01869" lon="6.91976">
        <ele>1339.8</ele>
        <time>2010-01-01T01:30:01Z</time>
      </trkpt>
      <trkpt lat="46.01869" lon="6.91982">
        <ele>1339</ele>
        <time>2010-01-01T01:30:03Z</time>
      </trkpt>
      <trkpt lat="46.01868" lon="6.91991">
        <ele>1340.3</ele>
        <time>2010-01-01T01:30:05Z</time>
      </trkpt>
      <trkpt lat="46.01871" lon="6.91997">
        <ele>1340.2</ele>
        <time>2010-01-01T01:30:08Z</time>
      </trkpt>
      <trkpt lat="46.01875" lon="6.92">
        <ele>1340</ele>
        <time>2010-01-01T01:30:09Z</time>
      </trkpt>
      <trkpt lat="46.0188" lon="6.92002">
        <ele>1339</ele>
        <time>2010-01-01T01:30:11Z</time>
      </trkpt>
      <trkpt lat="46.01885" lon="6.92006">
        <ele>1339.3</ele>
        <time>2010-01-01T01:30:14Z</time>
      </trkpt>
      <trkpt lat="46.0189" lon="6.9201">
        <ele>1338.9</ele>
        <time>2010-01-01T01:30:16Z</time>
      </trkpt>
      <trkpt lat="46.01895" lon="6.92011">
        <ele>1338.6</ele>
        <time>2010-01-01T01:30:18Z</time>
      </trkpt>
      <trkpt lat="46.01901" lon="6.9201">
        <ele>1339</ele>
        <time>2010-01-01T01:30:20Z</time>
      </trkpt>
      <trkpt lat="46.01907" lon="6.92009">
        <ele>1337.9</ele>
        <time>2010-01-01T01:30:23Z</time>
      </trkpt>
      <trkpt lat="46.01911" lon="6.92008">
        <ele>1337.6</ele>
        <time>2010-01-01T01:30:24Z</time>
      </trkpt>
      <trkpt lat="46.01917" lon="6.92009">
        <ele>1337.3</ele>
        <time>2010-01-01T01:30:27Z</time>
      </trkpt>
      <trkpt lat="46.01923" lon="6.92013">
        <ele>1339</ele>
        <time>2010-01-01T01:30:30Z</time>
      </trkpt>
      <trkpt lat="46.01927" lon="6.92017">
        <ele>1336.9</ele>
        <time>2010-01-01T01:30:31Z</time>
      </trkpt>
      <trkpt lat="46.01931" lon="6.92022">
        <ele>1336.8</ele>
        <time>2010-01-01T01:30:34Z</time>
      </trkpt>
      <trkpt lat="46.01934" lon="6.92025">
        <ele>1336.7</ele>
        <time>2010-01-01T01:30:35Z</time>
      </trkpt>
      <trkpt lat="46.01937" lon="6.9203">
        <ele>1336</ele>
        <time>2010-01-01T01:30:37Z</time>
      </trkpt>
      <trkpt lat="46.01943" lon="6.92034">
        <ele>1336.3</ele>
        <time>2010-01-01T01:30:40Z</time>
      </trkpt>
      <trkpt lat="46.01947" lon="6.92038">
        <ele>1336.3</ele>
        <time>2010-01-01T01:30:42Z</time>
      </trkpt>
      <trkpt lat="46.01953" lon="6.92039">
        <ele>1336.1</ele>
        <time>2010-01-01T01:30:44Z</time>
      </trkpt>
      <trkpt lat="46.01958" lon="6.9204">
        <ele>1333</ele>
        <time>2010-01-01T01:30:46Z</time>
      </trkpt>
      <trkpt lat="46.01962" lon="6.92042">
        <ele>1335.9</ele>
        <time>2010-01-01T01:30:48Z</time>
      </trkpt>
      <trkpt lat="46.01966" lon="6.92042">
        <ele>1335.7</ele>
        <time>2010-01-01T01:30:49Z</time>
      </trkpt>
      <trkpt lat="46.01974" lon="6.92043">
        <ele>1335.4</ele>
        <time>2010-01-01T01:30:52Z</time>
      </trkpt>
      <trkpt lat="46.01977" lon="6.92044">
        <ele>1333</ele>
        <time>2010-01-01T01:30:54Z</time>
      </trkpt>
      <trkpt lat="46.01983" lon="6.92049">
        <ele>1334.7</ele>
        <time>2010-01-01T01:30:56Z</time>
      </trkpt>
      <trkpt lat="46.01987" lon="6.92055">
        <ele>1334.4</ele>
        <time>2010-01-01T01:30:59Z</time>
      </trkpt>
      <trkpt lat="46.01991" lon="6.92058">
        <ele>1334</ele>
        <time>2010-01-01T01:31:01Z</time>
      </trkpt>
      <trkpt lat="46.01996" lon="6.92062">
        <ele>1332</ele>
        <time>2010-01-01T01:31:03Z</time>
      </trkpt>
      <trkpt lat="46.02001" lon="6.92066">
        <ele>1333.3</ele>
        <time>2010-01-01T01:31:05Z</time>
      </trkpt>
      <trkpt lat="46.02006" lon="6.92072">
        <ele>1333</ele>
        <time>2010-01-01T01:31:08Z</time>
      </trkpt>
      <trkpt lat="46.0201" lon="6.9208">
        <ele>1331.5</ele>
        <time>2010-01-01T01:31:11Z</time>
      </trkpt>
      <trkpt lat="46.02013" lon="6.92084">
        <ele>1332.6</ele>
        <time>2010-01-01T01:31:12Z</time>
      </trkpt>
      <trkpt lat="46.02018" lon="6.92089">
        <ele>1332.2</ele>
        <time>2010-01-01T01:31:15Z</time>
      </trkpt>
      <trkpt lat="46.02023" lon="6.92094">
        <ele>1331.8</ele>
        <time>2010-01-01T01:31:17Z</time>
      </trkpt>
      <trkpt lat="46.02027" lon="6.92096">
        <ele>1331</ele>
        <time>2010-01-01T01:31:19Z</time>
      </trkpt>
      <trkpt lat="46.02031" lon="6.92102">
        <ele>1331.4</ele>
        <time>2010-01-01T01:31:21Z</time>
      </trkpt>
      <trkpt lat="46.02034" lon="6.92109">
        <ele>1331.3</ele>
        <time>2010-01-01T01:31:23Z</time>
      </trkpt>
      <trkpt lat="46.02033" lon="6.92115">
        <ele>1331.4</ele>
        <time>2010-01-01T01:31:25Z</time>
      </trkpt>
      <trkpt lat="46.0203" lon="6.92122">
        <ele>1331</ele>
        <time>2010-01-01T01:31:27Z</time>
      </trkpt>
      <trkpt lat="46.02027" lon="6.92128">
        <ele>1332.1</ele>
        <time>2010-01-01T01:31:29Z</time>
      </trkpt>
      <trkpt lat="46.02023" lon="6.92134">
        <ele>1332.3</ele>
        <time>2010-01-01T01:31:32Z</time>
      </trkpt>
      <trkpt lat="46.02018" lon="6.92142">
        <ele>1332.7</ele>
        <time>2010-01-01T01:31:35Z</time>
      </trkpt>
      <trkpt lat="46.02015" lon="6.92149">
        <ele>1331</ele>
        <time>2010-01-01T01:31:37Z</time>
      </trkpt>
      <trkpt lat="46.02011" lon="6.92156">
        <ele>1333.2</ele>
        <time>2010-01-01T01:31:39Z</time>
      </trkpt>
      <trkpt lat="46.02006" lon="6.92163">
        <ele>1333.6</ele>
        <time>2010-01-01T01:31:42Z</time>
      </trkpt>
      <trkpt lat="46.02003" lon="6.92167">
        <ele>1333.8</ele>
        <time>2010-01-01T01:31:44Z</time>
      </trkpt>
      <trkpt lat="46.02" lon="6.92172">
        <ele>1332</ele>
        <time>2010-01-01T01:31:46Z</time>
      </trkpt>
      <trkpt lat="46.01995" lon="6.92178">
        <ele>1334.8</ele>
        <time>2010-01-01T01:31:48Z</time>
      </trkpt>
      <trkpt lat="46.01991" lon="6.92184">
        <ele>1335.5</ele>
        <time>2010-01-01T01:31:51Z</time>
      </trkpt>
      <trkpt lat="46.01989" lon="6.9219">
        <ele>1336</ele>
        <time>2010-01-01T01:31:53Z</time>
      </trkpt>
      <trkpt lat="46.0197" lon="6.92195">
        <ele>1336</ele>
        <time>2010-01-01T01:32:00Z</time>
      </trkpt>
      <trkpt lat="46.0197" lon="6.92196">
        <ele>1338.4</ele>
        <time>2010-01-01T01:32:01Z</time>
      </trkpt>
      <trkpt lat="46.01971" lon="6.92195">
        <ele>1338.2</ele>
        <time>2010-01-01T01:32:01Z</time>
      </trkpt>
      <trkpt lat="46.01967" lon="6.92204">
        <ele>1339.3</ele>
        <time>2010-01-01T01:32:04Z</time>
      </trkpt>
      <trkpt lat="46.01978" lon="6.92233">
        <ele>1338</ele>
        <time>2010-01-01T01:32:13Z</time>
      </trkpt>
      <trkpt lat="46.01985" lon="6.92271">
        <ele>1340</ele>
        <time>2010-01-01T01:32:24Z</time>
      </trkpt>
      <trkpt lat="46.01993" lon="6.92326">
        <ele>1349</ele>
        <time>2010-01-01T01:32:40Z</time>
      </trkpt>
      <trkpt lat="46.01955" lon="6.92329">
        <ele>1353</ele>
        <time>2010-01-01T01:32:55Z</time>
      </trkpt>
      <trkpt lat="46.01928" lon="6.92326">
        <ele>1369</ele>
        <time>2010-01-01T01:33:06Z</time>
      </trkpt>
      <trkpt lat="46.01912" lon="6.92338">
        <ele>1371.4</ele>
        <time>2010-01-01T01:33:13Z</time>
      </trkpt>
      <trkpt lat="46.01912" lon="6.92365">
        <ele>1378</ele>
        <time>2010-01-01T01:33:21Z</time>
      </trkpt>
      <trkpt lat="46.01907" lon="6.92383">
        <ele>1384.6</ele>
        <time>2010-01-01T01:33:26Z</time>
      </trkpt>
      <trkpt lat="46.01886" lon="6.92413">
        <ele>1384</ele>
        <time>2010-01-01T01:33:38Z</time>
      </trkpt>
      <trkpt lat="46.01882" lon="6.92442">
        <ele>1404</ele>
        <time>2010-01-01T01:33:46Z</time>
      </trkpt>
      <trkpt lat="46.01896" lon="6.92465">
        <ele>1410</ele>
        <time>2010-01-01T01:33:54Z</time>
      </trkpt>
      <trkpt lat="46.01878" lon="6.92509">
        <ele>1415</ele>
        <time>2010-01-01T01:34:09Z</time>
      </trkpt>
      <trkpt lat="46.01881" lon="6.92548">
        <ele>1421</ele>
        <time>2010-01-01T01:34:20Z</time>
      </trkpt>
      <trkpt lat="46.01897" lon="6.92579">
        <ele>1433</ele>
        <time>2010-01-01T01:34:30Z</time>
      </trkpt>
      <trkpt lat="46.01918" lon="6.9262">
        <ele>1439</ele>
        <time>2010-01-01T01:34:44Z</time>
      </trkpt>
      <trkpt lat="46.0194" lon="6.92654">
        <ele>1440</ele>
        <time>2010-01-01T01:34:57Z</time>
      </trkpt>
      <trkpt lat="46.01961" lon="6.92687">
        <ele>1450</ele>
        <time>2010-01-01T01:35:10Z</time>
      </trkpt>
      <trkpt lat="46.01986" lon="6.92726">
        <ele>1453</ele>
        <time>2010-01-01T01:35:25Z</time>
      </trkpt>
      <trkpt lat="46.02019" lon="6.92763">
        <ele>1455.5</ele>
        <time>2010-01-01T01:35:41Z</time>
      </trkpt>
      <trkpt lat="46.02035" lon="6.92804">
        <ele>1458</ele>
        <time>2010-01-01T01:35:54Z</time>
      </trkpt>
      <trkpt lat="46.02055" lon="6.92828">
        <ele>1477</ele>
        <time>2010-01-01T01:36:05Z</time>
      </trkpt>
      <trkpt lat="46.02079" lon="6.92857">
        <ele>1480</ele>
        <time>2010-01-01T01:36:17Z</time>
      </trkpt>
      <trkpt lat="46.02095" lon="6.92886">
        <ele>1481</ele>
        <time>2010-01-01T01:36:28Z</time>
      </trkpt>
      <trkpt lat="46.02114" lon="6.9292">
        <ele>1492</ele>
        <time>2010-01-01T01:36:40Z</time>
      </trkpt>
      <trkpt lat="46.02133" lon="6.9295">
        <ele>1494</ele>
        <time>2010-01-01T01:36:51Z</time>
      </trkpt>
      <trkpt lat="46.02147" lon="6.92974">
        <ele>1498</ele>
        <time>2010-01-01T01:37:00Z</time>
      </trkpt>
      <trkpt lat="46.0216" lon="6.92992">
        <ele>1525</ele>
        <time>2010-01-01T01:37:07Z</time>
      </trkpt>
      <trkpt lat="46.02126" lon="6.9298">
        <ele>1511</ele>
        <time>2010-01-01T01:37:21Z</time>
      </trkpt>
      <trkpt lat="46.02092" lon="6.92968">
        <ele>1511</ele>
        <time>2010-01-01T01:37:35Z</time>
      </trkpt>
      <trkpt lat="46.02058" lon="6.92957">
        <ele>1518.5</ele>
        <time>2010-01-01T01:37:49Z</time>
      </trkpt>
      <trkpt lat="46.02021" lon="6.92944">
        <ele>1526</ele>
        <time>2010-01-01T01:38:04Z</time>
      </trkpt>
      <trkpt lat="46.02047" lon="6.92986">
        <ele>1535</ele>
        <time>2010-01-01T01:38:20Z</time>
      </trkpt>
      <trkpt lat="46.02072" lon="6.93027">
        <ele>1540</ele>
        <time>2010-01-01T01:38:35Z</time>
      </trkpt>
      <trkpt lat="46.02091" lon="6.93061">
        <ele>1562</ele>
        <time>2010-01-01T01:38:47Z</time>
      </trkpt>
      <trkpt lat="46.02108" lon="6.93091">
        <ele>1578</ele>
        <time>2010-01-01T01:38:58Z</time>
      </trkpt>
      <trkpt lat="46.02124" lon="6.9311">
        <ele>1582</ele>
        <time>2010-01-01T01:39:06Z</time>
      </trkpt>
      <trkpt lat="46.02142" lon="6.93139">
        <ele>1596</ele>
        <time>2010-01-01T01:39:17Z</time>
      </trkpt>
      <trkpt lat="46.02167" lon="6.9318">
        <ele>1598</ele>
        <time>2010-01-01T01:39:32Z</time>
      </trkpt>
      <trkpt lat="46.02189" lon="6.93225">
        <ele>1598</ele>
        <time>2010-01-01T01:39:48Z</time>
      </trkpt>
      <trkpt lat="46.02212" lon="6.93244">
        <ele>1615</ele>
        <time>2010-01-01T01:39:58Z</time>
      </trkpt>
      <trkpt lat="46.02239" lon="6.93269">
        <ele>1622</ele>
        <time>2010-01-01T01:40:11Z</time>
      </trkpt>
      <trkpt lat="46.02261" lon="6.93286">
        <ele>1631</ele>
        <time>2010-01-01T01:40:21Z</time>
      </trkpt>
      <trkpt lat="46.02291" lon="6.93328">
        <ele>1631</ele>
        <time>2010-01-01T01:40:38Z</time>
      </trkpt>
      <trkpt lat="46.02316" lon="6.93335">
        <ele>1645.5</ele>
        <time>2010-01-01T01:40:48Z</time>
      </trkpt>
      <trkpt lat="46.02348" lon="6.93343">
        <ele>1648.7</ele>
        <time>2010-01-01T01:41:01Z</time>
      </trkpt>
      <trkpt lat="46.02329" lon="6.93369">
        <ele>1652</ele>
        <time>2010-01-01T01:41:11Z</time>
      </trkpt>
      <trkpt lat="46.02348" lon="6.93373">
        <ele>1661</ele>
        <time>2010-01-01T01:41:19Z</time>
      </trkpt>
      <trkpt lat="46.02368" lon="6.93383">
        <ele>1670</ele>
        <time>2010-01-01T01:41:28Z</time>
      </trkpt>
      <trkpt lat="46.02385" lon="6.93412">
        <ele>1683</ele>
        <time>2010-01-01T01:41:38Z</time>
      </trkpt>
      <trkpt lat="46.02391" lon="6.93437">
        <ele>1699.2</ele>
        <time>2010-01-01T01:41:45Z</time>
      </trkpt>
      <trkpt lat="46.02404" lon="6.93459">
        <ele>1687</ele>
        <time>2010-01-01T01:41:53Z</time>
      </trkpt>
      <trkpt lat="46.02404" lon="6.93519">
        <ele>1690</ele>
        <time>2010-01-01T01:42:10Z</time>
      </trkpt>
      <trkpt lat="46.02422" lon="6.93557">
        <ele>1712</ele>
        <time>2010-01-01T01:42:23Z</time>
      </trkpt>
      <trkpt lat="46.02439" lon="6.93591">
        <ele>1713</ele>
        <time>2010-01-01T01:42:35Z</time>
      </trkpt>
      <trkpt lat="46.02455" lon="6.93631">
        <ele>1714</ele>
        <time>2010-01-01T01:42:47Z</time>
      </trkpt>
      <trkpt lat="46.02467" lon="6.93681">
        <ele>1724.5</ele>
        <time>2010-01-01T01:43:02Z</time>
      </trkpt>
      <trkpt lat="46.02491" lon="6.93726">
        <ele>1724.2</ele>
        <time>2010-01-01T01:43:18Z</time>
      </trkpt>
      <trkpt lat="46.02502" lon="6.9378">
        <ele>1732.1</ele>
        <time>2010-01-01T01:43:34Z</time>
      </trkpt>
      <trkpt lat="46.02519" lon="6.93822">
        <ele>1740</ele>
        <time>2010-01-01T01:43:47Z</time>
      </trkpt>
      <trkpt lat="46.02529" lon="6.93854">
        <ele>1740</ele>
        <time>2010-01-01T01:43:57Z</time>
      </trkpt>
      <trkpt lat="46.0254" lon="6.9389">
        <ele>1752</ele>
        <time>2010-01-01T01:44:08Z</time>
      </trkpt>
      <trkpt lat="46.02568" lon="6.93928">
        <ele>1757</ele>
        <time>2010-01-01T01:44:23Z</time>
      </trkpt>
      <trkpt lat="46.02577" lon="6.93962">
        <ele>1762</ele>
        <time>2010-01-01T01:44:33Z</time>
      </trkpt>
      <trkpt lat="46.02599" lon="6.93983">
        <ele>1764.5</ele>
        <time>2010-01-01T01:44:44Z</time>
      </trkpt>
      <trkpt lat="46.02623" lon="6.93991">
        <ele>1767</ele>
        <time>2010-01-01T01:44:54Z</time>
      </trkpt>
      <trkpt lat="46.02651" lon="6.94">
        <ele>1771</ele>
        <time>2010-01-01T01:45:05Z</time>
      </trkpt>
      <trkpt lat="46.0267" lon="6.94025">
        <ele>1775</ele>
        <time>2010-01-01T01:45:15Z</time>
      </trkpt>
      <trkpt lat="46.02695" lon="6.94057">
        <ele>1783</ele>
        <time>2010-01-01T01:45:29Z</time>
      </trkpt>
      <trkpt lat="46.02724" lon="6.94083">
        <ele>1791</ele>
        <time>2010-01-01T01:45:43Z</time>
      </trkpt>
      <trkpt lat="46.02749" lon="6.94095">
        <ele>1791</ele>
        <time>2010-01-01T01:45:53Z</time>
      </trkpt>
      <trkpt lat="46.02779" lon="6.94109">
        <ele>1791</ele>
        <time>2010-01-01T01:46:06Z</time>
      </trkpt>
      <trkpt lat="46.02808" lon="6.94117">
        <ele>1790</ele>
        <time>2010-01-01T01:46:18Z</time>
      </trkpt>
      <trkpt lat="46.02832" lon="6.9414">
        <ele>1791.5</ele>
        <time>2010-01-01T01:46:29Z</time>
      </trkpt>
      <trkpt lat="46.02869" lon="6.94177">
        <ele>1793</ele>
        <time>2010-01-01T01:46:47Z</time>
      </trkpt>
      <trkpt lat="46.02894" lon="6.94209">
        <ele>1797</ele>
        <time>2010-01-01T01:47:00Z</time>
      </trkpt>
      <trkpt lat="46.02904" lon="6.94241">
        <ele>1804</ele>
        <time>2010-01-01T01:47:10Z</time>
      </trkpt>
      <trkpt lat="46.02923" lon="6.94269">
        <ele>1811</ele>
        <time>2010-01-01T01:47:21Z</time>
      </trkpt>
      <trkpt lat="46.02952" lon="6.94311">
        <ele>1811</ele>
        <time>2010-01-01T01:47:38Z</time>
      </trkpt>
      <trkpt lat="46.02964" lon="6.94344">
        <ele>1811</ele>
        <time>2010-01-01T01:47:48Z</time>
      </trkpt>
      <trkpt lat="46.02988" lon="6.94371">
        <ele>1802</ele>
        <time>2010-01-01T01:48:00Z</time>
      </trkpt>
      <trkpt lat="46.03008" lon="6.94393">
        <ele>1801.5</ele>
        <time>2010-01-01T01:48:10Z</time>
      </trkpt>
      <trkpt lat="46.03031" lon="6.94418">
        <ele>1801</ele>
        <time>2010-01-01T01:48:22Z</time>
      </trkpt>
      <trkpt lat="46.0305" lon="6.94445">
        <ele>1796</ele>
        <time>2010-01-01T01:48:32Z</time>
      </trkpt>
      <trkpt lat="46.03079" lon="6.94483">
        <ele>1793</ele>
        <time>2010-01-01T01:48:48Z</time>
      </trkpt>
      <trkpt lat="46.031" lon="6.94495">
        <ele>1792</ele>
        <time>2010-01-01T01:48:57Z</time>
      </trkpt>
      <trkpt lat="46.03123" lon="6.94506">
        <ele>1792</ele>
        <time>2010-01-01T01:49:07Z</time>
      </trkpt>
      <trkpt lat="46.03159" lon="6.94528">
        <ele>1792</ele>
        <time>2010-01-01T01:49:23Z</time>
      </trkpt>
      <trkpt lat="46.03185" lon="6.94524">
        <ele>1789</ele>
        <time>2010-01-01T01:49:33Z</time>
      </trkpt>
      <trkpt lat="46.03215" lon="6.9452">
        <ele>1787</ele>
        <time>2010-01-01T01:49:45Z</time>
      </trkpt>
      <trkpt lat="46.0324" lon="6.94519">
        <ele>1786</ele>
        <time>2010-01-01T01:49:55Z</time>
      </trkpt>
      <trkpt lat="46.03269" lon="6.94517">
        <ele>1785</ele>
        <time>2010-01-01T01:50:07Z</time>
      </trkpt>
      <trkpt lat="46.03299" lon="6.94532">
        <ele>1783</ele>
        <time>2010-01-01T01:50:19Z</time>
      </trkpt>
      <trkpt lat="46.03337" lon="6.94551">
        <ele>1784.5</ele>
        <time>2010-01-01T01:50:35Z</time>
      </trkpt>
      <trkpt lat="46.03382" lon="6.94559">
        <ele>1781.7</ele>
        <time>2010-01-01T01:50:54Z</time>
      </trkpt>
      <trkpt lat="46.03402" lon="6.94568">
        <ele>1779</ele>
        <time>2010-01-01T01:51:02Z</time>
      </trkpt>
      <trkpt lat="46.0342" lon="6.94587">
        <ele>1779</ele>
        <time>2010-01-01T01:51:11Z</time>
      </trkpt>
      <trkpt lat="46.03431" lon="6.94613">
        <ele>1785</ele>
        <time>2010-01-01T01:51:19Z</time>
      </trkpt>
      <trkpt lat="46.0346" lon="6.94641">
        <ele>1795</ele>
        <time>2010-01-01T01:51:33Z</time>
      </trkpt>
      <trkpt lat="46.03487" lon="6.94673">
        <ele>1805</ele>
        <time>2010-01-01T01:51:47Z</time>
      </trkpt>
      <trkpt lat="46.03519" lon="6.94697">
        <ele>1800</ele>
        <time>2010-01-01T01:52:02Z</time>
      </trkpt>
      <trkpt lat="46.03536" lon="6.94718">
        <ele>1802</ele>
        <time>2010-01-01T01:52:11Z</time>
      </trkpt>
      <trkpt lat="46.03554" lon="6.94696">
        <ele>1788.5</ele>
        <time>2010-01-01T01:52:20Z</time>
      </trkpt>
      <trkpt lat="46.03565" lon="6.94703">
        <ele>1763.9</ele>
        <time>2010-01-01T01:52:25Z</time>
      </trkpt>
      <trkpt lat="46.03567" lon="6.94752">
        <ele>1789.7</ele>
        <time>2010-01-01T01:52:39Z</time>
      </trkpt>
      <trkpt lat="46.03592" lon="6.94762">
        <ele>1781.8</ele>
        <time>2010-01-01T01:52:49Z</time>
      </trkpt>
      <trkpt lat="46.03623" lon="6.94775">
        <ele>1774</ele>
        <time>2010-01-01T01:53:02Z</time>
      </trkpt>
      <trkpt lat="46.03651" lon="6.94813">
        <ele>1766</ele>
        <time>2010-01-01T01:53:17Z</time>
      </trkpt>
      <trkpt lat="46.03695" lon="6.94824">
        <ele>1765</ele>
        <time>2010-01-01T01:53:35Z</time>
      </trkpt>
      <trkpt lat="46.03725" lon="6.94841">
        <ele>1755</ele>
        <time>2010-01-01T01:53:48Z</time>
      </trkpt>
      <trkpt lat="46.03757" lon="6.9485">
        <ele>1746</ele>
        <time>2010-01-01T01:54:01Z</time>
      </trkpt>
      <trkpt lat="46.03789" lon="6.94859">
        <ele>1742</ele>
        <time>2010-01-01T01:54:14Z</time>
      </trkpt>
      <trkpt lat="46.03829" lon="6.94871">
        <ele>1733</ele>
        <time>2010-01-01T01:54:31Z</time>
      </trkpt>
      <trkpt lat="46.03852" lon="6.94867">
        <ele>1715</ele>
        <time>2010-01-01T01:54:40Z</time>
      </trkpt>
      <trkpt lat="46.03877" lon="6.94872">
        <ele>1708</ele>
        <time>2010-01-01T01:54:50Z</time>
      </trkpt>
      <trkpt lat="46.0391" lon="6.94878">
        <ele>1707.5</ele>
        <time>2010-01-01T01:55:03Z</time>
      </trkpt>
      <trkpt lat="46.03916" lon="6.94865">
        <ele>1710.5</ele>
        <time>2010-01-01T01:55:08Z</time>
      </trkpt>
      <trkpt lat="46.03904" lon="6.94838">
        <ele>1707</ele>
        <time>2010-01-01T01:55:17Z</time>
      </trkpt>
      <trkpt lat="46.03905" lon="6.94817">
        <ele>1704.7</ele>
        <time>2010-01-01T01:55:22Z</time>
      </trkpt>
      <trkpt lat="46.03894" lon="6.94788">
        <ele>1697</ele>
        <time>2010-01-01T01:55:32Z</time>
      </trkpt>
      <trkpt lat="46.03887" lon="6.94753">
        <ele>1694</ele>
        <time>2010-01-01T01:55:42Z</time>
      </trkpt>
      <trkpt lat="46.03872" lon="6.94724">
        <ele>1694</ele>
        <time>2010-01-01T01:55:52Z</time>
      </trkpt>
      <trkpt lat="46.03856" lon="6.94691">
        <ele>1694</ele>
        <time>2010-01-01T01:56:03Z</time>
      </trkpt>
      <trkpt lat="46.03843" lon="6.94666">
        <ele>1689</ele>
        <time>2010-01-01T01:56:12Z</time>
      </trkpt>
      <trkpt lat="46.0384" lon="6.9464">
        <ele>1686.8</ele>
        <time>2010-01-01T01:56:19Z</time>
      </trkpt>
      <trkpt lat="46.03814" lon="6.94615">
        <ele>1687</ele>
        <time>2010-01-01T01:56:31Z</time>
      </trkpt>
      <trkpt lat="46.03788" lon="6.94589">
        <ele>1679</ele>
        <time>2010-01-01T01:56:44Z</time>
      </trkpt>
      <trkpt lat="46.03758" lon="6.94561">
        <ele>1676</ele>
        <time>2010-01-01T01:56:58Z</time>
      </trkpt>
      <trkpt lat="46.03774" lon="6.94542">
        <ele>1672</ele>
        <time>2010-01-01T01:57:07Z</time>
      </trkpt>
      <trkpt lat="46.03806" lon="6.94559">
        <ele>1670</ele>
        <time>2010-01-01T01:57:20Z</time>
      </trkpt>
      <trkpt lat="46.03784" lon="6.94518">
        <ele>1668</ele>
        <time>2010-01-01T01:57:35Z</time>
      </trkpt>
      <trkpt lat="46.03752" lon="6.94475">
        <ele>1663</ele>
        <time>2010-01-01T01:57:52Z</time>
      </trkpt>
      <trkpt lat="46.03724" lon="6.9445">
        <ele>1642</ele>
        <time>2010-01-01T01:58:06Z</time>
      </trkpt>
      <trkpt lat="46.03695" lon="6.94426">
        <ele>1629</ele>
        <time>2010-01-01T01:58:19Z</time>
      </trkpt>
      <trkpt lat="46.03675" lon="6.94408">
        <ele>1626.5</ele>
        <time>2010-01-01T01:58:28Z</time>
      </trkpt>
      <trkpt lat="46.03654" lon="6.9439">
        <ele>1624</ele>
        <time>2010-01-01T01:58:38Z</time>
      </trkpt>
      <trkpt lat="46.03634" lon="6.94354">
        <ele>1609</ele>
        <time>2010-01-01T01:58:51Z</time>
      </trkpt>
      <trkpt lat="46.03614" lon="6.94319">
        <ele>1606</ele>
        <time>2010-01-01T01:59:04Z</time>
      </trkpt>
      <trkpt lat="46.03592" lon="6.9428">
        <ele>1599</ele>
        <time>2010-01-01T01:59:18Z</time>
      </trkpt>
      <trkpt lat="46.03571" lon="6.94244">
        <ele>1592</ele>
        <time>2010-01-01T01:59:31Z</time>
      </trkpt>
      <trkpt lat="46.03549" lon="6.94209">
        <ele>1580</ele>
        <time>2010-01-01T01:59:44Z</time>
      </trkpt>
      <trkpt lat="46.03521" lon="6.94161">
        <ele>1579</ele>
        <time>2010-01-01T02:00:01Z</time>
      </trkpt>
      <trkpt lat="46.03544" lon="6.94157">
        <ele>1558</ele>
        <time>2010-01-01T02:00:10Z</time>
      </trkpt>
      <trkpt lat="46.03569" lon="6.94152">
        <ele>1549</ele>
        <time>2010-01-01T02:00:21Z</time>
      </trkpt>
      <trkpt lat="46.03541" lon="6.94106">
        <ele>1532</ele>
        <time>2010-01-01T02:00:38Z</time>
      </trkpt>
      <trkpt lat="46.03513" lon="6.94082">
        <ele>1526</ele>
        <time>2010-01-01T02:00:51Z</time>
      </trkpt>
      <trkpt lat="46.03486" lon="6.94057">
        <ele>1522</ele>
        <time>2010-01-01T02:01:03Z</time>
      </trkpt>
      <trkpt lat="46.03452" lon="6.94028">
        <ele>1517</ele>
        <time>2010-01-01T02:01:19Z</time>
      </trkpt>
      <trkpt lat="46.03434" lon="6.9399">
        <ele>1510</ele>
        <time>2010-01-01T02:01:32Z</time>
      </trkpt>
      <trkpt lat="46.03408" lon="6.9396">
        <ele>1496</ele>
        <time>2010-01-01T02:01:45Z</time>
      </trkpt>
      <trkpt lat="46.03381" lon="6.9393">
        <ele>1486</ele>
        <time>2010-01-01T02:01:59Z</time>
      </trkpt>
      <trkpt lat="46.03361" lon="6.93908">
        <ele>1476.5</ele>
        <time>2010-01-01T02:02:09Z</time>
      </trkpt>
      <trkpt lat="46.03339" lon="6.93883">
        <ele>1467</ele>
        <time>2010-01-01T02:02:20Z</time>
      </trkpt>
      <trkpt lat="46.03309" lon="6.93849">
        <ele>1454</ele>
        <time>2010-01-01T02:02:36Z</time>
      </trkpt>
      <trkpt lat="46.03279" lon="6.93815">
        <ele>1442</ele>
        <time>2010-01-01T02:02:51Z</time>
      </trkpt>
      <trkpt lat="46.03248" lon="6.93781">
        <ele>1411</ele>
        <time>2010-01-01T02:03:06Z</time>
      </trkpt>
      <trkpt lat="46.03218" lon="6.93747">
        <ele>1400</ele>
        <time>2010-01-01T02:03:22Z</time>
      </trkpt>
      <trkpt lat="46.03196" lon="6.93724">
        <ele>1392</ele>
        <time>2010-01-01T02:03:33Z</time>
      </trkpt>
      <trkpt lat="46.03167" lon="6.93692">
        <ele>1384</ele>
        <time>2010-01-01T02:03:47Z</time>
      </trkpt>
      <trkpt lat="46.0315" lon="6.93658">
        <ele>1376</ele>
        <time>2010-01-01T02:03:59Z</time>
      </trkpt>
      <trkpt lat="46.03124" lon="6.93608">
        <ele>1366</ele>
        <time>2010-01-01T02:04:16Z</time>
      </trkpt>
      <trkpt lat="46.03089" lon="6.93596">
        <ele>1358</ele>
        <time>2010-01-01T02:04:31Z</time>
      </trkpt>
      <trkpt lat="46.03076" lon="6.93563">
        <ele>1350</ele>
        <time>2010-01-01T02:04:41Z</time>
      </trkpt>
      <trkpt lat="46.03059" lon="6.93525">
        <ele>1345</ele>
        <time>2010-01-01T02:04:54Z</time>
      </trkpt>
      <trkpt lat="46.03065" lon="6.93469">
        <ele>1340</ele>
        <time>2010-01-01T02:05:09Z</time>
      </trkpt>
      <trkpt lat="46.0309" lon="6.93424">
        <ele>1322</ele>
        <time>2010-01-01T02:05:26Z</time>
      </trkpt>
      <trkpt lat="46.03102" lon="6.93436">
        <ele>1313.7</ele>
        <time>2010-01-01T02:05:31Z</time>
      </trkpt>
      <trkpt lat="46.0313" lon="6.93401">
        <ele>1301</ele>
        <time>2010-01-01T02:05:46Z</time>
      </trkpt>
      <trkpt lat="46.03134" lon="6.93415">
        <ele>1297.1</ele>
        <time>2010-01-01T02:05:50Z</time>
      </trkpt>
      <trkpt lat="46.03145" lon="6.93399">
        <ele>1280</ele>
        <time>2010-01-01T02:05:57Z</time>
      </trkpt>
      <trkpt lat="46.03169" lon="6.93398">
        <ele>1280</ele>
        <time>2010-01-01T02:06:06Z</time>
      </trkpt>
      <trkpt lat="46.03193" lon="6.93397">
        <ele>1272</ele>
        <time>2010-01-01T02:06:16Z</time>
      </trkpt>
      <trkpt lat="46.0322" lon="6.93364">
        <ele>1267</ele>
        <time>2010-01-01T02:06:30Z</time>
      </trkpt>
      <trkpt lat="46.03203" lon="6.93344">
        <ele>1265.5</ele>
        <time>2010-01-01T02:06:39Z</time>
      </trkpt>
      <trkpt lat="46.03182" lon="6.93295">
        <ele>1264</ele>
        <time>2010-01-01T02:06:55Z</time>
      </trkpt>
      <trkpt lat="46.03185" lon="6.93289">
        <ele>1263.1</ele>
        <time>2010-01-01T02:06:57Z</time>
      </trkpt>
      <trkpt lat="46.03184" lon="6.9329">
        <ele>1263.2</ele>
        <time>2010-01-01T02:06:57Z</time>
      </trkpt>
      <trkpt lat="46.03185" lon="6.93284">
        <ele>1262.9</ele>
        <time>2010-01-01T02:06:59Z</time>
      </trkpt>
      <trkpt lat="46.03191" lon="6.93274">
        <ele>1264</ele>
        <time>2010-01-01T02:07:03Z</time>
      </trkpt>
      <trkpt lat="46.03195" lon="6.93265">
        <ele>1262</ele>
        <time>2010-01-01T02:07:06Z</time>
      </trkpt>
      <trkpt lat="46.03208" lon="6.93244">
        <ele>1264</ele>
        <time>2010-01-01T02:07:14Z</time>
      </trkpt>
      <trkpt lat="46.03224" lon="6.93217">
        <ele>1265</ele>
        <time>2010-01-01T02:07:23Z</time>
      </trkpt>
      <trkpt lat="46.03238" lon="6.93232">
        <ele>1260.1</ele>
        <time>2010-01-01T02:07:30Z</time>
      </trkpt>
      <trkpt lat="46.03245" lon="6.93242">
        <ele>1265</ele>
        <time>2010-01-01T02:07:34Z</time>
      </trkpt>
      <trkpt lat="46.03246" lon="6.93242">
        <ele>1259.9</ele>
        <time>2010-01-01T02:07:35Z</time>
      </trkpt>
    </trkseg>
  </trk>
</gpx>